<?xml version="1.0" encoding="UTF-8" standalone="no" ?>
<gpx xmlns="http://www.topografix.com/GPX/1/1" xmlns:xsi="http://www.w3.org/2001/XMLSchema-instance" xsi:schemaLocation="http://www.topografix.com/GPX/1/1 http://www.topografix.com/GPX/1/1/gpx.xsd" version="1.1" creator="VisuGPX - https://www.visugpx.com">
  <metadata>
    <name>la Ramade 2011</name>
    <desc><![CDATA[Première édition d\'un raid superbe organisé par le club Capcir Aventure VTT]]></desc>
  </metadata>
  <trk>
    <name><![CDATA[La Ramade]]></name>
    <cmt><![CDATA[D+: 1800m

Chuttes: 0
Crevaison: 0 ...après l'arrivée, pneu vide en arrivant à Bompas
Physique: Très bien
Mécanique: ... de grosses suites de Comminges: 
- Pedale gauche qui cloque 
- Chaine bruyante 
- Cliquetis dans le pedalier
Cyclistes: ...début: Pascal et Laurent puis seul ...

_____________________________________

Magnifique première edition: Réussite Personelle au niveau de la performance.
Très bonne gestion aidée par la connaissance d'une partie du terrain (Se lacher un peu plus, aide àse dépasser ... sur le final, pas le choix)
Bons sentiers sur le départ: 55kms de ludico-technique, et 25kms de difficultés pure sous forme de D+ sur piste.

Une date à reserver pour 2012.

80 KM
 
N°
 Nom
 Prénom
 Heure de départ
 Heure d'arrivée
 Temps
 Classement
 N° lot tombola
 
221
 EPILLY
 BRICE
 8:52
 13:54
 5:02
 1
  
 
156
 MARTINEZ
 SERGI
 9:06
 14:10
 5:04
 2
 19
 
6
 FERNANDES
 MIGUEL
 7:45
 12:52
 5:07
 3
  
 
217
 CAIXAS
 JAUME
 8:41
 13:49
 5:08
 4
  
 
216
 MASMITJA
 PERE
 8:57
 14:07
 5:10
 5
  
 
193
 SANCHEZ PEREZ
 ANDREU
 8:15
 13:31
 5:16
 6
  
 
44
 BLANC
 FREDERIC
 8:28
 13:47
 5:19
 7
 4
 
100
 SOLA
 FREDERIC
 7:32
 12:58
 5:26
 8
  
 
7
 LORENZO ZAPATA
 MIGUEL
 7:47
 13:26
 5:39
 9
  
 
61
 DELPRAT
 JEAN JACQUES
 7:41
 13:23
 5:42
 10
  
 
60
 NAGY
 GABOR
 7:41
 13:31
 5:50
 11
  
 
124
 FERRE
 NICOLAS
 8:15
 14:12
 5:57
 12
  
 
132
 BOURIE
 LAURENT
 8:15
 14:12
 5:57
 13
  
 
102
 TREILLET
 LUC
 7:32
 13:30
 5:58
 14
  
 
94
 ROQUES
 RENE
 7:30
 13:37
 6:07
 15
  
 
95
 ROQUES
 REGIS
 7:30
 13:37
 6:07
 16
  
 
103
 RAYNAUD
 PATRICK
 7:32
 13:39
 6:07
 17
 13
 
27
 PENDRY
 ANGELA
 8:20
 14:31
 6:11
 18
 11
 
188
 POUS
 JEAN MARIE
 8:12
 14:26
 6:14
 19
  
 
8
 MIQUEL
 CHRISTOPHE
 7:41
 13:59
 6:18
 20
  
 
114
 CASTELLS
 XAVIER
 7:52
 14:25
 6:33
 21
  
 
22
 POUYTES
 DANIEL
 7:46
 14:26
 6:40
 22
  
 
18
 SALSA
 CHRISTIAN
 7:46
 14:27
 6:41
 23
 20
 
66
 BROS
 JEAN PAUL
 7:47
 14:32
 6:45
 24
  
 
115
 VIDAL
 IGNASI
 7:52
 14:38
 6:46
 25
  
 
23
 BENS
 JEAN MARC
 7:32
 14:21
 6:49
 26
  
 
181
 TUSCH
 FRANCK
 8:19
 15:16
 6:57
 27
  
 
180
 PUIG
 DOMINIQUE
 8:18
 15:16
 6:58
 28
  
 
96
 CABOT
 PIERRE
 7:30
 14:30
 7:00
 29
  
 
97
 REY
 JEAN-CHRISTOPHE
 7:30
 14:40
 7:10
 30
  
 
184
 PEREZ
 PHILIPPE
 8:00
 15:10
 7:10
 31
 14
 
183
 ROCHAS
 PHILIPPE
 8:01
 15:12
 7:10
 32
  
 
185
 ROUSSELET
 CECILE
 8:01
 15:12
 7:11
 33
  
 
83
 LABESSAN
 FRANCOIS
 7:59
 15:10
 7:11
 34
  
 
168
 DE GUIBERT
 PIERRE
 7:59
 15:10
 7:11
 35
  
 
179
 CARPENTIER
 CYRIL
 7:59
 15:10
 7:11
 36
  
 
169
 RAYNAL
 JEAN PIERRE
 7:59
 15:12
 7:13
 37
 15
 
31
 GATOUNES
 LAURENT
 7:35
 14:50
 7:15
 38
  
 
32
 MAS
 PASCAL
 7:35
 14:50
 7:15
 39
  
 
48
 PLA
 CHRISTOPHE
 7:34
 14:50
 7:15
 40
  
 
29
 VICO
 GEORGES
 7:34
 14:54
 7:20
 41
  
 
172
 PASQUET
 JEAN STEPH
 8:01
 15:24
 7:23
 42
  
 
196
 DEVESA
 NICOLAS
 8:19
 15:42
 7:23
 43
  
 
195
 ROMERO
 DANIEL
 8:19
 15:50
 7:31
 44
  
 
2
 BRETON
 BORIS
 8:01
 15:47
 7:46
 45
  
 
3
 MAURY
 RUDY
 8:01
 15:47
 7:46
 46
  
 
133
 GUIL
 CHRISTOPHE
 7:33
 15:23
 7:50
 47
  
 
19
 PUJALA
 PIERRE
 7:32
 15:23
 7:51
 48
  
 
134
 DUBORT
 CHRISTOPHE
 7:33
 15:24
 7:51
 49
  
 
62
 MORGAN WEED
 MARTIN
 8:02
 15:56
 7:54
 50
  
 
9
 TICHADOU
 JEAN MICHEL
 7:32
 15:31
 7:58
 51
  
 
10
 VANDERMOUTEN
 PASCAL
 7:33
 15:32
 7:59
 52
  
 
186
 COTS
 FRANCESC
 8:02
 16:03
 8:01
 53
  
 
11
 FERREN
 PHILIPPE
 7:33
 15:49
 8:16
 54
  
 
50
 NEMPONT
 JEROME
 7:16
 15:32
 8:16
 55
 16
 
24
 ESTEVES 
 FREDERIC
 7:32
 15:53
 8:21
 56
  
 
137
 REIXACHS
 JORDI
 7:48
 16:29
 8:41
 57
  
 
138
 ORGUE BALCELLS
 JAUME
 7:48
 16:29
 8:41
 58
  
 
159
 LOOS
 JEROME
 7:48
 16:29
 8:41
 59
  
 
170
 LOPEZ
 ALBERT
 7:47
 16:56
 9:09
 60
 17
 
171
 TARAVILLA
 MARC
 7:47
 16:56
 9:09
 61
 18
 
25
 RICARD
 CIRERA CLAVEL
 7:58
 AB
 -
  
 11
 
164
 BROTTO
 VALERIE
 7:19
 AB
 -
  
 9
 
]]></cmt>
    <trkseg>
      <trkpt lat="42.54742" lon="2.11434">
        <ele>1719.0970458984</ele>
        <time>2011-09-11T05:42:57Z</time>
      </trkpt>
      <trkpt lat="42.54729" lon="2.11444">
        <ele>1718.4790039062</ele>
        <time>2011-09-11T05:43:01Z</time>
      </trkpt>
      <trkpt lat="42.54726" lon="2.11445">
        <ele>1718.7399902344</ele>
        <time>2011-09-11T05:43:02Z</time>
      </trkpt>
      <trkpt lat="42.54711" lon="2.11441">
        <ele>1718.7709960938</ele>
        <time>2011-09-11T05:43:06Z</time>
      </trkpt>
      <trkpt lat="42.54688" lon="2.11444">
        <ele>1718.4219970703</ele>
        <time>2011-09-11T05:43:11Z</time>
      </trkpt>
      <trkpt lat="42.54648" lon="2.11456">
        <ele>1717.6490478516</ele>
        <time>2011-09-11T05:43:19Z</time>
      </trkpt>
      <trkpt lat="42.54633" lon="2.1146">
        <ele>1717.4699707031</ele>
        <time>2011-09-11T05:43:22Z</time>
      </trkpt>
      <trkpt lat="42.54628" lon="2.11461">
        <ele>1717.41796875</ele>
        <time>2011-09-11T05:43:23Z</time>
      </trkpt>
      <trkpt lat="42.54623" lon="2.11463">
        <ele>1717.4150390625</ele>
        <time>2011-09-11T05:43:24Z</time>
      </trkpt>
      <trkpt lat="42.54618" lon="2.11464">
        <ele>1717.3719482422</ele>
        <time>2011-09-11T05:43:25Z</time>
      </trkpt>
      <trkpt lat="42.54613" lon="2.11465">
        <ele>1717.2960205078</ele>
        <time>2011-09-11T05:43:26Z</time>
      </trkpt>
      <trkpt lat="42.54608" lon="2.11467">
        <ele>1717.2409667969</ele>
        <time>2011-09-11T05:43:27Z</time>
      </trkpt>
      <trkpt lat="42.54603" lon="2.11468">
        <ele>1717.2810058594</ele>
        <time>2011-09-11T05:43:28Z</time>
      </trkpt>
      <trkpt lat="42.54572" lon="2.11478">
        <ele>1717.1040039062</ele>
        <time>2011-09-11T05:43:35Z</time>
      </trkpt>
      <trkpt lat="42.54549" lon="2.11481">
        <ele>1717.4539794922</ele>
        <time>2011-09-11T05:43:40Z</time>
      </trkpt>
      <trkpt lat="42.5453" lon="2.11487">
        <ele>1717.6700439453</ele>
        <time>2011-09-11T05:43:44Z</time>
      </trkpt>
      <trkpt lat="42.54507" lon="2.11494">
        <ele>1717.6920166016</ele>
        <time>2011-09-11T05:43:49Z</time>
      </trkpt>
      <trkpt lat="42.54494" lon="2.11499">
        <ele>1717.8830566406</ele>
        <time>2011-09-11T05:43:52Z</time>
      </trkpt>
      <trkpt lat="42.5449" lon="2.115">
        <ele>1717.9479980469</ele>
        <time>2011-09-11T05:43:53Z</time>
      </trkpt>
      <trkpt lat="42.54485" lon="2.11501">
        <ele>1717.9849853516</ele>
        <time>2011-09-11T05:43:54Z</time>
      </trkpt>
      <trkpt lat="42.54449" lon="2.1151">
        <ele>1718.8349609375</ele>
        <time>2011-09-11T05:44:02Z</time>
      </trkpt>
      <trkpt lat="42.54423" lon="2.11518">
        <ele>1719.8330078125</ele>
        <time>2011-09-11T05:44:09Z</time>
      </trkpt>
      <trkpt lat="42.54405" lon="2.11522">
        <ele>1720.7609863281</ele>
        <time>2011-09-11T05:44:15Z</time>
      </trkpt>
      <trkpt lat="42.544" lon="2.11522">
        <ele>1721.0560302734</ele>
        <time>2011-09-11T05:44:17Z</time>
      </trkpt>
      <trkpt lat="42.54393" lon="2.11524">
        <ele>1721.6619873047</ele>
        <time>2011-09-11T05:44:20Z</time>
      </trkpt>
      <trkpt lat="42.54387" lon="2.11526">
        <ele>1722.001953125</ele>
        <time>2011-09-11T05:44:22Z</time>
      </trkpt>
      <trkpt lat="42.54366" lon="2.11533">
        <ele>1723.9370117188</ele>
        <time>2011-09-11T05:44:30Z</time>
      </trkpt>
      <trkpt lat="42.54341" lon="2.11537">
        <ele>1725.2700195312</ele>
        <time>2011-09-11T05:44:39Z</time>
      </trkpt>
      <trkpt lat="42.54321" lon="2.11543">
        <ele>1726.0550537109</ele>
        <time>2011-09-11T05:44:46Z</time>
      </trkpt>
      <trkpt lat="42.543" lon="2.11551">
        <ele>1727.3349609375</ele>
        <time>2011-09-11T05:44:54Z</time>
      </trkpt>
      <trkpt lat="42.54283" lon="2.11555">
        <ele>1728.8010253906</ele>
        <time>2011-09-11T05:45:01Z</time>
      </trkpt>
      <trkpt lat="42.54272" lon="2.1156">
        <ele>1729.9019775391</ele>
        <time>2011-09-11T05:45:06Z</time>
      </trkpt>
      <trkpt lat="42.54256" lon="2.11564">
        <ele>1731.5689697266</ele>
        <time>2011-09-11T05:45:13Z</time>
      </trkpt>
      <trkpt lat="42.54235" lon="2.11571">
        <ele>1734.6739501953</ele>
        <time>2011-09-11T05:45:22Z</time>
      </trkpt>
      <trkpt lat="42.54222" lon="2.11575">
        <ele>1736.3809814453</ele>
        <time>2011-09-11T05:45:28Z</time>
      </trkpt>
      <trkpt lat="42.54221" lon="2.11575">
        <ele>1736.7640380859</ele>
        <time>2011-09-11T05:45:29Z</time>
      </trkpt>
      <trkpt lat="42.54205" lon="2.11568">
        <ele>1738.7629394531</ele>
        <time>2011-09-11T05:45:37Z</time>
      </trkpt>
      <trkpt lat="42.54188" lon="2.11563">
        <ele>1739.6040039062</ele>
        <time>2011-09-11T05:45:44Z</time>
      </trkpt>
      <trkpt lat="42.54168" lon="2.11562">
        <ele>1739.5789794922</ele>
        <time>2011-09-11T05:45:51Z</time>
      </trkpt>
      <trkpt lat="42.54153" lon="2.11561">
        <ele>1739.9239501953</ele>
        <time>2011-09-11T05:45:56Z</time>
      </trkpt>
      <trkpt lat="42.54128" lon="2.11559">
        <ele>1740.9899902344</ele>
        <time>2011-09-11T05:46:05Z</time>
      </trkpt>
      <trkpt lat="42.54104" lon="2.11557">
        <ele>1743.1450195312</ele>
        <time>2011-09-11T05:46:14Z</time>
      </trkpt>
      <trkpt lat="42.54085" lon="2.11561">
        <ele>1744.4000244141</ele>
        <time>2011-09-11T05:46:21Z</time>
      </trkpt>
      <trkpt lat="42.54071" lon="2.11567">
        <ele>1744.8809814453</ele>
        <time>2011-09-11T05:46:26Z</time>
      </trkpt>
      <trkpt lat="42.54055" lon="2.11571">
        <ele>1745.7669677734</ele>
        <time>2011-09-11T05:46:32Z</time>
      </trkpt>
      <trkpt lat="42.54039" lon="2.11577">
        <ele>1746.7259521484</ele>
        <time>2011-09-11T05:46:38Z</time>
      </trkpt>
      <trkpt lat="42.54021" lon="2.11585">
        <ele>1747.3480224609</ele>
        <time>2011-09-11T05:46:44Z</time>
      </trkpt>
      <trkpt lat="42.53996" lon="2.11598">
        <ele>1747.4040527344</ele>
        <time>2011-09-11T05:46:52Z</time>
      </trkpt>
      <trkpt lat="42.53962" lon="2.11611">
        <ele>1746.4169921875</ele>
        <time>2011-09-11T05:47:01Z</time>
      </trkpt>
      <trkpt lat="42.53958" lon="2.11613">
        <ele>1746.4840087891</ele>
        <time>2011-09-11T05:47:02Z</time>
      </trkpt>
      <trkpt lat="42.53948" lon="2.11614">
        <ele>1746.3409423828</ele>
        <time>2011-09-11T05:47:04Z</time>
      </trkpt>
      <trkpt lat="42.53935" lon="2.11617">
        <ele>1745.6650390625</ele>
        <time>2011-09-11T05:47:07Z</time>
      </trkpt>
      <trkpt lat="42.53902" lon="2.11619">
        <ele>1743.3940429688</ele>
        <time>2011-09-11T05:47:13Z</time>
      </trkpt>
      <trkpt lat="42.53888" lon="2.11614">
        <ele>1742.5119628906</ele>
        <time>2011-09-11T05:47:16Z</time>
      </trkpt>
      <trkpt lat="42.53869" lon="2.11615">
        <ele>1741.7879638672</ele>
        <time>2011-09-11T05:47:21Z</time>
      </trkpt>
      <trkpt lat="42.53865" lon="2.11616">
        <ele>1741.7840576172</ele>
        <time>2011-09-11T05:47:22Z</time>
      </trkpt>
      <trkpt lat="42.53841" lon="2.11618">
        <ele>1742.0159912109</ele>
        <time>2011-09-11T05:47:27Z</time>
      </trkpt>
      <trkpt lat="42.53814" lon="2.11611">
        <ele>1742.0340576172</ele>
        <time>2011-09-11T05:47:32Z</time>
      </trkpt>
      <trkpt lat="42.53779" lon="2.11614">
        <ele>1741.2039794922</ele>
        <time>2011-09-11T05:47:38Z</time>
      </trkpt>
      <trkpt lat="42.53761" lon="2.11623">
        <ele>1740.7619628906</ele>
        <time>2011-09-11T05:47:42Z</time>
      </trkpt>
      <trkpt lat="42.53754" lon="2.11632">
        <ele>1740.5880126953</ele>
        <time>2011-09-11T05:47:45Z</time>
      </trkpt>
      <trkpt lat="42.53748" lon="2.11639">
        <ele>1740.6989746094</ele>
        <time>2011-09-11T05:47:47Z</time>
      </trkpt>
      <trkpt lat="42.53735" lon="2.11652">
        <ele>1740.8229980469</ele>
        <time>2011-09-11T05:47:51Z</time>
      </trkpt>
      <trkpt lat="42.53722" lon="2.11665">
        <ele>1740.2829589844</ele>
        <time>2011-09-11T05:47:54Z</time>
      </trkpt>
      <trkpt lat="42.5369" lon="2.11681">
        <ele>1738.5789794922</ele>
        <time>2011-09-11T05:47:59Z</time>
      </trkpt>
      <trkpt lat="42.53684" lon="2.11684">
        <ele>1738.208984375</ele>
        <time>2011-09-11T05:48:00Z</time>
      </trkpt>
      <trkpt lat="42.53667" lon="2.11695">
        <ele>1737.4680175781</ele>
        <time>2011-09-11T05:48:03Z</time>
      </trkpt>
      <trkpt lat="42.53632" lon="2.11709">
        <ele>1736.6350097656</ele>
        <time>2011-09-11T05:48:09Z</time>
      </trkpt>
      <trkpt lat="42.53584" lon="2.1173">
        <ele>1735.2099609375</ele>
        <time>2011-09-11T05:48:17Z</time>
      </trkpt>
      <trkpt lat="42.53578" lon="2.11733">
        <ele>1734.8089599609</ele>
        <time>2011-09-11T05:48:18Z</time>
      </trkpt>
      <trkpt lat="42.53559" lon="2.11744">
        <ele>1733.3039550781</ele>
        <time>2011-09-11T05:48:21Z</time>
      </trkpt>
      <trkpt lat="42.53512" lon="2.11765">
        <ele>1730.4730224609</ele>
        <time>2011-09-11T05:48:28Z</time>
      </trkpt>
      <trkpt lat="42.53473" lon="2.11782">
        <ele>1728.8530273438</ele>
        <time>2011-09-11T05:48:34Z</time>
      </trkpt>
      <trkpt lat="42.53434" lon="2.118">
        <ele>1726.7650146484</ele>
        <time>2011-09-11T05:48:40Z</time>
      </trkpt>
      <trkpt lat="42.53392" lon="2.11822">
        <ele>1723.5059814453</ele>
        <time>2011-09-11T05:48:46Z</time>
      </trkpt>
      <trkpt lat="42.53374" lon="2.11829">
        <ele>1721.8079833984</ele>
        <time>2011-09-11T05:48:49Z</time>
      </trkpt>
      <trkpt lat="42.53361" lon="2.11837">
        <ele>1720.6519775391</ele>
        <time>2011-09-11T05:48:53Z</time>
      </trkpt>
      <trkpt lat="42.53342" lon="2.11847">
        <ele>1720.625</ele>
        <time>2011-09-11T05:48:58Z</time>
      </trkpt>
      <trkpt lat="42.53308" lon="2.11865">
        <ele>1721.3409423828</ele>
        <time>2011-09-11T05:49:05Z</time>
      </trkpt>
      <trkpt lat="42.53289" lon="2.11874">
        <ele>1722.0140380859</ele>
        <time>2011-09-11T05:49:09Z</time>
      </trkpt>
      <trkpt lat="42.53272" lon="2.11881">
        <ele>1723.0780029297</ele>
        <time>2011-09-11T05:49:14Z</time>
      </trkpt>
      <trkpt lat="42.53266" lon="2.11866">
        <ele>1722.9560546875</ele>
        <time>2011-09-11T05:49:18Z</time>
      </trkpt>
      <trkpt lat="42.53268" lon="2.1183">
        <ele>1722.6130371094</ele>
        <time>2011-09-11T05:49:24Z</time>
      </trkpt>
      <trkpt lat="42.53272" lon="2.11813">
        <ele>1723.1109619141</ele>
        <time>2011-09-11T05:49:27Z</time>
      </trkpt>
      <trkpt lat="42.53275" lon="2.11808">
        <ele>1723.33203125</ele>
        <time>2011-09-11T05:49:28Z</time>
      </trkpt>
      <trkpt lat="42.53286" lon="2.11776">
        <ele>1724.0240478516</ele>
        <time>2011-09-11T05:49:34Z</time>
      </trkpt>
      <trkpt lat="42.53291" lon="2.1176">
        <ele>1724.3680419922</ele>
        <time>2011-09-11T05:49:37Z</time>
      </trkpt>
      <trkpt lat="42.533" lon="2.11745">
        <ele>1724.9959716797</ele>
        <time>2011-09-11T05:49:40Z</time>
      </trkpt>
      <trkpt lat="42.53308" lon="2.11724">
        <ele>1725.3840332031</ele>
        <time>2011-09-11T05:49:44Z</time>
      </trkpt>
      <trkpt lat="42.53313" lon="2.11699">
        <ele>1726.4909667969</ele>
        <time>2011-09-11T05:49:49Z</time>
      </trkpt>
      <trkpt lat="42.53313" lon="2.11694">
        <ele>1726.7509765625</ele>
        <time>2011-09-11T05:49:50Z</time>
      </trkpt>
      <trkpt lat="42.53317" lon="2.11665">
        <ele>1728.3270263672</ele>
        <time>2011-09-11T05:49:56Z</time>
      </trkpt>
      <trkpt lat="42.53313" lon="2.11649">
        <ele>1728.9730224609</ele>
        <time>2011-09-11T05:50:00Z</time>
      </trkpt>
      <trkpt lat="42.53302" lon="2.11636">
        <ele>1729.9200439453</ele>
        <time>2011-09-11T05:50:05Z</time>
      </trkpt>
      <trkpt lat="42.53292" lon="2.11623">
        <ele>1731.1280517578</ele>
        <time>2011-09-11T05:50:10Z</time>
      </trkpt>
      <trkpt lat="42.53281" lon="2.11603">
        <ele>1731.8879394531</ele>
        <time>2011-09-11T05:50:16Z</time>
      </trkpt>
      <trkpt lat="42.53267" lon="2.11584">
        <ele>1733.3859863281</ele>
        <time>2011-09-11T05:50:23Z</time>
      </trkpt>
      <trkpt lat="42.53249" lon="2.11569">
        <ele>1734.9090576172</ele>
        <time>2011-09-11T05:50:30Z</time>
      </trkpt>
      <trkpt lat="42.53223" lon="2.11549">
        <ele>1736.8740234375</ele>
        <time>2011-09-11T05:50:40Z</time>
      </trkpt>
      <trkpt lat="42.53197" lon="2.11535">
        <ele>1738.5620117188</ele>
        <time>2011-09-11T05:50:49Z</time>
      </trkpt>
      <trkpt lat="42.53178" lon="2.11525">
        <ele>1738.833984375</ele>
        <time>2011-09-11T05:50:55Z</time>
      </trkpt>
      <trkpt lat="42.5316" lon="2.11518">
        <ele>1738.9940185547</ele>
        <time>2011-09-11T05:51:00Z</time>
      </trkpt>
      <trkpt lat="42.53147" lon="2.1151">
        <ele>1738.7750244141</ele>
        <time>2011-09-11T05:51:04Z</time>
      </trkpt>
      <trkpt lat="42.53128" lon="2.11495">
        <ele>1738.8959960938</ele>
        <time>2011-09-11T05:51:10Z</time>
      </trkpt>
      <trkpt lat="42.53116" lon="2.11488">
        <ele>1738.9360351562</ele>
        <time>2011-09-11T05:51:14Z</time>
      </trkpt>
      <trkpt lat="42.53109" lon="2.11487">
        <ele>1739.0069580078</ele>
        <time>2011-09-11T05:51:16Z</time>
      </trkpt>
      <trkpt lat="42.53097" lon="2.11479">
        <ele>1739.001953125</ele>
        <time>2011-09-11T05:51:20Z</time>
      </trkpt>
      <trkpt lat="42.53079" lon="2.11463">
        <ele>1739.3540039062</ele>
        <time>2011-09-11T05:51:26Z</time>
      </trkpt>
      <trkpt lat="42.53064" lon="2.11462">
        <ele>1739.4749755859</ele>
        <time>2011-09-11T05:51:30Z</time>
      </trkpt>
      <trkpt lat="42.5306" lon="2.11462">
        <ele>1739.5200195312</ele>
        <time>2011-09-11T05:51:31Z</time>
      </trkpt>
      <trkpt lat="42.53048" lon="2.11462">
        <ele>1739.4350585938</ele>
        <time>2011-09-11T05:51:34Z</time>
      </trkpt>
      <trkpt lat="42.53028" lon="2.11456">
        <ele>1739.2490234375</ele>
        <time>2011-09-11T05:51:39Z</time>
      </trkpt>
      <trkpt lat="42.53001" lon="2.11436">
        <ele>1739.6870117188</ele>
        <time>2011-09-11T05:51:47Z</time>
      </trkpt>
      <trkpt lat="42.52985" lon="2.11418">
        <ele>1740.7509765625</ele>
        <time>2011-09-11T05:51:53Z</time>
      </trkpt>
      <trkpt lat="42.52979" lon="2.11406">
        <ele>1742.2110595703</ele>
        <time>2011-09-11T05:51:57Z</time>
      </trkpt>
      <trkpt lat="42.52979" lon="2.11403">
        <ele>1742.666015625</ele>
        <time>2011-09-11T05:51:58Z</time>
      </trkpt>
      <trkpt lat="42.52974" lon="2.11396">
        <ele>1744.4270019531</ele>
        <time>2011-09-11T05:52:03Z</time>
      </trkpt>
      <trkpt lat="42.52971" lon="2.11392">
        <ele>1745.3449707031</ele>
        <time>2011-09-11T05:52:06Z</time>
      </trkpt>
      <trkpt lat="42.52961" lon="2.11386">
        <ele>1746.1290283203</ele>
        <time>2011-09-11T05:52:10Z</time>
      </trkpt>
      <trkpt lat="42.52947" lon="2.11381">
        <ele>1747.3840332031</ele>
        <time>2011-09-11T05:52:15Z</time>
      </trkpt>
      <trkpt lat="42.52934" lon="2.11367">
        <ele>1747.9429931641</ele>
        <time>2011-09-11T05:52:20Z</time>
      </trkpt>
      <trkpt lat="42.52931" lon="2.11361">
        <ele>1748.4649658203</ele>
        <time>2011-09-11T05:52:22Z</time>
      </trkpt>
      <trkpt lat="42.52925" lon="2.11339">
        <ele>1749.8409423828</ele>
        <time>2011-09-11T05:52:28Z</time>
      </trkpt>
      <trkpt lat="42.52919" lon="2.11322">
        <ele>1750.6650390625</ele>
        <time>2011-09-11T05:52:33Z</time>
      </trkpt>
      <trkpt lat="42.52914" lon="2.11303">
        <ele>1751.0679931641</ele>
        <time>2011-09-11T05:52:37Z</time>
      </trkpt>
      <trkpt lat="42.52914" lon="2.11276">
        <ele>1751.4219970703</ele>
        <time>2011-09-11T05:52:43Z</time>
      </trkpt>
      <trkpt lat="42.52918" lon="2.11254">
        <ele>1751.6099853516</ele>
        <time>2011-09-11T05:52:48Z</time>
      </trkpt>
      <trkpt lat="42.52927" lon="2.11242">
        <ele>1751.8990478516</ele>
        <time>2011-09-11T05:52:52Z</time>
      </trkpt>
      <trkpt lat="42.52941" lon="2.1122">
        <ele>1752.6629638672</ele>
        <time>2011-09-11T05:52:58Z</time>
      </trkpt>
      <trkpt lat="42.52958" lon="2.112">
        <ele>1753.1450195312</ele>
        <time>2011-09-11T05:53:04Z</time>
      </trkpt>
      <trkpt lat="42.5298" lon="2.11178">
        <ele>1754.5899658203</ele>
        <time>2011-09-11T05:53:11Z</time>
      </trkpt>
      <trkpt lat="42.52998" lon="2.11166">
        <ele>1756.3129882812</ele>
        <time>2011-09-11T05:53:18Z</time>
      </trkpt>
      <trkpt lat="42.53002" lon="2.11165">
        <ele>1757.5899658203</ele>
        <time>2011-09-11T05:53:22Z</time>
      </trkpt>
      <trkpt lat="42.53006" lon="2.11166">
        <ele>1758.3790283203</ele>
        <time>2011-09-11T05:53:25Z</time>
      </trkpt>
      <trkpt lat="42.5301" lon="2.11165">
        <ele>1760.1529541016</ele>
        <time>2011-09-11T05:53:29Z</time>
      </trkpt>
      <trkpt lat="42.53019" lon="2.11154">
        <ele>1760.6889648438</ele>
        <time>2011-09-11T05:53:38Z</time>
      </trkpt>
      <trkpt lat="42.53027" lon="2.11142">
        <ele>1760.7960205078</ele>
        <time>2011-09-11T05:53:43Z</time>
      </trkpt>
      <trkpt lat="42.5303" lon="2.11138">
        <ele>1760.8149414062</ele>
        <time>2011-09-11T05:53:45Z</time>
      </trkpt>
      <trkpt lat="42.53033" lon="2.1113">
        <ele>1760.8480224609</ele>
        <time>2011-09-11T05:53:48Z</time>
      </trkpt>
      <trkpt lat="42.53046" lon="2.11113">
        <ele>1760.5069580078</ele>
        <time>2011-09-11T05:53:53Z</time>
      </trkpt>
      <trkpt lat="42.53052" lon="2.11104">
        <ele>1760.4709472656</ele>
        <time>2011-09-11T05:53:55Z</time>
      </trkpt>
      <trkpt lat="42.53069" lon="2.11087">
        <ele>1760.5240478516</ele>
        <time>2011-09-11T05:54:00Z</time>
      </trkpt>
      <trkpt lat="42.53083" lon="2.11078">
        <ele>1760.5579833984</ele>
        <time>2011-09-11T05:54:04Z</time>
      </trkpt>
      <trkpt lat="42.53093" lon="2.11069">
        <ele>1760.8249511719</ele>
        <time>2011-09-11T05:54:08Z</time>
      </trkpt>
      <trkpt lat="42.53107" lon="2.11055">
        <ele>1760.4050292969</ele>
        <time>2011-09-11T05:54:12Z</time>
      </trkpt>
      <trkpt lat="42.53118" lon="2.11042">
        <ele>1760.1650390625</ele>
        <time>2011-09-11T05:54:15Z</time>
      </trkpt>
      <trkpt lat="42.53123" lon="2.11031">
        <ele>1759.7349853516</ele>
        <time>2011-09-11T05:54:17Z</time>
      </trkpt>
      <trkpt lat="42.53139" lon="2.11007">
        <ele>1759.2409667969</ele>
        <time>2011-09-11T05:54:22Z</time>
      </trkpt>
      <trkpt lat="42.53153" lon="2.10993">
        <ele>1759.7469482422</ele>
        <time>2011-09-11T05:54:26Z</time>
      </trkpt>
      <trkpt lat="42.53176" lon="2.1096">
        <ele>1760.4289550781</ele>
        <time>2011-09-11T05:54:34Z</time>
      </trkpt>
      <trkpt lat="42.53194" lon="2.10944">
        <ele>1761.1899414062</ele>
        <time>2011-09-11T05:54:40Z</time>
      </trkpt>
      <trkpt lat="42.53198" lon="2.10941">
        <ele>1761.3060302734</ele>
        <time>2011-09-11T05:54:41Z</time>
      </trkpt>
      <trkpt lat="42.53222" lon="2.10932">
        <ele>1762.4329833984</ele>
        <time>2011-09-11T05:54:47Z</time>
      </trkpt>
      <trkpt lat="42.5323" lon="2.10928">
        <ele>1762.5780029297</ele>
        <time>2011-09-11T05:54:49Z</time>
      </trkpt>
      <trkpt lat="42.5325" lon="2.10921">
        <ele>1762.9229736328</ele>
        <time>2011-09-11T05:54:54Z</time>
      </trkpt>
      <trkpt lat="42.53283" lon="2.10916">
        <ele>1763.6429443359</ele>
        <time>2011-09-11T05:55:02Z</time>
      </trkpt>
      <trkpt lat="42.53303" lon="2.10918">
        <ele>1764.0579833984</ele>
        <time>2011-09-11T05:55:08Z</time>
      </trkpt>
      <trkpt lat="42.53316" lon="2.10927">
        <ele>1764.3420410156</ele>
        <time>2011-09-11T05:55:13Z</time>
      </trkpt>
      <trkpt lat="42.53318" lon="2.10927">
        <ele>1764.4010009766</ele>
        <time>2011-09-11T05:55:14Z</time>
      </trkpt>
      <trkpt lat="42.53317" lon="2.10901">
        <ele>1764.3389892578</ele>
        <time>2011-09-11T05:55:19Z</time>
      </trkpt>
      <trkpt lat="42.53312" lon="2.10864">
        <ele>1763.791015625</ele>
        <time>2011-09-11T05:55:25Z</time>
      </trkpt>
      <trkpt lat="42.5331" lon="2.10853">
        <ele>1763.70703125</ele>
        <time>2011-09-11T05:55:27Z</time>
      </trkpt>
      <trkpt lat="42.53308" lon="2.10834">
        <ele>1763.8199462891</ele>
        <time>2011-09-11T05:55:30Z</time>
      </trkpt>
      <trkpt lat="42.53306" lon="2.10823">
        <ele>1764.0209960938</ele>
        <time>2011-09-11T05:55:32Z</time>
      </trkpt>
      <trkpt lat="42.53306" lon="2.10795">
        <ele>1764.4639892578</ele>
        <time>2011-09-11T05:55:37Z</time>
      </trkpt>
      <trkpt lat="42.53306" lon="2.10758">
        <ele>1765.748046875</ele>
        <time>2011-09-11T05:55:44Z</time>
      </trkpt>
      <trkpt lat="42.53307" lon="2.10736">
        <ele>1766.7380371094</ele>
        <time>2011-09-11T05:55:49Z</time>
      </trkpt>
      <trkpt lat="42.53305" lon="2.10702">
        <ele>1768.2490234375</ele>
        <time>2011-09-11T05:55:56Z</time>
      </trkpt>
      <trkpt lat="42.53305" lon="2.10667">
        <ele>1767.9739990234</ele>
        <time>2011-09-11T05:56:02Z</time>
      </trkpt>
      <trkpt lat="42.53305" lon="2.10623">
        <ele>1767.1540527344</ele>
        <time>2011-09-11T05:56:08Z</time>
      </trkpt>
      <trkpt lat="42.53306" lon="2.10578">
        <ele>1767.4370117188</ele>
        <time>2011-09-11T05:56:15Z</time>
      </trkpt>
      <trkpt lat="42.53306" lon="2.10572">
        <ele>1767.6190185547</ele>
        <time>2011-09-11T05:56:16Z</time>
      </trkpt>
      <trkpt lat="42.53306" lon="2.10538">
        <ele>1768.3570556641</ele>
        <time>2011-09-11T05:56:22Z</time>
      </trkpt>
      <trkpt lat="42.53307" lon="2.10525">
        <ele>1768.4820556641</ele>
        <time>2011-09-11T05:56:24Z</time>
      </trkpt>
      <trkpt lat="42.53307" lon="2.10504">
        <ele>1768.2039794922</ele>
        <time>2011-09-11T05:56:27Z</time>
      </trkpt>
      <trkpt lat="42.53307" lon="2.10461">
        <ele>1766.9870605469</ele>
        <time>2011-09-11T05:56:32Z</time>
      </trkpt>
      <trkpt lat="42.53307" lon="2.10453">
        <ele>1766.6519775391</ele>
        <time>2011-09-11T05:56:33Z</time>
      </trkpt>
      <trkpt lat="42.5331" lon="2.10412">
        <ele>1765.3690185547</ele>
        <time>2011-09-11T05:56:38Z</time>
      </trkpt>
      <trkpt lat="42.53321" lon="2.10378">
        <ele>1764.4389648438</ele>
        <time>2011-09-11T05:56:42Z</time>
      </trkpt>
      <trkpt lat="42.53343" lon="2.10334">
        <ele>1763.7530517578</ele>
        <time>2011-09-11T05:56:48Z</time>
      </trkpt>
      <trkpt lat="42.53372" lon="2.10301">
        <ele>1762.833984375</ele>
        <time>2011-09-11T05:56:54Z</time>
      </trkpt>
      <trkpt lat="42.53382" lon="2.10293">
        <ele>1762.5479736328</ele>
        <time>2011-09-11T05:56:56Z</time>
      </trkpt>
      <trkpt lat="42.53394" lon="2.10279">
        <ele>1762.2580566406</ele>
        <time>2011-09-11T05:56:59Z</time>
      </trkpt>
      <trkpt lat="42.53404" lon="2.10261">
        <ele>1762.3850097656</ele>
        <time>2011-09-11T05:57:02Z</time>
      </trkpt>
      <trkpt lat="42.5341" lon="2.10231">
        <ele>1762.5439453125</ele>
        <time>2011-09-11T05:57:06Z</time>
      </trkpt>
      <trkpt lat="42.53411" lon="2.10215">
        <ele>1762.375</ele>
        <time>2011-09-11T05:57:08Z</time>
      </trkpt>
      <trkpt lat="42.53425" lon="2.10165">
        <ele>1762.8659667969</ele>
        <time>2011-09-11T05:57:15Z</time>
      </trkpt>
      <trkpt lat="42.53439" lon="2.10133">
        <ele>1763.3709716797</ele>
        <time>2011-09-11T05:57:20Z</time>
      </trkpt>
      <trkpt lat="42.53454" lon="2.1011">
        <ele>1763.8239746094</ele>
        <time>2011-09-11T05:57:24Z</time>
      </trkpt>
      <trkpt lat="42.5348" lon="2.10083">
        <ele>1764.6700439453</ele>
        <time>2011-09-11T05:57:30Z</time>
      </trkpt>
      <trkpt lat="42.53516" lon="2.10052">
        <ele>1763.9289550781</ele>
        <time>2011-09-11T05:57:37Z</time>
      </trkpt>
      <trkpt lat="42.53528" lon="2.10042">
        <ele>1763.3659667969</ele>
        <time>2011-09-11T05:57:39Z</time>
      </trkpt>
      <trkpt lat="42.53554" lon="2.10009">
        <ele>1762.3420410156</ele>
        <time>2011-09-11T05:57:44Z</time>
      </trkpt>
      <trkpt lat="42.53567" lon="2.09969">
        <ele>1761.5400390625</ele>
        <time>2011-09-11T05:57:49Z</time>
      </trkpt>
      <trkpt lat="42.53569" lon="2.09961">
        <ele>1761.54296875</ele>
        <time>2011-09-11T05:57:50Z</time>
      </trkpt>
      <trkpt lat="42.53576" lon="2.09921">
        <ele>1762.2829589844</ele>
        <time>2011-09-11T05:57:55Z</time>
      </trkpt>
      <trkpt lat="42.53593" lon="2.09892">
        <ele>1763.16796875</ele>
        <time>2011-09-11T05:58:00Z</time>
      </trkpt>
      <trkpt lat="42.53606" lon="2.09879">
        <ele>1764.5699462891</ele>
        <time>2011-09-11T05:58:04Z</time>
      </trkpt>
      <trkpt lat="42.53624" lon="2.09867">
        <ele>1767.0629882812</ele>
        <time>2011-09-11T05:58:09Z</time>
      </trkpt>
      <trkpt lat="42.53633" lon="2.09861">
        <ele>1768.5909423828</ele>
        <time>2011-09-11T05:58:12Z</time>
      </trkpt>
      <trkpt lat="42.53636" lon="2.09857">
        <ele>1769.3270263672</ele>
        <time>2011-09-11T05:58:14Z</time>
      </trkpt>
      <trkpt lat="42.53631" lon="2.0985">
        <ele>1770.1059570312</ele>
        <time>2011-09-11T05:58:17Z</time>
      </trkpt>
      <trkpt lat="42.53619" lon="2.09847">
        <ele>1771.3950195312</ele>
        <time>2011-09-11T05:58:22Z</time>
      </trkpt>
      <trkpt lat="42.53614" lon="2.09845">
        <ele>1771.9189453125</ele>
        <time>2011-09-11T05:58:24Z</time>
      </trkpt>
      <trkpt lat="42.53605" lon="2.09839">
        <ele>1773.1579589844</ele>
        <time>2011-09-11T05:58:29Z</time>
      </trkpt>
      <trkpt lat="42.53595" lon="2.09831">
        <ele>1773.6610107422</ele>
        <time>2011-09-11T05:58:33Z</time>
      </trkpt>
      <trkpt lat="42.53583" lon="2.09819">
        <ele>1774.1400146484</ele>
        <time>2011-09-11T05:58:37Z</time>
      </trkpt>
      <trkpt lat="42.5357" lon="2.09803">
        <ele>1774.166015625</ele>
        <time>2011-09-11T05:58:42Z</time>
      </trkpt>
      <trkpt lat="42.53555" lon="2.09791">
        <ele>1773.7619628906</ele>
        <time>2011-09-11T05:58:46Z</time>
      </trkpt>
      <trkpt lat="42.53544" lon="2.09787">
        <ele>1773.6369628906</ele>
        <time>2011-09-11T05:58:49Z</time>
      </trkpt>
      <trkpt lat="42.53527" lon="2.09789">
        <ele>1773.9670410156</ele>
        <time>2011-09-11T05:58:53Z</time>
      </trkpt>
      <trkpt lat="42.53501" lon="2.09792">
        <ele>1774.3809814453</ele>
        <time>2011-09-11T05:58:59Z</time>
      </trkpt>
      <trkpt lat="42.53481" lon="2.09785">
        <ele>1774.6839599609</ele>
        <time>2011-09-11T05:59:04Z</time>
      </trkpt>
      <trkpt lat="42.53472" lon="2.09782">
        <ele>1774.6490478516</ele>
        <time>2011-09-11T05:59:07Z</time>
      </trkpt>
      <trkpt lat="42.53456" lon="2.09782">
        <ele>1774.2669677734</ele>
        <time>2011-09-11T05:59:11Z</time>
      </trkpt>
      <trkpt lat="42.53445" lon="2.09778">
        <ele>1774.6300048828</ele>
        <time>2011-09-11T05:59:14Z</time>
      </trkpt>
      <trkpt lat="42.53428" lon="2.09775">
        <ele>1775.9010009766</ele>
        <time>2011-09-11T05:59:19Z</time>
      </trkpt>
      <trkpt lat="42.53415" lon="2.09777">
        <ele>1777.3270263672</ele>
        <time>2011-09-11T05:59:25Z</time>
      </trkpt>
      <trkpt lat="42.534" lon="2.09778">
        <ele>1778.5059814453</ele>
        <time>2011-09-11T05:59:30Z</time>
      </trkpt>
      <trkpt lat="42.53389" lon="2.09777">
        <ele>1779.3830566406</ele>
        <time>2011-09-11T05:59:34Z</time>
      </trkpt>
      <trkpt lat="42.53373" lon="2.09772">
        <ele>1781.6569824219</ele>
        <time>2011-09-11T05:59:41Z</time>
      </trkpt>
      <trkpt lat="42.53356" lon="2.09765">
        <ele>1782.1739501953</ele>
        <time>2011-09-11T05:59:47Z</time>
      </trkpt>
      <trkpt lat="42.53353" lon="2.09762">
        <ele>1782.0749511719</ele>
        <time>2011-09-11T05:59:48Z</time>
      </trkpt>
      <trkpt lat="42.53342" lon="2.09759">
        <ele>1781.0670166016</ele>
        <time>2011-09-11T05:59:51Z</time>
      </trkpt>
      <trkpt lat="42.5332" lon="2.09754">
        <ele>1779.8220214844</ele>
        <time>2011-09-11T05:59:56Z</time>
      </trkpt>
      <trkpt lat="42.53299" lon="2.09756">
        <ele>1779.25</ele>
        <time>2011-09-11T06:00:01Z</time>
      </trkpt>
      <trkpt lat="42.53281" lon="2.09759">
        <ele>1779.7700195312</ele>
        <time>2011-09-11T06:00:06Z</time>
      </trkpt>
      <trkpt lat="42.53273" lon="2.0976">
        <ele>1779.8609619141</ele>
        <time>2011-09-11T06:00:08Z</time>
      </trkpt>
      <trkpt lat="42.53248" lon="2.09767">
        <ele>1781.0579833984</ele>
        <time>2011-09-11T06:00:14Z</time>
      </trkpt>
      <trkpt lat="42.53239" lon="2.09771">
        <ele>1781.6309814453</ele>
        <time>2011-09-11T06:00:17Z</time>
      </trkpt>
      <trkpt lat="42.53224" lon="2.09797">
        <ele>1779.9019775391</ele>
        <time>2011-09-11T06:00:22Z</time>
      </trkpt>
      <trkpt lat="42.53202" lon="2.09826">
        <ele>1775.8609619141</ele>
        <time>2011-09-11T06:00:28Z</time>
      </trkpt>
      <trkpt lat="42.53189" lon="2.09836">
        <ele>1776.7370605469</ele>
        <time>2011-09-11T06:00:32Z</time>
      </trkpt>
      <trkpt lat="42.53176" lon="2.09836">
        <ele>1777.6879882812</ele>
        <time>2011-09-11T06:00:36Z</time>
      </trkpt>
      <trkpt lat="42.53168" lon="2.09833">
        <ele>1778.2189941406</ele>
        <time>2011-09-11T06:00:38Z</time>
      </trkpt>
      <trkpt lat="42.53144" lon="2.09829">
        <ele>1778.3399658203</ele>
        <time>2011-09-11T06:00:44Z</time>
      </trkpt>
      <trkpt lat="42.53132" lon="2.09841">
        <ele>1777.4499511719</ele>
        <time>2011-09-11T06:00:48Z</time>
      </trkpt>
      <trkpt lat="42.5312" lon="2.09846">
        <ele>1776.3010253906</ele>
        <time>2011-09-11T06:00:52Z</time>
      </trkpt>
      <trkpt lat="42.53105" lon="2.0985">
        <ele>1774.626953125</ele>
        <time>2011-09-11T06:00:56Z</time>
      </trkpt>
      <trkpt lat="42.53095" lon="2.09851">
        <ele>1773.5629882812</ele>
        <time>2011-09-11T06:00:58Z</time>
      </trkpt>
      <trkpt lat="42.53075" lon="2.09857">
        <ele>1774.4630126953</ele>
        <time>2011-09-11T06:01:03Z</time>
      </trkpt>
      <trkpt lat="42.53065" lon="2.09864">
        <ele>1774.1169433594</ele>
        <time>2011-09-11T06:01:06Z</time>
      </trkpt>
      <trkpt lat="42.53057" lon="2.0988">
        <ele>1771.8709716797</ele>
        <time>2011-09-11T06:01:10Z</time>
      </trkpt>
      <trkpt lat="42.53051" lon="2.09885">
        <ele>1771.0660400391</ele>
        <time>2011-09-11T06:01:12Z</time>
      </trkpt>
      <trkpt lat="42.5303" lon="2.09909">
        <ele>1768.2280273438</ele>
        <time>2011-09-11T06:01:18Z</time>
      </trkpt>
      <trkpt lat="42.53021" lon="2.09921">
        <ele>1767.0989990234</ele>
        <time>2011-09-11T06:01:20Z</time>
      </trkpt>
      <trkpt lat="42.5301" lon="2.0994">
        <ele>1765.8620605469</ele>
        <time>2011-09-11T06:01:23Z</time>
      </trkpt>
      <trkpt lat="42.53001" lon="2.09956">
        <ele>1765.4790039062</ele>
        <time>2011-09-11T06:01:27Z</time>
      </trkpt>
      <trkpt lat="42.52996" lon="2.0996">
        <ele>1765.7569580078</ele>
        <time>2011-09-11T06:01:29Z</time>
      </trkpt>
      <trkpt lat="42.52975" lon="2.09966">
        <ele>1766.0799560547</ele>
        <time>2011-09-11T06:01:35Z</time>
      </trkpt>
      <trkpt lat="42.52965" lon="2.09979">
        <ele>1765.3249511719</ele>
        <time>2011-09-11T06:01:38Z</time>
      </trkpt>
      <trkpt lat="42.52957" lon="2.09992">
        <ele>1764.9110107422</ele>
        <time>2011-09-11T06:01:42Z</time>
      </trkpt>
      <trkpt lat="42.5296" lon="2.10011">
        <ele>1766.1739501953</ele>
        <time>2011-09-11T06:01:47Z</time>
      </trkpt>
      <trkpt lat="42.52957" lon="2.10021">
        <ele>1768.5209960938</ele>
        <time>2011-09-11T06:01:51Z</time>
      </trkpt>
      <trkpt lat="42.52956" lon="2.10033">
        <ele>1769.0780029297</ele>
        <time>2011-09-11T06:01:54Z</time>
      </trkpt>
      <trkpt lat="42.52957" lon="2.10067">
        <ele>1768.3120117188</ele>
        <time>2011-09-11T06:01:59Z</time>
      </trkpt>
      <trkpt lat="42.5295" lon="2.10089">
        <ele>1767.1340332031</ele>
        <time>2011-09-11T06:02:03Z</time>
      </trkpt>
      <trkpt lat="42.52944" lon="2.10097">
        <ele>1766.7189941406</ele>
        <time>2011-09-11T06:02:05Z</time>
      </trkpt>
      <trkpt lat="42.52937" lon="2.10109">
        <ele>1765.0679931641</ele>
        <time>2011-09-11T06:02:08Z</time>
      </trkpt>
      <trkpt lat="42.52922" lon="2.10131">
        <ele>1762.7110595703</ele>
        <time>2011-09-11T06:02:12Z</time>
      </trkpt>
      <trkpt lat="42.52912" lon="2.10141">
        <ele>1761.1199951172</ele>
        <time>2011-09-11T06:02:14Z</time>
      </trkpt>
      <trkpt lat="42.52893" lon="2.10163">
        <ele>1759.3070068359</ele>
        <time>2011-09-11T06:02:18Z</time>
      </trkpt>
      <trkpt lat="42.52885" lon="2.10177">
        <ele>1758.1080322266</ele>
        <time>2011-09-11T06:02:20Z</time>
      </trkpt>
      <trkpt lat="42.52869" lon="2.10206">
        <ele>1755.4029541016</ele>
        <time>2011-09-11T06:02:24Z</time>
      </trkpt>
      <trkpt lat="42.52859" lon="2.10217">
        <ele>1754.6080322266</ele>
        <time>2011-09-11T06:02:26Z</time>
      </trkpt>
      <trkpt lat="42.52847" lon="2.10226">
        <ele>1753.0319824219</ele>
        <time>2011-09-11T06:02:29Z</time>
      </trkpt>
      <trkpt lat="42.52843" lon="2.10248">
        <ele>1751.0860595703</ele>
        <time>2011-09-11T06:02:32Z</time>
      </trkpt>
      <trkpt lat="42.5284" lon="2.10283">
        <ele>1748.6440429688</ele>
        <time>2011-09-11T06:02:36Z</time>
      </trkpt>
      <trkpt lat="42.52817" lon="2.10304">
        <ele>1746.5760498047</ele>
        <time>2011-09-11T06:02:41Z</time>
      </trkpt>
      <trkpt lat="42.52811" lon="2.10304">
        <ele>1746.5279541016</ele>
        <time>2011-09-11T06:02:42Z</time>
      </trkpt>
      <trkpt lat="42.52789" lon="2.10309">
        <ele>1746.0439453125</ele>
        <time>2011-09-11T06:02:47Z</time>
      </trkpt>
      <trkpt lat="42.52776" lon="2.1032">
        <ele>1746.6770019531</ele>
        <time>2011-09-11T06:02:51Z</time>
      </trkpt>
      <trkpt lat="42.5276" lon="2.10342">
        <ele>1747.7409667969</ele>
        <time>2011-09-11T06:02:56Z</time>
      </trkpt>
      <trkpt lat="42.52744" lon="2.10368">
        <ele>1748.7810058594</ele>
        <time>2011-09-11T06:03:02Z</time>
      </trkpt>
      <trkpt lat="42.52738" lon="2.10377">
        <ele>1748.4470214844</ele>
        <time>2011-09-11T06:03:04Z</time>
      </trkpt>
      <trkpt lat="42.52722" lon="2.10393">
        <ele>1746.9739990234</ele>
        <time>2011-09-11T06:03:08Z</time>
      </trkpt>
      <trkpt lat="42.527" lon="2.10403">
        <ele>1745.9019775391</ele>
        <time>2011-09-11T06:03:12Z</time>
      </trkpt>
      <trkpt lat="42.52684" lon="2.10417">
        <ele>1746.1820068359</ele>
        <time>2011-09-11T06:03:16Z</time>
      </trkpt>
      <trkpt lat="42.52659" lon="2.10441">
        <ele>1744.9239501953</ele>
        <time>2011-09-11T06:03:21Z</time>
      </trkpt>
      <trkpt lat="42.52647" lon="2.10448">
        <ele>1744.4000244141</ele>
        <time>2011-09-11T06:03:23Z</time>
      </trkpt>
      <trkpt lat="42.52627" lon="2.10468">
        <ele>1743.5229492188</ele>
        <time>2011-09-11T06:03:27Z</time>
      </trkpt>
      <trkpt lat="42.52611" lon="2.1048">
        <ele>1742.9110107422</ele>
        <time>2011-09-11T06:03:30Z</time>
      </trkpt>
      <trkpt lat="42.52584" lon="2.10484">
        <ele>1742.3840332031</ele>
        <time>2011-09-11T06:03:35Z</time>
      </trkpt>
      <trkpt lat="42.52579" lon="2.1048">
        <ele>1742.4969482422</ele>
        <time>2011-09-11T06:03:36Z</time>
      </trkpt>
      <trkpt lat="42.52547" lon="2.10458">
        <ele>1744.1719970703</ele>
        <time>2011-09-11T06:03:43Z</time>
      </trkpt>
      <trkpt lat="42.52527" lon="2.10468">
        <ele>1743.7290039062</ele>
        <time>2011-09-11T06:03:47Z</time>
      </trkpt>
      <trkpt lat="42.52515" lon="2.10477">
        <ele>1742.9389648438</ele>
        <time>2011-09-11T06:03:49Z</time>
      </trkpt>
      <trkpt lat="42.5249" lon="2.10486">
        <ele>1742.6889648438</ele>
        <time>2011-09-11T06:03:53Z</time>
      </trkpt>
      <trkpt lat="42.52466" lon="2.10484">
        <ele>1742.3530273438</ele>
        <time>2011-09-11T06:03:57Z</time>
      </trkpt>
      <trkpt lat="42.5243" lon="2.10485">
        <ele>1738.8819580078</ele>
        <time>2011-09-11T06:04:02Z</time>
      </trkpt>
      <trkpt lat="42.52395" lon="2.10485">
        <ele>1736.9530029297</ele>
        <time>2011-09-11T06:04:07Z</time>
      </trkpt>
      <trkpt lat="42.52371" lon="2.10472">
        <ele>1735.5179443359</ele>
        <time>2011-09-11T06:04:11Z</time>
      </trkpt>
      <trkpt lat="42.5235" lon="2.10489">
        <ele>1732.75</ele>
        <time>2011-09-11T06:04:16Z</time>
      </trkpt>
      <trkpt lat="42.52346" lon="2.10497">
        <ele>1732.3649902344</ele>
        <time>2011-09-11T06:04:17Z</time>
      </trkpt>
      <trkpt lat="42.5234" lon="2.10512">
        <ele>1731.8649902344</ele>
        <time>2011-09-11T06:04:19Z</time>
      </trkpt>
      <trkpt lat="42.52325" lon="2.10543">
        <ele>1729.9759521484</ele>
        <time>2011-09-11T06:04:24Z</time>
      </trkpt>
      <trkpt lat="42.52319" lon="2.10557">
        <ele>1728.5670166016</ele>
        <time>2011-09-11T06:04:26Z</time>
      </trkpt>
      <trkpt lat="42.52306" lon="2.10576">
        <ele>1727.5030517578</ele>
        <time>2011-09-11T06:04:30Z</time>
      </trkpt>
      <trkpt lat="42.52301" lon="2.10579">
        <ele>1727.6629638672</ele>
        <time>2011-09-11T06:04:31Z</time>
      </trkpt>
      <trkpt lat="42.52274" lon="2.10597">
        <ele>1726.3229980469</ele>
        <time>2011-09-11T06:04:36Z</time>
      </trkpt>
      <trkpt lat="42.52264" lon="2.106">
        <ele>1725.9919433594</ele>
        <time>2011-09-11T06:04:38Z</time>
      </trkpt>
      <trkpt lat="42.5224" lon="2.10609">
        <ele>1725.8010253906</ele>
        <time>2011-09-11T06:04:42Z</time>
      </trkpt>
      <trkpt lat="42.52215" lon="2.10623">
        <ele>1723.7979736328</ele>
        <time>2011-09-11T06:04:46Z</time>
      </trkpt>
      <trkpt lat="42.52204" lon="2.10629">
        <ele>1722.0930175781</ele>
        <time>2011-09-11T06:04:48Z</time>
      </trkpt>
      <trkpt lat="42.5219" lon="2.10653">
        <ele>1719.8310546875</ele>
        <time>2011-09-11T06:04:52Z</time>
      </trkpt>
      <trkpt lat="42.5219" lon="2.10661">
        <ele>1719.6319580078</ele>
        <time>2011-09-11T06:04:54Z</time>
      </trkpt>
      <trkpt lat="42.52184" lon="2.10673">
        <ele>1719.2690429688</ele>
        <time>2011-09-11T06:04:58Z</time>
      </trkpt>
      <trkpt lat="42.52176" lon="2.10696">
        <ele>1719.1550292969</ele>
        <time>2011-09-11T06:05:02Z</time>
      </trkpt>
      <trkpt lat="42.5215" lon="2.10699">
        <ele>1718.3549804688</ele>
        <time>2011-09-11T06:05:06Z</time>
      </trkpt>
      <trkpt lat="42.52135" lon="2.10711">
        <ele>1718.0419921875</ele>
        <time>2011-09-11T06:05:09Z</time>
      </trkpt>
      <trkpt lat="42.52129" lon="2.10721">
        <ele>1718.1540527344</ele>
        <time>2011-09-11T06:05:11Z</time>
      </trkpt>
      <trkpt lat="42.52121" lon="2.10739">
        <ele>1718.6970214844</ele>
        <time>2011-09-11T06:05:14Z</time>
      </trkpt>
      <trkpt lat="42.52101" lon="2.10772">
        <ele>1716.4360351562</ele>
        <time>2011-09-11T06:05:19Z</time>
      </trkpt>
      <trkpt lat="42.52077" lon="2.1078">
        <ele>1714.6619873047</ele>
        <time>2011-09-11T06:05:22Z</time>
      </trkpt>
      <trkpt lat="42.52055" lon="2.10791">
        <ele>1713.1949462891</ele>
        <time>2011-09-11T06:05:25Z</time>
      </trkpt>
      <trkpt lat="42.52037" lon="2.10788">
        <ele>1712.5489501953</ele>
        <time>2011-09-11T06:05:28Z</time>
      </trkpt>
      <trkpt lat="42.52023" lon="2.10783">
        <ele>1712.1149902344</ele>
        <time>2011-09-11T06:05:31Z</time>
      </trkpt>
      <trkpt lat="42.5201" lon="2.10785">
        <ele>1711.2170410156</ele>
        <time>2011-09-11T06:05:34Z</time>
      </trkpt>
      <trkpt lat="42.51995" lon="2.10787">
        <ele>1710.2609863281</ele>
        <time>2011-09-11T06:05:37Z</time>
      </trkpt>
      <trkpt lat="42.51977" lon="2.10789">
        <ele>1708.9110107422</ele>
        <time>2011-09-11T06:05:42Z</time>
      </trkpt>
      <trkpt lat="42.51956" lon="2.10789">
        <ele>1706.6619873047</ele>
        <time>2011-09-11T06:05:46Z</time>
      </trkpt>
      <trkpt lat="42.51945" lon="2.10792">
        <ele>1705.6789550781</ele>
        <time>2011-09-11T06:05:48Z</time>
      </trkpt>
      <trkpt lat="42.51926" lon="2.10808">
        <ele>1704.1300048828</ele>
        <time>2011-09-11T06:05:52Z</time>
      </trkpt>
      <trkpt lat="42.51917" lon="2.10822">
        <ele>1703.6459960938</ele>
        <time>2011-09-11T06:05:54Z</time>
      </trkpt>
      <trkpt lat="42.51902" lon="2.10841">
        <ele>1702.376953125</ele>
        <time>2011-09-11T06:05:57Z</time>
      </trkpt>
      <trkpt lat="42.51884" lon="2.10876">
        <ele>1701.9489746094</ele>
        <time>2011-09-11T06:06:02Z</time>
      </trkpt>
      <trkpt lat="42.51886" lon="2.10896">
        <ele>1701.6750488281</ele>
        <time>2011-09-11T06:06:05Z</time>
      </trkpt>
      <trkpt lat="42.51892" lon="2.10911">
        <ele>1700.2330322266</ele>
        <time>2011-09-11T06:06:08Z</time>
      </trkpt>
      <trkpt lat="42.51894" lon="2.10926">
        <ele>1698.9959716797</ele>
        <time>2011-09-11T06:06:10Z</time>
      </trkpt>
      <trkpt lat="42.51892" lon="2.10934">
        <ele>1697.0290527344</ele>
        <time>2011-09-11T06:06:12Z</time>
      </trkpt>
      <trkpt lat="42.51867" lon="2.10935">
        <ele>1694.1009521484</ele>
        <time>2011-09-11T06:06:16Z</time>
      </trkpt>
      <trkpt lat="42.51852" lon="2.10946">
        <ele>1691.6479492188</ele>
        <time>2011-09-11T06:06:21Z</time>
      </trkpt>
      <trkpt lat="42.51854" lon="2.10957">
        <ele>1691.4219970703</ele>
        <time>2011-09-11T06:06:23Z</time>
      </trkpt>
      <trkpt lat="42.51855" lon="2.10968">
        <ele>1691.4460449219</ele>
        <time>2011-09-11T06:06:25Z</time>
      </trkpt>
      <trkpt lat="42.51859" lon="2.10991">
        <ele>1691.1600341797</ele>
        <time>2011-09-11T06:06:29Z</time>
      </trkpt>
      <trkpt lat="42.51862" lon="2.10995">
        <ele>1690.8229980469</ele>
        <time>2011-09-11T06:06:30Z</time>
      </trkpt>
      <trkpt lat="42.51869" lon="2.11001">
        <ele>1689.9580078125</ele>
        <time>2011-09-11T06:06:32Z</time>
      </trkpt>
      <trkpt lat="42.51879" lon="2.11038">
        <ele>1686.7020263672</ele>
        <time>2011-09-11T06:06:37Z</time>
      </trkpt>
      <trkpt lat="42.51884" lon="2.11038">
        <ele>1686.0219726562</ele>
        <time>2011-09-11T06:06:39Z</time>
      </trkpt>
      <trkpt lat="42.51899" lon="2.11036">
        <ele>1685.3070068359</ele>
        <time>2011-09-11T06:06:42Z</time>
      </trkpt>
      <trkpt lat="42.51939" lon="2.11038">
        <ele>1682.6889648438</ele>
        <time>2011-09-11T06:06:48Z</time>
      </trkpt>
      <trkpt lat="42.51967" lon="2.11023">
        <ele>1681.7580566406</ele>
        <time>2011-09-11T06:06:52Z</time>
      </trkpt>
      <trkpt lat="42.52002" lon="2.11018">
        <ele>1679.9360351562</ele>
        <time>2011-09-11T06:06:57Z</time>
      </trkpt>
      <trkpt lat="42.5201" lon="2.11019">
        <ele>1679.1149902344</ele>
        <time>2011-09-11T06:06:58Z</time>
      </trkpt>
      <trkpt lat="42.52025" lon="2.11018">
        <ele>1676.7419433594</ele>
        <time>2011-09-11T06:07:00Z</time>
      </trkpt>
      <trkpt lat="42.52036" lon="2.11021">
        <ele>1673.2130126953</ele>
        <time>2011-09-11T06:07:04Z</time>
      </trkpt>
      <trkpt lat="42.52039" lon="2.11019">
        <ele>1672.6490478516</ele>
        <time>2011-09-11T06:07:06Z</time>
      </trkpt>
      <trkpt lat="42.52053" lon="2.11017">
        <ele>1671.873046875</ele>
        <time>2011-09-11T06:07:10Z</time>
      </trkpt>
      <trkpt lat="42.52058" lon="2.11016">
        <ele>1671.5600585938</ele>
        <time>2011-09-11T06:07:11Z</time>
      </trkpt>
      <trkpt lat="42.5209" lon="2.1101">
        <ele>1670.20703125</ele>
        <time>2011-09-11T06:07:16Z</time>
      </trkpt>
      <trkpt lat="42.52124" lon="2.11006">
        <ele>1668.4890136719</ele>
        <time>2011-09-11T06:07:21Z</time>
      </trkpt>
      <trkpt lat="42.52138" lon="2.11004">
        <ele>1667.4439697266</ele>
        <time>2011-09-11T06:07:23Z</time>
      </trkpt>
      <trkpt lat="42.52163" lon="2.11006">
        <ele>1666.0219726562</ele>
        <time>2011-09-11T06:07:27Z</time>
      </trkpt>
      <trkpt lat="42.52185" lon="2.11008">
        <ele>1664.9329833984</ele>
        <time>2011-09-11T06:07:30Z</time>
      </trkpt>
      <trkpt lat="42.52199" lon="2.11011">
        <ele>1664.3690185547</ele>
        <time>2011-09-11T06:07:32Z</time>
      </trkpt>
      <trkpt lat="42.52213" lon="2.11032">
        <ele>1662.0880126953</ele>
        <time>2011-09-11T06:07:35Z</time>
      </trkpt>
      <trkpt lat="42.52215" lon="2.11038">
        <ele>1660.8280029297</ele>
        <time>2011-09-11T06:07:37Z</time>
      </trkpt>
      <trkpt lat="42.52215" lon="2.11039">
        <ele>1660.2280273438</ele>
        <time>2011-09-11T06:07:38Z</time>
      </trkpt>
      <trkpt lat="42.52211" lon="2.11032">
        <ele>1659.7559814453</ele>
        <time>2011-09-11T06:07:42Z</time>
      </trkpt>
      <trkpt lat="42.52204" lon="2.11028">
        <ele>1660.1889648438</ele>
        <time>2011-09-11T06:07:47Z</time>
      </trkpt>
      <trkpt lat="42.52201" lon="2.11028">
        <ele>1660.1789550781</ele>
        <time>2011-09-11T06:07:48Z</time>
      </trkpt>
      <trkpt lat="42.52172" lon="2.11044">
        <ele>1658.791015625</ele>
        <time>2011-09-11T06:07:53Z</time>
      </trkpt>
      <trkpt lat="42.52158" lon="2.11052">
        <ele>1658.0080566406</ele>
        <time>2011-09-11T06:07:55Z</time>
      </trkpt>
      <trkpt lat="42.52123" lon="2.11076">
        <ele>1655.666015625</ele>
        <time>2011-09-11T06:08:00Z</time>
      </trkpt>
      <trkpt lat="42.52105" lon="2.111">
        <ele>1652.373046875</ele>
        <time>2011-09-11T06:08:04Z</time>
      </trkpt>
      <trkpt lat="42.52066" lon="2.11115">
        <ele>1650.1949462891</ele>
        <time>2011-09-11T06:08:10Z</time>
      </trkpt>
      <trkpt lat="42.52033" lon="2.11136">
        <ele>1649.3900146484</ele>
        <time>2011-09-11T06:08:15Z</time>
      </trkpt>
      <trkpt lat="42.51996" lon="2.11161">
        <ele>1648.0109863281</ele>
        <time>2011-09-11T06:08:21Z</time>
      </trkpt>
      <trkpt lat="42.51991" lon="2.11165">
        <ele>1647.998046875</ele>
        <time>2011-09-11T06:08:22Z</time>
      </trkpt>
      <trkpt lat="42.51969" lon="2.11179">
        <ele>1648.6590576172</ele>
        <time>2011-09-11T06:08:26Z</time>
      </trkpt>
      <trkpt lat="42.5196" lon="2.11186">
        <ele>1649.1860351562</ele>
        <time>2011-09-11T06:08:28Z</time>
      </trkpt>
      <trkpt lat="42.51924" lon="2.11215">
        <ele>1649.1369628906</ele>
        <time>2011-09-11T06:08:35Z</time>
      </trkpt>
      <trkpt lat="42.51908" lon="2.11225">
        <ele>1649.2419433594</ele>
        <time>2011-09-11T06:08:38Z</time>
      </trkpt>
      <trkpt lat="42.51873" lon="2.11256">
        <ele>1648.5389404297</ele>
        <time>2011-09-11T06:08:45Z</time>
      </trkpt>
      <trkpt lat="42.51863" lon="2.11265">
        <ele>1647.3919677734</ele>
        <time>2011-09-11T06:08:48Z</time>
      </trkpt>
      <trkpt lat="42.51859" lon="2.11268">
        <ele>1646.1739501953</ele>
        <time>2011-09-11T06:08:53Z</time>
      </trkpt>
      <trkpt lat="42.51853" lon="2.11269">
        <ele>1646.1240234375</ele>
        <time>2011-09-11T06:08:59Z</time>
      </trkpt>
      <trkpt lat="42.51839" lon="2.11274">
        <ele>1645.8809814453</ele>
        <time>2011-09-11T06:09:04Z</time>
      </trkpt>
      <trkpt lat="42.51821" lon="2.11277">
        <ele>1645.7099609375</ele>
        <time>2011-09-11T06:09:09Z</time>
      </trkpt>
      <trkpt lat="42.51814" lon="2.1128">
        <ele>1645.8360595703</ele>
        <time>2011-09-11T06:09:11Z</time>
      </trkpt>
      <trkpt lat="42.51784" lon="2.11298">
        <ele>1645.9019775391</ele>
        <time>2011-09-11T06:09:18Z</time>
      </trkpt>
      <trkpt lat="42.5177" lon="2.11305">
        <ele>1645.3940429688</ele>
        <time>2011-09-11T06:09:21Z</time>
      </trkpt>
      <trkpt lat="42.51737" lon="2.11311">
        <ele>1643.8680419922</ele>
        <time>2011-09-11T06:09:27Z</time>
      </trkpt>
      <trkpt lat="42.51702" lon="2.11317">
        <ele>1642.1259765625</ele>
        <time>2011-09-11T06:09:33Z</time>
      </trkpt>
      <trkpt lat="42.51695" lon="2.11319">
        <ele>1641.7810058594</ele>
        <time>2011-09-11T06:09:34Z</time>
      </trkpt>
      <trkpt lat="42.5167" lon="2.1132">
        <ele>1640.3100585938</ele>
        <time>2011-09-11T06:09:38Z</time>
      </trkpt>
      <trkpt lat="42.51654" lon="2.11319">
        <ele>1639.9610595703</ele>
        <time>2011-09-11T06:09:42Z</time>
      </trkpt>
      <trkpt lat="42.51644" lon="2.11333">
        <ele>1639.5400390625</ele>
        <time>2011-09-11T06:09:45Z</time>
      </trkpt>
      <trkpt lat="42.51628" lon="2.11363">
        <ele>1637.876953125</ele>
        <time>2011-09-11T06:09:49Z</time>
      </trkpt>
      <trkpt lat="42.51604" lon="2.11392">
        <ele>1635.9350585938</ele>
        <time>2011-09-11T06:09:53Z</time>
      </trkpt>
      <trkpt lat="42.51585" lon="2.11424">
        <ele>1633.4709472656</ele>
        <time>2011-09-11T06:09:57Z</time>
      </trkpt>
      <trkpt lat="42.51569" lon="2.11441">
        <ele>1632.3389892578</ele>
        <time>2011-09-11T06:10:00Z</time>
      </trkpt>
      <trkpt lat="42.51552" lon="2.11441">
        <ele>1632.5219726562</ele>
        <time>2011-09-11T06:10:03Z</time>
      </trkpt>
      <trkpt lat="42.51538" lon="2.11427">
        <ele>1632.6820068359</ele>
        <time>2011-09-11T06:10:06Z</time>
      </trkpt>
      <trkpt lat="42.51521" lon="2.11426">
        <ele>1632.0240478516</ele>
        <time>2011-09-11T06:10:09Z</time>
      </trkpt>
      <trkpt lat="42.5151" lon="2.11433">
        <ele>1631.5209960938</ele>
        <time>2011-09-11T06:10:12Z</time>
      </trkpt>
      <trkpt lat="42.51511" lon="2.11433">
        <ele>1630.9050292969</ele>
        <time>2011-09-11T06:10:14Z</time>
      </trkpt>
      <trkpt lat="42.51526" lon="2.11425">
        <ele>1630.91796875</ele>
        <time>2011-09-11T06:10:28Z</time>
      </trkpt>
      <trkpt lat="42.51534" lon="2.11422">
        <ele>1631.2700195312</ele>
        <time>2011-09-11T06:10:30Z</time>
      </trkpt>
      <trkpt lat="42.51538" lon="2.11413">
        <ele>1631.0579833984</ele>
        <time>2011-09-11T06:10:33Z</time>
      </trkpt>
      <trkpt lat="42.51531" lon="2.11399">
        <ele>1630.0360107422</ele>
        <time>2011-09-11T06:10:36Z</time>
      </trkpt>
      <trkpt lat="42.5153" lon="2.11393">
        <ele>1629.4880371094</ele>
        <time>2011-09-11T06:10:37Z</time>
      </trkpt>
      <trkpt lat="42.51519" lon="2.11356">
        <ele>1626.6590576172</ele>
        <time>2011-09-11T06:10:41Z</time>
      </trkpt>
      <trkpt lat="42.51512" lon="2.11334">
        <ele>1625.2900390625</ele>
        <time>2011-09-11T06:10:43Z</time>
      </trkpt>
      <trkpt lat="42.5148" lon="2.11284">
        <ele>1621.5040283203</ele>
        <time>2011-09-11T06:10:48Z</time>
      </trkpt>
      <trkpt lat="42.51465" lon="2.1124">
        <ele>1617.6929931641</ele>
        <time>2011-09-11T06:10:52Z</time>
      </trkpt>
      <trkpt lat="42.51463" lon="2.1123">
        <ele>1616.7640380859</ele>
        <time>2011-09-11T06:10:53Z</time>
      </trkpt>
      <trkpt lat="42.51466" lon="2.11185">
        <ele>1613.4360351562</ele>
        <time>2011-09-11T06:10:58Z</time>
      </trkpt>
      <trkpt lat="42.51466" lon="2.11162">
        <ele>1610.6319580078</ele>
        <time>2011-09-11T06:11:01Z</time>
      </trkpt>
      <trkpt lat="42.51461" lon="2.11139">
        <ele>1607.7399902344</ele>
        <time>2011-09-11T06:11:05Z</time>
      </trkpt>
      <trkpt lat="42.51443" lon="2.11128">
        <ele>1605.5780029297</ele>
        <time>2011-09-11T06:11:09Z</time>
      </trkpt>
      <trkpt lat="42.51427" lon="2.11123">
        <ele>1604.6619873047</ele>
        <time>2011-09-11T06:11:12Z</time>
      </trkpt>
      <trkpt lat="42.51419" lon="2.11121">
        <ele>1603.8349609375</ele>
        <time>2011-09-11T06:11:14Z</time>
      </trkpt>
      <trkpt lat="42.51412" lon="2.11105">
        <ele>1602.7239990234</ele>
        <time>2011-09-11T06:11:18Z</time>
      </trkpt>
      <trkpt lat="42.51408" lon="2.11088">
        <ele>1604.0810546875</ele>
        <time>2011-09-11T06:11:23Z</time>
      </trkpt>
      <trkpt lat="42.51405" lon="2.11072">
        <ele>1605.3459472656</ele>
        <time>2011-09-11T06:11:28Z</time>
      </trkpt>
      <trkpt lat="42.51406" lon="2.11068">
        <ele>1605.9300537109</ele>
        <time>2011-09-11T06:11:31Z</time>
      </trkpt>
      <trkpt lat="42.51406" lon="2.1106">
        <ele>1606.2170410156</ele>
        <time>2011-09-11T06:11:36Z</time>
      </trkpt>
      <trkpt lat="42.51406" lon="2.11058">
        <ele>1606.3530273438</ele>
        <time>2011-09-11T06:11:37Z</time>
      </trkpt>
      <trkpt lat="42.51409" lon="2.11052">
        <ele>1606.6600341797</ele>
        <time>2011-09-11T06:11:41Z</time>
      </trkpt>
      <trkpt lat="42.51413" lon="2.11048">
        <ele>1606.8449707031</ele>
        <time>2011-09-11T06:11:43Z</time>
      </trkpt>
      <trkpt lat="42.51412" lon="2.1104">
        <ele>1607.7110595703</ele>
        <time>2011-09-11T06:11:48Z</time>
      </trkpt>
      <trkpt lat="42.51411" lon="2.11039">
        <ele>1607.7850341797</ele>
        <time>2011-09-11T06:11:49Z</time>
      </trkpt>
      <trkpt lat="42.51407" lon="2.11035">
        <ele>1608.3959960938</ele>
        <time>2011-09-11T06:11:53Z</time>
      </trkpt>
      <trkpt lat="42.5141" lon="2.11028">
        <ele>1608.4379882812</ele>
        <time>2011-09-11T06:11:58Z</time>
      </trkpt>
      <trkpt lat="42.51419" lon="2.1101">
        <ele>1609.7919921875</ele>
        <time>2011-09-11T06:12:05Z</time>
      </trkpt>
      <trkpt lat="42.51421" lon="2.10995">
        <ele>1611.083984375</ele>
        <time>2011-09-11T06:12:10Z</time>
      </trkpt>
      <trkpt lat="42.51426" lon="2.10969">
        <ele>1612.8179931641</ele>
        <time>2011-09-11T06:12:18Z</time>
      </trkpt>
      <trkpt lat="42.51431" lon="2.10958">
        <ele>1613.4420166016</ele>
        <time>2011-09-11T06:12:22Z</time>
      </trkpt>
      <trkpt lat="42.51434" lon="2.10944">
        <ele>1614.3599853516</ele>
        <time>2011-09-11T06:12:27Z</time>
      </trkpt>
      <trkpt lat="42.51434" lon="2.10941">
        <ele>1614.5069580078</ele>
        <time>2011-09-11T06:12:28Z</time>
      </trkpt>
      <trkpt lat="42.51438" lon="2.10925">
        <ele>1615.8690185547</ele>
        <time>2011-09-11T06:12:33Z</time>
      </trkpt>
      <trkpt lat="42.5144" lon="2.10916">
        <ele>1616.8149414062</ele>
        <time>2011-09-11T06:12:37Z</time>
      </trkpt>
      <trkpt lat="42.5144" lon="2.10911">
        <ele>1617.4329833984</ele>
        <time>2011-09-11T06:12:39Z</time>
      </trkpt>
      <trkpt lat="42.51446" lon="2.10902">
        <ele>1618.7419433594</ele>
        <time>2011-09-11T06:12:44Z</time>
      </trkpt>
      <trkpt lat="42.51455" lon="2.10889">
        <ele>1618.8990478516</ele>
        <time>2011-09-11T06:12:49Z</time>
      </trkpt>
      <trkpt lat="42.51463" lon="2.10875">
        <ele>1619.6820068359</ele>
        <time>2011-09-11T06:12:54Z</time>
      </trkpt>
      <trkpt lat="42.51469" lon="2.10862">
        <ele>1621.2039794922</ele>
        <time>2011-09-11T06:12:59Z</time>
      </trkpt>
      <trkpt lat="42.51474" lon="2.10848">
        <ele>1622.6860351562</ele>
        <time>2011-09-11T06:13:05Z</time>
      </trkpt>
      <trkpt lat="42.51475" lon="2.10833">
        <ele>1623.5489501953</ele>
        <time>2011-09-11T06:13:10Z</time>
      </trkpt>
      <trkpt lat="42.51476" lon="2.10827">
        <ele>1623.8630371094</ele>
        <time>2011-09-11T06:13:12Z</time>
      </trkpt>
      <trkpt lat="42.51476" lon="2.10816">
        <ele>1624.5360107422</ele>
        <time>2011-09-11T06:13:16Z</time>
      </trkpt>
      <trkpt lat="42.51477" lon="2.10794">
        <ele>1625.2099609375</ele>
        <time>2011-09-11T06:13:23Z</time>
      </trkpt>
      <trkpt lat="42.51478" lon="2.10782">
        <ele>1625.8310546875</ele>
        <time>2011-09-11T06:13:27Z</time>
      </trkpt>
      <trkpt lat="42.5148" lon="2.10774">
        <ele>1626.5699462891</ele>
        <time>2011-09-11T06:13:30Z</time>
      </trkpt>
      <trkpt lat="42.51486" lon="2.10753">
        <ele>1626.9229736328</ele>
        <time>2011-09-11T06:13:37Z</time>
      </trkpt>
      <trkpt lat="42.51482" lon="2.1074">
        <ele>1627.1300048828</ele>
        <time>2011-09-11T06:13:42Z</time>
      </trkpt>
      <trkpt lat="42.51476" lon="2.10732">
        <ele>1627.7259521484</ele>
        <time>2011-09-11T06:13:46Z</time>
      </trkpt>
      <trkpt lat="42.5147" lon="2.10721">
        <ele>1628.373046875</ele>
        <time>2011-09-11T06:13:51Z</time>
      </trkpt>
      <trkpt lat="42.51466" lon="2.10705">
        <ele>1628.7419433594</ele>
        <time>2011-09-11T06:13:56Z</time>
      </trkpt>
      <trkpt lat="42.51462" lon="2.10696">
        <ele>1629.5539550781</ele>
        <time>2011-09-11T06:13:59Z</time>
      </trkpt>
      <trkpt lat="42.51453" lon="2.10676">
        <ele>1631.7740478516</ele>
        <time>2011-09-11T06:14:05Z</time>
      </trkpt>
      <trkpt lat="42.51448" lon="2.10659">
        <ele>1632.4460449219</ele>
        <time>2011-09-11T06:14:10Z</time>
      </trkpt>
      <trkpt lat="42.51451" lon="2.1064">
        <ele>1632.3389892578</ele>
        <time>2011-09-11T06:14:15Z</time>
      </trkpt>
      <trkpt lat="42.51453" lon="2.10625">
        <ele>1632.4389648438</ele>
        <time>2011-09-11T06:14:19Z</time>
      </trkpt>
      <trkpt lat="42.51457" lon="2.10591">
        <ele>1634.29296875</ele>
        <time>2011-09-11T06:14:28Z</time>
      </trkpt>
      <trkpt lat="42.51464" lon="2.10565">
        <ele>1636.2030029297</ele>
        <time>2011-09-11T06:14:36Z</time>
      </trkpt>
      <trkpt lat="42.51471" lon="2.10544">
        <ele>1638.1219482422</ele>
        <time>2011-09-11T06:14:43Z</time>
      </trkpt>
      <trkpt lat="42.51476" lon="2.10527">
        <ele>1639.9139404297</ele>
        <time>2011-09-11T06:14:49Z</time>
      </trkpt>
      <trkpt lat="42.5148" lon="2.10514">
        <ele>1641.5040283203</ele>
        <time>2011-09-11T06:14:54Z</time>
      </trkpt>
      <trkpt lat="42.51479" lon="2.105">
        <ele>1642.9840087891</ele>
        <time>2011-09-11T06:15:00Z</time>
      </trkpt>
      <trkpt lat="42.51472" lon="2.10488">
        <ele>1644.4399414062</ele>
        <time>2011-09-11T06:15:06Z</time>
      </trkpt>
      <trkpt lat="42.51472" lon="2.10486">
        <ele>1644.6390380859</ele>
        <time>2011-09-11T06:15:07Z</time>
      </trkpt>
      <trkpt lat="42.51467" lon="2.1048">
        <ele>1645.3299560547</ele>
        <time>2011-09-11T06:15:11Z</time>
      </trkpt>
      <trkpt lat="42.51457" lon="2.1047">
        <ele>1646.1479492188</ele>
        <time>2011-09-11T06:15:17Z</time>
      </trkpt>
      <trkpt lat="42.51454" lon="2.10463">
        <ele>1646.4759521484</ele>
        <time>2011-09-11T06:15:20Z</time>
      </trkpt>
      <trkpt lat="42.5144" lon="2.10456">
        <ele>1646.8100585938</ele>
        <time>2011-09-11T06:15:26Z</time>
      </trkpt>
      <trkpt lat="42.51435" lon="2.10453">
        <ele>1646.9129638672</ele>
        <time>2011-09-11T06:15:28Z</time>
      </trkpt>
      <trkpt lat="42.51418" lon="2.10459">
        <ele>1647.1939697266</ele>
        <time>2011-09-11T06:15:34Z</time>
      </trkpt>
      <trkpt lat="42.51403" lon="2.10464">
        <ele>1647.3549804688</ele>
        <time>2011-09-11T06:15:40Z</time>
      </trkpt>
      <trkpt lat="42.51392" lon="2.10463">
        <ele>1647.7550048828</ele>
        <time>2011-09-11T06:15:45Z</time>
      </trkpt>
      <trkpt lat="42.51376" lon="2.1045">
        <ele>1648.1610107422</ele>
        <time>2011-09-11T06:15:51Z</time>
      </trkpt>
      <trkpt lat="42.51359" lon="2.10431">
        <ele>1648.5500488281</ele>
        <time>2011-09-11T06:15:58Z</time>
      </trkpt>
      <trkpt lat="42.51353" lon="2.10423">
        <ele>1648.8179931641</ele>
        <time>2011-09-11T06:16:00Z</time>
      </trkpt>
      <trkpt lat="42.51345" lon="2.10391">
        <ele>1649.8990478516</ele>
        <time>2011-09-11T06:16:06Z</time>
      </trkpt>
      <trkpt lat="42.51339" lon="2.10377">
        <ele>1650.3189697266</ele>
        <time>2011-09-11T06:16:09Z</time>
      </trkpt>
      <trkpt lat="42.51343" lon="2.10354">
        <ele>1650.4040527344</ele>
        <time>2011-09-11T06:16:13Z</time>
      </trkpt>
      <trkpt lat="42.51362" lon="2.10308">
        <ele>1651.1490478516</ele>
        <time>2011-09-11T06:16:21Z</time>
      </trkpt>
      <trkpt lat="42.51378" lon="2.10269">
        <ele>1651.8740234375</ele>
        <time>2011-09-11T06:16:29Z</time>
      </trkpt>
      <trkpt lat="42.51381" lon="2.10264">
        <ele>1652.1259765625</ele>
        <time>2011-09-11T06:16:30Z</time>
      </trkpt>
      <trkpt lat="42.51395" lon="2.10238">
        <ele>1653.5109863281</ele>
        <time>2011-09-11T06:16:36Z</time>
      </trkpt>
      <trkpt lat="42.51404" lon="2.10221">
        <ele>1654.9150390625</ele>
        <time>2011-09-11T06:16:40Z</time>
      </trkpt>
      <trkpt lat="42.5141" lon="2.10207">
        <ele>1655.5710449219</ele>
        <time>2011-09-11T06:16:43Z</time>
      </trkpt>
      <trkpt lat="42.51412" lon="2.10186">
        <ele>1655.7340087891</ele>
        <time>2011-09-11T06:16:47Z</time>
      </trkpt>
      <trkpt lat="42.51409" lon="2.10175">
        <ele>1655.7290039062</ele>
        <time>2011-09-11T06:16:49Z</time>
      </trkpt>
      <trkpt lat="42.51404" lon="2.10143">
        <ele>1655.8580322266</ele>
        <time>2011-09-11T06:16:54Z</time>
      </trkpt>
      <trkpt lat="42.51408" lon="2.10132">
        <ele>1655.8690185547</ele>
        <time>2011-09-11T06:16:56Z</time>
      </trkpt>
      <trkpt lat="42.51414" lon="2.1012">
        <ele>1655.7249755859</ele>
        <time>2011-09-11T06:16:58Z</time>
      </trkpt>
      <trkpt lat="42.51425" lon="2.10105">
        <ele>1655.0980224609</ele>
        <time>2011-09-11T06:17:01Z</time>
      </trkpt>
      <trkpt lat="42.51433" lon="2.10094">
        <ele>1654.4639892578</ele>
        <time>2011-09-11T06:17:03Z</time>
      </trkpt>
      <trkpt lat="42.51442" lon="2.10078">
        <ele>1654.2449951172</ele>
        <time>2011-09-11T06:17:06Z</time>
      </trkpt>
      <trkpt lat="42.51463" lon="2.10054">
        <ele>1653.2060546875</ele>
        <time>2011-09-11T06:17:12Z</time>
      </trkpt>
      <trkpt lat="42.51467" lon="2.10042">
        <ele>1652.8830566406</ele>
        <time>2011-09-11T06:17:16Z</time>
      </trkpt>
      <trkpt lat="42.5147" lon="2.10035">
        <ele>1652.7209472656</ele>
        <time>2011-09-11T06:17:20Z</time>
      </trkpt>
      <trkpt lat="42.5147" lon="2.10033">
        <ele>1652.8120117188</ele>
        <time>2011-09-11T06:17:23Z</time>
      </trkpt>
      <trkpt lat="42.51462" lon="2.1002">
        <ele>1653.0889892578</ele>
        <time>2011-09-11T06:17:30Z</time>
      </trkpt>
      <trkpt lat="42.51471" lon="2.10009">
        <ele>1653.0469970703</ele>
        <time>2011-09-11T06:17:36Z</time>
      </trkpt>
      <trkpt lat="42.51473" lon="2.10001">
        <ele>1653.0529785156</ele>
        <time>2011-09-11T06:17:40Z</time>
      </trkpt>
      <trkpt lat="42.5148" lon="2.09996">
        <ele>1653.0520019531</ele>
        <time>2011-09-11T06:17:44Z</time>
      </trkpt>
      <trkpt lat="42.51485" lon="2.09987">
        <ele>1652.9489746094</ele>
        <time>2011-09-11T06:17:49Z</time>
      </trkpt>
      <trkpt lat="42.51491" lon="2.09979">
        <ele>1652.6889648438</ele>
        <time>2011-09-11T06:17:53Z</time>
      </trkpt>
      <trkpt lat="42.51492" lon="2.09976">
        <ele>1652.7729492188</ele>
        <time>2011-09-11T06:17:54Z</time>
      </trkpt>
      <trkpt lat="42.51496" lon="2.0996">
        <ele>1653.5989990234</ele>
        <time>2011-09-11T06:18:00Z</time>
      </trkpt>
      <trkpt lat="42.51496" lon="2.09958">
        <ele>1653.6860351562</ele>
        <time>2011-09-11T06:18:01Z</time>
      </trkpt>
      <trkpt lat="42.51498" lon="2.09954">
        <ele>1653.7449951172</ele>
        <time>2011-09-11T06:18:03Z</time>
      </trkpt>
      <trkpt lat="42.51506" lon="2.09948">
        <ele>1653.9580078125</ele>
        <time>2011-09-11T06:18:07Z</time>
      </trkpt>
      <trkpt lat="42.51524" lon="2.09946">
        <ele>1654.7299804688</ele>
        <time>2011-09-11T06:18:12Z</time>
      </trkpt>
      <trkpt lat="42.51539" lon="2.09948">
        <ele>1655.2399902344</ele>
        <time>2011-09-11T06:18:16Z</time>
      </trkpt>
      <trkpt lat="42.51551" lon="2.0995">
        <ele>1654.6700439453</ele>
        <time>2011-09-11T06:18:21Z</time>
      </trkpt>
      <trkpt lat="42.51564" lon="2.09955">
        <ele>1654.3850097656</ele>
        <time>2011-09-11T06:18:25Z</time>
      </trkpt>
      <trkpt lat="42.51577" lon="2.09957">
        <ele>1654.6590576172</ele>
        <time>2011-09-11T06:18:29Z</time>
      </trkpt>
      <trkpt lat="42.5159" lon="2.09958">
        <ele>1655.0119628906</ele>
        <time>2011-09-11T06:18:33Z</time>
      </trkpt>
      <trkpt lat="42.51601" lon="2.09955">
        <ele>1656.0419921875</ele>
        <time>2011-09-11T06:18:38Z</time>
      </trkpt>
      <trkpt lat="42.51621" lon="2.0995">
        <ele>1657.0469970703</ele>
        <time>2011-09-11T06:18:44Z</time>
      </trkpt>
      <trkpt lat="42.51628" lon="2.09954">
        <ele>1657.3199462891</ele>
        <time>2011-09-11T06:18:46Z</time>
      </trkpt>
      <trkpt lat="42.51645" lon="2.0995">
        <ele>1657.8489990234</ele>
        <time>2011-09-11T06:18:50Z</time>
      </trkpt>
      <trkpt lat="42.51656" lon="2.09948">
        <ele>1658.3299560547</ele>
        <time>2011-09-11T06:18:53Z</time>
      </trkpt>
      <trkpt lat="42.51668" lon="2.09935">
        <ele>1658.2979736328</ele>
        <time>2011-09-11T06:18:57Z</time>
      </trkpt>
      <trkpt lat="42.51673" lon="2.09921">
        <ele>1658.3010253906</ele>
        <time>2011-09-11T06:19:00Z</time>
      </trkpt>
      <trkpt lat="42.51677" lon="2.09907">
        <ele>1658.0909423828</ele>
        <time>2011-09-11T06:19:04Z</time>
      </trkpt>
      <trkpt lat="42.51685" lon="2.09896">
        <ele>1658.0889892578</ele>
        <time>2011-09-11T06:19:08Z</time>
      </trkpt>
      <trkpt lat="42.51693" lon="2.09879">
        <ele>1658.126953125</ele>
        <time>2011-09-11T06:19:12Z</time>
      </trkpt>
      <trkpt lat="42.51695" lon="2.09875">
        <ele>1658.1560058594</ele>
        <time>2011-09-11T06:19:13Z</time>
      </trkpt>
      <trkpt lat="42.51698" lon="2.09865">
        <ele>1657.9260253906</ele>
        <time>2011-09-11T06:19:16Z</time>
      </trkpt>
      <trkpt lat="42.51703" lon="2.09851">
        <ele>1657.9090576172</ele>
        <time>2011-09-11T06:19:20Z</time>
      </trkpt>
      <trkpt lat="42.51704" lon="2.09848">
        <ele>1657.9360351562</ele>
        <time>2011-09-11T06:19:21Z</time>
      </trkpt>
      <trkpt lat="42.51708" lon="2.09837">
        <ele>1657.9060058594</ele>
        <time>2011-09-11T06:19:24Z</time>
      </trkpt>
      <trkpt lat="42.51724" lon="2.09807">
        <ele>1657.2330322266</ele>
        <time>2011-09-11T06:19:30Z</time>
      </trkpt>
      <trkpt lat="42.51732" lon="2.09786">
        <ele>1657.3089599609</ele>
        <time>2011-09-11T06:19:34Z</time>
      </trkpt>
      <trkpt lat="42.51735" lon="2.09752">
        <ele>1657.5799560547</ele>
        <time>2011-09-11T06:19:40Z</time>
      </trkpt>
      <trkpt lat="42.51735" lon="2.09728">
        <ele>1658.7299804688</ele>
        <time>2011-09-11T06:19:45Z</time>
      </trkpt>
      <trkpt lat="42.51735" lon="2.09725">
        <ele>1658.8349609375</ele>
        <time>2011-09-11T06:19:46Z</time>
      </trkpt>
      <trkpt lat="42.51745" lon="2.09717">
        <ele>1658.9969482422</ele>
        <time>2011-09-11T06:19:50Z</time>
      </trkpt>
      <trkpt lat="42.51758" lon="2.09706">
        <ele>1657.7879638672</ele>
        <time>2011-09-11T06:19:53Z</time>
      </trkpt>
      <trkpt lat="42.51765" lon="2.09687">
        <ele>1657.0140380859</ele>
        <time>2011-09-11T06:19:57Z</time>
      </trkpt>
      <trkpt lat="42.51765" lon="2.09683">
        <ele>1657.0529785156</ele>
        <time>2011-09-11T06:19:58Z</time>
      </trkpt>
      <trkpt lat="42.51754" lon="2.09654">
        <ele>1657.2239990234</ele>
        <time>2011-09-11T06:20:04Z</time>
      </trkpt>
      <trkpt lat="42.51747" lon="2.0964">
        <ele>1657.2869873047</ele>
        <time>2011-09-11T06:20:07Z</time>
      </trkpt>
      <trkpt lat="42.5173" lon="2.09615">
        <ele>1657.3909912109</ele>
        <time>2011-09-11T06:20:13Z</time>
      </trkpt>
      <trkpt lat="42.51726" lon="2.09592">
        <ele>1657.8289794922</ele>
        <time>2011-09-11T06:20:18Z</time>
      </trkpt>
      <trkpt lat="42.51724" lon="2.09565">
        <ele>1657.9420166016</ele>
        <time>2011-09-11T06:20:23Z</time>
      </trkpt>
      <trkpt lat="42.51722" lon="2.09542">
        <ele>1657.7380371094</ele>
        <time>2011-09-11T06:20:28Z</time>
      </trkpt>
      <trkpt lat="42.51731" lon="2.09516">
        <ele>1657.2600097656</ele>
        <time>2011-09-11T06:20:34Z</time>
      </trkpt>
      <trkpt lat="42.51744" lon="2.09499">
        <ele>1657.3909912109</ele>
        <time>2011-09-11T06:20:39Z</time>
      </trkpt>
      <trkpt lat="42.51756" lon="2.09493">
        <ele>1657.4520263672</ele>
        <time>2011-09-11T06:20:43Z</time>
      </trkpt>
      <trkpt lat="42.51782" lon="2.09487">
        <ele>1657.0030517578</ele>
        <time>2011-09-11T06:20:50Z</time>
      </trkpt>
      <trkpt lat="42.51802" lon="2.09494">
        <ele>1657.3000488281</ele>
        <time>2011-09-11T06:20:56Z</time>
      </trkpt>
      <trkpt lat="42.51814" lon="2.09502">
        <ele>1657.2629394531</ele>
        <time>2011-09-11T06:20:59Z</time>
      </trkpt>
      <trkpt lat="42.51836" lon="2.09524">
        <ele>1657.2860107422</ele>
        <time>2011-09-11T06:21:06Z</time>
      </trkpt>
      <trkpt lat="42.51841" lon="2.09531">
        <ele>1657.4289550781</ele>
        <time>2011-09-11T06:21:08Z</time>
      </trkpt>
      <trkpt lat="42.51841" lon="2.09552">
        <ele>1658.0119628906</ele>
        <time>2011-09-11T06:21:13Z</time>
      </trkpt>
      <trkpt lat="42.5185" lon="2.09555">
        <ele>1657.8280029297</ele>
        <time>2011-09-11T06:21:16Z</time>
      </trkpt>
      <trkpt lat="42.51857" lon="2.09548">
        <ele>1657.5670166016</ele>
        <time>2011-09-11T06:21:18Z</time>
      </trkpt>
      <trkpt lat="42.51875" lon="2.09525">
        <ele>1658.1169433594</ele>
        <time>2011-09-11T06:21:24Z</time>
      </trkpt>
      <trkpt lat="42.51879" lon="2.09507">
        <ele>1658.1719970703</ele>
        <time>2011-09-11T06:21:29Z</time>
      </trkpt>
      <trkpt lat="42.51879" lon="2.09503">
        <ele>1658.0600585938</ele>
        <time>2011-09-11T06:21:30Z</time>
      </trkpt>
      <trkpt lat="42.51873" lon="2.09489">
        <ele>1657.2340087891</ele>
        <time>2011-09-11T06:21:34Z</time>
      </trkpt>
      <trkpt lat="42.5186" lon="2.09472">
        <ele>1656.41796875</ele>
        <time>2011-09-11T06:21:39Z</time>
      </trkpt>
      <trkpt lat="42.51858" lon="2.09451">
        <ele>1656.7130126953</ele>
        <time>2011-09-11T06:21:44Z</time>
      </trkpt>
      <trkpt lat="42.51852" lon="2.09431">
        <ele>1657.1529541016</ele>
        <time>2011-09-11T06:21:48Z</time>
      </trkpt>
      <trkpt lat="42.51849" lon="2.09414">
        <ele>1657.2939453125</ele>
        <time>2011-09-11T06:21:51Z</time>
      </trkpt>
      <trkpt lat="42.51852" lon="2.09379">
        <ele>1657.1450195312</ele>
        <time>2011-09-11T06:21:57Z</time>
      </trkpt>
      <trkpt lat="42.51864" lon="2.09357">
        <ele>1657.3459472656</ele>
        <time>2011-09-11T06:22:02Z</time>
      </trkpt>
      <trkpt lat="42.51884" lon="2.09353">
        <ele>1657.5300292969</ele>
        <time>2011-09-11T06:22:07Z</time>
      </trkpt>
      <trkpt lat="42.519" lon="2.09353">
        <ele>1657.5989990234</ele>
        <time>2011-09-11T06:22:10Z</time>
      </trkpt>
      <trkpt lat="42.51924" lon="2.09356">
        <ele>1657.7419433594</ele>
        <time>2011-09-11T06:22:16Z</time>
      </trkpt>
      <trkpt lat="42.51939" lon="2.0935">
        <ele>1658.0930175781</ele>
        <time>2011-09-11T06:22:20Z</time>
      </trkpt>
      <trkpt lat="42.51946" lon="2.09343">
        <ele>1658.3879394531</ele>
        <time>2011-09-11T06:22:22Z</time>
      </trkpt>
      <trkpt lat="42.51964" lon="2.09324">
        <ele>1658.5649414062</ele>
        <time>2011-09-11T06:22:27Z</time>
      </trkpt>
      <trkpt lat="42.51969" lon="2.09324">
        <ele>1658.5760498047</ele>
        <time>2011-09-11T06:22:28Z</time>
      </trkpt>
      <trkpt lat="42.51996" lon="2.09323">
        <ele>1658.8060302734</ele>
        <time>2011-09-11T06:22:34Z</time>
      </trkpt>
      <trkpt lat="42.52" lon="2.09323">
        <ele>1658.8620605469</ele>
        <time>2011-09-11T06:22:35Z</time>
      </trkpt>
      <trkpt lat="42.52014" lon="2.09322">
        <ele>1658.9460449219</ele>
        <time>2011-09-11T06:22:38Z</time>
      </trkpt>
      <trkpt lat="42.52042" lon="2.09333">
        <ele>1658.8640136719</ele>
        <time>2011-09-11T06:22:44Z</time>
      </trkpt>
      <trkpt lat="42.52058" lon="2.09344">
        <ele>1658.5350341797</ele>
        <time>2011-09-11T06:22:48Z</time>
      </trkpt>
      <trkpt lat="42.52078" lon="2.09357">
        <ele>1658.8969726562</ele>
        <time>2011-09-11T06:22:54Z</time>
      </trkpt>
      <trkpt lat="42.52094" lon="2.09361">
        <ele>1659.9720458984</ele>
        <time>2011-09-11T06:22:58Z</time>
      </trkpt>
      <trkpt lat="42.52101" lon="2.09362">
        <ele>1660.2879638672</ele>
        <time>2011-09-11T06:23:00Z</time>
      </trkpt>
      <trkpt lat="42.5212" lon="2.09369">
        <ele>1660.6059570312</ele>
        <time>2011-09-11T06:23:04Z</time>
      </trkpt>
      <trkpt lat="42.5215" lon="2.09371">
        <ele>1661</ele>
        <time>2011-09-11T06:23:10Z</time>
      </trkpt>
      <trkpt lat="42.52168" lon="2.09377">
        <ele>1660.9909667969</ele>
        <time>2011-09-11T06:23:14Z</time>
      </trkpt>
      <trkpt lat="42.52185" lon="2.09379">
        <ele>1660.8160400391</ele>
        <time>2011-09-11T06:23:18Z</time>
      </trkpt>
      <trkpt lat="42.52216" lon="2.09392">
        <ele>1660.8570556641</ele>
        <time>2011-09-11T06:23:24Z</time>
      </trkpt>
      <trkpt lat="42.52249" lon="2.09406">
        <ele>1661.0379638672</ele>
        <time>2011-09-11T06:23:30Z</time>
      </trkpt>
      <trkpt lat="42.52268" lon="2.09413">
        <ele>1661.41796875</ele>
        <time>2011-09-11T06:23:34Z</time>
      </trkpt>
      <trkpt lat="42.52291" lon="2.09419">
        <ele>1662.3890380859</ele>
        <time>2011-09-11T06:23:39Z</time>
      </trkpt>
      <trkpt lat="42.5231" lon="2.09426">
        <ele>1663.6490478516</ele>
        <time>2011-09-11T06:23:44Z</time>
      </trkpt>
      <trkpt lat="42.52325" lon="2.09426">
        <ele>1664.7629394531</ele>
        <time>2011-09-11T06:23:48Z</time>
      </trkpt>
      <trkpt lat="42.52348" lon="2.09433">
        <ele>1665.7769775391</ele>
        <time>2011-09-11T06:23:53Z</time>
      </trkpt>
      <trkpt lat="42.52365" lon="2.09444">
        <ele>1666.6359863281</ele>
        <time>2011-09-11T06:23:58Z</time>
      </trkpt>
      <trkpt lat="42.52373" lon="2.09453">
        <ele>1667.3659667969</ele>
        <time>2011-09-11T06:24:02Z</time>
      </trkpt>
      <trkpt lat="42.52381" lon="2.09471">
        <ele>1668.4990234375</ele>
        <time>2011-09-11T06:24:08Z</time>
      </trkpt>
      <trkpt lat="42.52382" lon="2.09476">
        <ele>1669.3120117188</ele>
        <time>2011-09-11T06:24:10Z</time>
      </trkpt>
      <trkpt lat="42.52384" lon="2.09479">
        <ele>1669.8990478516</ele>
        <time>2011-09-11T06:24:12Z</time>
      </trkpt>
      <trkpt lat="42.52398" lon="2.09487">
        <ele>1670.9639892578</ele>
        <time>2011-09-11T06:24:17Z</time>
      </trkpt>
      <trkpt lat="42.52412" lon="2.09491">
        <ele>1671.6120605469</ele>
        <time>2011-09-11T06:24:23Z</time>
      </trkpt>
      <trkpt lat="42.5243" lon="2.09494">
        <ele>1672.5889892578</ele>
        <time>2011-09-11T06:24:29Z</time>
      </trkpt>
      <trkpt lat="42.52448" lon="2.09496">
        <ele>1673.7490234375</ele>
        <time>2011-09-11T06:24:35Z</time>
      </trkpt>
      <trkpt lat="42.52465" lon="2.09497">
        <ele>1674.7840576172</ele>
        <time>2011-09-11T06:24:42Z</time>
      </trkpt>
      <trkpt lat="42.52473" lon="2.09502">
        <ele>1675.2530517578</ele>
        <time>2011-09-11T06:24:46Z</time>
      </trkpt>
      <trkpt lat="42.52475" lon="2.09503">
        <ele>1675.2709960938</ele>
        <time>2011-09-11T06:24:47Z</time>
      </trkpt>
      <trkpt lat="42.52488" lon="2.09504">
        <ele>1676.1390380859</ele>
        <time>2011-09-11T06:24:53Z</time>
      </trkpt>
      <trkpt lat="42.52492" lon="2.09503">
        <ele>1676.5219726562</ele>
        <time>2011-09-11T06:24:55Z</time>
      </trkpt>
      <trkpt lat="42.52504" lon="2.09494">
        <ele>1677.6540527344</ele>
        <time>2011-09-11T06:25:01Z</time>
      </trkpt>
      <trkpt lat="42.52505" lon="2.09492">
        <ele>1677.8719482422</ele>
        <time>2011-09-11T06:25:02Z</time>
      </trkpt>
      <trkpt lat="42.52519" lon="2.0948">
        <ele>1678.6199951172</ele>
        <time>2011-09-11T06:25:08Z</time>
      </trkpt>
      <trkpt lat="42.52528" lon="2.09474">
        <ele>1679.2810058594</ele>
        <time>2011-09-11T06:25:12Z</time>
      </trkpt>
      <trkpt lat="42.52536" lon="2.09463">
        <ele>1680.1870117188</ele>
        <time>2011-09-11T06:25:17Z</time>
      </trkpt>
      <trkpt lat="42.52545" lon="2.09455">
        <ele>1681.2039794922</ele>
        <time>2011-09-11T06:25:22Z</time>
      </trkpt>
      <trkpt lat="42.52551" lon="2.09452">
        <ele>1681.6899414062</ele>
        <time>2011-09-11T06:25:25Z</time>
      </trkpt>
      <trkpt lat="42.52566" lon="2.09445">
        <ele>1682.7509765625</ele>
        <time>2011-09-11T06:25:32Z</time>
      </trkpt>
      <trkpt lat="42.52576" lon="2.09441">
        <ele>1683.1970214844</ele>
        <time>2011-09-11T06:25:36Z</time>
      </trkpt>
      <trkpt lat="42.52582" lon="2.09441">
        <ele>1683.4510498047</ele>
        <time>2011-09-11T06:25:38Z</time>
      </trkpt>
      <trkpt lat="42.52587" lon="2.09452">
        <ele>1683.9420166016</ele>
        <time>2011-09-11T06:25:42Z</time>
      </trkpt>
      <trkpt lat="42.52583" lon="2.09474">
        <ele>1685.2209472656</ele>
        <time>2011-09-11T06:25:49Z</time>
      </trkpt>
      <trkpt lat="42.52579" lon="2.09491">
        <ele>1686.3010253906</ele>
        <time>2011-09-11T06:25:55Z</time>
      </trkpt>
      <trkpt lat="42.52577" lon="2.09504">
        <ele>1687.0589599609</ele>
        <time>2011-09-11T06:26:00Z</time>
      </trkpt>
      <trkpt lat="42.52575" lon="2.09523">
        <ele>1687.8380126953</ele>
        <time>2011-09-11T06:26:07Z</time>
      </trkpt>
      <trkpt lat="42.52574" lon="2.09542">
        <ele>1688.3929443359</ele>
        <time>2011-09-11T06:26:13Z</time>
      </trkpt>
      <trkpt lat="42.5257" lon="2.09562">
        <ele>1689.6219482422</ele>
        <time>2011-09-11T06:26:20Z</time>
      </trkpt>
      <trkpt lat="42.52568" lon="2.09583">
        <ele>1690.7039794922</ele>
        <time>2011-09-11T06:26:27Z</time>
      </trkpt>
      <trkpt lat="42.52569" lon="2.09603">
        <ele>1691.4310302734</ele>
        <time>2011-09-11T06:26:33Z</time>
      </trkpt>
      <trkpt lat="42.52573" lon="2.09623">
        <ele>1691.6369628906</ele>
        <time>2011-09-11T06:26:38Z</time>
      </trkpt>
      <trkpt lat="42.52579" lon="2.09644">
        <ele>1692.2270507812</ele>
        <time>2011-09-11T06:26:44Z</time>
      </trkpt>
      <trkpt lat="42.52588" lon="2.09663">
        <ele>1692.8439941406</ele>
        <time>2011-09-11T06:26:49Z</time>
      </trkpt>
      <trkpt lat="42.52605" lon="2.09676">
        <ele>1692.8630371094</ele>
        <time>2011-09-11T06:26:55Z</time>
      </trkpt>
      <trkpt lat="42.52617" lon="2.09674">
        <ele>1693.5520019531</ele>
        <time>2011-09-11T06:26:59Z</time>
      </trkpt>
      <trkpt lat="42.5262" lon="2.0966">
        <ele>1695.1920166016</ele>
        <time>2011-09-11T06:27:04Z</time>
      </trkpt>
      <trkpt lat="42.52618" lon="2.09645">
        <ele>1696.1459960938</ele>
        <time>2011-09-11T06:27:09Z</time>
      </trkpt>
      <trkpt lat="42.52623" lon="2.09629">
        <ele>1696.833984375</ele>
        <time>2011-09-11T06:27:14Z</time>
      </trkpt>
      <trkpt lat="42.52624" lon="2.09626">
        <ele>1696.9809570312</ele>
        <time>2011-09-11T06:27:15Z</time>
      </trkpt>
      <trkpt lat="42.52637" lon="2.0961">
        <ele>1697.8990478516</ele>
        <time>2011-09-11T06:27:22Z</time>
      </trkpt>
      <trkpt lat="42.52646" lon="2.09597">
        <ele>1699.2020263672</ele>
        <time>2011-09-11T06:27:27Z</time>
      </trkpt>
      <trkpt lat="42.52655" lon="2.09581">
        <ele>1700.0460205078</ele>
        <time>2011-09-11T06:27:33Z</time>
      </trkpt>
      <trkpt lat="42.52664" lon="2.09569">
        <ele>1701.25</ele>
        <time>2011-09-11T06:27:39Z</time>
      </trkpt>
      <trkpt lat="42.52675" lon="2.09559">
        <ele>1702.0510253906</ele>
        <time>2011-09-11T06:27:45Z</time>
      </trkpt>
      <trkpt lat="42.52685" lon="2.09554">
        <ele>1703.0980224609</ele>
        <time>2011-09-11T06:27:51Z</time>
      </trkpt>
      <trkpt lat="42.52695" lon="2.0955">
        <ele>1704.3890380859</ele>
        <time>2011-09-11T06:27:57Z</time>
      </trkpt>
      <trkpt lat="42.52705" lon="2.09545">
        <ele>1705.2750244141</ele>
        <time>2011-09-11T06:28:04Z</time>
      </trkpt>
      <trkpt lat="42.52715" lon="2.09542">
        <ele>1706.1330566406</ele>
        <time>2011-09-11T06:28:10Z</time>
      </trkpt>
      <trkpt lat="42.52726" lon="2.09541">
        <ele>1707.3249511719</ele>
        <time>2011-09-11T06:28:17Z</time>
      </trkpt>
      <trkpt lat="42.52731" lon="2.09538">
        <ele>1707.7540283203</ele>
        <time>2011-09-11T06:28:20Z</time>
      </trkpt>
      <trkpt lat="42.52736" lon="2.09535">
        <ele>1708.2609863281</ele>
        <time>2011-09-11T06:28:23Z</time>
      </trkpt>
      <trkpt lat="42.52748" lon="2.09531">
        <ele>1709.2020263672</ele>
        <time>2011-09-11T06:28:30Z</time>
      </trkpt>
      <trkpt lat="42.52752" lon="2.0953">
        <ele>1709.5100097656</ele>
        <time>2011-09-11T06:28:32Z</time>
      </trkpt>
      <trkpt lat="42.52764" lon="2.09523">
        <ele>1710.4300537109</ele>
        <time>2011-09-11T06:28:39Z</time>
      </trkpt>
      <trkpt lat="42.52774" lon="2.09517">
        <ele>1711.4270019531</ele>
        <time>2011-09-11T06:28:45Z</time>
      </trkpt>
      <trkpt lat="42.52785" lon="2.0951">
        <ele>1712.6850585938</ele>
        <time>2011-09-11T06:28:51Z</time>
      </trkpt>
      <trkpt lat="42.52795" lon="2.09505">
        <ele>1713.5450439453</ele>
        <time>2011-09-11T06:28:56Z</time>
      </trkpt>
      <trkpt lat="42.52804" lon="2.09501">
        <ele>1714.5999755859</ele>
        <time>2011-09-11T06:29:01Z</time>
      </trkpt>
      <trkpt lat="42.52814" lon="2.09495">
        <ele>1715.9449462891</ele>
        <time>2011-09-11T06:29:07Z</time>
      </trkpt>
      <trkpt lat="42.52825" lon="2.09489">
        <ele>1717.2209472656</ele>
        <time>2011-09-11T06:29:13Z</time>
      </trkpt>
      <trkpt lat="42.52837" lon="2.09481">
        <ele>1717.83203125</ele>
        <time>2011-09-11T06:29:19Z</time>
      </trkpt>
      <trkpt lat="42.52849" lon="2.09467">
        <ele>1718.6949462891</ele>
        <time>2011-09-11T06:29:26Z</time>
      </trkpt>
      <trkpt lat="42.52864" lon="2.09454">
        <ele>1719.7080078125</ele>
        <time>2011-09-11T06:29:33Z</time>
      </trkpt>
      <trkpt lat="42.52876" lon="2.09448">
        <ele>1720.8070068359</ele>
        <time>2011-09-11T06:29:38Z</time>
      </trkpt>
      <trkpt lat="42.52883" lon="2.09441">
        <ele>1721.5600585938</ele>
        <time>2011-09-11T06:29:43Z</time>
      </trkpt>
      <trkpt lat="42.52895" lon="2.09421">
        <ele>1721.8330078125</ele>
        <time>2011-09-11T06:29:51Z</time>
      </trkpt>
      <trkpt lat="42.52906" lon="2.09403">
        <ele>1721.2650146484</ele>
        <time>2011-09-11T06:29:57Z</time>
      </trkpt>
      <trkpt lat="42.52917" lon="2.09381">
        <ele>1720.7669677734</ele>
        <time>2011-09-11T06:30:02Z</time>
      </trkpt>
      <trkpt lat="42.52938" lon="2.09341">
        <ele>1719.6030273438</ele>
        <time>2011-09-11T06:30:10Z</time>
      </trkpt>
      <trkpt lat="42.52956" lon="2.09306">
        <ele>1718.7779541016</ele>
        <time>2011-09-11T06:30:16Z</time>
      </trkpt>
      <trkpt lat="42.52958" lon="2.09298">
        <ele>1718.4069824219</ele>
        <time>2011-09-11T06:30:17Z</time>
      </trkpt>
      <trkpt lat="42.52973" lon="2.09261">
        <ele>1717.3409423828</ele>
        <time>2011-09-11T06:30:22Z</time>
      </trkpt>
      <trkpt lat="42.52988" lon="2.09239">
        <ele>1717.0059814453</ele>
        <time>2011-09-11T06:30:26Z</time>
      </trkpt>
      <trkpt lat="42.52997" lon="2.09232">
        <ele>1717.2840576172</ele>
        <time>2011-09-11T06:30:28Z</time>
      </trkpt>
      <trkpt lat="42.53023" lon="2.09219">
        <ele>1719.2060546875</ele>
        <time>2011-09-11T06:30:35Z</time>
      </trkpt>
      <trkpt lat="42.53038" lon="2.0921">
        <ele>1719.8110351562</ele>
        <time>2011-09-11T06:30:39Z</time>
      </trkpt>
      <trkpt lat="42.5306" lon="2.09195">
        <ele>1720.9210205078</ele>
        <time>2011-09-11T06:30:45Z</time>
      </trkpt>
      <trkpt lat="42.53074" lon="2.09186">
        <ele>1721.8620605469</ele>
        <time>2011-09-11T06:30:49Z</time>
      </trkpt>
      <trkpt lat="42.53086" lon="2.09178">
        <ele>1722.4870605469</ele>
        <time>2011-09-11T06:30:52Z</time>
      </trkpt>
      <trkpt lat="42.53107" lon="2.09168">
        <ele>1723.1290283203</ele>
        <time>2011-09-11T06:30:57Z</time>
      </trkpt>
      <trkpt lat="42.5313" lon="2.09158">
        <ele>1723.9019775391</ele>
        <time>2011-09-11T06:31:03Z</time>
      </trkpt>
      <trkpt lat="42.53147" lon="2.0915">
        <ele>1724.2709960938</ele>
        <time>2011-09-11T06:31:07Z</time>
      </trkpt>
      <trkpt lat="42.53177" lon="2.09128">
        <ele>1724.4389648438</ele>
        <time>2011-09-11T06:31:14Z</time>
      </trkpt>
      <trkpt lat="42.53194" lon="2.09116">
        <ele>1724.5849609375</ele>
        <time>2011-09-11T06:31:18Z</time>
      </trkpt>
      <trkpt lat="42.53213" lon="2.09099">
        <ele>1725.5109863281</ele>
        <time>2011-09-11T06:31:23Z</time>
      </trkpt>
      <trkpt lat="42.5323" lon="2.09078">
        <ele>1726.9799804688</ele>
        <time>2011-09-11T06:31:28Z</time>
      </trkpt>
      <trkpt lat="42.53235" lon="2.09069">
        <ele>1727.3659667969</ele>
        <time>2011-09-11T06:31:30Z</time>
      </trkpt>
      <trkpt lat="42.53242" lon="2.09062">
        <ele>1727.4060058594</ele>
        <time>2011-09-11T06:31:32Z</time>
      </trkpt>
      <trkpt lat="42.53254" lon="2.09045">
        <ele>1727.7380371094</ele>
        <time>2011-09-11T06:31:36Z</time>
      </trkpt>
      <trkpt lat="42.53262" lon="2.09015">
        <ele>1728.0200195312</ele>
        <time>2011-09-11T06:31:41Z</time>
      </trkpt>
      <trkpt lat="42.5326" lon="2.08973">
        <ele>1727.4749755859</ele>
        <time>2011-09-11T06:31:47Z</time>
      </trkpt>
      <trkpt lat="42.53255" lon="2.08938">
        <ele>1727.4759521484</ele>
        <time>2011-09-11T06:31:52Z</time>
      </trkpt>
      <trkpt lat="42.53254" lon="2.08919">
        <ele>1727.2359619141</ele>
        <time>2011-09-11T06:31:55Z</time>
      </trkpt>
      <trkpt lat="42.53261" lon="2.08884">
        <ele>1727.2719726562</ele>
        <time>2011-09-11T06:32:00Z</time>
      </trkpt>
      <trkpt lat="42.53266" lon="2.08859">
        <ele>1726.3809814453</ele>
        <time>2011-09-11T06:32:03Z</time>
      </trkpt>
      <trkpt lat="42.53273" lon="2.08827">
        <ele>1726.2220458984</ele>
        <time>2011-09-11T06:32:07Z</time>
      </trkpt>
      <trkpt lat="42.53282" lon="2.08788">
        <ele>1725.7449951172</ele>
        <time>2011-09-11T06:32:12Z</time>
      </trkpt>
      <trkpt lat="42.533" lon="2.08741">
        <ele>1724.6870117188</ele>
        <time>2011-09-11T06:32:18Z</time>
      </trkpt>
      <trkpt lat="42.53322" lon="2.08705">
        <ele>1723.1020507812</ele>
        <time>2011-09-11T06:32:23Z</time>
      </trkpt>
      <trkpt lat="42.53326" lon="2.08696">
        <ele>1722.5040283203</ele>
        <time>2011-09-11T06:32:24Z</time>
      </trkpt>
      <trkpt lat="42.53332" lon="2.08665">
        <ele>1721.041015625</ele>
        <time>2011-09-11T06:32:27Z</time>
      </trkpt>
      <trkpt lat="42.53337" lon="2.08603">
        <ele>1719.9720458984</ele>
        <time>2011-09-11T06:32:33Z</time>
      </trkpt>
      <trkpt lat="42.53344" lon="2.08544">
        <ele>1719.1639404297</ele>
        <time>2011-09-11T06:32:39Z</time>
      </trkpt>
      <trkpt lat="42.53354" lon="2.08505">
        <ele>1719.6409912109</ele>
        <time>2011-09-11T06:32:44Z</time>
      </trkpt>
      <trkpt lat="42.5336" lon="2.08472">
        <ele>1722.4270019531</ele>
        <time>2011-09-11T06:32:50Z</time>
      </trkpt>
      <trkpt lat="42.53365" lon="2.08453">
        <ele>1724.7719726562</ele>
        <time>2011-09-11T06:32:54Z</time>
      </trkpt>
      <trkpt lat="42.53366" lon="2.08449">
        <ele>1725.0649414062</ele>
        <time>2011-09-11T06:32:55Z</time>
      </trkpt>
      <trkpt lat="42.53377" lon="2.08432">
        <ele>1726.5539550781</ele>
        <time>2011-09-11T06:33:01Z</time>
      </trkpt>
      <trkpt lat="42.53387" lon="2.08417">
        <ele>1727.7860107422</ele>
        <time>2011-09-11T06:33:07Z</time>
      </trkpt>
      <trkpt lat="42.53397" lon="2.08397">
        <ele>1729.5100097656</ele>
        <time>2011-09-11T06:33:13Z</time>
      </trkpt>
      <trkpt lat="42.53405" lon="2.08376">
        <ele>1731.3979492188</ele>
        <time>2011-09-11T06:33:20Z</time>
      </trkpt>
      <trkpt lat="42.53415" lon="2.08363">
        <ele>1731.9479980469</ele>
        <time>2011-09-11T06:33:25Z</time>
      </trkpt>
      <trkpt lat="42.53428" lon="2.0835">
        <ele>1732.8000488281</ele>
        <time>2011-09-11T06:33:31Z</time>
      </trkpt>
      <trkpt lat="42.53432" lon="2.08345">
        <ele>1733.2619628906</ele>
        <time>2011-09-11T06:33:33Z</time>
      </trkpt>
      <trkpt lat="42.53451" lon="2.08334">
        <ele>1735.0319824219</ele>
        <time>2011-09-11T06:33:40Z</time>
      </trkpt>
      <trkpt lat="42.53464" lon="2.08328">
        <ele>1735.9620361328</ele>
        <time>2011-09-11T06:33:45Z</time>
      </trkpt>
      <trkpt lat="42.53478" lon="2.08323">
        <ele>1737.6309814453</ele>
        <time>2011-09-11T06:33:51Z</time>
      </trkpt>
      <trkpt lat="42.53489" lon="2.08312">
        <ele>1739.1199951172</ele>
        <time>2011-09-11T06:33:56Z</time>
      </trkpt>
      <trkpt lat="42.535" lon="2.083">
        <ele>1740.2299804688</ele>
        <time>2011-09-11T06:34:01Z</time>
      </trkpt>
      <trkpt lat="42.53511" lon="2.0829">
        <ele>1740.3020019531</ele>
        <time>2011-09-11T06:34:05Z</time>
      </trkpt>
      <trkpt lat="42.53526" lon="2.08268">
        <ele>1739.5050048828</ele>
        <time>2011-09-11T06:34:10Z</time>
      </trkpt>
      <trkpt lat="42.53548" lon="2.08242">
        <ele>1739.7939453125</ele>
        <time>2011-09-11T06:34:16Z</time>
      </trkpt>
      <trkpt lat="42.53556" lon="2.08223">
        <ele>1740.8540039062</ele>
        <time>2011-09-11T06:34:20Z</time>
      </trkpt>
      <trkpt lat="42.53561" lon="2.082">
        <ele>1740.7969970703</ele>
        <time>2011-09-11T06:34:24Z</time>
      </trkpt>
      <trkpt lat="42.53569" lon="2.08171">
        <ele>1741.5260009766</ele>
        <time>2011-09-11T06:34:29Z</time>
      </trkpt>
      <trkpt lat="42.53582" lon="2.08127">
        <ele>1741.1259765625</ele>
        <time>2011-09-11T06:34:36Z</time>
      </trkpt>
      <trkpt lat="42.53595" lon="2.08109">
        <ele>1740.8599853516</ele>
        <time>2011-09-11T06:34:40Z</time>
      </trkpt>
      <trkpt lat="42.53613" lon="2.08095">
        <ele>1741.0150146484</ele>
        <time>2011-09-11T06:34:44Z</time>
      </trkpt>
      <trkpt lat="42.53627" lon="2.0808">
        <ele>1741.3360595703</ele>
        <time>2011-09-11T06:34:48Z</time>
      </trkpt>
      <trkpt lat="42.53643" lon="2.0806">
        <ele>1741.2679443359</ele>
        <time>2011-09-11T06:34:53Z</time>
      </trkpt>
      <trkpt lat="42.53663" lon="2.08037">
        <ele>1740.0639648438</ele>
        <time>2011-09-11T06:34:59Z</time>
      </trkpt>
      <trkpt lat="42.53667" lon="2.08021">
        <ele>1740.5610351562</ele>
        <time>2011-09-11T06:35:03Z</time>
      </trkpt>
      <trkpt lat="42.53677" lon="2.08009">
        <ele>1740.8790283203</ele>
        <time>2011-09-11T06:35:08Z</time>
      </trkpt>
      <trkpt lat="42.53685" lon="2.07994">
        <ele>1741.7149658203</ele>
        <time>2011-09-11T06:35:13Z</time>
      </trkpt>
      <trkpt lat="42.53687" lon="2.07984">
        <ele>1742.1469726562</ele>
        <time>2011-09-11T06:35:16Z</time>
      </trkpt>
      <trkpt lat="42.53698" lon="2.0797">
        <ele>1741.8909912109</ele>
        <time>2011-09-11T06:35:21Z</time>
      </trkpt>
      <trkpt lat="42.53709" lon="2.07946">
        <ele>1742.3990478516</ele>
        <time>2011-09-11T06:35:28Z</time>
      </trkpt>
      <trkpt lat="42.53714" lon="2.07931">
        <ele>1742.5670166016</ele>
        <time>2011-09-11T06:35:32Z</time>
      </trkpt>
      <trkpt lat="42.5372" lon="2.07918">
        <ele>1743.3239746094</ele>
        <time>2011-09-11T06:35:37Z</time>
      </trkpt>
      <trkpt lat="42.53725" lon="2.07915">
        <ele>1744.5030517578</ele>
        <time>2011-09-11T06:35:40Z</time>
      </trkpt>
      <trkpt lat="42.53733" lon="2.07908">
        <ele>1745.8160400391</ele>
        <time>2011-09-11T06:35:45Z</time>
      </trkpt>
      <trkpt lat="42.53738" lon="2.07895">
        <ele>1746.9849853516</ele>
        <time>2011-09-11T06:35:50Z</time>
      </trkpt>
      <trkpt lat="42.53738" lon="2.07887">
        <ele>1747.7960205078</ele>
        <time>2011-09-11T06:35:53Z</time>
      </trkpt>
      <trkpt lat="42.53742" lon="2.07868">
        <ele>1748.7340087891</ele>
        <time>2011-09-11T06:36:00Z</time>
      </trkpt>
      <trkpt lat="42.53743" lon="2.07851">
        <ele>1749.6259765625</ele>
        <time>2011-09-11T06:36:05Z</time>
      </trkpt>
      <trkpt lat="42.53746" lon="2.0783">
        <ele>1750.2309570312</ele>
        <time>2011-09-11T06:36:11Z</time>
      </trkpt>
      <trkpt lat="42.53748" lon="2.0782">
        <ele>1750.6929931641</ele>
        <time>2011-09-11T06:36:14Z</time>
      </trkpt>
      <trkpt lat="42.5375" lon="2.07807">
        <ele>1751.3489990234</ele>
        <time>2011-09-11T06:36:18Z</time>
      </trkpt>
      <trkpt lat="42.53752" lon="2.078">
        <ele>1751.708984375</ele>
        <time>2011-09-11T06:36:20Z</time>
      </trkpt>
      <trkpt lat="42.53756" lon="2.07786">
        <ele>1752.3409423828</ele>
        <time>2011-09-11T06:36:24Z</time>
      </trkpt>
      <trkpt lat="42.53758" lon="2.07768">
        <ele>1753.6870117188</ele>
        <time>2011-09-11T06:36:30Z</time>
      </trkpt>
      <trkpt lat="42.53759" lon="2.07748">
        <ele>1754.3990478516</ele>
        <time>2011-09-11T06:36:36Z</time>
      </trkpt>
      <trkpt lat="42.53759" lon="2.07739">
        <ele>1754.3659667969</ele>
        <time>2011-09-11T06:36:38Z</time>
      </trkpt>
      <trkpt lat="42.53762" lon="2.07709">
        <ele>1754.8370361328</ele>
        <time>2011-09-11T06:36:45Z</time>
      </trkpt>
      <trkpt lat="42.53768" lon="2.07691">
        <ele>1755.4990234375</ele>
        <time>2011-09-11T06:36:51Z</time>
      </trkpt>
      <trkpt lat="42.5377" lon="2.07683">
        <ele>1756.1379394531</ele>
        <time>2011-09-11T06:36:54Z</time>
      </trkpt>
      <trkpt lat="42.53776" lon="2.07665">
        <ele>1758.4840087891</ele>
        <time>2011-09-11T06:37:02Z</time>
      </trkpt>
      <trkpt lat="42.53776" lon="2.07658">
        <ele>1759.3349609375</ele>
        <time>2011-09-11T06:37:05Z</time>
      </trkpt>
      <trkpt lat="42.53776" lon="2.07643">
        <ele>1760.5500488281</ele>
        <time>2011-09-11T06:37:11Z</time>
      </trkpt>
      <trkpt lat="42.53776" lon="2.07636">
        <ele>1760.8210449219</ele>
        <time>2011-09-11T06:37:13Z</time>
      </trkpt>
      <trkpt lat="42.53781" lon="2.07618">
        <ele>1761.3289794922</ele>
        <time>2011-09-11T06:37:19Z</time>
      </trkpt>
      <trkpt lat="42.53783" lon="2.07615">
        <ele>1761.4250488281</ele>
        <time>2011-09-11T06:37:20Z</time>
      </trkpt>
      <trkpt lat="42.53792" lon="2.07599">
        <ele>1762.8050537109</ele>
        <time>2011-09-11T06:37:26Z</time>
      </trkpt>
      <trkpt lat="42.53801" lon="2.07584">
        <ele>1763.8850097656</ele>
        <time>2011-09-11T06:37:33Z</time>
      </trkpt>
      <trkpt lat="42.53806" lon="2.0757">
        <ele>1764.6020507812</ele>
        <time>2011-09-11T06:37:39Z</time>
      </trkpt>
      <trkpt lat="42.53814" lon="2.07548">
        <ele>1766.1899414062</ele>
        <time>2011-09-11T06:37:45Z</time>
      </trkpt>
      <trkpt lat="42.5382" lon="2.07531">
        <ele>1768.6030273438</ele>
        <time>2011-09-11T06:37:51Z</time>
      </trkpt>
      <trkpt lat="42.53828" lon="2.07522">
        <ele>1770.126953125</ele>
        <time>2011-09-11T06:37:56Z</time>
      </trkpt>
      <trkpt lat="42.53837" lon="2.07507">
        <ele>1771.4959716797</ele>
        <time>2011-09-11T06:38:02Z</time>
      </trkpt>
      <trkpt lat="42.53838" lon="2.07505">
        <ele>1771.7449951172</ele>
        <time>2011-09-11T06:38:03Z</time>
      </trkpt>
      <trkpt lat="42.53841" lon="2.07483">
        <ele>1773.1850585938</ele>
        <time>2011-09-11T06:38:10Z</time>
      </trkpt>
      <trkpt lat="42.53847" lon="2.07462">
        <ele>1773.6689453125</ele>
        <time>2011-09-11T06:38:16Z</time>
      </trkpt>
      <trkpt lat="42.5386" lon="2.07441">
        <ele>1773.8800048828</ele>
        <time>2011-09-11T06:38:24Z</time>
      </trkpt>
      <trkpt lat="42.53868" lon="2.07427">
        <ele>1774.4730224609</ele>
        <time>2011-09-11T06:38:29Z</time>
      </trkpt>
      <trkpt lat="42.53875" lon="2.07412">
        <ele>1775.4959716797</ele>
        <time>2011-09-11T06:38:34Z</time>
      </trkpt>
      <trkpt lat="42.53883" lon="2.07392">
        <ele>1776.4010009766</ele>
        <time>2011-09-11T06:38:40Z</time>
      </trkpt>
      <trkpt lat="42.53894" lon="2.07375">
        <ele>1777.1600341797</ele>
        <time>2011-09-11T06:38:46Z</time>
      </trkpt>
      <trkpt lat="42.53903" lon="2.07355">
        <ele>1778.2170410156</ele>
        <time>2011-09-11T06:38:52Z</time>
      </trkpt>
      <trkpt lat="42.5391" lon="2.07335">
        <ele>1778.1829833984</ele>
        <time>2011-09-11T06:38:57Z</time>
      </trkpt>
      <trkpt lat="42.53923" lon="2.07309">
        <ele>1778.458984375</ele>
        <time>2011-09-11T06:39:03Z</time>
      </trkpt>
      <trkpt lat="42.53934" lon="2.07281">
        <ele>1780.3969726562</ele>
        <time>2011-09-11T06:39:10Z</time>
      </trkpt>
      <trkpt lat="42.5394" lon="2.07263">
        <ele>1781.876953125</ele>
        <time>2011-09-11T06:39:15Z</time>
      </trkpt>
      <trkpt lat="42.53942" lon="2.07246">
        <ele>1783.0300292969</ele>
        <time>2011-09-11T06:39:20Z</time>
      </trkpt>
      <trkpt lat="42.53949" lon="2.07231">
        <ele>1783.8280029297</ele>
        <time>2011-09-11T06:39:25Z</time>
      </trkpt>
      <trkpt lat="42.53956" lon="2.07221">
        <ele>1784.5789794922</ele>
        <time>2011-09-11T06:39:30Z</time>
      </trkpt>
      <trkpt lat="42.53965" lon="2.0722">
        <ele>1785.1629638672</ele>
        <time>2011-09-11T06:39:34Z</time>
      </trkpt>
      <trkpt lat="42.5398" lon="2.07231">
        <ele>1785.2199707031</ele>
        <time>2011-09-11T06:39:40Z</time>
      </trkpt>
      <trkpt lat="42.53988" lon="2.07245">
        <ele>1785.5989990234</ele>
        <time>2011-09-11T06:39:46Z</time>
      </trkpt>
      <trkpt lat="42.53989" lon="2.07258">
        <ele>1786.3620605469</ele>
        <time>2011-09-11T06:39:51Z</time>
      </trkpt>
      <trkpt lat="42.53989" lon="2.07271">
        <ele>1787.2969970703</ele>
        <time>2011-09-11T06:39:56Z</time>
      </trkpt>
      <trkpt lat="42.53988" lon="2.07295">
        <ele>1789.3559570312</ele>
        <time>2011-09-11T06:40:04Z</time>
      </trkpt>
      <trkpt lat="42.53989" lon="2.07316">
        <ele>1791.3630371094</ele>
        <time>2011-09-11T06:40:11Z</time>
      </trkpt>
      <trkpt lat="42.53984" lon="2.07337">
        <ele>1792.0770263672</ele>
        <time>2011-09-11T06:40:17Z</time>
      </trkpt>
      <trkpt lat="42.53973" lon="2.07354">
        <ele>1792.5720214844</ele>
        <time>2011-09-11T06:40:22Z</time>
      </trkpt>
      <trkpt lat="42.53966" lon="2.07367">
        <ele>1792.5980224609</ele>
        <time>2011-09-11T06:40:25Z</time>
      </trkpt>
      <trkpt lat="42.53955" lon="2.0741">
        <ele>1792.8029785156</ele>
        <time>2011-09-11T06:40:33Z</time>
      </trkpt>
      <trkpt lat="42.53948" lon="2.07438">
        <ele>1794.2349853516</ele>
        <time>2011-09-11T06:40:39Z</time>
      </trkpt>
      <trkpt lat="42.53947" lon="2.0747">
        <ele>1795.7290039062</ele>
        <time>2011-09-11T06:40:46Z</time>
      </trkpt>
      <trkpt lat="42.53952" lon="2.07493">
        <ele>1796.8790283203</ele>
        <time>2011-09-11T06:40:51Z</time>
      </trkpt>
      <trkpt lat="42.53963" lon="2.07528">
        <ele>1796.2039794922</ele>
        <time>2011-09-11T06:40:57Z</time>
      </trkpt>
      <trkpt lat="42.53975" lon="2.07567">
        <ele>1795.6870117188</ele>
        <time>2011-09-11T06:41:03Z</time>
      </trkpt>
      <trkpt lat="42.53976" lon="2.07574">
        <ele>1795.5939941406</ele>
        <time>2011-09-11T06:41:04Z</time>
      </trkpt>
      <trkpt lat="42.53984" lon="2.07602">
        <ele>1794.3399658203</ele>
        <time>2011-09-11T06:41:08Z</time>
      </trkpt>
      <trkpt lat="42.53988" lon="2.07623">
        <ele>1792.9150390625</ele>
        <time>2011-09-11T06:41:13Z</time>
      </trkpt>
      <trkpt lat="42.5399" lon="2.07625">
        <ele>1792.5959472656</ele>
        <time>2011-09-11T06:41:17Z</time>
      </trkpt>
      <trkpt lat="42.53989" lon="2.07627">
        <ele>1793.0090332031</ele>
        <time>2011-09-11T06:46:18Z</time>
      </trkpt>
      <trkpt lat="42.53989" lon="2.07629">
        <ele>1793.0389404297</ele>
        <time>2011-09-11T06:46:19Z</time>
      </trkpt>
      <trkpt lat="42.53993" lon="2.07645">
        <ele>1793.1810302734</ele>
        <time>2011-09-11T06:46:25Z</time>
      </trkpt>
      <trkpt lat="42.53996" lon="2.07652">
        <ele>1793.1910400391</ele>
        <time>2011-09-11T06:46:27Z</time>
      </trkpt>
      <trkpt lat="42.54003" lon="2.0767">
        <ele>1793.3470458984</ele>
        <time>2011-09-11T06:46:31Z</time>
      </trkpt>
      <trkpt lat="42.54018" lon="2.07699">
        <ele>1794.2850341797</ele>
        <time>2011-09-11T06:46:38Z</time>
      </trkpt>
      <trkpt lat="42.54023" lon="2.07707">
        <ele>1794.4830322266</ele>
        <time>2011-09-11T06:46:40Z</time>
      </trkpt>
      <trkpt lat="42.54044" lon="2.07732">
        <ele>1795.3280029297</ele>
        <time>2011-09-11T06:46:47Z</time>
      </trkpt>
      <trkpt lat="42.54056" lon="2.07743">
        <ele>1795.5589599609</ele>
        <time>2011-09-11T06:46:51Z</time>
      </trkpt>
      <trkpt lat="42.54068" lon="2.0775">
        <ele>1796.1910400391</ele>
        <time>2011-09-11T06:46:55Z</time>
      </trkpt>
      <trkpt lat="42.54082" lon="2.07764">
        <ele>1797.2409667969</ele>
        <time>2011-09-11T06:47:01Z</time>
      </trkpt>
      <trkpt lat="42.54087" lon="2.07766">
        <ele>1797.7330322266</ele>
        <time>2011-09-11T06:47:04Z</time>
      </trkpt>
      <trkpt lat="42.54088" lon="2.07766">
        <ele>1797.7669677734</ele>
        <time>2011-09-11T06:47:05Z</time>
      </trkpt>
      <trkpt lat="42.54089" lon="2.07769">
        <ele>1798.5</ele>
        <time>2011-09-11T06:47:44Z</time>
      </trkpt>
      <trkpt lat="42.54089" lon="2.07769">
        <ele>1798.2490234375</ele>
        <time>2011-09-11T06:47:45Z</time>
      </trkpt>
      <trkpt lat="42.54097" lon="2.0778">
        <ele>1798.3370361328</ele>
        <time>2011-09-11T06:47:53Z</time>
      </trkpt>
      <trkpt lat="42.54104" lon="2.07786">
        <ele>1798.6710205078</ele>
        <time>2011-09-11T06:47:58Z</time>
      </trkpt>
      <trkpt lat="42.54112" lon="2.07796">
        <ele>1799.0229492188</ele>
        <time>2011-09-11T06:48:03Z</time>
      </trkpt>
      <trkpt lat="42.54126" lon="2.07806">
        <ele>1799.6209716797</ele>
        <time>2011-09-11T06:48:08Z</time>
      </trkpt>
      <trkpt lat="42.54137" lon="2.07821">
        <ele>1799.6419677734</ele>
        <time>2011-09-11T06:48:12Z</time>
      </trkpt>
      <trkpt lat="42.54144" lon="2.07828">
        <ele>1799.5350341797</ele>
        <time>2011-09-11T06:48:14Z</time>
      </trkpt>
      <trkpt lat="42.54161" lon="2.07847">
        <ele>1799.208984375</ele>
        <time>2011-09-11T06:48:19Z</time>
      </trkpt>
      <trkpt lat="42.54166" lon="2.07866">
        <ele>1799.2149658203</ele>
        <time>2011-09-11T06:48:23Z</time>
      </trkpt>
      <trkpt lat="42.54169" lon="2.0789">
        <ele>1798.5240478516</ele>
        <time>2011-09-11T06:48:27Z</time>
      </trkpt>
      <trkpt lat="42.54173" lon="2.07907">
        <ele>1797.7669677734</ele>
        <time>2011-09-11T06:48:30Z</time>
      </trkpt>
      <trkpt lat="42.54174" lon="2.07934">
        <ele>1796.8859863281</ele>
        <time>2011-09-11T06:48:34Z</time>
      </trkpt>
      <trkpt lat="42.54166" lon="2.07975">
        <ele>1795.0760498047</ele>
        <time>2011-09-11T06:48:39Z</time>
      </trkpt>
      <trkpt lat="42.54164" lon="2.07994">
        <ele>1794.04296875</ele>
        <time>2011-09-11T06:48:41Z</time>
      </trkpt>
      <trkpt lat="42.54163" lon="2.08011">
        <ele>1793.7170410156</ele>
        <time>2011-09-11T06:48:43Z</time>
      </trkpt>
      <trkpt lat="42.54171" lon="2.08053">
        <ele>1793.16796875</ele>
        <time>2011-09-11T06:48:48Z</time>
      </trkpt>
      <trkpt lat="42.54188" lon="2.0809">
        <ele>1791.8879394531</ele>
        <time>2011-09-11T06:48:53Z</time>
      </trkpt>
      <trkpt lat="42.5421" lon="2.08118">
        <ele>1790.7569580078</ele>
        <time>2011-09-11T06:48:57Z</time>
      </trkpt>
      <trkpt lat="42.54223" lon="2.08155">
        <ele>1789.6629638672</ele>
        <time>2011-09-11T06:49:01Z</time>
      </trkpt>
      <trkpt lat="42.54225" lon="2.08165">
        <ele>1789.0600585938</ele>
        <time>2011-09-11T06:49:02Z</time>
      </trkpt>
      <trkpt lat="42.54239" lon="2.08193">
        <ele>1787.5510253906</ele>
        <time>2011-09-11T06:49:05Z</time>
      </trkpt>
      <trkpt lat="42.54257" lon="2.08212">
        <ele>1785.6920166016</ele>
        <time>2011-09-11T06:49:08Z</time>
      </trkpt>
      <trkpt lat="42.54255" lon="2.0821">
        <ele>1784.8969726562</ele>
        <time>2011-09-11T06:49:10Z</time>
      </trkpt>
      <trkpt lat="42.54253" lon="2.08201">
        <ele>1784.873046875</ele>
        <time>2011-09-11T06:49:13Z</time>
      </trkpt>
      <trkpt lat="42.54256" lon="2.08183">
        <ele>1785.2719726562</ele>
        <time>2011-09-11T06:49:19Z</time>
      </trkpt>
      <trkpt lat="42.54256" lon="2.08179">
        <ele>1785.1770019531</ele>
        <time>2011-09-11T06:49:21Z</time>
      </trkpt>
      <trkpt lat="42.54266" lon="2.08171">
        <ele>1785.5639648438</ele>
        <time>2011-09-11T06:49:28Z</time>
      </trkpt>
      <trkpt lat="42.54279" lon="2.08171">
        <ele>1787</ele>
        <time>2011-09-11T06:49:34Z</time>
      </trkpt>
      <trkpt lat="42.54291" lon="2.08166">
        <ele>1788.2889404297</ele>
        <time>2011-09-11T06:49:39Z</time>
      </trkpt>
      <trkpt lat="42.543" lon="2.08166">
        <ele>1789.5870361328</ele>
        <time>2011-09-11T06:49:43Z</time>
      </trkpt>
      <trkpt lat="42.54311" lon="2.08168">
        <ele>1791.4429931641</ele>
        <time>2011-09-11T06:49:48Z</time>
      </trkpt>
      <trkpt lat="42.54316" lon="2.08171">
        <ele>1792.4129638672</ele>
        <time>2011-09-11T06:49:51Z</time>
      </trkpt>
      <trkpt lat="42.54329" lon="2.08174">
        <ele>1793.5729980469</ele>
        <time>2011-09-11T06:49:56Z</time>
      </trkpt>
      <trkpt lat="42.54339" lon="2.08178">
        <ele>1793.9890136719</ele>
        <time>2011-09-11T06:50:00Z</time>
      </trkpt>
      <trkpt lat="42.54356" lon="2.08175">
        <ele>1794.2010498047</ele>
        <time>2011-09-11T06:50:05Z</time>
      </trkpt>
      <trkpt lat="42.54366" lon="2.0816">
        <ele>1795.7340087891</ele>
        <time>2011-09-11T06:50:10Z</time>
      </trkpt>
      <trkpt lat="42.54364" lon="2.08143">
        <ele>1797.5290527344</ele>
        <time>2011-09-11T06:50:15Z</time>
      </trkpt>
      <trkpt lat="42.54354" lon="2.08136">
        <ele>1798.9969482422</ele>
        <time>2011-09-11T06:50:20Z</time>
      </trkpt>
      <trkpt lat="42.54343" lon="2.08127">
        <ele>1799.5620117188</ele>
        <time>2011-09-11T06:50:25Z</time>
      </trkpt>
      <trkpt lat="42.54342" lon="2.08113">
        <ele>1799.7309570312</ele>
        <time>2011-09-11T06:50:28Z</time>
      </trkpt>
      <trkpt lat="42.54342" lon="2.08098">
        <ele>1799.91796875</ele>
        <time>2011-09-11T06:50:31Z</time>
      </trkpt>
      <trkpt lat="42.54332" lon="2.08061">
        <ele>1800.5419921875</ele>
        <time>2011-09-11T06:50:38Z</time>
      </trkpt>
      <trkpt lat="42.5433" lon="2.08039">
        <ele>1802.0720214844</ele>
        <time>2011-09-11T06:50:43Z</time>
      </trkpt>
      <trkpt lat="42.54333" lon="2.08011">
        <ele>1803.4060058594</ele>
        <time>2011-09-11T06:50:49Z</time>
      </trkpt>
      <trkpt lat="42.54329" lon="2.0799">
        <ele>1805.5200195312</ele>
        <time>2011-09-11T06:50:55Z</time>
      </trkpt>
      <trkpt lat="42.54319" lon="2.07976">
        <ele>1806.3480224609</ele>
        <time>2011-09-11T06:51:00Z</time>
      </trkpt>
      <trkpt lat="42.5431" lon="2.07968">
        <ele>1807.7049560547</ele>
        <time>2011-09-11T06:51:04Z</time>
      </trkpt>
      <trkpt lat="42.54309" lon="2.07952">
        <ele>1808.7540283203</ele>
        <time>2011-09-11T06:51:08Z</time>
      </trkpt>
      <trkpt lat="42.54321" lon="2.0793">
        <ele>1809.3139648438</ele>
        <time>2011-09-11T06:51:14Z</time>
      </trkpt>
      <trkpt lat="42.54324" lon="2.07919">
        <ele>1809.1669921875</ele>
        <time>2011-09-11T06:51:16Z</time>
      </trkpt>
      <trkpt lat="42.54336" lon="2.07881">
        <ele>1808.9539794922</ele>
        <time>2011-09-11T06:51:23Z</time>
      </trkpt>
      <trkpt lat="42.54341" lon="2.0786">
        <ele>1810.0109863281</ele>
        <time>2011-09-11T06:51:28Z</time>
      </trkpt>
      <trkpt lat="42.54342" lon="2.07839">
        <ele>1811.0350341797</ele>
        <time>2011-09-11T06:51:33Z</time>
      </trkpt>
      <trkpt lat="42.54342" lon="2.07817">
        <ele>1812.4119873047</ele>
        <time>2011-09-11T06:51:38Z</time>
      </trkpt>
      <trkpt lat="42.5434" lon="2.07789">
        <ele>1813.83203125</ele>
        <time>2011-09-11T06:51:44Z</time>
      </trkpt>
      <trkpt lat="42.54336" lon="2.07764">
        <ele>1815.0460205078</ele>
        <time>2011-09-11T06:51:49Z</time>
      </trkpt>
      <trkpt lat="42.5433" lon="2.07743">
        <ele>1815.2709960938</ele>
        <time>2011-09-11T06:51:54Z</time>
      </trkpt>
      <trkpt lat="42.54321" lon="2.07712">
        <ele>1816.251953125</ele>
        <time>2011-09-11T06:52:01Z</time>
      </trkpt>
      <trkpt lat="42.54319" lon="2.07693">
        <ele>1817.4019775391</ele>
        <time>2011-09-11T06:52:06Z</time>
      </trkpt>
      <trkpt lat="42.54325" lon="2.0767">
        <ele>1818.5190429688</ele>
        <time>2011-09-11T06:52:12Z</time>
      </trkpt>
      <trkpt lat="42.54334" lon="2.07633">
        <ele>1819.0870361328</ele>
        <time>2011-09-11T06:52:20Z</time>
      </trkpt>
      <trkpt lat="42.54338" lon="2.07595">
        <ele>1820.2619628906</ele>
        <time>2011-09-11T06:52:28Z</time>
      </trkpt>
      <trkpt lat="42.54336" lon="2.07565">
        <ele>1821.6929931641</ele>
        <time>2011-09-11T06:52:35Z</time>
      </trkpt>
      <trkpt lat="42.54333" lon="2.07524">
        <ele>1822.4830322266</ele>
        <time>2011-09-11T06:52:44Z</time>
      </trkpt>
      <trkpt lat="42.54333" lon="2.07504">
        <ele>1823.8879394531</ele>
        <time>2011-09-11T06:52:50Z</time>
      </trkpt>
      <trkpt lat="42.54339" lon="2.07482">
        <ele>1826.4060058594</ele>
        <time>2011-09-11T06:52:58Z</time>
      </trkpt>
      <trkpt lat="42.54347" lon="2.07461">
        <ele>1828.0880126953</ele>
        <time>2011-09-11T06:53:06Z</time>
      </trkpt>
      <trkpt lat="42.54349" lon="2.07446">
        <ele>1829.2459716797</ele>
        <time>2011-09-11T06:53:12Z</time>
      </trkpt>
      <trkpt lat="42.54349" lon="2.07432">
        <ele>1829.4200439453</ele>
        <time>2011-09-11T06:53:17Z</time>
      </trkpt>
      <trkpt lat="42.54351" lon="2.07406">
        <ele>1829.2709960938</ele>
        <time>2011-09-11T06:53:24Z</time>
      </trkpt>
      <trkpt lat="42.54357" lon="2.07388">
        <ele>1831.0770263672</ele>
        <time>2011-09-11T06:53:28Z</time>
      </trkpt>
      <trkpt lat="42.54367" lon="2.07344">
        <ele>1831.3449707031</ele>
        <time>2011-09-11T06:53:37Z</time>
      </trkpt>
      <trkpt lat="42.5437" lon="2.07334">
        <ele>1831.5570068359</ele>
        <time>2011-09-11T06:53:39Z</time>
      </trkpt>
      <trkpt lat="42.54382" lon="2.0731">
        <ele>1831.9189453125</ele>
        <time>2011-09-11T06:53:44Z</time>
      </trkpt>
      <trkpt lat="42.54385" lon="2.07306">
        <ele>1831.8900146484</ele>
        <time>2011-09-11T06:53:45Z</time>
      </trkpt>
      <trkpt lat="42.54398" lon="2.07292">
        <ele>1831.7690429688</ele>
        <time>2011-09-11T06:53:49Z</time>
      </trkpt>
      <trkpt lat="42.54417" lon="2.07251">
        <ele>1832.4549560547</ele>
        <time>2011-09-11T06:53:58Z</time>
      </trkpt>
      <trkpt lat="42.54419" lon="2.07246">
        <ele>1832.5510253906</ele>
        <time>2011-09-11T06:53:59Z</time>
      </trkpt>
      <trkpt lat="42.54421" lon="2.07198">
        <ele>1833.7230224609</ele>
        <time>2011-09-11T06:54:08Z</time>
      </trkpt>
      <trkpt lat="42.54417" lon="2.07151">
        <ele>1834.0989990234</ele>
        <time>2011-09-11T06:54:17Z</time>
      </trkpt>
      <trkpt lat="42.54406" lon="2.07106">
        <ele>1835.0279541016</ele>
        <time>2011-09-11T06:54:26Z</time>
      </trkpt>
      <trkpt lat="42.54403" lon="2.0707">
        <ele>1836.4399414062</ele>
        <time>2011-09-11T06:54:33Z</time>
      </trkpt>
      <trkpt lat="42.54406" lon="2.07038">
        <ele>1837.5749511719</ele>
        <time>2011-09-11T06:54:40Z</time>
      </trkpt>
      <trkpt lat="42.54412" lon="2.07012">
        <ele>1839.6510009766</ele>
        <time>2011-09-11T06:54:47Z</time>
      </trkpt>
      <trkpt lat="42.54415" lon="2.07006">
        <ele>1840.4520263672</ele>
        <time>2011-09-11T06:54:49Z</time>
      </trkpt>
      <trkpt lat="42.54423" lon="2.06991">
        <ele>1843.1240234375</ele>
        <time>2011-09-11T06:54:54Z</time>
      </trkpt>
      <trkpt lat="42.54433" lon="2.0697">
        <ele>1844.0970458984</ele>
        <time>2011-09-11T06:55:02Z</time>
      </trkpt>
      <trkpt lat="42.54441" lon="2.06954">
        <ele>1845.5520019531</ele>
        <time>2011-09-11T06:55:09Z</time>
      </trkpt>
      <trkpt lat="42.54446" lon="2.06937">
        <ele>1846.6359863281</ele>
        <time>2011-09-11T06:55:14Z</time>
      </trkpt>
      <trkpt lat="42.54449" lon="2.06916">
        <ele>1848.1569824219</ele>
        <time>2011-09-11T06:55:20Z</time>
      </trkpt>
      <trkpt lat="42.54459" lon="2.06894">
        <ele>1849.3830566406</ele>
        <time>2011-09-11T06:55:27Z</time>
      </trkpt>
      <trkpt lat="42.54469" lon="2.0688">
        <ele>1850.5629882812</ele>
        <time>2011-09-11T06:55:33Z</time>
      </trkpt>
      <trkpt lat="42.54478" lon="2.06864">
        <ele>1851.5610351562</ele>
        <time>2011-09-11T06:55:39Z</time>
      </trkpt>
      <trkpt lat="42.54486" lon="2.06846">
        <ele>1852.8890380859</ele>
        <time>2011-09-11T06:55:45Z</time>
      </trkpt>
      <trkpt lat="42.5449" lon="2.06823">
        <ele>1853.6440429688</ele>
        <time>2011-09-11T06:55:52Z</time>
      </trkpt>
      <trkpt lat="42.54491" lon="2.06798">
        <ele>1855.1469726562</ele>
        <time>2011-09-11T06:55:59Z</time>
      </trkpt>
      <trkpt lat="42.54499" lon="2.06775">
        <ele>1856.0269775391</ele>
        <time>2011-09-11T06:56:06Z</time>
      </trkpt>
      <trkpt lat="42.54509" lon="2.06765">
        <ele>1857.2700195312</ele>
        <time>2011-09-11T06:56:11Z</time>
      </trkpt>
      <trkpt lat="42.54522" lon="2.06752">
        <ele>1858.1639404297</ele>
        <time>2011-09-11T06:56:17Z</time>
      </trkpt>
      <trkpt lat="42.5453" lon="2.06738">
        <ele>1858.7180175781</ele>
        <time>2011-09-11T06:56:22Z</time>
      </trkpt>
      <trkpt lat="42.54541" lon="2.06718">
        <ele>1859.7779541016</ele>
        <time>2011-09-11T06:56:29Z</time>
      </trkpt>
      <trkpt lat="42.5455" lon="2.06705">
        <ele>1860.541015625</ele>
        <time>2011-09-11T06:56:34Z</time>
      </trkpt>
      <trkpt lat="42.54567" lon="2.0668">
        <ele>1862.3039550781</ele>
        <time>2011-09-11T06:56:43Z</time>
      </trkpt>
      <trkpt lat="42.54578" lon="2.06659">
        <ele>1863.2189941406</ele>
        <time>2011-09-11T06:56:49Z</time>
      </trkpt>
      <trkpt lat="42.54585" lon="2.06636">
        <ele>1864.376953125</ele>
        <time>2011-09-11T06:56:54Z</time>
      </trkpt>
      <trkpt lat="42.54596" lon="2.06605">
        <ele>1865.6979980469</ele>
        <time>2011-09-11T06:57:01Z</time>
      </trkpt>
      <trkpt lat="42.54607" lon="2.06586">
        <ele>1866.8289794922</ele>
        <time>2011-09-11T06:57:06Z</time>
      </trkpt>
      <trkpt lat="42.54618" lon="2.06556">
        <ele>1867.9890136719</ele>
        <time>2011-09-11T06:57:13Z</time>
      </trkpt>
      <trkpt lat="42.54623" lon="2.06536">
        <ele>1868.9780273438</ele>
        <time>2011-09-11T06:57:18Z</time>
      </trkpt>
      <trkpt lat="42.54626" lon="2.0653">
        <ele>1869.7139892578</ele>
        <time>2011-09-11T06:57:20Z</time>
      </trkpt>
      <trkpt lat="42.54628" lon="2.065">
        <ele>1870.7440185547</ele>
        <time>2011-09-11T06:57:27Z</time>
      </trkpt>
      <trkpt lat="42.54636" lon="2.06471">
        <ele>1871.9620361328</ele>
        <time>2011-09-11T06:57:34Z</time>
      </trkpt>
      <trkpt lat="42.54644" lon="2.06443">
        <ele>1873.1920166016</ele>
        <time>2011-09-11T06:57:41Z</time>
      </trkpt>
      <trkpt lat="42.54655" lon="2.06415">
        <ele>1874.2690429688</ele>
        <time>2011-09-11T06:57:48Z</time>
      </trkpt>
      <trkpt lat="42.54661" lon="2.06382">
        <ele>1876.3950195312</ele>
        <time>2011-09-11T06:57:56Z</time>
      </trkpt>
      <trkpt lat="42.54668" lon="2.06357">
        <ele>1877.1379394531</ele>
        <time>2011-09-11T06:58:02Z</time>
      </trkpt>
      <trkpt lat="42.54679" lon="2.06338">
        <ele>1878.6409912109</ele>
        <time>2011-09-11T06:58:08Z</time>
      </trkpt>
      <trkpt lat="42.54692" lon="2.06311">
        <ele>1880.0589599609</ele>
        <time>2011-09-11T06:58:15Z</time>
      </trkpt>
      <trkpt lat="42.54711" lon="2.06279">
        <ele>1881.8759765625</ele>
        <time>2011-09-11T06:58:24Z</time>
      </trkpt>
      <trkpt lat="42.54721" lon="2.06255">
        <ele>1882.9370117188</ele>
        <time>2011-09-11T06:58:30Z</time>
      </trkpt>
      <trkpt lat="42.54728" lon="2.06235">
        <ele>1883.8940429688</ele>
        <time>2011-09-11T06:58:35Z</time>
      </trkpt>
      <trkpt lat="42.54737" lon="2.06216">
        <ele>1884.833984375</ele>
        <time>2011-09-11T06:58:40Z</time>
      </trkpt>
      <trkpt lat="42.54749" lon="2.06189">
        <ele>1886.2399902344</ele>
        <time>2011-09-11T06:58:47Z</time>
      </trkpt>
      <trkpt lat="42.54758" lon="2.06154">
        <ele>1886.2060546875</ele>
        <time>2011-09-11T06:58:54Z</time>
      </trkpt>
      <trkpt lat="42.54767" lon="2.06122">
        <ele>1886.1560058594</ele>
        <time>2011-09-11T06:59:00Z</time>
      </trkpt>
      <trkpt lat="42.5477" lon="2.06112">
        <ele>1885.9560546875</ele>
        <time>2011-09-11T06:59:02Z</time>
      </trkpt>
      <trkpt lat="42.54779" lon="2.0609">
        <ele>1885.6540527344</ele>
        <time>2011-09-11T06:59:06Z</time>
      </trkpt>
      <trkpt lat="42.54786" lon="2.0607">
        <ele>1885.0610351562</ele>
        <time>2011-09-11T06:59:09Z</time>
      </trkpt>
      <trkpt lat="42.54798" lon="2.06044">
        <ele>1883.8070068359</ele>
        <time>2011-09-11T06:59:13Z</time>
      </trkpt>
      <trkpt lat="42.54807" lon="2.06025">
        <ele>1883.1629638672</ele>
        <time>2011-09-11T06:59:16Z</time>
      </trkpt>
      <trkpt lat="42.54813" lon="2.06012">
        <ele>1882.9270019531</ele>
        <time>2011-09-11T06:59:18Z</time>
      </trkpt>
      <trkpt lat="42.54827" lon="2.0597">
        <ele>1882.8609619141</ele>
        <time>2011-09-11T06:59:24Z</time>
      </trkpt>
      <trkpt lat="42.54836" lon="2.05951">
        <ele>1882.1030273438</ele>
        <time>2011-09-11T06:59:27Z</time>
      </trkpt>
      <trkpt lat="42.54849" lon="2.05928">
        <ele>1881.8229980469</ele>
        <time>2011-09-11T06:59:31Z</time>
      </trkpt>
      <trkpt lat="42.54855" lon="2.05904">
        <ele>1883.2120361328</ele>
        <time>2011-09-11T06:59:35Z</time>
      </trkpt>
      <trkpt lat="42.54868" lon="2.0588">
        <ele>1884.8299560547</ele>
        <time>2011-09-11T06:59:41Z</time>
      </trkpt>
      <trkpt lat="42.54876" lon="2.05867">
        <ele>1885.6889648438</ele>
        <time>2011-09-11T06:59:45Z</time>
      </trkpt>
      <trkpt lat="42.5488" lon="2.0585">
        <ele>1886.8260498047</ele>
        <time>2011-09-11T06:59:49Z</time>
      </trkpt>
      <trkpt lat="42.54892" lon="2.05835">
        <ele>1887.4499511719</ele>
        <time>2011-09-11T06:59:54Z</time>
      </trkpt>
      <trkpt lat="42.54896" lon="2.05821">
        <ele>1887.7659912109</ele>
        <time>2011-09-11T06:59:57Z</time>
      </trkpt>
      <trkpt lat="42.54905" lon="2.05801">
        <ele>1888.1180419922</ele>
        <time>2011-09-11T07:00:01Z</time>
      </trkpt>
      <trkpt lat="42.54929" lon="2.0576">
        <ele>1888.2370605469</ele>
        <time>2011-09-11T07:00:09Z</time>
      </trkpt>
      <trkpt lat="42.54948" lon="2.05743">
        <ele>1888.3489990234</ele>
        <time>2011-09-11T07:00:14Z</time>
      </trkpt>
      <trkpt lat="42.54966" lon="2.0573">
        <ele>1890.4460449219</ele>
        <time>2011-09-11T07:00:21Z</time>
      </trkpt>
      <trkpt lat="42.54976" lon="2.0572">
        <ele>1892.4329833984</ele>
        <time>2011-09-11T07:00:26Z</time>
      </trkpt>
      <trkpt lat="42.54987" lon="2.05713">
        <ele>1895.1829833984</ele>
        <time>2011-09-11T07:00:31Z</time>
      </trkpt>
      <trkpt lat="42.55007" lon="2.05707">
        <ele>1898.0369873047</ele>
        <time>2011-09-11T07:00:39Z</time>
      </trkpt>
      <trkpt lat="42.55025" lon="2.05695">
        <ele>1899.3740234375</ele>
        <time>2011-09-11T07:00:46Z</time>
      </trkpt>
      <trkpt lat="42.55038" lon="2.05673">
        <ele>1900.7740478516</ele>
        <time>2011-09-11T07:00:53Z</time>
      </trkpt>
      <trkpt lat="42.55045" lon="2.05658">
        <ele>1902.748046875</ele>
        <time>2011-09-11T07:00:58Z</time>
      </trkpt>
      <trkpt lat="42.55055" lon="2.05646">
        <ele>1905.7409667969</ele>
        <time>2011-09-11T07:01:04Z</time>
      </trkpt>
      <trkpt lat="42.5507" lon="2.05638">
        <ele>1906.8089599609</ele>
        <time>2011-09-11T07:01:10Z</time>
      </trkpt>
      <trkpt lat="42.55093" lon="2.05624">
        <ele>1906.7370605469</ele>
        <time>2011-09-11T07:01:18Z</time>
      </trkpt>
      <trkpt lat="42.55107" lon="2.05612">
        <ele>1907.3470458984</ele>
        <time>2011-09-11T07:01:22Z</time>
      </trkpt>
      <trkpt lat="42.55113" lon="2.05604">
        <ele>1907.66796875</ele>
        <time>2011-09-11T07:01:24Z</time>
      </trkpt>
      <trkpt lat="42.55123" lon="2.05582">
        <ele>1907.7280273438</ele>
        <time>2011-09-11T07:01:28Z</time>
      </trkpt>
      <trkpt lat="42.55141" lon="2.05531">
        <ele>1906.5310058594</ele>
        <time>2011-09-11T07:01:36Z</time>
      </trkpt>
      <trkpt lat="42.55163" lon="2.05484">
        <ele>1906.4339599609</ele>
        <time>2011-09-11T07:01:43Z</time>
      </trkpt>
      <trkpt lat="42.55175" lon="2.05457">
        <ele>1906.4940185547</ele>
        <time>2011-09-11T07:01:47Z</time>
      </trkpt>
      <trkpt lat="42.55196" lon="2.05435">
        <ele>1907.3120117188</ele>
        <time>2011-09-11T07:01:52Z</time>
      </trkpt>
      <trkpt lat="42.55219" lon="2.05428">
        <ele>1907.3060302734</ele>
        <time>2011-09-11T07:01:56Z</time>
      </trkpt>
      <trkpt lat="42.55238" lon="2.05407">
        <ele>1907.7120361328</ele>
        <time>2011-09-11T07:02:00Z</time>
      </trkpt>
      <trkpt lat="42.55241" lon="2.05401">
        <ele>1907.4010009766</ele>
        <time>2011-09-11T07:02:01Z</time>
      </trkpt>
      <trkpt lat="42.55259" lon="2.05388">
        <ele>1906.3020019531</ele>
        <time>2011-09-11T07:02:05Z</time>
      </trkpt>
      <trkpt lat="42.55264" lon="2.05388">
        <ele>1906.4949951172</ele>
        <time>2011-09-11T07:02:06Z</time>
      </trkpt>
      <trkpt lat="42.55273" lon="2.0539">
        <ele>1907.4100341797</ele>
        <time>2011-09-11T07:02:08Z</time>
      </trkpt>
      <trkpt lat="42.55299" lon="2.05382">
        <ele>1908.7769775391</ele>
        <time>2011-09-11T07:02:13Z</time>
      </trkpt>
      <trkpt lat="42.55318" lon="2.0538">
        <ele>1909.8210449219</ele>
        <time>2011-09-11T07:02:17Z</time>
      </trkpt>
      <trkpt lat="42.55344" lon="2.05364">
        <ele>1912.0159912109</ele>
        <time>2011-09-11T07:02:24Z</time>
      </trkpt>
      <trkpt lat="42.55355" lon="2.05346">
        <ele>1913.541015625</ele>
        <time>2011-09-11T07:02:29Z</time>
      </trkpt>
      <trkpt lat="42.55355" lon="2.05325">
        <ele>1915.9580078125</ele>
        <time>2011-09-11T07:02:34Z</time>
      </trkpt>
      <trkpt lat="42.55355" lon="2.05307">
        <ele>1917.4470214844</ele>
        <time>2011-09-11T07:02:39Z</time>
      </trkpt>
      <trkpt lat="42.55363" lon="2.05287">
        <ele>1919.4449462891</ele>
        <time>2011-09-11T07:02:45Z</time>
      </trkpt>
      <trkpt lat="42.55374" lon="2.05271">
        <ele>1920.7390136719</ele>
        <time>2011-09-11T07:02:50Z</time>
      </trkpt>
      <trkpt lat="42.55391" lon="2.05256">
        <ele>1919.9420166016</ele>
        <time>2011-09-11T07:02:56Z</time>
      </trkpt>
      <trkpt lat="42.55407" lon="2.05241">
        <ele>1919.8480224609</ele>
        <time>2011-09-11T07:03:02Z</time>
      </trkpt>
      <trkpt lat="42.5542" lon="2.05214">
        <ele>1920.2030029297</ele>
        <time>2011-09-11T07:03:08Z</time>
      </trkpt>
      <trkpt lat="42.55432" lon="2.05178">
        <ele>1920.5190429688</ele>
        <time>2011-09-11T07:03:15Z</time>
      </trkpt>
      <trkpt lat="42.55447" lon="2.05147">
        <ele>1920.9479980469</ele>
        <time>2011-09-11T07:03:21Z</time>
      </trkpt>
      <trkpt lat="42.55456" lon="2.05126">
        <ele>1920.6899414062</ele>
        <time>2011-09-11T07:03:25Z</time>
      </trkpt>
      <trkpt lat="42.55476" lon="2.05085">
        <ele>1922.083984375</ele>
        <time>2011-09-11T07:03:34Z</time>
      </trkpt>
      <trkpt lat="42.55487" lon="2.05064">
        <ele>1923.8489990234</ele>
        <time>2011-09-11T07:03:40Z</time>
      </trkpt>
      <trkpt lat="42.55499" lon="2.05049">
        <ele>1926.1369628906</ele>
        <time>2011-09-11T07:03:45Z</time>
      </trkpt>
      <trkpt lat="42.55513" lon="2.05034">
        <ele>1926.7640380859</ele>
        <time>2011-09-11T07:03:50Z</time>
      </trkpt>
      <trkpt lat="42.55516" lon="2.05017">
        <ele>1927.9809570312</ele>
        <time>2011-09-11T07:03:54Z</time>
      </trkpt>
      <trkpt lat="42.55515" lon="2.04994">
        <ele>1928.8289794922</ele>
        <time>2011-09-11T07:03:59Z</time>
      </trkpt>
      <trkpt lat="42.55521" lon="2.0497">
        <ele>1929.0600585938</ele>
        <time>2011-09-11T07:04:05Z</time>
      </trkpt>
      <trkpt lat="42.55529" lon="2.04943">
        <ele>1930.5040283203</ele>
        <time>2011-09-11T07:04:12Z</time>
      </trkpt>
      <trkpt lat="42.55533" lon="2.04932">
        <ele>1931.1850585938</ele>
        <time>2011-09-11T07:04:16Z</time>
      </trkpt>
      <trkpt lat="42.55539" lon="2.04938">
        <ele>1931.0849609375</ele>
        <time>2011-09-11T07:04:21Z</time>
      </trkpt>
      <trkpt lat="42.5554" lon="2.04943">
        <ele>1930.8719482422</ele>
        <time>2011-09-11T07:04:23Z</time>
      </trkpt>
      <trkpt lat="42.55546" lon="2.04956">
        <ele>1930.4250488281</ele>
        <time>2011-09-11T07:04:27Z</time>
      </trkpt>
      <trkpt lat="42.55571" lon="2.04978">
        <ele>1929.2559814453</ele>
        <time>2011-09-11T07:04:34Z</time>
      </trkpt>
      <trkpt lat="42.55575" lon="2.0498">
        <ele>1929.0889892578</ele>
        <time>2011-09-11T07:04:35Z</time>
      </trkpt>
      <trkpt lat="42.55601" lon="2.0499">
        <ele>1927.7679443359</ele>
        <time>2011-09-11T07:04:40Z</time>
      </trkpt>
      <trkpt lat="42.55631" lon="2.04979">
        <ele>1926.0369873047</ele>
        <time>2011-09-11T07:04:45Z</time>
      </trkpt>
      <trkpt lat="42.55651" lon="2.04954">
        <ele>1924.1149902344</ele>
        <time>2011-09-11T07:04:49Z</time>
      </trkpt>
      <trkpt lat="42.55672" lon="2.04954">
        <ele>1923.4599609375</ele>
        <time>2011-09-11T07:04:52Z</time>
      </trkpt>
      <trkpt lat="42.55688" lon="2.04958">
        <ele>1922.8260498047</ele>
        <time>2011-09-11T07:04:55Z</time>
      </trkpt>
      <trkpt lat="42.55698" lon="2.04961">
        <ele>1922.7370605469</ele>
        <time>2011-09-11T07:04:57Z</time>
      </trkpt>
      <trkpt lat="42.5571" lon="2.04977">
        <ele>1922.7320556641</ele>
        <time>2011-09-11T07:05:01Z</time>
      </trkpt>
      <trkpt lat="42.55705" lon="2.04994">
        <ele>1922.6960449219</ele>
        <time>2011-09-11T07:05:04Z</time>
      </trkpt>
      <trkpt lat="42.55695" lon="2.05011">
        <ele>1922.6169433594</ele>
        <time>2011-09-11T07:05:07Z</time>
      </trkpt>
      <trkpt lat="42.55686" lon="2.05049">
        <ele>1922.0989990234</ele>
        <time>2011-09-11T07:05:12Z</time>
      </trkpt>
      <trkpt lat="42.55693" lon="2.05059">
        <ele>1921.5909423828</ele>
        <time>2011-09-11T07:05:14Z</time>
      </trkpt>
      <trkpt lat="42.55711" lon="2.05061">
        <ele>1920.9040527344</ele>
        <time>2011-09-11T07:05:17Z</time>
      </trkpt>
      <trkpt lat="42.55717" lon="2.05059">
        <ele>1920.8249511719</ele>
        <time>2011-09-11T07:05:18Z</time>
      </trkpt>
      <trkpt lat="42.55736" lon="2.05053">
        <ele>1920.4289550781</ele>
        <time>2011-09-11T07:05:21Z</time>
      </trkpt>
      <trkpt lat="42.55762" lon="2.05062">
        <ele>1918.8070068359</ele>
        <time>2011-09-11T07:05:25Z</time>
      </trkpt>
      <trkpt lat="42.5578" lon="2.05089">
        <ele>1917.7299804688</ele>
        <time>2011-09-11T07:05:29Z</time>
      </trkpt>
      <trkpt lat="42.55786" lon="2.05094">
        <ele>1917.5739746094</ele>
        <time>2011-09-11T07:05:30Z</time>
      </trkpt>
      <trkpt lat="42.55809" lon="2.05116">
        <ele>1916.5579833984</ele>
        <time>2011-09-11T07:05:34Z</time>
      </trkpt>
      <trkpt lat="42.55841" lon="2.05127">
        <ele>1916.4890136719</ele>
        <time>2011-09-11T07:05:39Z</time>
      </trkpt>
      <trkpt lat="42.55853" lon="2.05123">
        <ele>1916.5310058594</ele>
        <time>2011-09-11T07:05:41Z</time>
      </trkpt>
      <trkpt lat="42.5588" lon="2.05122">
        <ele>1915.0450439453</ele>
        <time>2011-09-11T07:05:46Z</time>
      </trkpt>
      <trkpt lat="42.55888" lon="2.05144">
        <ele>1913.2840576172</ele>
        <time>2011-09-11T07:05:49Z</time>
      </trkpt>
      <trkpt lat="42.5589" lon="2.05152">
        <ele>1912.7459716797</ele>
        <time>2011-09-11T07:05:50Z</time>
      </trkpt>
      <trkpt lat="42.55894" lon="2.05169">
        <ele>1911.9470214844</ele>
        <time>2011-09-11T07:05:52Z</time>
      </trkpt>
      <trkpt lat="42.55897" lon="2.05178">
        <ele>1911.541015625</ele>
        <time>2011-09-11T07:05:53Z</time>
      </trkpt>
      <trkpt lat="42.55911" lon="2.05211">
        <ele>1911.2299804688</ele>
        <time>2011-09-11T07:05:57Z</time>
      </trkpt>
      <trkpt lat="42.5592" lon="2.05237">
        <ele>1910.6729736328</ele>
        <time>2011-09-11T07:06:00Z</time>
      </trkpt>
      <trkpt lat="42.55923" lon="2.05277">
        <ele>1909.5119628906</ele>
        <time>2011-09-11T07:06:04Z</time>
      </trkpt>
      <trkpt lat="42.55914" lon="2.05351">
        <ele>1907.3389892578</ele>
        <time>2011-09-11T07:06:11Z</time>
      </trkpt>
      <trkpt lat="42.55907" lon="2.05409">
        <ele>1907.1479492188</ele>
        <time>2011-09-11T07:06:17Z</time>
      </trkpt>
      <trkpt lat="42.55901" lon="2.05435">
        <ele>1907.2719726562</ele>
        <time>2011-09-11T07:06:20Z</time>
      </trkpt>
      <trkpt lat="42.55884" lon="2.0547">
        <ele>1907.1490478516</ele>
        <time>2011-09-11T07:06:25Z</time>
      </trkpt>
      <trkpt lat="42.55858" lon="2.05495">
        <ele>1904.9399414062</ele>
        <time>2011-09-11T07:06:29Z</time>
      </trkpt>
      <trkpt lat="42.55816" lon="2.05516">
        <ele>1900.4079589844</ele>
        <time>2011-09-11T07:06:34Z</time>
      </trkpt>
      <trkpt lat="42.55766" lon="2.05543">
        <ele>1893.8020019531</ele>
        <time>2011-09-11T07:06:39Z</time>
      </trkpt>
      <trkpt lat="42.55727" lon="2.05568">
        <ele>1887.2769775391</ele>
        <time>2011-09-11T07:06:43Z</time>
      </trkpt>
      <trkpt lat="42.55706" lon="2.05579">
        <ele>1883.5679931641</ele>
        <time>2011-09-11T07:06:45Z</time>
      </trkpt>
      <trkpt lat="42.55676" lon="2.05602">
        <ele>1878.7199707031</ele>
        <time>2011-09-11T07:06:48Z</time>
      </trkpt>
      <trkpt lat="42.55636" lon="2.05651">
        <ele>1873.2010498047</ele>
        <time>2011-09-11T07:06:53Z</time>
      </trkpt>
      <trkpt lat="42.55615" lon="2.05693">
        <ele>1869.8199462891</ele>
        <time>2011-09-11T07:06:57Z</time>
      </trkpt>
      <trkpt lat="42.55607" lon="2.05716">
        <ele>1868.3509521484</ele>
        <time>2011-09-11T07:06:59Z</time>
      </trkpt>
      <trkpt lat="42.55578" lon="2.05763">
        <ele>1867.6009521484</ele>
        <time>2011-09-11T07:07:04Z</time>
      </trkpt>
      <trkpt lat="42.55561" lon="2.05801">
        <ele>1868.1479492188</ele>
        <time>2011-09-11T07:07:09Z</time>
      </trkpt>
      <trkpt lat="42.5555" lon="2.05826">
        <ele>1869.6590576172</ele>
        <time>2011-09-11T07:07:14Z</time>
      </trkpt>
      <trkpt lat="42.55534" lon="2.05861">
        <ele>1870.3509521484</ele>
        <time>2011-09-11T07:07:22Z</time>
      </trkpt>
      <trkpt lat="42.55532" lon="2.05865">
        <ele>1870.8719482422</ele>
        <time>2011-09-11T07:07:23Z</time>
      </trkpt>
      <trkpt lat="42.55526" lon="2.05872">
        <ele>1871.7149658203</ele>
        <time>2011-09-11T07:07:25Z</time>
      </trkpt>
      <trkpt lat="42.55511" lon="2.05903">
        <ele>1874.2869873047</ele>
        <time>2011-09-11T07:07:32Z</time>
      </trkpt>
      <trkpt lat="42.5551" lon="2.05927">
        <ele>1875.7370605469</ele>
        <time>2011-09-11T07:07:37Z</time>
      </trkpt>
      <trkpt lat="42.55514" lon="2.05942">
        <ele>1876.7419433594</ele>
        <time>2011-09-11T07:07:41Z</time>
      </trkpt>
      <trkpt lat="42.55511" lon="2.05955">
        <ele>1876.8979492188</ele>
        <time>2011-09-11T07:07:44Z</time>
      </trkpt>
      <trkpt lat="42.55506" lon="2.05965">
        <ele>1876.7020263672</ele>
        <time>2011-09-11T07:07:46Z</time>
      </trkpt>
      <trkpt lat="42.55502" lon="2.05993">
        <ele>1875.4219970703</ele>
        <time>2011-09-11T07:07:50Z</time>
      </trkpt>
      <trkpt lat="42.55501" lon="2.06009">
        <ele>1874.9439697266</ele>
        <time>2011-09-11T07:07:52Z</time>
      </trkpt>
      <trkpt lat="42.55504" lon="2.06046">
        <ele>1873.9470214844</ele>
        <time>2011-09-11T07:07:56Z</time>
      </trkpt>
      <trkpt lat="42.55503" lon="2.06113">
        <ele>1871.4560546875</ele>
        <time>2011-09-11T07:08:02Z</time>
      </trkpt>
      <trkpt lat="42.55512" lon="2.06157">
        <ele>1870.7299804688</ele>
        <time>2011-09-11T07:08:06Z</time>
      </trkpt>
      <trkpt lat="42.55526" lon="2.06182">
        <ele>1871.0369873047</ele>
        <time>2011-09-11T07:08:09Z</time>
      </trkpt>
      <trkpt lat="42.55542" lon="2.06202">
        <ele>1872.2230224609</ele>
        <time>2011-09-11T07:08:12Z</time>
      </trkpt>
      <trkpt lat="42.55551" lon="2.06218">
        <ele>1872.6319580078</ele>
        <time>2011-09-11T07:08:14Z</time>
      </trkpt>
      <trkpt lat="42.55566" lon="2.06271">
        <ele>1869.9360351562</ele>
        <time>2011-09-11T07:08:19Z</time>
      </trkpt>
      <trkpt lat="42.55585" lon="2.06309">
        <ele>1866.3890380859</ele>
        <time>2011-09-11T07:08:23Z</time>
      </trkpt>
      <trkpt lat="42.55595" lon="2.06329">
        <ele>1865.4549560547</ele>
        <time>2011-09-11T07:08:25Z</time>
      </trkpt>
      <trkpt lat="42.55602" lon="2.06363">
        <ele>1864.8819580078</ele>
        <time>2011-09-11T07:08:28Z</time>
      </trkpt>
      <trkpt lat="42.55604" lon="2.06375">
        <ele>1864.4840087891</ele>
        <time>2011-09-11T07:08:29Z</time>
      </trkpt>
      <trkpt lat="42.55606" lon="2.06407">
        <ele>1863.1770019531</ele>
        <time>2011-09-11T07:08:32Z</time>
      </trkpt>
      <trkpt lat="42.55603" lon="2.06428">
        <ele>1862.3830566406</ele>
        <time>2011-09-11T07:08:34Z</time>
      </trkpt>
      <trkpt lat="42.55593" lon="2.06465">
        <ele>1859.8480224609</ele>
        <time>2011-09-11T07:08:38Z</time>
      </trkpt>
      <trkpt lat="42.556" lon="2.06486">
        <ele>1856.9339599609</ele>
        <time>2011-09-11T07:08:41Z</time>
      </trkpt>
      <trkpt lat="42.55618" lon="2.0649">
        <ele>1855.6009521484</ele>
        <time>2011-09-11T07:08:44Z</time>
      </trkpt>
      <trkpt lat="42.55625" lon="2.06488">
        <ele>1855.2220458984</ele>
        <time>2011-09-11T07:08:45Z</time>
      </trkpt>
      <trkpt lat="42.55639" lon="2.06481">
        <ele>1854.416015625</ele>
        <time>2011-09-11T07:08:47Z</time>
      </trkpt>
      <trkpt lat="42.55673" lon="2.06475">
        <ele>1852.2590332031</ele>
        <time>2011-09-11T07:08:51Z</time>
      </trkpt>
      <trkpt lat="42.55721" lon="2.06467">
        <ele>1849.3120117188</ele>
        <time>2011-09-11T07:08:57Z</time>
      </trkpt>
      <trkpt lat="42.55729" lon="2.06469">
        <ele>1848.5760498047</ele>
        <time>2011-09-11T07:08:58Z</time>
      </trkpt>
      <trkpt lat="42.55746" lon="2.06473">
        <ele>1847.7180175781</ele>
        <time>2011-09-11T07:09:00Z</time>
      </trkpt>
      <trkpt lat="42.55775" lon="2.06493">
        <ele>1845.8520507812</ele>
        <time>2011-09-11T07:09:04Z</time>
      </trkpt>
      <trkpt lat="42.55779" lon="2.06501">
        <ele>1845.6199951172</ele>
        <time>2011-09-11T07:09:05Z</time>
      </trkpt>
      <trkpt lat="42.55787" lon="2.06527">
        <ele>1844.7259521484</ele>
        <time>2011-09-11T07:09:08Z</time>
      </trkpt>
      <trkpt lat="42.55802" lon="2.0655">
        <ele>1844.1560058594</ele>
        <time>2011-09-11T07:09:12Z</time>
      </trkpt>
      <trkpt lat="42.55812" lon="2.06547">
        <ele>1844.1159667969</ele>
        <time>2011-09-11T07:09:14Z</time>
      </trkpt>
      <trkpt lat="42.55839" lon="2.06536">
        <ele>1844.6180419922</ele>
        <time>2011-09-11T07:09:19Z</time>
      </trkpt>
      <trkpt lat="42.55866" lon="2.06511">
        <ele>1844.1689453125</ele>
        <time>2011-09-11T07:09:24Z</time>
      </trkpt>
      <trkpt lat="42.55888" lon="2.06496">
        <ele>1842.7440185547</ele>
        <time>2011-09-11T07:09:27Z</time>
      </trkpt>
      <trkpt lat="42.55926" lon="2.0649">
        <ele>1841.3470458984</ele>
        <time>2011-09-11T07:09:32Z</time>
      </trkpt>
      <trkpt lat="42.55964" lon="2.06473">
        <ele>1839.8089599609</ele>
        <time>2011-09-11T07:09:37Z</time>
      </trkpt>
      <trkpt lat="42.5598" lon="2.06464">
        <ele>1838.6939697266</ele>
        <time>2011-09-11T07:09:39Z</time>
      </trkpt>
      <trkpt lat="42.56007" lon="2.06434">
        <ele>1837.1569824219</ele>
        <time>2011-09-11T07:09:43Z</time>
      </trkpt>
      <trkpt lat="42.56017" lon="2.06416">
        <ele>1836.5360107422</ele>
        <time>2011-09-11T07:09:45Z</time>
      </trkpt>
      <trkpt lat="42.56038" lon="2.0639">
        <ele>1834.666015625</ele>
        <time>2011-09-11T07:09:49Z</time>
      </trkpt>
      <trkpt lat="42.5605" lon="2.06379">
        <ele>1834.3580322266</ele>
        <time>2011-09-11T07:09:51Z</time>
      </trkpt>
      <trkpt lat="42.56063" lon="2.0637">
        <ele>1834.1820068359</ele>
        <time>2011-09-11T07:09:53Z</time>
      </trkpt>
      <trkpt lat="42.56093" lon="2.06355">
        <ele>1833.3590087891</ele>
        <time>2011-09-11T07:09:57Z</time>
      </trkpt>
      <trkpt lat="42.56116" lon="2.06344">
        <ele>1831.9499511719</ele>
        <time>2011-09-11T07:10:00Z</time>
      </trkpt>
      <trkpt lat="42.56144" lon="2.06349">
        <ele>1828.9739990234</ele>
        <time>2011-09-11T07:10:04Z</time>
      </trkpt>
      <trkpt lat="42.56149" lon="2.06356">
        <ele>1827.9680175781</ele>
        <time>2011-09-11T07:10:05Z</time>
      </trkpt>
      <trkpt lat="42.56164" lon="2.06379">
        <ele>1826.2120361328</ele>
        <time>2011-09-11T07:10:08Z</time>
      </trkpt>
      <trkpt lat="42.56182" lon="2.06402">
        <ele>1825.2700195312</ele>
        <time>2011-09-11T07:10:11Z</time>
      </trkpt>
      <trkpt lat="42.56218" lon="2.06422">
        <ele>1823.2110595703</ele>
        <time>2011-09-11T07:10:16Z</time>
      </trkpt>
      <trkpt lat="42.5624" lon="2.06415">
        <ele>1821.3640136719</ele>
        <time>2011-09-11T07:10:20Z</time>
      </trkpt>
      <trkpt lat="42.56254" lon="2.06411">
        <ele>1819.3979492188</ele>
        <time>2011-09-11T07:10:23Z</time>
      </trkpt>
      <trkpt lat="42.56265" lon="2.06415">
        <ele>1818.6810302734</ele>
        <time>2011-09-11T07:10:25Z</time>
      </trkpt>
      <trkpt lat="42.5628" lon="2.06434">
        <ele>1817.7149658203</ele>
        <time>2011-09-11T07:10:28Z</time>
      </trkpt>
      <trkpt lat="42.56302" lon="2.06491">
        <ele>1813.6259765625</ele>
        <time>2011-09-11T07:10:33Z</time>
      </trkpt>
      <trkpt lat="42.56314" lon="2.06513">
        <ele>1811.4880371094</ele>
        <time>2011-09-11T07:10:35Z</time>
      </trkpt>
      <trkpt lat="42.5633" lon="2.06553">
        <ele>1808.3210449219</ele>
        <time>2011-09-11T07:10:39Z</time>
      </trkpt>
      <trkpt lat="42.56335" lon="2.06571">
        <ele>1807.0899658203</ele>
        <time>2011-09-11T07:10:41Z</time>
      </trkpt>
      <trkpt lat="42.56336" lon="2.06625">
        <ele>1806.1800537109</ele>
        <time>2011-09-11T07:10:47Z</time>
      </trkpt>
      <trkpt lat="42.56338" lon="2.06649">
        <ele>1805.7540283203</ele>
        <time>2011-09-11T07:10:50Z</time>
      </trkpt>
      <trkpt lat="42.56332" lon="2.06675">
        <ele>1804.7110595703</ele>
        <time>2011-09-11T07:10:54Z</time>
      </trkpt>
      <trkpt lat="42.56325" lon="2.067">
        <ele>1803.2049560547</ele>
        <time>2011-09-11T07:10:57Z</time>
      </trkpt>
      <trkpt lat="42.5632" lon="2.06717">
        <ele>1802.1490478516</ele>
        <time>2011-09-11T07:10:59Z</time>
      </trkpt>
      <trkpt lat="42.56314" lon="2.06732">
        <ele>1800.5999755859</ele>
        <time>2011-09-11T07:11:01Z</time>
      </trkpt>
      <trkpt lat="42.56297" lon="2.06753">
        <ele>1798.3890380859</ele>
        <time>2011-09-11T07:11:06Z</time>
      </trkpt>
      <trkpt lat="42.56292" lon="2.06764">
        <ele>1797.8740234375</ele>
        <time>2011-09-11T07:11:08Z</time>
      </trkpt>
      <trkpt lat="42.56278" lon="2.06796">
        <ele>1795.0679931641</ele>
        <time>2011-09-11T07:11:14Z</time>
      </trkpt>
      <trkpt lat="42.56268" lon="2.06835">
        <ele>1793.2390136719</ele>
        <time>2011-09-11T07:11:21Z</time>
      </trkpt>
      <trkpt lat="42.56265" lon="2.0686">
        <ele>1791.8330078125</ele>
        <time>2011-09-11T07:11:25Z</time>
      </trkpt>
      <trkpt lat="42.56265" lon="2.06881">
        <ele>1790.2619628906</ele>
        <time>2011-09-11T07:11:28Z</time>
      </trkpt>
      <trkpt lat="42.56269" lon="2.06902">
        <ele>1788.7399902344</ele>
        <time>2011-09-11T07:11:31Z</time>
      </trkpt>
      <trkpt lat="42.56279" lon="2.06928">
        <ele>1786.8680419922</ele>
        <time>2011-09-11T07:11:36Z</time>
      </trkpt>
      <trkpt lat="42.56274" lon="2.06941">
        <ele>1785.3149414062</ele>
        <time>2011-09-11T07:11:41Z</time>
      </trkpt>
      <trkpt lat="42.56267" lon="2.06948">
        <ele>1782.8330078125</ele>
        <time>2011-09-11T07:11:44Z</time>
      </trkpt>
      <trkpt lat="42.56268" lon="2.06961">
        <ele>1780.7299804688</ele>
        <time>2011-09-11T07:11:47Z</time>
      </trkpt>
      <trkpt lat="42.56281" lon="2.06986">
        <ele>1777.9060058594</ele>
        <time>2011-09-11T07:11:51Z</time>
      </trkpt>
      <trkpt lat="42.56294" lon="2.07021">
        <ele>1773.7960205078</ele>
        <time>2011-09-11T07:11:56Z</time>
      </trkpt>
      <trkpt lat="42.56301" lon="2.0704">
        <ele>1770.4930419922</ele>
        <time>2011-09-11T07:11:59Z</time>
      </trkpt>
      <trkpt lat="42.56301" lon="2.0707">
        <ele>1766.4809570312</ele>
        <time>2011-09-11T07:12:03Z</time>
      </trkpt>
      <trkpt lat="42.56301" lon="2.07077">
        <ele>1765.0980224609</ele>
        <time>2011-09-11T07:12:04Z</time>
      </trkpt>
      <trkpt lat="42.56307" lon="2.07107">
        <ele>1759.0639648438</ele>
        <time>2011-09-11T07:12:09Z</time>
      </trkpt>
      <trkpt lat="42.56311" lon="2.07124">
        <ele>1756.0279541016</ele>
        <time>2011-09-11T07:12:12Z</time>
      </trkpt>
      <trkpt lat="42.56301" lon="2.07145">
        <ele>1753.4639892578</ele>
        <time>2011-09-11T07:12:15Z</time>
      </trkpt>
      <trkpt lat="42.56283" lon="2.07179">
        <ele>1749.1500244141</ele>
        <time>2011-09-11T07:12:19Z</time>
      </trkpt>
      <trkpt lat="42.56279" lon="2.07209">
        <ele>1744.6390380859</ele>
        <time>2011-09-11T07:12:23Z</time>
      </trkpt>
      <trkpt lat="42.56274" lon="2.07225">
        <ele>1742.7729492188</ele>
        <time>2011-09-11T07:12:25Z</time>
      </trkpt>
      <trkpt lat="42.56278" lon="2.07249">
        <ele>1737.3590087891</ele>
        <time>2011-09-11T07:12:29Z</time>
      </trkpt>
      <trkpt lat="42.56295" lon="2.07257">
        <ele>1735.6939697266</ele>
        <time>2011-09-11T07:12:32Z</time>
      </trkpt>
      <trkpt lat="42.5631" lon="2.07256">
        <ele>1734.4620361328</ele>
        <time>2011-09-11T07:12:34Z</time>
      </trkpt>
      <trkpt lat="42.56341" lon="2.07274">
        <ele>1730.7719726562</ele>
        <time>2011-09-11T07:12:39Z</time>
      </trkpt>
      <trkpt lat="42.56338" lon="2.07295">
        <ele>1728.2939453125</ele>
        <time>2011-09-11T07:12:42Z</time>
      </trkpt>
      <trkpt lat="42.56325" lon="2.07306">
        <ele>1725.0970458984</ele>
        <time>2011-09-11T07:12:45Z</time>
      </trkpt>
      <trkpt lat="42.56314" lon="2.07308">
        <ele>1723.3879394531</ele>
        <time>2011-09-11T07:12:47Z</time>
      </trkpt>
      <trkpt lat="42.56292" lon="2.0731">
        <ele>1723.5450439453</ele>
        <time>2011-09-11T07:12:52Z</time>
      </trkpt>
      <trkpt lat="42.56288" lon="2.07312">
        <ele>1723.5999755859</ele>
        <time>2011-09-11T07:12:53Z</time>
      </trkpt>
      <trkpt lat="42.56265" lon="2.07315">
        <ele>1724.0479736328</ele>
        <time>2011-09-11T07:12:57Z</time>
      </trkpt>
      <trkpt lat="42.5626" lon="2.07315">
        <ele>1724.4129638672</ele>
        <time>2011-09-11T07:12:58Z</time>
      </trkpt>
      <trkpt lat="42.56244" lon="2.0731">
        <ele>1725.8969726562</ele>
        <time>2011-09-11T07:13:02Z</time>
      </trkpt>
      <trkpt lat="42.56231" lon="2.07301">
        <ele>1727.8389892578</ele>
        <time>2011-09-11T07:13:07Z</time>
      </trkpt>
      <trkpt lat="42.56216" lon="2.07297">
        <ele>1727.5629882812</ele>
        <time>2011-09-11T07:13:11Z</time>
      </trkpt>
      <trkpt lat="42.56212" lon="2.07299">
        <ele>1727.1479492188</ele>
        <time>2011-09-11T07:13:12Z</time>
      </trkpt>
      <trkpt lat="42.56189" lon="2.07292">
        <ele>1724.8129882812</ele>
        <time>2011-09-11T07:13:16Z</time>
      </trkpt>
      <trkpt lat="42.56177" lon="2.07274">
        <ele>1722.0579833984</ele>
        <time>2011-09-11T07:13:19Z</time>
      </trkpt>
      <trkpt lat="42.56173" lon="2.07266">
        <ele>1721.3189697266</ele>
        <time>2011-09-11T07:13:20Z</time>
      </trkpt>
      <trkpt lat="42.56164" lon="2.07254">
        <ele>1720.2299804688</ele>
        <time>2011-09-11T07:13:22Z</time>
      </trkpt>
      <trkpt lat="42.56148" lon="2.07246">
        <ele>1717.6739501953</ele>
        <time>2011-09-11T07:13:25Z</time>
      </trkpt>
      <trkpt lat="42.56141" lon="2.07248">
        <ele>1716.7430419922</ele>
        <time>2011-09-11T07:13:27Z</time>
      </trkpt>
      <trkpt lat="42.56142" lon="2.07264">
        <ele>1716.5500488281</ele>
        <time>2011-09-11T07:13:30Z</time>
      </trkpt>
      <trkpt lat="42.56142" lon="2.07293">
        <ele>1716.3349609375</ele>
        <time>2011-09-11T07:13:35Z</time>
      </trkpt>
      <trkpt lat="42.5614" lon="2.07303">
        <ele>1716.0350341797</ele>
        <time>2011-09-11T07:13:37Z</time>
      </trkpt>
      <trkpt lat="42.56127" lon="2.07326">
        <ele>1714.9930419922</ele>
        <time>2011-09-11T07:13:43Z</time>
      </trkpt>
      <trkpt lat="42.56111" lon="2.07327">
        <ele>1714.8149414062</ele>
        <time>2011-09-11T07:13:48Z</time>
      </trkpt>
      <trkpt lat="42.56107" lon="2.07326">
        <ele>1714.8649902344</ele>
        <time>2011-09-11T07:13:49Z</time>
      </trkpt>
      <trkpt lat="42.56094" lon="2.07329">
        <ele>1714.6319580078</ele>
        <time>2011-09-11T07:13:52Z</time>
      </trkpt>
      <trkpt lat="42.56072" lon="2.0735">
        <ele>1710.6429443359</ele>
        <time>2011-09-11T07:13:57Z</time>
      </trkpt>
      <trkpt lat="42.56079" lon="2.07375">
        <ele>1708.5059814453</ele>
        <time>2011-09-11T07:14:00Z</time>
      </trkpt>
      <trkpt lat="42.56082" lon="2.07383">
        <ele>1708.1180419922</ele>
        <time>2011-09-11T07:14:01Z</time>
      </trkpt>
      <trkpt lat="42.56087" lon="2.07424">
        <ele>1706.1889648438</ele>
        <time>2011-09-11T07:14:05Z</time>
      </trkpt>
      <trkpt lat="42.56099" lon="2.07463">
        <ele>1703.0899658203</ele>
        <time>2011-09-11T07:14:09Z</time>
      </trkpt>
      <trkpt lat="42.56107" lon="2.07488">
        <ele>1700.125</ele>
        <time>2011-09-11T07:14:12Z</time>
      </trkpt>
      <trkpt lat="42.56118" lon="2.075">
        <ele>1698.3699951172</ele>
        <time>2011-09-11T07:14:15Z</time>
      </trkpt>
      <trkpt lat="42.56134" lon="2.07517">
        <ele>1696.2490234375</ele>
        <time>2011-09-11T07:14:21Z</time>
      </trkpt>
      <trkpt lat="42.56134" lon="2.07518">
        <ele>1695.7700195312</ele>
        <time>2011-09-11T07:14:23Z</time>
      </trkpt>
      <trkpt lat="42.56139" lon="2.0752">
        <ele>1695.4320068359</ele>
        <time>2011-09-11T07:14:29Z</time>
      </trkpt>
      <trkpt lat="42.5615" lon="2.07525">
        <ele>1695.7220458984</ele>
        <time>2011-09-11T07:14:32Z</time>
      </trkpt>
      <trkpt lat="42.56162" lon="2.07518">
        <ele>1695.2120361328</ele>
        <time>2011-09-11T07:14:35Z</time>
      </trkpt>
      <trkpt lat="42.56181" lon="2.07503">
        <ele>1695.123046875</ele>
        <time>2011-09-11T07:14:39Z</time>
      </trkpt>
      <trkpt lat="42.56197" lon="2.07503">
        <ele>1694.1030273438</ele>
        <time>2011-09-11T07:14:43Z</time>
      </trkpt>
      <trkpt lat="42.5621" lon="2.07513">
        <ele>1690.6920166016</ele>
        <time>2011-09-11T07:14:46Z</time>
      </trkpt>
      <trkpt lat="42.5622" lon="2.07519">
        <ele>1688.3229980469</ele>
        <time>2011-09-11T07:14:49Z</time>
      </trkpt>
      <trkpt lat="42.56236" lon="2.07531">
        <ele>1685.9520263672</ele>
        <time>2011-09-11T07:14:53Z</time>
      </trkpt>
      <trkpt lat="42.56249" lon="2.07528">
        <ele>1684.1440429688</ele>
        <time>2011-09-11T07:14:57Z</time>
      </trkpt>
      <trkpt lat="42.56257" lon="2.07531">
        <ele>1683.9169921875</ele>
        <time>2011-09-11T07:14:59Z</time>
      </trkpt>
      <trkpt lat="42.56269" lon="2.07535">
        <ele>1682.7020263672</ele>
        <time>2011-09-11T07:15:02Z</time>
      </trkpt>
      <trkpt lat="42.56279" lon="2.07537">
        <ele>1681.3349609375</ele>
        <time>2011-09-11T07:15:05Z</time>
      </trkpt>
      <trkpt lat="42.5629" lon="2.07544">
        <ele>1680.0570068359</ele>
        <time>2011-09-11T07:15:08Z</time>
      </trkpt>
      <trkpt lat="42.56293" lon="2.07559">
        <ele>1678.5300292969</ele>
        <time>2011-09-11T07:15:12Z</time>
      </trkpt>
      <trkpt lat="42.56289" lon="2.07603">
        <ele>1676.8310546875</ele>
        <time>2011-09-11T07:15:18Z</time>
      </trkpt>
      <trkpt lat="42.56284" lon="2.07625">
        <ele>1676.0689697266</ele>
        <time>2011-09-11T07:15:21Z</time>
      </trkpt>
      <trkpt lat="42.56273" lon="2.07646">
        <ele>1675.5870361328</ele>
        <time>2011-09-11T07:15:26Z</time>
      </trkpt>
      <trkpt lat="42.56259" lon="2.07654">
        <ele>1676.5329589844</ele>
        <time>2011-09-11T07:15:30Z</time>
      </trkpt>
      <trkpt lat="42.56247" lon="2.07667">
        <ele>1677.2010498047</ele>
        <time>2011-09-11T07:15:34Z</time>
      </trkpt>
      <trkpt lat="42.56232" lon="2.07672">
        <ele>1677.9410400391</ele>
        <time>2011-09-11T07:15:38Z</time>
      </trkpt>
      <trkpt lat="42.56211" lon="2.07674">
        <ele>1678.8590087891</ele>
        <time>2011-09-11T07:15:43Z</time>
      </trkpt>
      <trkpt lat="42.56196" lon="2.07676">
        <ele>1678.8879394531</ele>
        <time>2011-09-11T07:15:46Z</time>
      </trkpt>
      <trkpt lat="42.56174" lon="2.07682">
        <ele>1679.3060302734</ele>
        <time>2011-09-11T07:15:51Z</time>
      </trkpt>
      <trkpt lat="42.56163" lon="2.07685">
        <ele>1680.2969970703</ele>
        <time>2011-09-11T07:15:55Z</time>
      </trkpt>
      <trkpt lat="42.56149" lon="2.07697">
        <ele>1682.1190185547</ele>
        <time>2011-09-11T07:16:00Z</time>
      </trkpt>
      <trkpt lat="42.56135" lon="2.07718">
        <ele>1681.9909667969</ele>
        <time>2011-09-11T07:16:05Z</time>
      </trkpt>
      <trkpt lat="42.56121" lon="2.07725">
        <ele>1682.0710449219</ele>
        <time>2011-09-11T07:16:09Z</time>
      </trkpt>
      <trkpt lat="42.56118" lon="2.07725">
        <ele>1682.1209716797</ele>
        <time>2011-09-11T07:16:10Z</time>
      </trkpt>
      <trkpt lat="42.56092" lon="2.07721">
        <ele>1682.7640380859</ele>
        <time>2011-09-11T07:16:16Z</time>
      </trkpt>
      <trkpt lat="42.56077" lon="2.07732">
        <ele>1682.8459472656</ele>
        <time>2011-09-11T07:16:21Z</time>
      </trkpt>
      <trkpt lat="42.56063" lon="2.07745">
        <ele>1684.8349609375</ele>
        <time>2011-09-11T07:16:27Z</time>
      </trkpt>
      <trkpt lat="42.56059" lon="2.07748">
        <ele>1685.5899658203</ele>
        <time>2011-09-11T07:16:29Z</time>
      </trkpt>
      <trkpt lat="42.56047" lon="2.07755">
        <ele>1687.5090332031</ele>
        <time>2011-09-11T07:16:35Z</time>
      </trkpt>
      <trkpt lat="42.56034" lon="2.07761">
        <ele>1688.7609863281</ele>
        <time>2011-09-11T07:16:41Z</time>
      </trkpt>
      <trkpt lat="42.56022" lon="2.07756">
        <ele>1689.1960449219</ele>
        <time>2011-09-11T07:16:46Z</time>
      </trkpt>
      <trkpt lat="42.56007" lon="2.07752">
        <ele>1689.8139648438</ele>
        <time>2011-09-11T07:16:52Z</time>
      </trkpt>
      <trkpt lat="42.55989" lon="2.0775">
        <ele>1689.9930419922</ele>
        <time>2011-09-11T07:16:59Z</time>
      </trkpt>
      <trkpt lat="42.55986" lon="2.07748">
        <ele>1689.6369628906</ele>
        <time>2011-09-11T07:17:00Z</time>
      </trkpt>
      <trkpt lat="42.55968" lon="2.07745">
        <ele>1687.9739990234</ele>
        <time>2011-09-11T07:17:03Z</time>
      </trkpt>
      <trkpt lat="42.55955" lon="2.07753">
        <ele>1687.2399902344</ele>
        <time>2011-09-11T07:17:07Z</time>
      </trkpt>
      <trkpt lat="42.55955" lon="2.07754">
        <ele>1687.4260253906</ele>
        <time>2011-09-11T07:17:08Z</time>
      </trkpt>
      <trkpt lat="42.5595" lon="2.07765">
        <ele>1688.0579833984</ele>
        <time>2011-09-11T07:17:13Z</time>
      </trkpt>
      <trkpt lat="42.55946" lon="2.07773">
        <ele>1688.6569824219</ele>
        <time>2011-09-11T07:17:18Z</time>
      </trkpt>
      <trkpt lat="42.55944" lon="2.07774">
        <ele>1688.9930419922</ele>
        <time>2011-09-11T07:17:20Z</time>
      </trkpt>
      <trkpt lat="42.55941" lon="2.07776">
        <ele>1689.3060302734</ele>
        <time>2011-09-11T07:17:22Z</time>
      </trkpt>
      <trkpt lat="42.55933" lon="2.07779">
        <ele>1689.8439941406</ele>
        <time>2011-09-11T07:17:27Z</time>
      </trkpt>
      <trkpt lat="42.5593" lon="2.07779">
        <ele>1689.9499511719</ele>
        <time>2011-09-11T07:17:28Z</time>
      </trkpt>
      <trkpt lat="42.55913" lon="2.07785">
        <ele>1689.1280517578</ele>
        <time>2011-09-11T07:17:34Z</time>
      </trkpt>
      <trkpt lat="42.5591" lon="2.07786">
        <ele>1689.0460205078</ele>
        <time>2011-09-11T07:17:35Z</time>
      </trkpt>
      <trkpt lat="42.55896" lon="2.07784">
        <ele>1689.0269775391</ele>
        <time>2011-09-11T07:17:40Z</time>
      </trkpt>
      <trkpt lat="42.5588" lon="2.07782">
        <ele>1688.8759765625</ele>
        <time>2011-09-11T07:17:45Z</time>
      </trkpt>
      <trkpt lat="42.55871" lon="2.07788">
        <ele>1688.41796875</ele>
        <time>2011-09-11T07:17:47Z</time>
      </trkpt>
      <trkpt lat="42.55858" lon="2.07811">
        <ele>1684.9720458984</ele>
        <time>2011-09-11T07:17:52Z</time>
      </trkpt>
      <trkpt lat="42.5586" lon="2.07828">
        <ele>1682.4260253906</ele>
        <time>2011-09-11T07:17:56Z</time>
      </trkpt>
      <trkpt lat="42.55856" lon="2.07839">
        <ele>1681.2690429688</ele>
        <time>2011-09-11T07:17:59Z</time>
      </trkpt>
      <trkpt lat="42.55846" lon="2.07842">
        <ele>1680.8850097656</ele>
        <time>2011-09-11T07:18:02Z</time>
      </trkpt>
      <trkpt lat="42.55836" lon="2.07842">
        <ele>1681.2469482422</ele>
        <time>2011-09-11T07:18:05Z</time>
      </trkpt>
      <trkpt lat="42.55828" lon="2.07846">
        <ele>1681.8260498047</ele>
        <time>2011-09-11T07:18:08Z</time>
      </trkpt>
      <trkpt lat="42.55822" lon="2.07847">
        <ele>1682.208984375</ele>
        <time>2011-09-11T07:18:10Z</time>
      </trkpt>
      <trkpt lat="42.55811" lon="2.07854">
        <ele>1682.7850341797</ele>
        <time>2011-09-11T07:18:14Z</time>
      </trkpt>
      <trkpt lat="42.55798" lon="2.07871">
        <ele>1683.3969726562</ele>
        <time>2011-09-11T07:18:20Z</time>
      </trkpt>
      <trkpt lat="42.55796" lon="2.07885">
        <ele>1683.3330078125</ele>
        <time>2011-09-11T07:18:24Z</time>
      </trkpt>
      <trkpt lat="42.55798" lon="2.07894">
        <ele>1683.4420166016</ele>
        <time>2011-09-11T07:18:26Z</time>
      </trkpt>
      <trkpt lat="42.55782" lon="2.07911">
        <ele>1683.1350097656</ele>
        <time>2011-09-11T07:18:31Z</time>
      </trkpt>
      <trkpt lat="42.55762" lon="2.07928">
        <ele>1684.1700439453</ele>
        <time>2011-09-11T07:18:37Z</time>
      </trkpt>
      <trkpt lat="42.55752" lon="2.07942">
        <ele>1685.0550537109</ele>
        <time>2011-09-11T07:18:41Z</time>
      </trkpt>
      <trkpt lat="42.55743" lon="2.0795">
        <ele>1685.6839599609</ele>
        <time>2011-09-11T07:18:44Z</time>
      </trkpt>
      <trkpt lat="42.5572" lon="2.07964">
        <ele>1685.5379638672</ele>
        <time>2011-09-11T07:18:50Z</time>
      </trkpt>
      <trkpt lat="42.55713" lon="2.07968">
        <ele>1685.8360595703</ele>
        <time>2011-09-11T07:18:52Z</time>
      </trkpt>
      <trkpt lat="42.55693" lon="2.07978">
        <ele>1685.6550292969</ele>
        <time>2011-09-11T07:18:57Z</time>
      </trkpt>
      <trkpt lat="42.5569" lon="2.07977">
        <ele>1685.6779785156</ele>
        <time>2011-09-11T07:18:58Z</time>
      </trkpt>
      <trkpt lat="42.55679" lon="2.07968">
        <ele>1686.8879394531</ele>
        <time>2011-09-11T07:19:03Z</time>
      </trkpt>
      <trkpt lat="42.55669" lon="2.07952">
        <ele>1687.9219970703</ele>
        <time>2011-09-11T07:19:08Z</time>
      </trkpt>
      <trkpt lat="42.55655" lon="2.07932">
        <ele>1688.1459960938</ele>
        <time>2011-09-11T07:19:13Z</time>
      </trkpt>
      <trkpt lat="42.55645" lon="2.07922">
        <ele>1688.3979492188</ele>
        <time>2011-09-11T07:19:16Z</time>
      </trkpt>
      <trkpt lat="42.55627" lon="2.07918">
        <ele>1688.998046875</ele>
        <time>2011-09-11T07:19:21Z</time>
      </trkpt>
      <trkpt lat="42.55623" lon="2.07932">
        <ele>1688.0159912109</ele>
        <time>2011-09-11T07:19:24Z</time>
      </trkpt>
      <trkpt lat="42.55625" lon="2.07959">
        <ele>1686.4040527344</ele>
        <time>2011-09-11T07:19:28Z</time>
      </trkpt>
      <trkpt lat="42.55636" lon="2.07998">
        <ele>1684.8160400391</ele>
        <time>2011-09-11T07:19:33Z</time>
      </trkpt>
      <trkpt lat="42.55626" lon="2.08032">
        <ele>1683.8029785156</ele>
        <time>2011-09-11T07:19:38Z</time>
      </trkpt>
      <trkpt lat="42.55615" lon="2.08035">
        <ele>1683.5200195312</ele>
        <time>2011-09-11T07:19:40Z</time>
      </trkpt>
      <trkpt lat="42.55582" lon="2.08046">
        <ele>1681.2299804688</ele>
        <time>2011-09-11T07:19:45Z</time>
      </trkpt>
      <trkpt lat="42.55552" lon="2.08065">
        <ele>1679.0959472656</ele>
        <time>2011-09-11T07:19:49Z</time>
      </trkpt>
      <trkpt lat="42.5553" lon="2.08078">
        <ele>1678.0080566406</ele>
        <time>2011-09-11T07:19:53Z</time>
      </trkpt>
      <trkpt lat="42.55525" lon="2.08077">
        <ele>1678.6910400391</ele>
        <time>2011-09-11T07:19:56Z</time>
      </trkpt>
      <trkpt lat="42.55524" lon="2.08078">
        <ele>1679.6879882812</ele>
        <time>2011-09-11T07:19:59Z</time>
      </trkpt>
      <trkpt lat="42.55514" lon="2.0808">
        <ele>1682.5240478516</ele>
        <time>2011-09-11T07:20:07Z</time>
      </trkpt>
      <trkpt lat="42.55505" lon="2.08086">
        <ele>1684.5269775391</ele>
        <time>2011-09-11T07:20:15Z</time>
      </trkpt>
      <trkpt lat="42.55503" lon="2.08088">
        <ele>1684.833984375</ele>
        <time>2011-09-11T07:20:17Z</time>
      </trkpt>
      <trkpt lat="42.55497" lon="2.08095">
        <ele>1686.6099853516</ele>
        <time>2011-09-11T07:20:25Z</time>
      </trkpt>
      <trkpt lat="42.55494" lon="2.08098">
        <ele>1686.9040527344</ele>
        <time>2011-09-11T07:20:29Z</time>
      </trkpt>
      <trkpt lat="42.55488" lon="2.08104">
        <ele>1687.3800048828</ele>
        <time>2011-09-11T07:20:35Z</time>
      </trkpt>
      <trkpt lat="42.55478" lon="2.08111">
        <ele>1686.8029785156</ele>
        <time>2011-09-11T07:20:40Z</time>
      </trkpt>
      <trkpt lat="42.5547" lon="2.08115">
        <ele>1686.5489501953</ele>
        <time>2011-09-11T07:20:42Z</time>
      </trkpt>
      <trkpt lat="42.55444" lon="2.08133">
        <ele>1686.9949951172</ele>
        <time>2011-09-11T07:20:49Z</time>
      </trkpt>
      <trkpt lat="42.5543" lon="2.08147">
        <ele>1686.7039794922</ele>
        <time>2011-09-11T07:20:53Z</time>
      </trkpt>
      <trkpt lat="42.55424" lon="2.08155">
        <ele>1686.8540039062</ele>
        <time>2011-09-11T07:20:55Z</time>
      </trkpt>
      <trkpt lat="42.55407" lon="2.08178">
        <ele>1687.9749755859</ele>
        <time>2011-09-11T07:21:00Z</time>
      </trkpt>
      <trkpt lat="42.55399" lon="2.08199">
        <ele>1688.9060058594</ele>
        <time>2011-09-11T07:21:04Z</time>
      </trkpt>
      <trkpt lat="42.55389" lon="2.08216">
        <ele>1688.9010009766</ele>
        <time>2011-09-11T07:21:07Z</time>
      </trkpt>
      <trkpt lat="42.55384" lon="2.0822">
        <ele>1688.7690429688</ele>
        <time>2011-09-11T07:21:08Z</time>
      </trkpt>
      <trkpt lat="42.55363" lon="2.08229">
        <ele>1688.6829833984</ele>
        <time>2011-09-11T07:21:12Z</time>
      </trkpt>
      <trkpt lat="42.55347" lon="2.08245">
        <ele>1688.2790527344</ele>
        <time>2011-09-11T07:21:16Z</time>
      </trkpt>
      <trkpt lat="42.55327" lon="2.08286">
        <ele>1688.0179443359</ele>
        <time>2011-09-11T07:21:23Z</time>
      </trkpt>
      <trkpt lat="42.55324" lon="2.08293">
        <ele>1687.5849609375</ele>
        <time>2011-09-11T07:21:24Z</time>
      </trkpt>
      <trkpt lat="42.55319" lon="2.08307">
        <ele>1686.7679443359</ele>
        <time>2011-09-11T07:21:26Z</time>
      </trkpt>
      <trkpt lat="42.55313" lon="2.08321">
        <ele>1685.8669433594</ele>
        <time>2011-09-11T07:21:28Z</time>
      </trkpt>
      <trkpt lat="42.55294" lon="2.08354">
        <ele>1684.1359863281</ele>
        <time>2011-09-11T07:21:33Z</time>
      </trkpt>
      <trkpt lat="42.5529" lon="2.08363">
        <ele>1683.6319580078</ele>
        <time>2011-09-11T07:21:34Z</time>
      </trkpt>
      <trkpt lat="42.55283" lon="2.08381">
        <ele>1682.8620605469</ele>
        <time>2011-09-11T07:21:36Z</time>
      </trkpt>
      <trkpt lat="42.55274" lon="2.08398">
        <ele>1682.3449707031</ele>
        <time>2011-09-11T07:21:38Z</time>
      </trkpt>
      <trkpt lat="42.55258" lon="2.08446">
        <ele>1679.6219482422</ele>
        <time>2011-09-11T07:21:43Z</time>
      </trkpt>
      <trkpt lat="42.55255" lon="2.08455">
        <ele>1679.0949707031</ele>
        <time>2011-09-11T07:21:44Z</time>
      </trkpt>
      <trkpt lat="42.55247" lon="2.08476">
        <ele>1678.3389892578</ele>
        <time>2011-09-11T07:21:46Z</time>
      </trkpt>
      <trkpt lat="42.5523" lon="2.08501">
        <ele>1677.5899658203</ele>
        <time>2011-09-11T07:21:49Z</time>
      </trkpt>
      <trkpt lat="42.55211" lon="2.08531">
        <ele>1676.9899902344</ele>
        <time>2011-09-11T07:21:54Z</time>
      </trkpt>
      <trkpt lat="42.55203" lon="2.08546">
        <ele>1677.5389404297</ele>
        <time>2011-09-11T07:21:57Z</time>
      </trkpt>
      <trkpt lat="42.55187" lon="2.08565">
        <ele>1678.2359619141</ele>
        <time>2011-09-11T07:22:01Z</time>
      </trkpt>
      <trkpt lat="42.55177" lon="2.08576">
        <ele>1678.9060058594</ele>
        <time>2011-09-11T07:22:04Z</time>
      </trkpt>
      <trkpt lat="42.55163" lon="2.08592">
        <ele>1679.2939453125</ele>
        <time>2011-09-11T07:22:08Z</time>
      </trkpt>
      <trkpt lat="42.55144" lon="2.08605">
        <ele>1679.9949951172</ele>
        <time>2011-09-11T07:22:14Z</time>
      </trkpt>
      <trkpt lat="42.55134" lon="2.08612">
        <ele>1680.9169921875</ele>
        <time>2011-09-11T07:22:18Z</time>
      </trkpt>
      <trkpt lat="42.55121" lon="2.08627">
        <ele>1681.5209960938</ele>
        <time>2011-09-11T07:22:23Z</time>
      </trkpt>
      <trkpt lat="42.5511" lon="2.0864">
        <ele>1681.8210449219</ele>
        <time>2011-09-11T07:22:27Z</time>
      </trkpt>
      <trkpt lat="42.55096" lon="2.08664">
        <ele>1680.6920166016</ele>
        <time>2011-09-11T07:22:32Z</time>
      </trkpt>
      <trkpt lat="42.55075" lon="2.08687">
        <ele>1679.4630126953</ele>
        <time>2011-09-11T07:22:37Z</time>
      </trkpt>
      <trkpt lat="42.55061" lon="2.08701">
        <ele>1678.8879394531</ele>
        <time>2011-09-11T07:22:40Z</time>
      </trkpt>
      <trkpt lat="42.55045" lon="2.08729">
        <ele>1678.2230224609</ele>
        <time>2011-09-11T07:22:45Z</time>
      </trkpt>
      <trkpt lat="42.55035" lon="2.08733">
        <ele>1678.4470214844</ele>
        <time>2011-09-11T07:22:48Z</time>
      </trkpt>
      <trkpt lat="42.5502" lon="2.08731">
        <ele>1680.7619628906</ele>
        <time>2011-09-11T07:22:54Z</time>
      </trkpt>
      <trkpt lat="42.55012" lon="2.08731">
        <ele>1682.1629638672</ele>
        <time>2011-09-11T07:22:57Z</time>
      </trkpt>
      <trkpt lat="42.55008" lon="2.08732">
        <ele>1683.2189941406</ele>
        <time>2011-09-11T07:22:59Z</time>
      </trkpt>
      <trkpt lat="42.54996" lon="2.08739">
        <ele>1685.6109619141</ele>
        <time>2011-09-11T07:23:06Z</time>
      </trkpt>
      <trkpt lat="42.54984" lon="2.08747">
        <ele>1686.4849853516</ele>
        <time>2011-09-11T07:23:12Z</time>
      </trkpt>
      <trkpt lat="42.54969" lon="2.08753">
        <ele>1687.4499511719</ele>
        <time>2011-09-11T07:23:17Z</time>
      </trkpt>
      <trkpt lat="42.54956" lon="2.08766">
        <ele>1688.6469726562</ele>
        <time>2011-09-11T07:23:23Z</time>
      </trkpt>
      <trkpt lat="42.54945" lon="2.08777">
        <ele>1690.3979492188</ele>
        <time>2011-09-11T07:23:29Z</time>
      </trkpt>
      <trkpt lat="42.54934" lon="2.08779">
        <ele>1692.001953125</ele>
        <time>2011-09-11T07:23:35Z</time>
      </trkpt>
      <trkpt lat="42.54921" lon="2.08777">
        <ele>1693.5550537109</ele>
        <time>2011-09-11T07:23:41Z</time>
      </trkpt>
      <trkpt lat="42.54909" lon="2.08779">
        <ele>1695.0369873047</ele>
        <time>2011-09-11T07:23:46Z</time>
      </trkpt>
      <trkpt lat="42.54899" lon="2.0879">
        <ele>1695.6259765625</ele>
        <time>2011-09-11T07:23:52Z</time>
      </trkpt>
      <trkpt lat="42.54897" lon="2.08792">
        <ele>1695.9200439453</ele>
        <time>2011-09-11T07:23:54Z</time>
      </trkpt>
      <trkpt lat="42.5489" lon="2.08788">
        <ele>1696.8919677734</ele>
        <time>2011-09-11T07:23:59Z</time>
      </trkpt>
      <trkpt lat="42.54875" lon="2.08781">
        <ele>1698.1400146484</ele>
        <time>2011-09-11T07:24:07Z</time>
      </trkpt>
      <trkpt lat="42.54863" lon="2.08776">
        <ele>1699.4110107422</ele>
        <time>2011-09-11T07:24:13Z</time>
      </trkpt>
      <trkpt lat="42.54853" lon="2.08774">
        <ele>1700.4300537109</ele>
        <time>2011-09-11T07:24:18Z</time>
      </trkpt>
      <trkpt lat="42.54844" lon="2.08772">
        <ele>1701.5860595703</ele>
        <time>2011-09-11T07:24:23Z</time>
      </trkpt>
      <trkpt lat="42.5484" lon="2.08771">
        <ele>1702.2619628906</ele>
        <time>2011-09-11T07:24:25Z</time>
      </trkpt>
      <trkpt lat="42.54833" lon="2.0877">
        <ele>1703.4210205078</ele>
        <time>2011-09-11T07:24:29Z</time>
      </trkpt>
      <trkpt lat="42.5482" lon="2.08774">
        <ele>1705.5870361328</ele>
        <time>2011-09-11T07:24:36Z</time>
      </trkpt>
      <trkpt lat="42.5481" lon="2.08778">
        <ele>1707.3809814453</ele>
        <time>2011-09-11T07:24:42Z</time>
      </trkpt>
      <trkpt lat="42.54799" lon="2.08791">
        <ele>1708.4510498047</ele>
        <time>2011-09-11T07:24:49Z</time>
      </trkpt>
      <trkpt lat="42.54792" lon="2.08801">
        <ele>1708.626953125</ele>
        <time>2011-09-11T07:24:54Z</time>
      </trkpt>
      <trkpt lat="42.54781" lon="2.08814">
        <ele>1708.9520263672</ele>
        <time>2011-09-11T07:25:00Z</time>
      </trkpt>
      <trkpt lat="42.54778" lon="2.08817">
        <ele>1709.1030273438</ele>
        <time>2011-09-11T07:25:02Z</time>
      </trkpt>
      <trkpt lat="42.54773" lon="2.08827">
        <ele>1709.5300292969</ele>
        <time>2011-09-11T07:25:06Z</time>
      </trkpt>
      <trkpt lat="42.54766" lon="2.08845">
        <ele>1710.2189941406</ele>
        <time>2011-09-11T07:25:12Z</time>
      </trkpt>
      <trkpt lat="42.54761" lon="2.08859">
        <ele>1710.6070556641</ele>
        <time>2011-09-11T07:25:17Z</time>
      </trkpt>
      <trkpt lat="42.54753" lon="2.08878">
        <ele>1711.458984375</ele>
        <time>2011-09-11T07:25:23Z</time>
      </trkpt>
      <trkpt lat="42.54742" lon="2.08891">
        <ele>1712.0789794922</ele>
        <time>2011-09-11T07:25:29Z</time>
      </trkpt>
      <trkpt lat="42.5473" lon="2.08905">
        <ele>1712.9100341797</ele>
        <time>2011-09-11T07:25:35Z</time>
      </trkpt>
      <trkpt lat="42.54717" lon="2.08918">
        <ele>1713.7779541016</ele>
        <time>2011-09-11T07:25:41Z</time>
      </trkpt>
      <trkpt lat="42.54705" lon="2.08929">
        <ele>1714.2340087891</ele>
        <time>2011-09-11T07:25:46Z</time>
      </trkpt>
      <trkpt lat="42.54696" lon="2.08933">
        <ele>1714.9360351562</ele>
        <time>2011-09-11T07:25:50Z</time>
      </trkpt>
      <trkpt lat="42.54683" lon="2.08939">
        <ele>1715.5129394531</ele>
        <time>2011-09-11T07:25:55Z</time>
      </trkpt>
      <trkpt lat="42.54665" lon="2.08952">
        <ele>1716.1719970703</ele>
        <time>2011-09-11T07:26:02Z</time>
      </trkpt>
      <trkpt lat="42.54655" lon="2.08966">
        <ele>1717.3830566406</ele>
        <time>2011-09-11T07:26:08Z</time>
      </trkpt>
      <trkpt lat="42.54649" lon="2.08981">
        <ele>1720.2139892578</ele>
        <time>2011-09-11T07:26:14Z</time>
      </trkpt>
      <trkpt lat="42.54642" lon="2.08993">
        <ele>1721.0190429688</ele>
        <time>2011-09-11T07:26:19Z</time>
      </trkpt>
      <trkpt lat="42.54637" lon="2.09006">
        <ele>1721.3590087891</ele>
        <time>2011-09-11T07:26:24Z</time>
      </trkpt>
      <trkpt lat="42.54631" lon="2.09018">
        <ele>1722.0889892578</ele>
        <time>2011-09-11T07:26:30Z</time>
      </trkpt>
      <trkpt lat="42.54623" lon="2.09033">
        <ele>1723.2829589844</ele>
        <time>2011-09-11T07:26:36Z</time>
      </trkpt>
      <trkpt lat="42.54613" lon="2.09047">
        <ele>1723.9940185547</ele>
        <time>2011-09-11T07:26:42Z</time>
      </trkpt>
      <trkpt lat="42.54602" lon="2.09061">
        <ele>1724.6219482422</ele>
        <time>2011-09-11T07:26:48Z</time>
      </trkpt>
      <trkpt lat="42.54596" lon="2.09074">
        <ele>1724.4799804688</ele>
        <time>2011-09-11T07:26:53Z</time>
      </trkpt>
      <trkpt lat="42.54593" lon="2.09086">
        <ele>1723.9279785156</ele>
        <time>2011-09-11T07:26:56Z</time>
      </trkpt>
      <trkpt lat="42.54599" lon="2.09102">
        <ele>1721.7750244141</ele>
        <time>2011-09-11T07:27:00Z</time>
      </trkpt>
      <trkpt lat="42.54603" lon="2.09103">
        <ele>1721.6109619141</ele>
        <time>2011-09-11T07:27:01Z</time>
      </trkpt>
      <trkpt lat="42.5461" lon="2.09102">
        <ele>1721.1400146484</ele>
        <time>2011-09-11T07:27:03Z</time>
      </trkpt>
      <trkpt lat="42.54641" lon="2.09097">
        <ele>1718.5479736328</ele>
        <time>2011-09-11T07:27:08Z</time>
      </trkpt>
      <trkpt lat="42.54649" lon="2.09096">
        <ele>1717.4739990234</ele>
        <time>2011-09-11T07:27:09Z</time>
      </trkpt>
      <trkpt lat="42.54672" lon="2.09094">
        <ele>1715.2449951172</ele>
        <time>2011-09-11T07:27:12Z</time>
      </trkpt>
      <trkpt lat="42.54693" lon="2.09089">
        <ele>1714.4899902344</ele>
        <time>2011-09-11T07:27:15Z</time>
      </trkpt>
      <trkpt lat="42.5471" lon="2.09086">
        <ele>1714.3480224609</ele>
        <time>2011-09-11T07:27:18Z</time>
      </trkpt>
      <trkpt lat="42.54733" lon="2.0909">
        <ele>1712.0100097656</ele>
        <time>2011-09-11T07:27:22Z</time>
      </trkpt>
      <trkpt lat="42.54765" lon="2.09086">
        <ele>1709.3830566406</ele>
        <time>2011-09-11T07:27:27Z</time>
      </trkpt>
      <trkpt lat="42.54795" lon="2.09081">
        <ele>1706.4610595703</ele>
        <time>2011-09-11T07:27:32Z</time>
      </trkpt>
      <trkpt lat="42.54799" lon="2.0908">
        <ele>1705.3740234375</ele>
        <time>2011-09-11T07:27:33Z</time>
      </trkpt>
      <trkpt lat="42.54816" lon="2.09076">
        <ele>1702.6149902344</ele>
        <time>2011-09-11T07:27:36Z</time>
      </trkpt>
      <trkpt lat="42.54834" lon="2.09059">
        <ele>1697.8029785156</ele>
        <time>2011-09-11T07:27:40Z</time>
      </trkpt>
      <trkpt lat="42.54849" lon="2.09026">
        <ele>1693.9880371094</ele>
        <time>2011-09-11T07:27:44Z</time>
      </trkpt>
      <trkpt lat="42.54878" lon="2.09023">
        <ele>1691.1829833984</ele>
        <time>2011-09-11T07:27:48Z</time>
      </trkpt>
      <trkpt lat="42.54885" lon="2.09025">
        <ele>1690.2249755859</ele>
        <time>2011-09-11T07:27:49Z</time>
      </trkpt>
      <trkpt lat="42.54907" lon="2.09032">
        <ele>1687.7159423828</ele>
        <time>2011-09-11T07:27:52Z</time>
      </trkpt>
      <trkpt lat="42.54939" lon="2.09035">
        <ele>1683.083984375</ele>
        <time>2011-09-11T07:27:56Z</time>
      </trkpt>
      <trkpt lat="42.54963" lon="2.09049">
        <ele>1678.1030273438</ele>
        <time>2011-09-11T07:28:01Z</time>
      </trkpt>
      <trkpt lat="42.54968" lon="2.0907">
        <ele>1676.91796875</ele>
        <time>2011-09-11T07:28:04Z</time>
      </trkpt>
      <trkpt lat="42.54968" lon="2.09079">
        <ele>1676.4790039062</ele>
        <time>2011-09-11T07:28:05Z</time>
      </trkpt>
      <trkpt lat="42.54977" lon="2.09119">
        <ele>1675.1870117188</ele>
        <time>2011-09-11T07:28:11Z</time>
      </trkpt>
      <trkpt lat="42.55001" lon="2.09132">
        <ele>1674.0830078125</ele>
        <time>2011-09-11T07:28:16Z</time>
      </trkpt>
      <trkpt lat="42.55006" lon="2.0913">
        <ele>1673.8100585938</ele>
        <time>2011-09-11T07:28:17Z</time>
      </trkpt>
      <trkpt lat="42.55042" lon="2.09149">
        <ele>1671.1989746094</ele>
        <time>2011-09-11T07:28:22Z</time>
      </trkpt>
      <trkpt lat="42.55048" lon="2.09154">
        <ele>1670.2359619141</ele>
        <time>2011-09-11T07:28:23Z</time>
      </trkpt>
      <trkpt lat="42.55066" lon="2.0917">
        <ele>1667.0999755859</ele>
        <time>2011-09-11T07:28:27Z</time>
      </trkpt>
      <trkpt lat="42.5509" lon="2.09172">
        <ele>1662.8310546875</ele>
        <time>2011-09-11T07:28:32Z</time>
      </trkpt>
      <trkpt lat="42.55103" lon="2.09174">
        <ele>1659.8919677734</ele>
        <time>2011-09-11T07:28:35Z</time>
      </trkpt>
      <trkpt lat="42.5512" lon="2.09182">
        <ele>1658.5310058594</ele>
        <time>2011-09-11T07:28:38Z</time>
      </trkpt>
      <trkpt lat="42.55127" lon="2.09186">
        <ele>1658.2290039062</ele>
        <time>2011-09-11T07:28:39Z</time>
      </trkpt>
      <trkpt lat="42.55158" lon="2.0921">
        <ele>1656.1020507812</ele>
        <time>2011-09-11T07:28:44Z</time>
      </trkpt>
      <trkpt lat="42.55175" lon="2.09225">
        <ele>1653.0350341797</ele>
        <time>2011-09-11T07:28:47Z</time>
      </trkpt>
      <trkpt lat="42.55202" lon="2.09234">
        <ele>1650.5489501953</ele>
        <time>2011-09-11T07:28:51Z</time>
      </trkpt>
      <trkpt lat="42.55222" lon="2.09236">
        <ele>1648.2209472656</ele>
        <time>2011-09-11T07:28:55Z</time>
      </trkpt>
      <trkpt lat="42.55232" lon="2.09227">
        <ele>1645.3349609375</ele>
        <time>2011-09-11T07:28:59Z</time>
      </trkpt>
      <trkpt lat="42.55242" lon="2.09219">
        <ele>1642.8809814453</ele>
        <time>2011-09-11T07:29:03Z</time>
      </trkpt>
      <trkpt lat="42.55253" lon="2.09215">
        <ele>1639.8819580078</ele>
        <time>2011-09-11T07:29:07Z</time>
      </trkpt>
      <trkpt lat="42.55259" lon="2.09217">
        <ele>1637.6330566406</ele>
        <time>2011-09-11T07:29:10Z</time>
      </trkpt>
      <trkpt lat="42.55271" lon="2.09211">
        <ele>1634.4840087891</ele>
        <time>2011-09-11T07:29:15Z</time>
      </trkpt>
      <trkpt lat="42.55279" lon="2.0922">
        <ele>1631.6059570312</ele>
        <time>2011-09-11T07:29:19Z</time>
      </trkpt>
      <trkpt lat="42.55282" lon="2.09226">
        <ele>1630.2709960938</ele>
        <time>2011-09-11T07:29:22Z</time>
      </trkpt>
      <trkpt lat="42.55282" lon="2.09227">
        <ele>1630.1739501953</ele>
        <time>2011-09-11T07:29:23Z</time>
      </trkpt>
      <trkpt lat="42.55293" lon="2.09241">
        <ele>1627.3919677734</ele>
        <time>2011-09-11T07:29:31Z</time>
      </trkpt>
      <trkpt lat="42.55294" lon="2.09252">
        <ele>1624.7709960938</ele>
        <time>2011-09-11T07:29:35Z</time>
      </trkpt>
      <trkpt lat="42.55296" lon="2.09273">
        <ele>1620.9320068359</ele>
        <time>2011-09-11T07:29:41Z</time>
      </trkpt>
      <trkpt lat="42.55299" lon="2.09287">
        <ele>1618.0080566406</ele>
        <time>2011-09-11T07:29:46Z</time>
      </trkpt>
      <trkpt lat="42.55299" lon="2.09306">
        <ele>1615.2669677734</ele>
        <time>2011-09-11T07:29:51Z</time>
      </trkpt>
      <trkpt lat="42.55303" lon="2.09325">
        <ele>1612.6949462891</ele>
        <time>2011-09-11T07:29:55Z</time>
      </trkpt>
      <trkpt lat="42.55306" lon="2.09338">
        <ele>1611.0959472656</ele>
        <time>2011-09-11T07:29:58Z</time>
      </trkpt>
      <trkpt lat="42.55313" lon="2.09345">
        <ele>1609.0899658203</ele>
        <time>2011-09-11T07:30:02Z</time>
      </trkpt>
      <trkpt lat="42.5532" lon="2.09345">
        <ele>1608.1199951172</ele>
        <time>2011-09-11T07:30:07Z</time>
      </trkpt>
      <trkpt lat="42.55329" lon="2.09345">
        <ele>1607.2230224609</ele>
        <time>2011-09-11T07:30:14Z</time>
      </trkpt>
      <trkpt lat="42.55342" lon="2.09343">
        <ele>1607.0920410156</ele>
        <time>2011-09-11T07:30:21Z</time>
      </trkpt>
      <trkpt lat="42.55344" lon="2.09343">
        <ele>1606.9969482422</ele>
        <time>2011-09-11T07:30:22Z</time>
      </trkpt>
      <trkpt lat="42.55357" lon="2.09341">
        <ele>1607.8129882812</ele>
        <time>2011-09-11T07:30:27Z</time>
      </trkpt>
      <trkpt lat="42.5536" lon="2.09341">
        <ele>1607.8549804688</ele>
        <time>2011-09-11T07:30:28Z</time>
      </trkpt>
      <trkpt lat="42.55381" lon="2.09357">
        <ele>1606.7259521484</ele>
        <time>2011-09-11T07:30:33Z</time>
      </trkpt>
      <trkpt lat="42.55386" lon="2.09371">
        <ele>1606.3160400391</ele>
        <time>2011-09-11T07:30:35Z</time>
      </trkpt>
      <trkpt lat="42.55409" lon="2.09417">
        <ele>1604.5620117188</ele>
        <time>2011-09-11T07:30:42Z</time>
      </trkpt>
      <trkpt lat="42.55413" lon="2.09423">
        <ele>1603.4649658203</ele>
        <time>2011-09-11T07:30:43Z</time>
      </trkpt>
      <trkpt lat="42.55431" lon="2.09458">
        <ele>1598.3409423828</ele>
        <time>2011-09-11T07:30:47Z</time>
      </trkpt>
      <trkpt lat="42.55436" lon="2.09467">
        <ele>1596.9050292969</ele>
        <time>2011-09-11T07:30:48Z</time>
      </trkpt>
      <trkpt lat="42.55464" lon="2.09506">
        <ele>1591.4620361328</ele>
        <time>2011-09-11T07:30:54Z</time>
      </trkpt>
      <trkpt lat="42.55469" lon="2.09512">
        <ele>1590.3270263672</ele>
        <time>2011-09-11T07:30:56Z</time>
      </trkpt>
      <trkpt lat="42.55474" lon="2.0952">
        <ele>1589.0379638672</ele>
        <time>2011-09-11T07:30:59Z</time>
      </trkpt>
      <trkpt lat="42.55474" lon="2.09525">
        <ele>1587.4379882812</ele>
        <time>2011-09-11T07:31:04Z</time>
      </trkpt>
      <trkpt lat="42.55475" lon="2.09525">
        <ele>1587.1619873047</ele>
        <time>2011-09-11T07:31:05Z</time>
      </trkpt>
      <trkpt lat="42.55475" lon="2.09529">
        <ele>1587.6479492188</ele>
        <time>2011-09-11T07:31:12Z</time>
      </trkpt>
      <trkpt lat="42.55477" lon="2.09538">
        <ele>1587.9119873047</ele>
        <time>2011-09-11T07:31:18Z</time>
      </trkpt>
      <trkpt lat="42.55489" lon="2.09541">
        <ele>1587.083984375</ele>
        <time>2011-09-11T07:31:25Z</time>
      </trkpt>
      <trkpt lat="42.5549" lon="2.09543">
        <ele>1586.8050537109</ele>
        <time>2011-09-11T07:31:26Z</time>
      </trkpt>
      <trkpt lat="42.55509" lon="2.09548">
        <ele>1585.3559570312</ele>
        <time>2011-09-11T07:31:32Z</time>
      </trkpt>
      <trkpt lat="42.55537" lon="2.0955">
        <ele>1583.5009765625</ele>
        <time>2011-09-11T07:31:38Z</time>
      </trkpt>
      <trkpt lat="42.55554" lon="2.09552">
        <ele>1581.8420410156</ele>
        <time>2011-09-11T07:31:42Z</time>
      </trkpt>
      <trkpt lat="42.55564" lon="2.09545">
        <ele>1580.0689697266</ele>
        <time>2011-09-11T07:31:46Z</time>
      </trkpt>
      <trkpt lat="42.55579" lon="2.09539">
        <ele>1577.8050537109</ele>
        <time>2011-09-11T07:31:50Z</time>
      </trkpt>
      <trkpt lat="42.55588" lon="2.09537">
        <ele>1576.8599853516</ele>
        <time>2011-09-11T07:31:52Z</time>
      </trkpt>
      <trkpt lat="42.55597" lon="2.09534">
        <ele>1574.8179931641</ele>
        <time>2011-09-11T07:31:55Z</time>
      </trkpt>
      <trkpt lat="42.55602" lon="2.09534">
        <ele>1573.8540039062</ele>
        <time>2011-09-11T07:31:57Z</time>
      </trkpt>
      <trkpt lat="42.55613" lon="2.09543">
        <ele>1571.9770507812</ele>
        <time>2011-09-11T07:32:01Z</time>
      </trkpt>
      <trkpt lat="42.55614" lon="2.09545">
        <ele>1571.33203125</ele>
        <time>2011-09-11T07:32:02Z</time>
      </trkpt>
      <trkpt lat="42.55626" lon="2.09553">
        <ele>1567.7550048828</ele>
        <time>2011-09-11T07:32:07Z</time>
      </trkpt>
      <trkpt lat="42.55637" lon="2.09561">
        <ele>1564.4840087891</ele>
        <time>2011-09-11T07:32:11Z</time>
      </trkpt>
      <trkpt lat="42.55646" lon="2.0956">
        <ele>1562.1479492188</ele>
        <time>2011-09-11T07:32:15Z</time>
      </trkpt>
      <trkpt lat="42.55655" lon="2.09553">
        <ele>1560.7440185547</ele>
        <time>2011-09-11T07:32:18Z</time>
      </trkpt>
      <trkpt lat="42.55664" lon="2.09547">
        <ele>1559.8189697266</ele>
        <time>2011-09-11T07:32:22Z</time>
      </trkpt>
      <trkpt lat="42.55672" lon="2.09539">
        <ele>1559.5119628906</ele>
        <time>2011-09-11T07:32:26Z</time>
      </trkpt>
      <trkpt lat="42.55677" lon="2.09533">
        <ele>1559.6910400391</ele>
        <time>2011-09-11T07:32:28Z</time>
      </trkpt>
      <trkpt lat="42.55684" lon="2.09525">
        <ele>1559.8590087891</ele>
        <time>2011-09-11T07:32:30Z</time>
      </trkpt>
      <trkpt lat="42.55696" lon="2.09517">
        <ele>1559.8640136719</ele>
        <time>2011-09-11T07:32:33Z</time>
      </trkpt>
      <trkpt lat="42.55706" lon="2.09515">
        <ele>1559.5970458984</ele>
        <time>2011-09-11T07:32:35Z</time>
      </trkpt>
      <trkpt lat="42.55722" lon="2.09514">
        <ele>1558.9630126953</ele>
        <time>2011-09-11T07:32:38Z</time>
      </trkpt>
      <trkpt lat="42.55744" lon="2.09512">
        <ele>1558.1190185547</ele>
        <time>2011-09-11T07:32:42Z</time>
      </trkpt>
      <trkpt lat="42.55759" lon="2.09513">
        <ele>1557.0629882812</ele>
        <time>2011-09-11T07:32:45Z</time>
      </trkpt>
      <trkpt lat="42.55767" lon="2.09503">
        <ele>1556.1459960938</ele>
        <time>2011-09-11T07:32:49Z</time>
      </trkpt>
      <trkpt lat="42.55766" lon="2.09497">
        <ele>1556.3439941406</ele>
        <time>2011-09-11T07:32:50Z</time>
      </trkpt>
      <trkpt lat="42.55766" lon="2.09463">
        <ele>1556.6800537109</ele>
        <time>2011-09-11T07:32:55Z</time>
      </trkpt>
      <trkpt lat="42.5577" lon="2.09427">
        <ele>1556.5620117188</ele>
        <time>2011-09-11T07:33:00Z</time>
      </trkpt>
      <trkpt lat="42.55798" lon="2.09379">
        <ele>1555.1970214844</ele>
        <time>2011-09-11T07:33:07Z</time>
      </trkpt>
      <trkpt lat="42.55835" lon="2.09345">
        <ele>1554.4029541016</ele>
        <time>2011-09-11T07:33:13Z</time>
      </trkpt>
      <trkpt lat="42.55841" lon="2.0934">
        <ele>1554.4040527344</ele>
        <time>2011-09-11T07:33:14Z</time>
      </trkpt>
      <trkpt lat="42.55866" lon="2.09322">
        <ele>1554.3289794922</ele>
        <time>2011-09-11T07:33:18Z</time>
      </trkpt>
      <trkpt lat="42.55913" lon="2.09305">
        <ele>1553.6999511719</ele>
        <time>2011-09-11T07:33:24Z</time>
      </trkpt>
      <trkpt lat="42.55972" lon="2.09289">
        <ele>1553.3580322266</ele>
        <time>2011-09-11T07:33:31Z</time>
      </trkpt>
      <trkpt lat="42.56012" lon="2.09276">
        <ele>1552.4599609375</ele>
        <time>2011-09-11T07:33:36Z</time>
      </trkpt>
      <trkpt lat="42.56049" lon="2.09255">
        <ele>1551.5300292969</ele>
        <time>2011-09-11T07:33:41Z</time>
      </trkpt>
      <trkpt lat="42.56073" lon="2.09241">
        <ele>1551.5119628906</ele>
        <time>2011-09-11T07:33:44Z</time>
      </trkpt>
      <trkpt lat="42.561" lon="2.09224">
        <ele>1551.9990234375</ele>
        <time>2011-09-11T07:33:48Z</time>
      </trkpt>
      <trkpt lat="42.56121" lon="2.09214">
        <ele>1551.5009765625</ele>
        <time>2011-09-11T07:33:51Z</time>
      </trkpt>
      <trkpt lat="42.56155" lon="2.09183">
        <ele>1550.5030517578</ele>
        <time>2011-09-11T07:33:56Z</time>
      </trkpt>
      <trkpt lat="42.56193" lon="2.09148">
        <ele>1550.3669433594</ele>
        <time>2011-09-11T07:34:02Z</time>
      </trkpt>
      <trkpt lat="42.56234" lon="2.09106">
        <ele>1550.6300048828</ele>
        <time>2011-09-11T07:34:09Z</time>
      </trkpt>
      <trkpt lat="42.5624" lon="2.09103">
        <ele>1550.7459716797</ele>
        <time>2011-09-11T07:34:10Z</time>
      </trkpt>
      <trkpt lat="42.56258" lon="2.09108">
        <ele>1550.8790283203</ele>
        <time>2011-09-11T07:34:13Z</time>
      </trkpt>
      <trkpt lat="42.56261" lon="2.09131">
        <ele>1551.4289550781</ele>
        <time>2011-09-11T07:34:16Z</time>
      </trkpt>
      <trkpt lat="42.56261" lon="2.09151">
        <ele>1552.1939697266</ele>
        <time>2011-09-11T07:34:19Z</time>
      </trkpt>
      <trkpt lat="42.56274" lon="2.09175">
        <ele>1552.9990234375</ele>
        <time>2011-09-11T07:34:24Z</time>
      </trkpt>
      <trkpt lat="42.56289" lon="2.09175">
        <ele>1553.2020263672</ele>
        <time>2011-09-11T07:34:27Z</time>
      </trkpt>
      <trkpt lat="42.56321" lon="2.09165">
        <ele>1553.3270263672</ele>
        <time>2011-09-11T07:34:33Z</time>
      </trkpt>
      <trkpt lat="42.56351" lon="2.09157">
        <ele>1553.2180175781</ele>
        <time>2011-09-11T07:34:38Z</time>
      </trkpt>
      <trkpt lat="42.56364" lon="2.0915">
        <ele>1553.0889892578</ele>
        <time>2011-09-11T07:34:40Z</time>
      </trkpt>
      <trkpt lat="42.56381" lon="2.09138">
        <ele>1552.8330078125</ele>
        <time>2011-09-11T07:34:43Z</time>
      </trkpt>
      <trkpt lat="42.56411" lon="2.0912">
        <ele>1551.4820556641</ele>
        <time>2011-09-11T07:34:48Z</time>
      </trkpt>
      <trkpt lat="42.56432" lon="2.09111">
        <ele>1550.4859619141</ele>
        <time>2011-09-11T07:34:51Z</time>
      </trkpt>
      <trkpt lat="42.56469" lon="2.09094">
        <ele>1550.1209716797</ele>
        <time>2011-09-11T07:34:56Z</time>
      </trkpt>
      <trkpt lat="42.56504" lon="2.09074">
        <ele>1550.5319824219</ele>
        <time>2011-09-11T07:35:02Z</time>
      </trkpt>
      <trkpt lat="42.56538" lon="2.09053">
        <ele>1550.5550537109</ele>
        <time>2011-09-11T07:35:08Z</time>
      </trkpt>
      <trkpt lat="42.56571" lon="2.09028">
        <ele>1549.8979492188</ele>
        <time>2011-09-11T07:35:14Z</time>
      </trkpt>
      <trkpt lat="42.56602" lon="2.08986">
        <ele>1549.9620361328</ele>
        <time>2011-09-11T07:35:21Z</time>
      </trkpt>
      <trkpt lat="42.56627" lon="2.0894">
        <ele>1550.3239746094</ele>
        <time>2011-09-11T07:35:28Z</time>
      </trkpt>
      <trkpt lat="42.56633" lon="2.08901">
        <ele>1550.9189453125</ele>
        <time>2011-09-11T07:35:33Z</time>
      </trkpt>
      <trkpt lat="42.5663" lon="2.08876">
        <ele>1551.1030273438</ele>
        <time>2011-09-11T07:35:36Z</time>
      </trkpt>
      <trkpt lat="42.56612" lon="2.08813">
        <ele>1551.6240234375</ele>
        <time>2011-09-11T07:35:44Z</time>
      </trkpt>
      <trkpt lat="42.56612" lon="2.08775">
        <ele>1552.041015625</ele>
        <time>2011-09-11T07:35:49Z</time>
      </trkpt>
      <trkpt lat="42.56613" lon="2.08768">
        <ele>1552.1829833984</ele>
        <time>2011-09-11T07:35:50Z</time>
      </trkpt>
      <trkpt lat="42.5663" lon="2.08714">
        <ele>1553.2370605469</ele>
        <time>2011-09-11T07:35:58Z</time>
      </trkpt>
      <trkpt lat="42.56645" lon="2.08668">
        <ele>1555.4090576172</ele>
        <time>2011-09-11T07:36:06Z</time>
      </trkpt>
      <trkpt lat="42.56657" lon="2.08635">
        <ele>1556.375</ele>
        <time>2011-09-11T07:36:12Z</time>
      </trkpt>
      <trkpt lat="42.56672" lon="2.08612">
        <ele>1556.4859619141</ele>
        <time>2011-09-11T07:36:17Z</time>
      </trkpt>
      <trkpt lat="42.5668" lon="2.08605">
        <ele>1556.4680175781</ele>
        <time>2011-09-11T07:36:19Z</time>
      </trkpt>
      <trkpt lat="42.567" lon="2.08596">
        <ele>1556.1970214844</ele>
        <time>2011-09-11T07:36:23Z</time>
      </trkpt>
      <trkpt lat="42.56746" lon="2.0859">
        <ele>1554.7039794922</ele>
        <time>2011-09-11T07:36:30Z</time>
      </trkpt>
      <trkpt lat="42.56797" lon="2.08583">
        <ele>1553.0770263672</ele>
        <time>2011-09-11T07:36:37Z</time>
      </trkpt>
      <trkpt lat="42.56854" lon="2.08571">
        <ele>1552.2290039062</ele>
        <time>2011-09-11T07:36:45Z</time>
      </trkpt>
      <trkpt lat="42.56885" lon="2.08576">
        <ele>1552.0250244141</ele>
        <time>2011-09-11T07:36:50Z</time>
      </trkpt>
      <trkpt lat="42.56891" lon="2.0858">
        <ele>1551.9749755859</ele>
        <time>2011-09-11T07:36:51Z</time>
      </trkpt>
      <trkpt lat="42.56923" lon="2.08615">
        <ele>1551.5649414062</ele>
        <time>2011-09-11T07:36:57Z</time>
      </trkpt>
      <trkpt lat="42.56934" lon="2.08626">
        <ele>1551.3420410156</ele>
        <time>2011-09-11T07:36:59Z</time>
      </trkpt>
      <trkpt lat="42.56959" lon="2.08637">
        <ele>1551.6560058594</ele>
        <time>2011-09-11T07:37:03Z</time>
      </trkpt>
      <trkpt lat="42.56966" lon="2.08639">
        <ele>1551.8199462891</ele>
        <time>2011-09-11T07:37:04Z</time>
      </trkpt>
      <trkpt lat="42.56991" lon="2.0865">
        <ele>1551.7709960938</ele>
        <time>2011-09-11T07:37:08Z</time>
      </trkpt>
      <trkpt lat="42.57011" lon="2.08658">
        <ele>1551.5589599609</ele>
        <time>2011-09-11T07:37:11Z</time>
      </trkpt>
      <trkpt lat="42.57044" lon="2.08674">
        <ele>1551.2540283203</ele>
        <time>2011-09-11T07:37:16Z</time>
      </trkpt>
      <trkpt lat="42.57085" lon="2.08694">
        <ele>1550.8349609375</ele>
        <time>2011-09-11T07:37:22Z</time>
      </trkpt>
      <trkpt lat="42.57111" lon="2.08689">
        <ele>1550.7969970703</ele>
        <time>2011-09-11T07:37:26Z</time>
      </trkpt>
      <trkpt lat="42.57151" lon="2.08652">
        <ele>1551.2600097656</ele>
        <time>2011-09-11T07:37:33Z</time>
      </trkpt>
      <trkpt lat="42.57182" lon="2.08635">
        <ele>1551.1309814453</ele>
        <time>2011-09-11T07:37:38Z</time>
      </trkpt>
      <trkpt lat="42.572" lon="2.08646">
        <ele>1551.3800048828</ele>
        <time>2011-09-11T07:37:41Z</time>
      </trkpt>
      <trkpt lat="42.57205" lon="2.08653">
        <ele>1551.4040527344</ele>
        <time>2011-09-11T07:37:42Z</time>
      </trkpt>
      <trkpt lat="42.57236" lon="2.08699">
        <ele>1549.6419677734</ele>
        <time>2011-09-11T07:37:48Z</time>
      </trkpt>
      <trkpt lat="42.57251" lon="2.08721">
        <ele>1549.0980224609</ele>
        <time>2011-09-11T07:37:51Z</time>
      </trkpt>
      <trkpt lat="42.57291" lon="2.08775">
        <ele>1549.8280029297</ele>
        <time>2011-09-11T07:37:59Z</time>
      </trkpt>
      <trkpt lat="42.57304" lon="2.08796">
        <ele>1550.0169677734</ele>
        <time>2011-09-11T07:38:02Z</time>
      </trkpt>
      <trkpt lat="42.5731" lon="2.08828">
        <ele>1552.3929443359</ele>
        <time>2011-09-11T07:38:06Z</time>
      </trkpt>
      <trkpt lat="42.57308" lon="2.08862">
        <ele>1553.3149414062</ele>
        <time>2011-09-11T07:38:10Z</time>
      </trkpt>
      <trkpt lat="42.57307" lon="2.08928">
        <ele>1552.0860595703</ele>
        <time>2011-09-11T07:38:17Z</time>
      </trkpt>
      <trkpt lat="42.57306" lon="2.08938">
        <ele>1551.9399414062</ele>
        <time>2011-09-11T07:38:18Z</time>
      </trkpt>
      <trkpt lat="42.57309" lon="2.08967">
        <ele>1551.0620117188</ele>
        <time>2011-09-11T07:38:21Z</time>
      </trkpt>
      <trkpt lat="42.57326" lon="2.09016">
        <ele>1551.8879394531</ele>
        <time>2011-09-11T07:38:27Z</time>
      </trkpt>
      <trkpt lat="42.57347" lon="2.09068">
        <ele>1554.0389404297</ele>
        <time>2011-09-11T07:38:34Z</time>
      </trkpt>
      <trkpt lat="42.57369" lon="2.09119">
        <ele>1554.5710449219</ele>
        <time>2011-09-11T07:38:41Z</time>
      </trkpt>
      <trkpt lat="42.5738" lon="2.0914">
        <ele>1553.6540527344</ele>
        <time>2011-09-11T07:38:44Z</time>
      </trkpt>
      <trkpt lat="42.57406" lon="2.09174">
        <ele>1552.3000488281</ele>
        <time>2011-09-11T07:38:50Z</time>
      </trkpt>
      <trkpt lat="42.57412" lon="2.09177">
        <ele>1551.9730224609</ele>
        <time>2011-09-11T07:38:51Z</time>
      </trkpt>
      <trkpt lat="42.57447" lon="2.09189">
        <ele>1550.2270507812</ele>
        <time>2011-09-11T07:38:56Z</time>
      </trkpt>
      <trkpt lat="42.57466" lon="2.09202">
        <ele>1549.5329589844</ele>
        <time>2011-09-11T07:38:59Z</time>
      </trkpt>
      <trkpt lat="42.57479" lon="2.09225">
        <ele>1550.0150146484</ele>
        <time>2011-09-11T07:39:03Z</time>
      </trkpt>
      <trkpt lat="42.57476" lon="2.09247">
        <ele>1552.3160400391</ele>
        <time>2011-09-11T07:39:08Z</time>
      </trkpt>
      <trkpt lat="42.57444" lon="2.09273">
        <ele>1553.7769775391</ele>
        <time>2011-09-11T07:39:16Z</time>
      </trkpt>
      <trkpt lat="42.57407" lon="2.09303">
        <ele>1552.4379882812</ele>
        <time>2011-09-11T07:39:23Z</time>
      </trkpt>
      <trkpt lat="42.57363" lon="2.09342">
        <ele>1550.8699951172</ele>
        <time>2011-09-11T07:39:31Z</time>
      </trkpt>
      <trkpt lat="42.57342" lon="2.09363">
        <ele>1550.1400146484</ele>
        <time>2011-09-11T07:39:35Z</time>
      </trkpt>
      <trkpt lat="42.57332" lon="2.09375">
        <ele>1549.5970458984</ele>
        <time>2011-09-11T07:39:37Z</time>
      </trkpt>
      <trkpt lat="42.57321" lon="2.09397">
        <ele>1548.9110107422</ele>
        <time>2011-09-11T07:39:40Z</time>
      </trkpt>
      <trkpt lat="42.57301" lon="2.09417">
        <ele>1547.8969726562</ele>
        <time>2011-09-11T07:39:44Z</time>
      </trkpt>
      <trkpt lat="42.5725" lon="2.09447">
        <ele>1547.3120117188</ele>
        <time>2011-09-11T07:39:53Z</time>
      </trkpt>
      <trkpt lat="42.57227" lon="2.09467">
        <ele>1546.9530029297</ele>
        <time>2011-09-11T07:39:57Z</time>
      </trkpt>
      <trkpt lat="42.57219" lon="2.09491">
        <ele>1546.4139404297</ele>
        <time>2011-09-11T07:40:01Z</time>
      </trkpt>
      <trkpt lat="42.57232" lon="2.09505">
        <ele>1546.5190429688</ele>
        <time>2011-09-11T07:40:04Z</time>
      </trkpt>
      <trkpt lat="42.57244" lon="2.0952">
        <ele>1546.6729736328</ele>
        <time>2011-09-11T07:40:07Z</time>
      </trkpt>
      <trkpt lat="42.57276" lon="2.09563">
        <ele>1546.6500244141</ele>
        <time>2011-09-11T07:40:14Z</time>
      </trkpt>
      <trkpt lat="42.57305" lon="2.09606">
        <ele>1547.2509765625</ele>
        <time>2011-09-11T07:40:21Z</time>
      </trkpt>
      <trkpt lat="42.57331" lon="2.09647">
        <ele>1546.9510498047</ele>
        <time>2011-09-11T07:40:27Z</time>
      </trkpt>
      <trkpt lat="42.57343" lon="2.09666">
        <ele>1546.8530273438</ele>
        <time>2011-09-11T07:40:30Z</time>
      </trkpt>
      <trkpt lat="42.57348" lon="2.09695">
        <ele>1547.0849609375</ele>
        <time>2011-09-11T07:40:34Z</time>
      </trkpt>
      <trkpt lat="42.57352" lon="2.09729">
        <ele>1546.9580078125</ele>
        <time>2011-09-11T07:40:39Z</time>
      </trkpt>
      <trkpt lat="42.57365" lon="2.09736">
        <ele>1547.1920166016</ele>
        <time>2011-09-11T07:40:42Z</time>
      </trkpt>
      <trkpt lat="42.57371" lon="2.09738">
        <ele>1547.3120117188</ele>
        <time>2011-09-11T07:40:43Z</time>
      </trkpt>
      <trkpt lat="42.57381" lon="2.09741">
        <ele>1547.4859619141</ele>
        <time>2011-09-11T07:40:45Z</time>
      </trkpt>
      <trkpt lat="42.57397" lon="2.0974">
        <ele>1547.6590576172</ele>
        <time>2011-09-11T07:40:48Z</time>
      </trkpt>
      <trkpt lat="42.5743" lon="2.09739">
        <ele>1546.8690185547</ele>
        <time>2011-09-11T07:40:53Z</time>
      </trkpt>
      <trkpt lat="42.5746" lon="2.09748">
        <ele>1545.0119628906</ele>
        <time>2011-09-11T07:40:57Z</time>
      </trkpt>
      <trkpt lat="42.57472" lon="2.09742">
        <ele>1544.8540039062</ele>
        <time>2011-09-11T07:40:59Z</time>
      </trkpt>
      <trkpt lat="42.57486" lon="2.09733">
        <ele>1546.0080566406</ele>
        <time>2011-09-11T07:41:02Z</time>
      </trkpt>
      <trkpt lat="42.57497" lon="2.09728">
        <ele>1546.5830078125</ele>
        <time>2011-09-11T07:41:04Z</time>
      </trkpt>
      <trkpt lat="42.57522" lon="2.09728">
        <ele>1548.4610595703</ele>
        <time>2011-09-11T07:41:09Z</time>
      </trkpt>
      <trkpt lat="42.57534" lon="2.09732">
        <ele>1549.0970458984</ele>
        <time>2011-09-11T07:41:12Z</time>
      </trkpt>
      <trkpt lat="42.57558" lon="2.09737">
        <ele>1550.0909423828</ele>
        <time>2011-09-11T07:41:18Z</time>
      </trkpt>
      <trkpt lat="42.57577" lon="2.09743">
        <ele>1550.2889404297</ele>
        <time>2011-09-11T07:41:23Z</time>
      </trkpt>
      <trkpt lat="42.57595" lon="2.09748">
        <ele>1550.5460205078</ele>
        <time>2011-09-11T07:41:27Z</time>
      </trkpt>
      <trkpt lat="42.576" lon="2.09748">
        <ele>1550.6529541016</ele>
        <time>2011-09-11T07:41:28Z</time>
      </trkpt>
      <trkpt lat="42.57618" lon="2.09751">
        <ele>1550.8909912109</ele>
        <time>2011-09-11T07:41:32Z</time>
      </trkpt>
      <trkpt lat="42.57623" lon="2.09752">
        <ele>1551.0489501953</ele>
        <time>2011-09-11T07:41:36Z</time>
      </trkpt>
      <trkpt lat="42.57631" lon="2.09755">
        <ele>1551.7199707031</ele>
        <time>2011-09-11T07:41:48Z</time>
      </trkpt>
      <trkpt lat="42.57647" lon="2.09756">
        <ele>1552.3549804688</ele>
        <time>2011-09-11T07:41:52Z</time>
      </trkpt>
      <trkpt lat="42.57668" lon="2.09758">
        <ele>1552.8289794922</ele>
        <time>2011-09-11T07:41:57Z</time>
      </trkpt>
      <trkpt lat="42.57688" lon="2.09764">
        <ele>1553.1309814453</ele>
        <time>2011-09-11T07:42:02Z</time>
      </trkpt>
      <trkpt lat="42.57689" lon="2.09764">
        <ele>1553.0369873047</ele>
        <time>2011-09-11T07:42:04Z</time>
      </trkpt>
      <trkpt lat="42.57697" lon="2.09765">
        <ele>1552.9439697266</ele>
        <time>2011-09-11T07:42:10Z</time>
      </trkpt>
      <trkpt lat="42.57712" lon="2.09764">
        <ele>1553.4649658203</ele>
        <time>2011-09-11T07:42:14Z</time>
      </trkpt>
      <trkpt lat="42.57716" lon="2.09764">
        <ele>1553.6049804688</ele>
        <time>2011-09-11T07:42:15Z</time>
      </trkpt>
      <trkpt lat="42.57737" lon="2.09766">
        <ele>1553.6710205078</ele>
        <time>2011-09-11T07:42:19Z</time>
      </trkpt>
      <trkpt lat="42.57757" lon="2.09772">
        <ele>1553.4969482422</ele>
        <time>2011-09-11T07:42:23Z</time>
      </trkpt>
      <trkpt lat="42.57768" lon="2.09773">
        <ele>1553.6440429688</ele>
        <time>2011-09-11T07:42:25Z</time>
      </trkpt>
      <trkpt lat="42.57784" lon="2.09773">
        <ele>1553.9460449219</ele>
        <time>2011-09-11T07:42:28Z</time>
      </trkpt>
      <trkpt lat="42.57805" lon="2.09777">
        <ele>1554.1330566406</ele>
        <time>2011-09-11T07:42:32Z</time>
      </trkpt>
      <trkpt lat="42.57825" lon="2.09782">
        <ele>1554.0959472656</ele>
        <time>2011-09-11T07:42:36Z</time>
      </trkpt>
      <trkpt lat="42.5783" lon="2.09783">
        <ele>1554.208984375</ele>
        <time>2011-09-11T07:42:39Z</time>
      </trkpt>
      <trkpt lat="42.57835" lon="2.09781">
        <ele>1554.8160400391</ele>
        <time>2011-09-11T07:42:49Z</time>
      </trkpt>
      <trkpt lat="42.57849" lon="2.09786">
        <ele>1554.9010009766</ele>
        <time>2011-09-11T07:42:53Z</time>
      </trkpt>
      <trkpt lat="42.57871" lon="2.0979">
        <ele>1555.3409423828</ele>
        <time>2011-09-11T07:42:58Z</time>
      </trkpt>
      <trkpt lat="42.57895" lon="2.09793">
        <ele>1556.0570068359</ele>
        <time>2011-09-11T07:43:03Z</time>
      </trkpt>
      <trkpt lat="42.57914" lon="2.09793">
        <ele>1556.6240234375</ele>
        <time>2011-09-11T07:43:07Z</time>
      </trkpt>
      <trkpt lat="42.57925" lon="2.09794">
        <ele>1556.8959960938</ele>
        <time>2011-09-11T07:43:09Z</time>
      </trkpt>
      <trkpt lat="42.57936" lon="2.09794">
        <ele>1557.08203125</ele>
        <time>2011-09-11T07:43:11Z</time>
      </trkpt>
      <trkpt lat="42.57962" lon="2.09797">
        <ele>1557.5970458984</ele>
        <time>2011-09-11T07:43:16Z</time>
      </trkpt>
      <trkpt lat="42.57989" lon="2.09798">
        <ele>1558.08203125</ele>
        <time>2011-09-11T07:43:21Z</time>
      </trkpt>
      <trkpt lat="42.58015" lon="2.09801">
        <ele>1558.2049560547</ele>
        <time>2011-09-11T07:43:26Z</time>
      </trkpt>
      <trkpt lat="42.58025" lon="2.09801">
        <ele>1558.3540039062</ele>
        <time>2011-09-11T07:43:28Z</time>
      </trkpt>
      <trkpt lat="42.58035" lon="2.09803">
        <ele>1558.5279541016</ele>
        <time>2011-09-11T07:43:30Z</time>
      </trkpt>
      <trkpt lat="42.58055" lon="2.09814">
        <ele>1558.6770019531</ele>
        <time>2011-09-11T07:43:35Z</time>
      </trkpt>
      <trkpt lat="42.58062" lon="2.09823">
        <ele>1558.7099609375</ele>
        <time>2011-09-11T07:43:37Z</time>
      </trkpt>
      <trkpt lat="42.58083" lon="2.09851">
        <ele>1558.4959716797</ele>
        <time>2011-09-11T07:43:43Z</time>
      </trkpt>
      <trkpt lat="42.58095" lon="2.09868">
        <ele>1558.3580322266</ele>
        <time>2011-09-11T07:43:47Z</time>
      </trkpt>
      <trkpt lat="42.58096" lon="2.09869">
        <ele>1558.0899658203</ele>
        <time>2011-09-11T07:43:50Z</time>
      </trkpt>
      <trkpt lat="42.58085" lon="2.09855">
        <ele>1558.1469726562</ele>
        <time>2011-09-11T07:43:55Z</time>
      </trkpt>
      <trkpt lat="42.58057" lon="2.09816">
        <ele>1558.9479980469</ele>
        <time>2011-09-11T07:44:02Z</time>
      </trkpt>
      <trkpt lat="42.58053" lon="2.0981">
        <ele>1559.0500488281</ele>
        <time>2011-09-11T07:44:03Z</time>
      </trkpt>
      <trkpt lat="42.58039" lon="2.09801">
        <ele>1559.0620117188</ele>
        <time>2011-09-11T07:44:06Z</time>
      </trkpt>
      <trkpt lat="42.5802" lon="2.09802">
        <ele>1558.5899658203</ele>
        <time>2011-09-11T07:44:10Z</time>
      </trkpt>
      <trkpt lat="42.57998" lon="2.09799">
        <ele>1558.1689453125</ele>
        <time>2011-09-11T07:44:14Z</time>
      </trkpt>
      <trkpt lat="42.57972" lon="2.09799">
        <ele>1558.0520019531</ele>
        <time>2011-09-11T07:44:18Z</time>
      </trkpt>
      <trkpt lat="42.57953" lon="2.09798">
        <ele>1557.9549560547</ele>
        <time>2011-09-11T07:44:21Z</time>
      </trkpt>
      <trkpt lat="42.57924" lon="2.09792">
        <ele>1557.1949462891</ele>
        <time>2011-09-11T07:44:26Z</time>
      </trkpt>
      <trkpt lat="42.57902" lon="2.09788">
        <ele>1556.5250244141</ele>
        <time>2011-09-11T07:44:30Z</time>
      </trkpt>
      <trkpt lat="42.57889" lon="2.09787">
        <ele>1556.5279541016</ele>
        <time>2011-09-11T07:44:32Z</time>
      </trkpt>
      <trkpt lat="42.57865" lon="2.09791">
        <ele>1555.6450195312</ele>
        <time>2011-09-11T07:44:36Z</time>
      </trkpt>
      <trkpt lat="42.57843" lon="2.09787">
        <ele>1555.6190185547</ele>
        <time>2011-09-11T07:44:40Z</time>
      </trkpt>
      <trkpt lat="42.57819" lon="2.09777">
        <ele>1554.7979736328</ele>
        <time>2011-09-11T07:44:45Z</time>
      </trkpt>
      <trkpt lat="42.57818" lon="2.09776">
        <ele>1554.20703125</ele>
        <time>2011-09-11T07:44:48Z</time>
      </trkpt>
      <trkpt lat="42.57824" lon="2.09776">
        <ele>1554.3740234375</ele>
        <time>2011-09-11T07:44:55Z</time>
      </trkpt>
      <trkpt lat="42.57826" lon="2.09777">
        <ele>1554.2969970703</ele>
        <time>2011-09-11T07:44:59Z</time>
      </trkpt>
      <trkpt lat="42.57836" lon="2.09765">
        <ele>1554.3070068359</ele>
        <time>2011-09-11T07:45:07Z</time>
      </trkpt>
      <trkpt lat="42.57846" lon="2.0974">
        <ele>1555.3590087891</ele>
        <time>2011-09-11T07:45:12Z</time>
      </trkpt>
      <trkpt lat="42.57854" lon="2.09726">
        <ele>1555.8270263672</ele>
        <time>2011-09-11T07:45:15Z</time>
      </trkpt>
      <trkpt lat="42.5787" lon="2.09699">
        <ele>1555.6590576172</ele>
        <time>2011-09-11T07:45:21Z</time>
      </trkpt>
      <trkpt lat="42.57877" lon="2.09692">
        <ele>1555.7550048828</ele>
        <time>2011-09-11T07:45:23Z</time>
      </trkpt>
      <trkpt lat="42.57899" lon="2.09678">
        <ele>1557.3800048828</ele>
        <time>2011-09-11T07:45:29Z</time>
      </trkpt>
      <trkpt lat="42.5791" lon="2.09667">
        <ele>1557.5959472656</ele>
        <time>2011-09-11T07:45:32Z</time>
      </trkpt>
      <trkpt lat="42.57925" lon="2.09656">
        <ele>1557.7149658203</ele>
        <time>2011-09-11T07:45:36Z</time>
      </trkpt>
      <trkpt lat="42.57946" lon="2.09646">
        <ele>1558.4549560547</ele>
        <time>2011-09-11T07:45:42Z</time>
      </trkpt>
      <trkpt lat="42.57963" lon="2.09637">
        <ele>1558.8609619141</ele>
        <time>2011-09-11T07:45:47Z</time>
      </trkpt>
      <trkpt lat="42.57986" lon="2.09626">
        <ele>1559.4909667969</ele>
        <time>2011-09-11T07:45:53Z</time>
      </trkpt>
      <trkpt lat="42.58002" lon="2.09612">
        <ele>1560.4639892578</ele>
        <time>2011-09-11T07:45:58Z</time>
      </trkpt>
      <trkpt lat="42.58028" lon="2.09595">
        <ele>1561.3649902344</ele>
        <time>2011-09-11T07:46:05Z</time>
      </trkpt>
      <trkpt lat="42.58045" lon="2.09583">
        <ele>1562.3549804688</ele>
        <time>2011-09-11T07:46:10Z</time>
      </trkpt>
      <trkpt lat="42.58064" lon="2.09571">
        <ele>1562.8520507812</ele>
        <time>2011-09-11T07:46:15Z</time>
      </trkpt>
      <trkpt lat="42.58087" lon="2.09555">
        <ele>1563.6290283203</ele>
        <time>2011-09-11T07:46:21Z</time>
      </trkpt>
      <trkpt lat="42.58108" lon="2.09545">
        <ele>1564.0899658203</ele>
        <time>2011-09-11T07:46:26Z</time>
      </trkpt>
      <trkpt lat="42.58125" lon="2.09541">
        <ele>1564.5679931641</ele>
        <time>2011-09-11T07:46:30Z</time>
      </trkpt>
      <trkpt lat="42.58147" lon="2.0953">
        <ele>1565.2170410156</ele>
        <time>2011-09-11T07:46:35Z</time>
      </trkpt>
      <trkpt lat="42.58165" lon="2.09519">
        <ele>1565.8239746094</ele>
        <time>2011-09-11T07:46:39Z</time>
      </trkpt>
      <trkpt lat="42.58182" lon="2.0951">
        <ele>1566.4270019531</ele>
        <time>2011-09-11T07:46:43Z</time>
      </trkpt>
      <trkpt lat="42.58191" lon="2.09505">
        <ele>1566.6989746094</ele>
        <time>2011-09-11T07:46:45Z</time>
      </trkpt>
      <trkpt lat="42.58209" lon="2.09503">
        <ele>1567.0589599609</ele>
        <time>2011-09-11T07:46:49Z</time>
      </trkpt>
      <trkpt lat="42.5825" lon="2.09505">
        <ele>1568</ele>
        <time>2011-09-11T07:46:57Z</time>
      </trkpt>
      <trkpt lat="42.58255" lon="2.09506">
        <ele>1568.0500488281</ele>
        <time>2011-09-11T07:46:58Z</time>
      </trkpt>
      <trkpt lat="42.58279" lon="2.09525">
        <ele>1568.5920410156</ele>
        <time>2011-09-11T07:47:03Z</time>
      </trkpt>
      <trkpt lat="42.58289" lon="2.09532">
        <ele>1568.6300048828</ele>
        <time>2011-09-11T07:47:05Z</time>
      </trkpt>
      <trkpt lat="42.58298" lon="2.09538">
        <ele>1568.4830322266</ele>
        <time>2011-09-11T07:47:07Z</time>
      </trkpt>
      <trkpt lat="42.58307" lon="2.09544">
        <ele>1568.4890136719</ele>
        <time>2011-09-11T07:47:09Z</time>
      </trkpt>
      <trkpt lat="42.58337" lon="2.09561">
        <ele>1568.6860351562</ele>
        <time>2011-09-11T07:47:15Z</time>
      </trkpt>
      <trkpt lat="42.58348" lon="2.09567">
        <ele>1568.7399902344</ele>
        <time>2011-09-11T07:47:17Z</time>
      </trkpt>
      <trkpt lat="42.58368" lon="2.0958">
        <ele>1569.1650390625</ele>
        <time>2011-09-11T07:47:21Z</time>
      </trkpt>
      <trkpt lat="42.58377" lon="2.09585">
        <ele>1569.29296875</ele>
        <time>2011-09-11T07:47:23Z</time>
      </trkpt>
      <trkpt lat="42.58409" lon="2.0959">
        <ele>1569.9239501953</ele>
        <time>2011-09-11T07:47:29Z</time>
      </trkpt>
      <trkpt lat="42.58424" lon="2.0959">
        <ele>1570.3330078125</ele>
        <time>2011-09-11T07:47:32Z</time>
      </trkpt>
      <trkpt lat="42.58443" lon="2.09591">
        <ele>1570.6820068359</ele>
        <time>2011-09-11T07:47:35Z</time>
      </trkpt>
      <trkpt lat="42.58455" lon="2.09593">
        <ele>1570.8969726562</ele>
        <time>2011-09-11T07:47:37Z</time>
      </trkpt>
      <trkpt lat="42.58475" lon="2.096">
        <ele>1571.2530517578</ele>
        <time>2011-09-11T07:47:41Z</time>
      </trkpt>
      <trkpt lat="42.58495" lon="2.09603">
        <ele>1571.6190185547</ele>
        <time>2011-09-11T07:47:45Z</time>
      </trkpt>
      <trkpt lat="42.58517" lon="2.09596">
        <ele>1572.5469970703</ele>
        <time>2011-09-11T07:47:50Z</time>
      </trkpt>
      <trkpt lat="42.58532" lon="2.09588">
        <ele>1572.9339599609</ele>
        <time>2011-09-11T07:47:54Z</time>
      </trkpt>
      <trkpt lat="42.58536" lon="2.09591">
        <ele>1572.998046875</ele>
        <time>2011-09-11T07:47:55Z</time>
      </trkpt>
      <trkpt lat="42.5858" lon="2.09621">
        <ele>1572.6090087891</ele>
        <time>2011-09-11T07:48:04Z</time>
      </trkpt>
      <trkpt lat="42.5862" lon="2.09635">
        <ele>1572.7779541016</ele>
        <time>2011-09-11T07:48:12Z</time>
      </trkpt>
      <trkpt lat="42.58651" lon="2.09654">
        <ele>1573.0129394531</ele>
        <time>2011-09-11T07:48:19Z</time>
      </trkpt>
      <trkpt lat="42.58686" lon="2.0968">
        <ele>1573.8790283203</ele>
        <time>2011-09-11T07:48:27Z</time>
      </trkpt>
      <trkpt lat="42.58691" lon="2.09683">
        <ele>1574.0739746094</ele>
        <time>2011-09-11T07:48:28Z</time>
      </trkpt>
      <trkpt lat="42.58721" lon="2.09705">
        <ele>1574.8139648438</ele>
        <time>2011-09-11T07:48:35Z</time>
      </trkpt>
      <trkpt lat="42.58744" lon="2.09716">
        <ele>1575.2700195312</ele>
        <time>2011-09-11T07:48:40Z</time>
      </trkpt>
      <trkpt lat="42.58753" lon="2.09719">
        <ele>1575.2580566406</ele>
        <time>2011-09-11T07:48:42Z</time>
      </trkpt>
      <trkpt lat="42.58771" lon="2.09723">
        <ele>1575.8540039062</ele>
        <time>2011-09-11T07:48:46Z</time>
      </trkpt>
      <trkpt lat="42.58785" lon="2.09724">
        <ele>1575.9169921875</ele>
        <time>2011-09-11T07:48:49Z</time>
      </trkpt>
      <trkpt lat="42.58796" lon="2.09724">
        <ele>1576.0260009766</ele>
        <time>2011-09-11T07:48:51Z</time>
      </trkpt>
      <trkpt lat="42.58815" lon="2.09732">
        <ele>1576.2919921875</ele>
        <time>2011-09-11T07:48:55Z</time>
      </trkpt>
      <trkpt lat="42.58836" lon="2.09741">
        <ele>1576.7509765625</ele>
        <time>2011-09-11T07:48:59Z</time>
      </trkpt>
      <trkpt lat="42.58854" lon="2.09754">
        <ele>1576.5150146484</ele>
        <time>2011-09-11T07:49:03Z</time>
      </trkpt>
      <trkpt lat="42.58896" lon="2.09772">
        <ele>1576.5670166016</ele>
        <time>2011-09-11T07:49:11Z</time>
      </trkpt>
      <trkpt lat="42.58927" lon="2.09785">
        <ele>1576.6860351562</ele>
        <time>2011-09-11T07:49:17Z</time>
      </trkpt>
      <trkpt lat="42.58947" lon="2.09793">
        <ele>1577.5100097656</ele>
        <time>2011-09-11T07:49:21Z</time>
      </trkpt>
      <trkpt lat="42.58978" lon="2.098">
        <ele>1577.5909423828</ele>
        <time>2011-09-11T07:49:27Z</time>
      </trkpt>
      <trkpt lat="42.59014" lon="2.098">
        <ele>1576.8549804688</ele>
        <time>2011-09-11T07:49:34Z</time>
      </trkpt>
      <trkpt lat="42.59019" lon="2.098">
        <ele>1576.8549804688</ele>
        <time>2011-09-11T07:49:35Z</time>
      </trkpt>
      <trkpt lat="42.59051" lon="2.09796">
        <ele>1577.6379394531</ele>
        <time>2011-09-11T07:49:42Z</time>
      </trkpt>
      <trkpt lat="42.59074" lon="2.09796">
        <ele>1578.1510009766</ele>
        <time>2011-09-11T07:49:47Z</time>
      </trkpt>
      <trkpt lat="42.59079" lon="2.09795">
        <ele>1578.1700439453</ele>
        <time>2011-09-11T07:49:48Z</time>
      </trkpt>
      <trkpt lat="42.59089" lon="2.09793">
        <ele>1578.4270019531</ele>
        <time>2011-09-11T07:49:50Z</time>
      </trkpt>
      <trkpt lat="42.59103" lon="2.09793">
        <ele>1578.8349609375</ele>
        <time>2011-09-11T07:49:53Z</time>
      </trkpt>
      <trkpt lat="42.59122" lon="2.09796">
        <ele>1579.2690429688</ele>
        <time>2011-09-11T07:49:58Z</time>
      </trkpt>
      <trkpt lat="42.59137" lon="2.09793">
        <ele>1579.9169921875</ele>
        <time>2011-09-11T07:50:02Z</time>
      </trkpt>
      <trkpt lat="42.59159" lon="2.09788">
        <ele>1580.8659667969</ele>
        <time>2011-09-11T07:50:07Z</time>
      </trkpt>
      <trkpt lat="42.59184" lon="2.09784">
        <ele>1581.8530273438</ele>
        <time>2011-09-11T07:50:13Z</time>
      </trkpt>
      <trkpt lat="42.59222" lon="2.09794">
        <ele>1582.6190185547</ele>
        <time>2011-09-11T07:50:21Z</time>
      </trkpt>
      <trkpt lat="42.59243" lon="2.098">
        <ele>1583.0539550781</ele>
        <time>2011-09-11T07:50:26Z</time>
      </trkpt>
      <trkpt lat="42.59252" lon="2.09804">
        <ele>1583.1090087891</ele>
        <time>2011-09-11T07:50:28Z</time>
      </trkpt>
      <trkpt lat="42.59276" lon="2.09808">
        <ele>1583.6040039062</ele>
        <time>2011-09-11T07:50:33Z</time>
      </trkpt>
      <trkpt lat="42.59296" lon="2.09806">
        <ele>1584.1500244141</ele>
        <time>2011-09-11T07:50:38Z</time>
      </trkpt>
      <trkpt lat="42.59301" lon="2.09806">
        <ele>1584.2030029297</ele>
        <time>2011-09-11T07:50:39Z</time>
      </trkpt>
      <trkpt lat="42.59315" lon="2.09803">
        <ele>1584.5169677734</ele>
        <time>2011-09-11T07:50:42Z</time>
      </trkpt>
      <trkpt lat="42.59334" lon="2.09794">
        <ele>1585.1970214844</ele>
        <time>2011-09-11T07:50:46Z</time>
      </trkpt>
      <trkpt lat="42.59343" lon="2.0979">
        <ele>1585.5579833984</ele>
        <time>2011-09-11T07:50:48Z</time>
      </trkpt>
      <trkpt lat="42.59353" lon="2.09787">
        <ele>1585.9499511719</ele>
        <time>2011-09-11T07:50:50Z</time>
      </trkpt>
      <trkpt lat="42.59372" lon="2.0978">
        <ele>1586.6400146484</ele>
        <time>2011-09-11T07:50:54Z</time>
      </trkpt>
      <trkpt lat="42.59416" lon="2.09768">
        <ele>1587.6040039062</ele>
        <time>2011-09-11T07:51:03Z</time>
      </trkpt>
      <trkpt lat="42.59423" lon="2.09768">
        <ele>1587.6440429688</ele>
        <time>2011-09-11T07:51:05Z</time>
      </trkpt>
      <trkpt lat="42.59428" lon="2.09765">
        <ele>1587.2919921875</ele>
        <time>2011-09-11T07:51:09Z</time>
      </trkpt>
      <trkpt lat="42.59428" lon="2.09765">
        <ele>1587.1910400391</ele>
        <time>2011-09-11T07:51:10Z</time>
      </trkpt>
      <trkpt lat="42.59428" lon="2.09767">
        <ele>1589.1209716797</ele>
        <time>2011-09-11T07:54:55Z</time>
      </trkpt>
      <trkpt lat="42.59433" lon="2.0977">
        <ele>1589.2800292969</ele>
        <time>2011-09-11T07:55:42Z</time>
      </trkpt>
      <trkpt lat="42.59443" lon="2.09773">
        <ele>1589.4000244141</ele>
        <time>2011-09-11T07:55:47Z</time>
      </trkpt>
      <trkpt lat="42.59451" lon="2.09763">
        <ele>1590.0460205078</ele>
        <time>2011-09-11T07:55:51Z</time>
      </trkpt>
      <trkpt lat="42.59452" lon="2.0976">
        <ele>1590.2449951172</ele>
        <time>2011-09-11T07:55:52Z</time>
      </trkpt>
      <trkpt lat="42.59452" lon="2.09751">
        <ele>1590.6770019531</ele>
        <time>2011-09-11T07:55:54Z</time>
      </trkpt>
      <trkpt lat="42.59447" lon="2.09732">
        <ele>1591.9890136719</ele>
        <time>2011-09-11T07:55:58Z</time>
      </trkpt>
      <trkpt lat="42.59444" lon="2.09714">
        <ele>1593.5939941406</ele>
        <time>2011-09-11T07:56:02Z</time>
      </trkpt>
      <trkpt lat="42.59448" lon="2.09707">
        <ele>1594.7509765625</ele>
        <time>2011-09-11T07:56:05Z</time>
      </trkpt>
      <trkpt lat="42.59456" lon="2.09702">
        <ele>1596.0279541016</ele>
        <time>2011-09-11T07:56:09Z</time>
      </trkpt>
      <trkpt lat="42.59467" lon="2.09694">
        <ele>1597.3050537109</ele>
        <time>2011-09-11T07:56:15Z</time>
      </trkpt>
      <trkpt lat="42.59475" lon="2.09689">
        <ele>1597.9549560547</ele>
        <time>2011-09-11T07:56:19Z</time>
      </trkpt>
      <trkpt lat="42.59481" lon="2.09682">
        <ele>1598.8289794922</ele>
        <time>2011-09-11T07:56:23Z</time>
      </trkpt>
      <trkpt lat="42.59491" lon="2.09669">
        <ele>1600.5209960938</ele>
        <time>2011-09-11T07:56:29Z</time>
      </trkpt>
      <trkpt lat="42.59496" lon="2.09662">
        <ele>1601.666015625</ele>
        <time>2011-09-11T07:56:33Z</time>
      </trkpt>
      <trkpt lat="42.59499" lon="2.09649">
        <ele>1602.8950195312</ele>
        <time>2011-09-11T07:56:38Z</time>
      </trkpt>
      <trkpt lat="42.59503" lon="2.09643">
        <ele>1603.5720214844</ele>
        <time>2011-09-11T07:56:41Z</time>
      </trkpt>
      <trkpt lat="42.59509" lon="2.09633">
        <ele>1604.5959472656</ele>
        <time>2011-09-11T07:56:45Z</time>
      </trkpt>
      <trkpt lat="42.59515" lon="2.09621">
        <ele>1605.6579589844</ele>
        <time>2011-09-11T07:56:49Z</time>
      </trkpt>
      <trkpt lat="42.59525" lon="2.09603">
        <ele>1607.25</ele>
        <time>2011-09-11T07:56:55Z</time>
      </trkpt>
      <trkpt lat="42.59533" lon="2.09593">
        <ele>1607.7550048828</ele>
        <time>2011-09-11T07:56:59Z</time>
      </trkpt>
      <trkpt lat="42.59544" lon="2.09578">
        <ele>1607.9610595703</ele>
        <time>2011-09-11T07:57:04Z</time>
      </trkpt>
      <trkpt lat="42.59555" lon="2.09565">
        <ele>1607.6020507812</ele>
        <time>2011-09-11T07:57:08Z</time>
      </trkpt>
      <trkpt lat="42.59558" lon="2.09562">
        <ele>1607.6020507812</ele>
        <time>2011-09-11T07:57:09Z</time>
      </trkpt>
      <trkpt lat="42.59576" lon="2.09554">
        <ele>1608.16796875</ele>
        <time>2011-09-11T07:57:15Z</time>
      </trkpt>
      <trkpt lat="42.59588" lon="2.09549">
        <ele>1609.2800292969</ele>
        <time>2011-09-11T07:57:20Z</time>
      </trkpt>
      <trkpt lat="42.59602" lon="2.09542">
        <ele>1610.7869873047</ele>
        <time>2011-09-11T07:57:26Z</time>
      </trkpt>
      <trkpt lat="42.59612" lon="2.09534">
        <ele>1612.9379882812</ele>
        <time>2011-09-11T07:57:32Z</time>
      </trkpt>
      <trkpt lat="42.59623" lon="2.09525">
        <ele>1615.2139892578</ele>
        <time>2011-09-11T07:57:38Z</time>
      </trkpt>
      <trkpt lat="42.59631" lon="2.09519">
        <ele>1616.9830322266</ele>
        <time>2011-09-11T07:57:43Z</time>
      </trkpt>
      <trkpt lat="42.59642" lon="2.09511">
        <ele>1618.3100585938</ele>
        <time>2011-09-11T07:57:49Z</time>
      </trkpt>
      <trkpt lat="42.59653" lon="2.09503">
        <ele>1619.7979736328</ele>
        <time>2011-09-11T07:57:55Z</time>
      </trkpt>
      <trkpt lat="42.59663" lon="2.09493">
        <ele>1621.2750244141</ele>
        <time>2011-09-11T07:58:01Z</time>
      </trkpt>
      <trkpt lat="42.59676" lon="2.09484">
        <ele>1623.1779785156</ele>
        <time>2011-09-11T07:58:07Z</time>
      </trkpt>
      <trkpt lat="42.59687" lon="2.09477">
        <ele>1624.7819824219</ele>
        <time>2011-09-11T07:58:13Z</time>
      </trkpt>
      <trkpt lat="42.59703" lon="2.09468">
        <ele>1626.5269775391</ele>
        <time>2011-09-11T07:58:21Z</time>
      </trkpt>
      <trkpt lat="42.59713" lon="2.09461">
        <ele>1627.5100097656</ele>
        <time>2011-09-11T07:58:26Z</time>
      </trkpt>
      <trkpt lat="42.59723" lon="2.09457">
        <ele>1628.5510253906</ele>
        <time>2011-09-11T07:58:31Z</time>
      </trkpt>
      <trkpt lat="42.59737" lon="2.09451">
        <ele>1629.0889892578</ele>
        <time>2011-09-11T07:58:37Z</time>
      </trkpt>
      <trkpt lat="42.59744" lon="2.09449">
        <ele>1629.4759521484</ele>
        <time>2011-09-11T07:58:40Z</time>
      </trkpt>
      <trkpt lat="42.59758" lon="2.09442">
        <ele>1630.5340576172</ele>
        <time>2011-09-11T07:58:46Z</time>
      </trkpt>
      <trkpt lat="42.59768" lon="2.09435">
        <ele>1631.6760253906</ele>
        <time>2011-09-11T07:58:51Z</time>
      </trkpt>
      <trkpt lat="42.59774" lon="2.09425">
        <ele>1632.9470214844</ele>
        <time>2011-09-11T07:58:55Z</time>
      </trkpt>
      <trkpt lat="42.59769" lon="2.09405">
        <ele>1635.0350341797</ele>
        <time>2011-09-11T07:59:02Z</time>
      </trkpt>
      <trkpt lat="42.59761" lon="2.09392">
        <ele>1636.2370605469</ele>
        <time>2011-09-11T07:59:07Z</time>
      </trkpt>
      <trkpt lat="42.59755" lon="2.09379">
        <ele>1637.4820556641</ele>
        <time>2011-09-11T07:59:13Z</time>
      </trkpt>
      <trkpt lat="42.59752" lon="2.09367">
        <ele>1638.9880371094</ele>
        <time>2011-09-11T07:59:18Z</time>
      </trkpt>
      <trkpt lat="42.5975" lon="2.09359">
        <ele>1640.3790283203</ele>
        <time>2011-09-11T07:59:23Z</time>
      </trkpt>
      <trkpt lat="42.59746" lon="2.09345">
        <ele>1642.0310058594</ele>
        <time>2011-09-11T07:59:29Z</time>
      </trkpt>
      <trkpt lat="42.59747" lon="2.09333">
        <ele>1643.6390380859</ele>
        <time>2011-09-11T07:59:35Z</time>
      </trkpt>
      <trkpt lat="42.59748" lon="2.09331">
        <ele>1644.0150146484</ele>
        <time>2011-09-11T07:59:36Z</time>
      </trkpt>
      <trkpt lat="42.59752" lon="2.09326">
        <ele>1645.0250244141</ele>
        <time>2011-09-11T07:59:40Z</time>
      </trkpt>
      <trkpt lat="42.59759" lon="2.09322">
        <ele>1646.1300048828</ele>
        <time>2011-09-11T07:59:45Z</time>
      </trkpt>
      <trkpt lat="42.59772" lon="2.09317">
        <ele>1647.3160400391</ele>
        <time>2011-09-11T07:59:52Z</time>
      </trkpt>
      <trkpt lat="42.59787" lon="2.09315">
        <ele>1648.0899658203</ele>
        <time>2011-09-11T07:59:58Z</time>
      </trkpt>
      <trkpt lat="42.59798" lon="2.09315">
        <ele>1648.9479980469</ele>
        <time>2011-09-11T08:00:03Z</time>
      </trkpt>
      <trkpt lat="42.59809" lon="2.09315">
        <ele>1650.0729980469</ele>
        <time>2011-09-11T08:00:08Z</time>
      </trkpt>
      <trkpt lat="42.59822" lon="2.09315">
        <ele>1651.9449462891</ele>
        <time>2011-09-11T08:00:13Z</time>
      </trkpt>
      <trkpt lat="42.59832" lon="2.0932">
        <ele>1653.5050048828</ele>
        <time>2011-09-11T08:00:18Z</time>
      </trkpt>
      <trkpt lat="42.59845" lon="2.09329">
        <ele>1653.7199707031</ele>
        <time>2011-09-11T08:00:24Z</time>
      </trkpt>
      <trkpt lat="42.5985" lon="2.09329">
        <ele>1653.7270507812</ele>
        <time>2011-09-11T08:00:26Z</time>
      </trkpt>
      <trkpt lat="42.59866" lon="2.09328">
        <ele>1654.6190185547</ele>
        <time>2011-09-11T08:00:32Z</time>
      </trkpt>
      <trkpt lat="42.59873" lon="2.09321">
        <ele>1655.9499511719</ele>
        <time>2011-09-11T08:00:37Z</time>
      </trkpt>
      <trkpt lat="42.59868" lon="2.09309">
        <ele>1657.4169921875</ele>
        <time>2011-09-11T08:00:42Z</time>
      </trkpt>
      <trkpt lat="42.59855" lon="2.09297">
        <ele>1658.3160400391</ele>
        <time>2011-09-11T08:00:49Z</time>
      </trkpt>
      <trkpt lat="42.59839" lon="2.09282">
        <ele>1658.8260498047</ele>
        <time>2011-09-11T08:00:55Z</time>
      </trkpt>
      <trkpt lat="42.59829" lon="2.09269">
        <ele>1659.7399902344</ele>
        <time>2011-09-11T08:01:00Z</time>
      </trkpt>
      <trkpt lat="42.59816" lon="2.09254">
        <ele>1660.6020507812</ele>
        <time>2011-09-11T08:01:06Z</time>
      </trkpt>
      <trkpt lat="42.59801" lon="2.09233">
        <ele>1661.2230224609</ele>
        <time>2011-09-11T08:01:13Z</time>
      </trkpt>
      <trkpt lat="42.59793" lon="2.09211">
        <ele>1662</ele>
        <time>2011-09-11T08:01:19Z</time>
      </trkpt>
      <trkpt lat="42.59792" lon="2.09195">
        <ele>1662.4809570312</ele>
        <time>2011-09-11T08:01:23Z</time>
      </trkpt>
      <trkpt lat="42.59789" lon="2.09169">
        <ele>1663.6020507812</ele>
        <time>2011-09-11T08:01:30Z</time>
      </trkpt>
      <trkpt lat="42.59785" lon="2.09155">
        <ele>1664.7760009766</ele>
        <time>2011-09-11T08:01:35Z</time>
      </trkpt>
      <trkpt lat="42.59781" lon="2.09149">
        <ele>1665.501953125</ele>
        <time>2011-09-11T08:01:38Z</time>
      </trkpt>
      <trkpt lat="42.59774" lon="2.09137">
        <ele>1667.3780517578</ele>
        <time>2011-09-11T08:01:44Z</time>
      </trkpt>
      <trkpt lat="42.59764" lon="2.0913">
        <ele>1669.5600585938</ele>
        <time>2011-09-11T08:01:50Z</time>
      </trkpt>
      <trkpt lat="42.59751" lon="2.09129">
        <ele>1670.8909912109</ele>
        <time>2011-09-11T08:01:56Z</time>
      </trkpt>
      <trkpt lat="42.5974" lon="2.09126">
        <ele>1671.58203125</ele>
        <time>2011-09-11T08:02:01Z</time>
      </trkpt>
      <trkpt lat="42.59724" lon="2.09113">
        <ele>1673.1259765625</ele>
        <time>2011-09-11T08:02:09Z</time>
      </trkpt>
      <trkpt lat="42.5972" lon="2.09108">
        <ele>1673.4079589844</ele>
        <time>2011-09-11T08:02:11Z</time>
      </trkpt>
      <trkpt lat="42.59709" lon="2.0909">
        <ele>1674.3869628906</ele>
        <time>2011-09-11T08:02:18Z</time>
      </trkpt>
      <trkpt lat="42.597" lon="2.0908">
        <ele>1675.7399902344</ele>
        <time>2011-09-11T08:02:23Z</time>
      </trkpt>
      <trkpt lat="42.59689" lon="2.0907">
        <ele>1676.2860107422</ele>
        <time>2011-09-11T08:02:28Z</time>
      </trkpt>
      <trkpt lat="42.59677" lon="2.09057">
        <ele>1676.6490478516</ele>
        <time>2011-09-11T08:02:33Z</time>
      </trkpt>
      <trkpt lat="42.59665" lon="2.09043">
        <ele>1678.1199951172</ele>
        <time>2011-09-11T08:02:39Z</time>
      </trkpt>
      <trkpt lat="42.59653" lon="2.09028">
        <ele>1679.0109863281</ele>
        <time>2011-09-11T08:02:45Z</time>
      </trkpt>
      <trkpt lat="42.59641" lon="2.09025">
        <ele>1679.7399902344</ele>
        <time>2011-09-11T08:02:50Z</time>
      </trkpt>
      <trkpt lat="42.59626" lon="2.09024">
        <ele>1681.6350097656</ele>
        <time>2011-09-11T08:02:56Z</time>
      </trkpt>
      <trkpt lat="42.5962" lon="2.0902">
        <ele>1682.3559570312</ele>
        <time>2011-09-11T08:02:59Z</time>
      </trkpt>
      <trkpt lat="42.59603" lon="2.08992">
        <ele>1683.4770507812</ele>
        <time>2011-09-11T08:03:09Z</time>
      </trkpt>
      <trkpt lat="42.59593" lon="2.08972">
        <ele>1684.8709716797</ele>
        <time>2011-09-11T08:03:16Z</time>
      </trkpt>
      <trkpt lat="42.59592" lon="2.08962">
        <ele>1686.4630126953</ele>
        <time>2011-09-11T08:03:20Z</time>
      </trkpt>
      <trkpt lat="42.59593" lon="2.08949">
        <ele>1688.6650390625</ele>
        <time>2011-09-11T08:03:25Z</time>
      </trkpt>
      <trkpt lat="42.59588" lon="2.08939">
        <ele>1690.0739746094</ele>
        <time>2011-09-11T08:03:30Z</time>
      </trkpt>
      <trkpt lat="42.59589" lon="2.08929">
        <ele>1691.4169921875</ele>
        <time>2011-09-11T08:03:35Z</time>
      </trkpt>
      <trkpt lat="42.59592" lon="2.08927">
        <ele>1691.9530029297</ele>
        <time>2011-09-11T08:03:37Z</time>
      </trkpt>
      <trkpt lat="42.59604" lon="2.08929">
        <ele>1692.8289794922</ele>
        <time>2011-09-11T08:03:42Z</time>
      </trkpt>
      <trkpt lat="42.5962" lon="2.08935">
        <ele>1693.1020507812</ele>
        <time>2011-09-11T08:03:48Z</time>
      </trkpt>
      <trkpt lat="42.59633" lon="2.08943">
        <ele>1693.1550292969</ele>
        <time>2011-09-11T08:03:52Z</time>
      </trkpt>
      <trkpt lat="42.59662" lon="2.08967">
        <ele>1693.5529785156</ele>
        <time>2011-09-11T08:04:00Z</time>
      </trkpt>
      <trkpt lat="42.59679" lon="2.08978">
        <ele>1693.5150146484</ele>
        <time>2011-09-11T08:04:04Z</time>
      </trkpt>
      <trkpt lat="42.59697" lon="2.08986">
        <ele>1693.4050292969</ele>
        <time>2011-09-11T08:04:08Z</time>
      </trkpt>
      <trkpt lat="42.5973" lon="2.08996">
        <ele>1693.4949951172</ele>
        <time>2011-09-11T08:04:14Z</time>
      </trkpt>
      <trkpt lat="42.59759" lon="2.09001">
        <ele>1693.8089599609</ele>
        <time>2011-09-11T08:04:19Z</time>
      </trkpt>
      <trkpt lat="42.59785" lon="2.0901">
        <ele>1694.1750488281</ele>
        <time>2011-09-11T08:04:24Z</time>
      </trkpt>
      <trkpt lat="42.5979" lon="2.09011">
        <ele>1694.1090087891</ele>
        <time>2011-09-11T08:04:25Z</time>
      </trkpt>
      <trkpt lat="42.59816" lon="2.09023">
        <ele>1693.2139892578</ele>
        <time>2011-09-11T08:04:30Z</time>
      </trkpt>
      <trkpt lat="42.59837" lon="2.09037">
        <ele>1693.8409423828</ele>
        <time>2011-09-11T08:04:34Z</time>
      </trkpt>
      <trkpt lat="42.59847" lon="2.09043">
        <ele>1693.4300537109</ele>
        <time>2011-09-11T08:04:36Z</time>
      </trkpt>
      <trkpt lat="42.59879" lon="2.09053">
        <ele>1693.3289794922</ele>
        <time>2011-09-11T08:04:42Z</time>
      </trkpt>
      <trkpt lat="42.599" lon="2.09063">
        <ele>1693.1359863281</ele>
        <time>2011-09-11T08:04:46Z</time>
      </trkpt>
      <trkpt lat="42.59923" lon="2.09065">
        <ele>1693.1689453125</ele>
        <time>2011-09-11T08:04:50Z</time>
      </trkpt>
      <trkpt lat="42.59956" lon="2.09077">
        <ele>1693.4730224609</ele>
        <time>2011-09-11T08:04:56Z</time>
      </trkpt>
      <trkpt lat="42.59983" lon="2.09086">
        <ele>1693.8370361328</ele>
        <time>2011-09-11T08:05:01Z</time>
      </trkpt>
      <trkpt lat="42.60012" lon="2.09101">
        <ele>1695.2760009766</ele>
        <time>2011-09-11T08:05:07Z</time>
      </trkpt>
      <trkpt lat="42.60041" lon="2.09114">
        <ele>1696.5219726562</ele>
        <time>2011-09-11T08:05:13Z</time>
      </trkpt>
      <trkpt lat="42.6006" lon="2.09124">
        <ele>1697.0379638672</ele>
        <time>2011-09-11T08:05:17Z</time>
      </trkpt>
      <trkpt lat="42.60077" lon="2.09128">
        <ele>1697.5670166016</ele>
        <time>2011-09-11T08:05:21Z</time>
      </trkpt>
      <trkpt lat="42.60085" lon="2.0911">
        <ele>1698.2469482422</ele>
        <time>2011-09-11T08:05:24Z</time>
      </trkpt>
      <trkpt lat="42.60083" lon="2.0909">
        <ele>1698.5329589844</ele>
        <time>2011-09-11T08:05:27Z</time>
      </trkpt>
      <trkpt lat="42.60058" lon="2.09065">
        <ele>1698.6500244141</ele>
        <time>2011-09-11T08:05:33Z</time>
      </trkpt>
      <trkpt lat="42.60044" lon="2.09042">
        <ele>1698.6500244141</ele>
        <time>2011-09-11T08:05:37Z</time>
      </trkpt>
      <trkpt lat="42.60032" lon="2.09018">
        <ele>1698.9510498047</ele>
        <time>2011-09-11T08:05:41Z</time>
      </trkpt>
      <trkpt lat="42.60019" lon="2.08995">
        <ele>1699.1839599609</ele>
        <time>2011-09-11T08:05:45Z</time>
      </trkpt>
      <trkpt lat="42.6" lon="2.08958">
        <ele>1698.8170166016</ele>
        <time>2011-09-11T08:05:51Z</time>
      </trkpt>
      <trkpt lat="42.59996" lon="2.08943">
        <ele>1698.9399414062</ele>
        <time>2011-09-11T08:05:53Z</time>
      </trkpt>
      <trkpt lat="42.59986" lon="2.08901">
        <ele>1698.7120361328</ele>
        <time>2011-09-11T08:05:59Z</time>
      </trkpt>
      <trkpt lat="42.5998" lon="2.08889">
        <ele>1698.6440429688</ele>
        <time>2011-09-11T08:06:01Z</time>
      </trkpt>
      <trkpt lat="42.59972" lon="2.08863">
        <ele>1698.2459716797</ele>
        <time>2011-09-11T08:06:05Z</time>
      </trkpt>
      <trkpt lat="42.59965" lon="2.0885">
        <ele>1697.9560546875</ele>
        <time>2011-09-11T08:06:07Z</time>
      </trkpt>
      <trkpt lat="42.59957" lon="2.08829">
        <ele>1697.8010253906</ele>
        <time>2011-09-11T08:06:10Z</time>
      </trkpt>
      <trkpt lat="42.59941" lon="2.08794">
        <ele>1697.1240234375</ele>
        <time>2011-09-11T08:06:15Z</time>
      </trkpt>
      <trkpt lat="42.59938" lon="2.08786">
        <ele>1696.9849853516</ele>
        <time>2011-09-11T08:06:16Z</time>
      </trkpt>
      <trkpt lat="42.59922" lon="2.08762">
        <ele>1696.1419677734</ele>
        <time>2011-09-11T08:06:20Z</time>
      </trkpt>
      <trkpt lat="42.59898" lon="2.08722">
        <ele>1694.2469482422</ele>
        <time>2011-09-11T08:06:26Z</time>
      </trkpt>
      <trkpt lat="42.59888" lon="2.08677">
        <ele>1693.66796875</ele>
        <time>2011-09-11T08:06:31Z</time>
      </trkpt>
      <trkpt lat="42.59882" lon="2.08658">
        <ele>1693.5260009766</ele>
        <time>2011-09-11T08:06:33Z</time>
      </trkpt>
      <trkpt lat="42.59845" lon="2.08582">
        <ele>1691.54296875</ele>
        <time>2011-09-11T08:06:42Z</time>
      </trkpt>
      <trkpt lat="42.59818" lon="2.08523">
        <ele>1689.6090087891</ele>
        <time>2011-09-11T08:06:49Z</time>
      </trkpt>
      <trkpt lat="42.59789" lon="2.08479">
        <ele>1687.9820556641</ele>
        <time>2011-09-11T08:06:55Z</time>
      </trkpt>
      <trkpt lat="42.59774" lon="2.08454">
        <ele>1687.1149902344</ele>
        <time>2011-09-11T08:06:58Z</time>
      </trkpt>
      <trkpt lat="42.59753" lon="2.08423">
        <ele>1686.33203125</ele>
        <time>2011-09-11T08:07:02Z</time>
      </trkpt>
      <trkpt lat="42.59745" lon="2.08406">
        <ele>1685.9959716797</ele>
        <time>2011-09-11T08:07:04Z</time>
      </trkpt>
      <trkpt lat="42.5974" lon="2.08369">
        <ele>1685.3310546875</ele>
        <time>2011-09-11T08:07:08Z</time>
      </trkpt>
      <trkpt lat="42.5974" lon="2.0836">
        <ele>1685.1009521484</ele>
        <time>2011-09-11T08:07:09Z</time>
      </trkpt>
      <trkpt lat="42.5973" lon="2.08317">
        <ele>1684.1109619141</ele>
        <time>2011-09-11T08:07:14Z</time>
      </trkpt>
      <trkpt lat="42.59728" lon="2.08268">
        <ele>1683</ele>
        <time>2011-09-11T08:07:19Z</time>
      </trkpt>
      <trkpt lat="42.59719" lon="2.08221">
        <ele>1681.5009765625</ele>
        <time>2011-09-11T08:07:24Z</time>
      </trkpt>
      <trkpt lat="42.59715" lon="2.08194">
        <ele>1680.6400146484</ele>
        <time>2011-09-11T08:07:27Z</time>
      </trkpt>
      <trkpt lat="42.59725" lon="2.08175">
        <ele>1679.4680175781</ele>
        <time>2011-09-11T08:07:31Z</time>
      </trkpt>
      <trkpt lat="42.59735" lon="2.08173">
        <ele>1678.9439697266</ele>
        <time>2011-09-11T08:07:33Z</time>
      </trkpt>
      <trkpt lat="42.59771" lon="2.08169">
        <ele>1677.7299804688</ele>
        <time>2011-09-11T08:07:38Z</time>
      </trkpt>
      <trkpt lat="42.59792" lon="2.08165">
        <ele>1677.2340087891</ele>
        <time>2011-09-11T08:07:41Z</time>
      </trkpt>
      <trkpt lat="42.59814" lon="2.08144">
        <ele>1676.3549804688</ele>
        <time>2011-09-11T08:07:45Z</time>
      </trkpt>
      <trkpt lat="42.59811" lon="2.0812">
        <ele>1676.3129882812</ele>
        <time>2011-09-11T08:07:48Z</time>
      </trkpt>
      <trkpt lat="42.598" lon="2.08095">
        <ele>1675.9250488281</ele>
        <time>2011-09-11T08:07:51Z</time>
      </trkpt>
      <trkpt lat="42.59787" lon="2.08059">
        <ele>1675.3170166016</ele>
        <time>2011-09-11T08:07:55Z</time>
      </trkpt>
      <trkpt lat="42.59783" lon="2.08019">
        <ele>1674.748046875</ele>
        <time>2011-09-11T08:07:59Z</time>
      </trkpt>
      <trkpt lat="42.59778" lon="2.0799">
        <ele>1674.1569824219</ele>
        <time>2011-09-11T08:08:02Z</time>
      </trkpt>
      <trkpt lat="42.5977" lon="2.07961">
        <ele>1673.4749755859</ele>
        <time>2011-09-11T08:08:05Z</time>
      </trkpt>
      <trkpt lat="42.5975" lon="2.07898">
        <ele>1671.7559814453</ele>
        <time>2011-09-11T08:08:12Z</time>
      </trkpt>
      <trkpt lat="42.59749" lon="2.0789">
        <ele>1671.6319580078</ele>
        <time>2011-09-11T08:08:13Z</time>
      </trkpt>
      <trkpt lat="42.59747" lon="2.07835">
        <ele>1671.0129394531</ele>
        <time>2011-09-11T08:08:19Z</time>
      </trkpt>
      <trkpt lat="42.59746" lon="2.07826">
        <ele>1670.9639892578</ele>
        <time>2011-09-11T08:08:20Z</time>
      </trkpt>
      <trkpt lat="42.59735" lon="2.07792">
        <ele>1670.6949462891</ele>
        <time>2011-09-11T08:08:24Z</time>
      </trkpt>
      <trkpt lat="42.59724" lon="2.07768">
        <ele>1670.6789550781</ele>
        <time>2011-09-11T08:08:27Z</time>
      </trkpt>
      <trkpt lat="42.59707" lon="2.0774">
        <ele>1670.0989990234</ele>
        <time>2011-09-11T08:08:31Z</time>
      </trkpt>
      <trkpt lat="42.59696" lon="2.07699">
        <ele>1669.5269775391</ele>
        <time>2011-09-11T08:08:36Z</time>
      </trkpt>
      <trkpt lat="42.59693" lon="2.07664">
        <ele>1669.3530273438</ele>
        <time>2011-09-11T08:08:40Z</time>
      </trkpt>
      <trkpt lat="42.597" lon="2.07634">
        <ele>1669.1340332031</ele>
        <time>2011-09-11T08:08:44Z</time>
      </trkpt>
      <trkpt lat="42.59712" lon="2.07607">
        <ele>1669.3800048828</ele>
        <time>2011-09-11T08:08:48Z</time>
      </trkpt>
      <trkpt lat="42.59719" lon="2.0757">
        <ele>1669.2220458984</ele>
        <time>2011-09-11T08:08:53Z</time>
      </trkpt>
      <trkpt lat="42.59711" lon="2.07559">
        <ele>1668.7779541016</ele>
        <time>2011-09-11T08:08:55Z</time>
      </trkpt>
      <trkpt lat="42.5968" lon="2.07523">
        <ele>1667.0080566406</ele>
        <time>2011-09-11T08:09:01Z</time>
      </trkpt>
      <trkpt lat="42.59664" lon="2.07485">
        <ele>1665.6829833984</ele>
        <time>2011-09-11T08:09:06Z</time>
      </trkpt>
      <trkpt lat="42.59666" lon="2.07477">
        <ele>1665.3210449219</ele>
        <time>2011-09-11T08:09:07Z</time>
      </trkpt>
      <trkpt lat="42.59693" lon="2.07445">
        <ele>1664.9389648438</ele>
        <time>2011-09-11T08:09:12Z</time>
      </trkpt>
      <trkpt lat="42.59698" lon="2.07442">
        <ele>1664.8869628906</ele>
        <time>2011-09-11T08:09:13Z</time>
      </trkpt>
      <trkpt lat="42.59719" lon="2.07416">
        <ele>1665.1639404297</ele>
        <time>2011-09-11T08:09:17Z</time>
      </trkpt>
      <trkpt lat="42.59726" lon="2.0738">
        <ele>1665.3129882812</ele>
        <time>2011-09-11T08:09:21Z</time>
      </trkpt>
      <trkpt lat="42.59724" lon="2.07356">
        <ele>1665.0550537109</ele>
        <time>2011-09-11T08:09:24Z</time>
      </trkpt>
      <trkpt lat="42.59723" lon="2.07349">
        <ele>1664.7760009766</ele>
        <time>2011-09-11T08:09:25Z</time>
      </trkpt>
      <trkpt lat="42.59719" lon="2.07321">
        <ele>1664.4530029297</ele>
        <time>2011-09-11T08:09:29Z</time>
      </trkpt>
      <trkpt lat="42.59722" lon="2.07286">
        <ele>1664.4649658203</ele>
        <time>2011-09-11T08:09:34Z</time>
      </trkpt>
      <trkpt lat="42.59732" lon="2.07263">
        <ele>1665.0629882812</ele>
        <time>2011-09-11T08:09:38Z</time>
      </trkpt>
      <trkpt lat="42.59747" lon="2.07231">
        <ele>1666.2430419922</ele>
        <time>2011-09-11T08:09:43Z</time>
      </trkpt>
      <trkpt lat="42.59751" lon="2.07218">
        <ele>1666.6149902344</ele>
        <time>2011-09-11T08:09:45Z</time>
      </trkpt>
      <trkpt lat="42.59754" lon="2.07197">
        <ele>1667.3310546875</ele>
        <time>2011-09-11T08:09:48Z</time>
      </trkpt>
      <trkpt lat="42.59753" lon="2.07159">
        <ele>1668.4429931641</ele>
        <time>2011-09-11T08:09:53Z</time>
      </trkpt>
      <trkpt lat="42.59756" lon="2.07095">
        <ele>1669.8919677734</ele>
        <time>2011-09-11T08:10:02Z</time>
      </trkpt>
      <trkpt lat="42.59757" lon="2.07088">
        <ele>1669.9169921875</ele>
        <time>2011-09-11T08:10:03Z</time>
      </trkpt>
      <trkpt lat="42.59756" lon="2.07077">
        <ele>1669.95703125</ele>
        <time>2011-09-11T08:10:05Z</time>
      </trkpt>
      <trkpt lat="42.59753" lon="2.07058">
        <ele>1670.1999511719</ele>
        <time>2011-09-11T08:10:08Z</time>
      </trkpt>
      <trkpt lat="42.59752" lon="2.07033">
        <ele>1670.7390136719</ele>
        <time>2011-09-11T08:10:12Z</time>
      </trkpt>
      <trkpt lat="42.59743" lon="2.07005">
        <ele>1671.3959960938</ele>
        <time>2011-09-11T08:10:17Z</time>
      </trkpt>
      <trkpt lat="42.59732" lon="2.06992">
        <ele>1671.3430175781</ele>
        <time>2011-09-11T08:10:20Z</time>
      </trkpt>
      <trkpt lat="42.59714" lon="2.06979">
        <ele>1670.7020263672</ele>
        <time>2011-09-11T08:10:24Z</time>
      </trkpt>
      <trkpt lat="42.59681" lon="2.0697">
        <ele>1669.7430419922</ele>
        <time>2011-09-11T08:10:30Z</time>
      </trkpt>
      <trkpt lat="42.59658" lon="2.06966">
        <ele>1669.7580566406</ele>
        <time>2011-09-11T08:10:34Z</time>
      </trkpt>
      <trkpt lat="42.59607" lon="2.06958">
        <ele>1670.4429931641</ele>
        <time>2011-09-11T08:10:44Z</time>
      </trkpt>
      <trkpt lat="42.59587" lon="2.06955">
        <ele>1670.7340087891</ele>
        <time>2011-09-11T08:10:48Z</time>
      </trkpt>
      <trkpt lat="42.59569" lon="2.06947">
        <ele>1670.8070068359</ele>
        <time>2011-09-11T08:10:52Z</time>
      </trkpt>
      <trkpt lat="42.5955" lon="2.06942">
        <ele>1671.3580322266</ele>
        <time>2011-09-11T08:10:56Z</time>
      </trkpt>
      <trkpt lat="42.5951" lon="2.06922">
        <ele>1672.0770263672</ele>
        <time>2011-09-11T08:11:05Z</time>
      </trkpt>
      <trkpt lat="42.59491" lon="2.06903">
        <ele>1672.2459716797</ele>
        <time>2011-09-11T08:11:11Z</time>
      </trkpt>
      <trkpt lat="42.59484" lon="2.06885">
        <ele>1673.3050537109</ele>
        <time>2011-09-11T08:11:16Z</time>
      </trkpt>
      <trkpt lat="42.59491" lon="2.06869">
        <ele>1674.1569824219</ele>
        <time>2011-09-11T08:11:20Z</time>
      </trkpt>
      <trkpt lat="42.59504" lon="2.06866">
        <ele>1675.2170410156</ele>
        <time>2011-09-11T08:11:24Z</time>
      </trkpt>
      <trkpt lat="42.59517" lon="2.06874">
        <ele>1676.2230224609</ele>
        <time>2011-09-11T08:11:28Z</time>
      </trkpt>
      <trkpt lat="42.59535" lon="2.06885">
        <ele>1677.7840576172</ele>
        <time>2011-09-11T08:11:34Z</time>
      </trkpt>
      <trkpt lat="42.59549" lon="2.06895">
        <ele>1678.4479980469</ele>
        <time>2011-09-11T08:11:39Z</time>
      </trkpt>
      <trkpt lat="42.59554" lon="2.06897">
        <ele>1678.8310546875</ele>
        <time>2011-09-11T08:11:41Z</time>
      </trkpt>
      <trkpt lat="42.59572" lon="2.06896">
        <ele>1679.6669921875</ele>
        <time>2011-09-11T08:11:46Z</time>
      </trkpt>
      <trkpt lat="42.59593" lon="2.06893">
        <ele>1680.8840332031</ele>
        <time>2011-09-11T08:11:52Z</time>
      </trkpt>
      <trkpt lat="42.59609" lon="2.06888">
        <ele>1682.0450439453</ele>
        <time>2011-09-11T08:11:57Z</time>
      </trkpt>
      <trkpt lat="42.59628" lon="2.06888">
        <ele>1683.1209716797</ele>
        <time>2011-09-11T08:12:03Z</time>
      </trkpt>
      <trkpt lat="42.59639" lon="2.0689">
        <ele>1683.4399414062</ele>
        <time>2011-09-11T08:12:07Z</time>
      </trkpt>
      <trkpt lat="42.59659" lon="2.06897">
        <ele>1684.7879638672</ele>
        <time>2011-09-11T08:12:14Z</time>
      </trkpt>
      <trkpt lat="42.59676" lon="2.06902">
        <ele>1686.6719970703</ele>
        <time>2011-09-11T08:12:20Z</time>
      </trkpt>
      <trkpt lat="42.5969" lon="2.06903">
        <ele>1688.1519775391</ele>
        <time>2011-09-11T08:12:25Z</time>
      </trkpt>
      <trkpt lat="42.59707" lon="2.06908">
        <ele>1689.6049804688</ele>
        <time>2011-09-11T08:12:31Z</time>
      </trkpt>
      <trkpt lat="42.59722" lon="2.06913">
        <ele>1690.9090576172</ele>
        <time>2011-09-11T08:12:37Z</time>
      </trkpt>
      <trkpt lat="42.59737" lon="2.0692">
        <ele>1692.16796875</ele>
        <time>2011-09-11T08:12:43Z</time>
      </trkpt>
      <trkpt lat="42.59748" lon="2.06923">
        <ele>1692.9050292969</ele>
        <time>2011-09-11T08:12:47Z</time>
      </trkpt>
      <trkpt lat="42.5976" lon="2.06929">
        <ele>1693.7690429688</ele>
        <time>2011-09-11T08:12:51Z</time>
      </trkpt>
      <trkpt lat="42.59777" lon="2.06933">
        <ele>1694.6770019531</ele>
        <time>2011-09-11T08:12:57Z</time>
      </trkpt>
      <trkpt lat="42.59781" lon="2.06933">
        <ele>1694.7979736328</ele>
        <time>2011-09-11T08:12:58Z</time>
      </trkpt>
      <trkpt lat="42.59791" lon="2.06934">
        <ele>1695.5720214844</ele>
        <time>2011-09-11T08:13:02Z</time>
      </trkpt>
      <trkpt lat="42.59811" lon="2.06933">
        <ele>1696.8929443359</ele>
        <time>2011-09-11T08:13:09Z</time>
      </trkpt>
      <trkpt lat="42.59827" lon="2.06936">
        <ele>1698.2290039062</ele>
        <time>2011-09-11T08:13:15Z</time>
      </trkpt>
      <trkpt lat="42.59845" lon="2.06934">
        <ele>1699.7359619141</ele>
        <time>2011-09-11T08:13:21Z</time>
      </trkpt>
      <trkpt lat="42.59861" lon="2.06924">
        <ele>1700.9709472656</ele>
        <time>2011-09-11T08:13:27Z</time>
      </trkpt>
      <trkpt lat="42.59871" lon="2.06908">
        <ele>1701.9949951172</ele>
        <time>2011-09-11T08:13:32Z</time>
      </trkpt>
      <trkpt lat="42.59873" lon="2.0689">
        <ele>1702.8189697266</ele>
        <time>2011-09-11T08:13:37Z</time>
      </trkpt>
      <trkpt lat="42.5987" lon="2.06867">
        <ele>1703.8420410156</ele>
        <time>2011-09-11T08:13:43Z</time>
      </trkpt>
      <trkpt lat="42.59872" lon="2.06852">
        <ele>1704.0159912109</ele>
        <time>2011-09-11T08:13:48Z</time>
      </trkpt>
      <trkpt lat="42.59872" lon="2.06837">
        <ele>1704.6059570312</ele>
        <time>2011-09-11T08:13:54Z</time>
      </trkpt>
      <trkpt lat="42.59874" lon="2.06816">
        <ele>1705.6500244141</ele>
        <time>2011-09-11T08:14:01Z</time>
      </trkpt>
      <trkpt lat="42.59875" lon="2.0679">
        <ele>1706.6049804688</ele>
        <time>2011-09-11T08:14:08Z</time>
      </trkpt>
      <trkpt lat="42.59883" lon="2.06761">
        <ele>1707.5710449219</ele>
        <time>2011-09-11T08:14:15Z</time>
      </trkpt>
      <trkpt lat="42.59893" lon="2.0673">
        <ele>1707.5260009766</ele>
        <time>2011-09-11T08:14:22Z</time>
      </trkpt>
      <trkpt lat="42.599" lon="2.0671">
        <ele>1707.4029541016</ele>
        <time>2011-09-11T08:14:26Z</time>
      </trkpt>
      <trkpt lat="42.59914" lon="2.06681">
        <ele>1707.3800048828</ele>
        <time>2011-09-11T08:14:32Z</time>
      </trkpt>
      <trkpt lat="42.59926" lon="2.06651">
        <ele>1707.2609863281</ele>
        <time>2011-09-11T08:14:37Z</time>
      </trkpt>
      <trkpt lat="42.59935" lon="2.06612">
        <ele>1707.0500488281</ele>
        <time>2011-09-11T08:14:43Z</time>
      </trkpt>
      <trkpt lat="42.59937" lon="2.06606">
        <ele>1707.0810546875</ele>
        <time>2011-09-11T08:14:44Z</time>
      </trkpt>
      <trkpt lat="42.59942" lon="2.06578">
        <ele>1706.9320068359</ele>
        <time>2011-09-11T08:14:48Z</time>
      </trkpt>
      <trkpt lat="42.5996" lon="2.06545">
        <ele>1706.3110351562</ele>
        <time>2011-09-11T08:14:53Z</time>
      </trkpt>
      <trkpt lat="42.59985" lon="2.0653">
        <ele>1705.0500488281</ele>
        <time>2011-09-11T08:14:57Z</time>
      </trkpt>
      <trkpt lat="42.59999" lon="2.06532">
        <ele>1704.3509521484</ele>
        <time>2011-09-11T08:14:59Z</time>
      </trkpt>
      <trkpt lat="42.6003" lon="2.06544">
        <ele>1703.4539794922</ele>
        <time>2011-09-11T08:15:04Z</time>
      </trkpt>
      <trkpt lat="42.60049" lon="2.06558">
        <ele>1703.7900390625</ele>
        <time>2011-09-11T08:15:08Z</time>
      </trkpt>
      <trkpt lat="42.60064" lon="2.06585">
        <ele>1704.5660400391</ele>
        <time>2011-09-11T08:15:13Z</time>
      </trkpt>
      <trkpt lat="42.60058" lon="2.06604">
        <ele>1704.8690185547</ele>
        <time>2011-09-11T08:15:15Z</time>
      </trkpt>
      <trkpt lat="42.60049" lon="2.06646">
        <ele>1704.6550292969</ele>
        <time>2011-09-11T08:15:20Z</time>
      </trkpt>
      <trkpt lat="42.60038" lon="2.06683">
        <ele>1705.3590087891</ele>
        <time>2011-09-11T08:15:25Z</time>
      </trkpt>
      <trkpt lat="42.60026" lon="2.06733">
        <ele>1706.9110107422</ele>
        <time>2011-09-11T08:15:33Z</time>
      </trkpt>
      <trkpt lat="42.60023" lon="2.06778">
        <ele>1709.1619873047</ele>
        <time>2011-09-11T08:15:41Z</time>
      </trkpt>
      <trkpt lat="42.60022" lon="2.06811">
        <ele>1710.6409912109</ele>
        <time>2011-09-11T08:15:48Z</time>
      </trkpt>
      <trkpt lat="42.60032" lon="2.06836">
        <ele>1710.5179443359</ele>
        <time>2011-09-11T08:15:53Z</time>
      </trkpt>
      <trkpt lat="42.60054" lon="2.06859">
        <ele>1710.7220458984</ele>
        <time>2011-09-11T08:15:59Z</time>
      </trkpt>
      <trkpt lat="42.60067" lon="2.0687">
        <ele>1711.6300048828</ele>
        <time>2011-09-11T08:16:02Z</time>
      </trkpt>
      <trkpt lat="42.60075" lon="2.06879">
        <ele>1711.8020019531</ele>
        <time>2011-09-11T08:16:04Z</time>
      </trkpt>
      <trkpt lat="42.60093" lon="2.06917">
        <ele>1710.2869873047</ele>
        <time>2011-09-11T08:16:10Z</time>
      </trkpt>
      <trkpt lat="42.60093" lon="2.06927">
        <ele>1709.7530517578</ele>
        <time>2011-09-11T08:16:11Z</time>
      </trkpt>
      <trkpt lat="42.60093" lon="2.06951">
        <ele>1708.7259521484</ele>
        <time>2011-09-11T08:16:13Z</time>
      </trkpt>
      <trkpt lat="42.60093" lon="2.06973">
        <ele>1707.6550292969</ele>
        <time>2011-09-11T08:16:15Z</time>
      </trkpt>
      <trkpt lat="42.60099" lon="2.07021">
        <ele>1704.4019775391</ele>
        <time>2011-09-11T08:16:19Z</time>
      </trkpt>
      <trkpt lat="42.60122" lon="2.07096">
        <ele>1697.9780273438</ele>
        <time>2011-09-11T08:16:26Z</time>
      </trkpt>
      <trkpt lat="42.60141" lon="2.07155">
        <ele>1693.3909912109</ele>
        <time>2011-09-11T08:16:31Z</time>
      </trkpt>
      <trkpt lat="42.60148" lon="2.07181">
        <ele>1692.6529541016</ele>
        <time>2011-09-11T08:16:33Z</time>
      </trkpt>
      <trkpt lat="42.60158" lon="2.07219">
        <ele>1689.2189941406</ele>
        <time>2011-09-11T08:16:36Z</time>
      </trkpt>
      <trkpt lat="42.60188" lon="2.07292">
        <ele>1683.8349609375</ele>
        <time>2011-09-11T08:16:42Z</time>
      </trkpt>
      <trkpt lat="42.60217" lon="2.0735">
        <ele>1682.0360107422</ele>
        <time>2011-09-11T08:16:47Z</time>
      </trkpt>
      <trkpt lat="42.60242" lon="2.07396">
        <ele>1681.3649902344</ele>
        <time>2011-09-11T08:16:52Z</time>
      </trkpt>
      <trkpt lat="42.60251" lon="2.07426">
        <ele>1680.8969726562</ele>
        <time>2011-09-11T08:16:55Z</time>
      </trkpt>
      <trkpt lat="42.60248" lon="2.07459">
        <ele>1678.9000244141</ele>
        <time>2011-09-11T08:16:58Z</time>
      </trkpt>
      <trkpt lat="42.60251" lon="2.07503">
        <ele>1673.6970214844</ele>
        <time>2011-09-11T08:17:02Z</time>
      </trkpt>
      <trkpt lat="42.60253" lon="2.07512">
        <ele>1672.1770019531</ele>
        <time>2011-09-11T08:17:03Z</time>
      </trkpt>
      <trkpt lat="42.60258" lon="2.07528">
        <ele>1669.9510498047</ele>
        <time>2011-09-11T08:17:05Z</time>
      </trkpt>
      <trkpt lat="42.60258" lon="2.07571">
        <ele>1664.9050292969</ele>
        <time>2011-09-11T08:17:10Z</time>
      </trkpt>
      <trkpt lat="42.6026" lon="2.07606">
        <ele>1661.9599609375</ele>
        <time>2011-09-11T08:17:13Z</time>
      </trkpt>
      <trkpt lat="42.60283" lon="2.07643">
        <ele>1658.2080078125</ele>
        <time>2011-09-11T08:17:18Z</time>
      </trkpt>
      <trkpt lat="42.60287" lon="2.0767">
        <ele>1653.9470214844</ele>
        <time>2011-09-11T08:17:22Z</time>
      </trkpt>
      <trkpt lat="42.60286" lon="2.07703">
        <ele>1651.0369873047</ele>
        <time>2011-09-11T08:17:26Z</time>
      </trkpt>
      <trkpt lat="42.60286" lon="2.07713">
        <ele>1650.1710205078</ele>
        <time>2011-09-11T08:17:27Z</time>
      </trkpt>
      <trkpt lat="42.60298" lon="2.07752">
        <ele>1647.1810302734</ele>
        <time>2011-09-11T08:17:31Z</time>
      </trkpt>
      <trkpt lat="42.60312" lon="2.0778">
        <ele>1645.3869628906</ele>
        <time>2011-09-11T08:17:34Z</time>
      </trkpt>
      <trkpt lat="42.60328" lon="2.07835">
        <ele>1643.1419677734</ele>
        <time>2011-09-11T08:17:39Z</time>
      </trkpt>
      <trkpt lat="42.60336" lon="2.07871">
        <ele>1641.5870361328</ele>
        <time>2011-09-11T08:17:42Z</time>
      </trkpt>
      <trkpt lat="42.60355" lon="2.07939">
        <ele>1637.0899658203</ele>
        <time>2011-09-11T08:17:47Z</time>
      </trkpt>
      <trkpt lat="42.6036" lon="2.07952">
        <ele>1636.1519775391</ele>
        <time>2011-09-11T08:17:48Z</time>
      </trkpt>
      <trkpt lat="42.60381" lon="2.07984">
        <ele>1634.2449951172</ele>
        <time>2011-09-11T08:17:51Z</time>
      </trkpt>
      <trkpt lat="42.60427" lon="2.08033">
        <ele>1632.5500488281</ele>
        <time>2011-09-11T08:17:57Z</time>
      </trkpt>
      <trkpt lat="42.60441" lon="2.08054">
        <ele>1631.6080322266</ele>
        <time>2011-09-11T08:17:59Z</time>
      </trkpt>
      <trkpt lat="42.60462" lon="2.08095">
        <ele>1628.7939453125</ele>
        <time>2011-09-11T08:18:03Z</time>
      </trkpt>
      <trkpt lat="42.60495" lon="2.08125">
        <ele>1624.0419921875</ele>
        <time>2011-09-11T08:18:08Z</time>
      </trkpt>
      <trkpt lat="42.60527" lon="2.08145">
        <ele>1621.1130371094</ele>
        <time>2011-09-11T08:18:12Z</time>
      </trkpt>
      <trkpt lat="42.60535" lon="2.0815">
        <ele>1620.6550292969</ele>
        <time>2011-09-11T08:18:13Z</time>
      </trkpt>
      <trkpt lat="42.60581" lon="2.08185">
        <ele>1615.5799560547</ele>
        <time>2011-09-11T08:18:18Z</time>
      </trkpt>
      <trkpt lat="42.60613" lon="2.08205">
        <ele>1614.83203125</ele>
        <time>2011-09-11T08:18:22Z</time>
      </trkpt>
      <trkpt lat="42.60629" lon="2.08211">
        <ele>1614.2249755859</ele>
        <time>2011-09-11T08:18:24Z</time>
      </trkpt>
      <trkpt lat="42.60655" lon="2.08241">
        <ele>1612.4599609375</ele>
        <time>2011-09-11T08:18:28Z</time>
      </trkpt>
      <trkpt lat="42.60666" lon="2.08258">
        <ele>1611.6429443359</ele>
        <time>2011-09-11T08:18:30Z</time>
      </trkpt>
      <trkpt lat="42.60671" lon="2.08266">
        <ele>1611.1729736328</ele>
        <time>2011-09-11T08:18:31Z</time>
      </trkpt>
      <trkpt lat="42.60685" lon="2.08293">
        <ele>1609.9890136719</ele>
        <time>2011-09-11T08:18:34Z</time>
      </trkpt>
      <trkpt lat="42.60706" lon="2.0833">
        <ele>1607.7020263672</ele>
        <time>2011-09-11T08:18:38Z</time>
      </trkpt>
      <trkpt lat="42.60736" lon="2.08364">
        <ele>1607.0589599609</ele>
        <time>2011-09-11T08:18:43Z</time>
      </trkpt>
      <trkpt lat="42.60751" lon="2.08383">
        <ele>1606.3790283203</ele>
        <time>2011-09-11T08:18:46Z</time>
      </trkpt>
      <trkpt lat="42.60769" lon="2.08412">
        <ele>1606.1810302734</ele>
        <time>2011-09-11T08:18:50Z</time>
      </trkpt>
      <trkpt lat="42.60783" lon="2.08435">
        <ele>1605.5050048828</ele>
        <time>2011-09-11T08:18:53Z</time>
      </trkpt>
      <trkpt lat="42.60791" lon="2.08472">
        <ele>1605.3050537109</ele>
        <time>2011-09-11T08:18:57Z</time>
      </trkpt>
      <trkpt lat="42.60789" lon="2.08489">
        <ele>1605.7640380859</ele>
        <time>2011-09-11T08:18:59Z</time>
      </trkpt>
      <trkpt lat="42.60789" lon="2.08523">
        <ele>1607.2559814453</ele>
        <time>2011-09-11T08:19:04Z</time>
      </trkpt>
      <trkpt lat="42.60795" lon="2.08523">
        <ele>1607.4689941406</ele>
        <time>2011-09-11T08:19:07Z</time>
      </trkpt>
      <trkpt lat="42.60795" lon="2.08511">
        <ele>1607.9110107422</ele>
        <time>2011-09-11T08:19:11Z</time>
      </trkpt>
      <trkpt lat="42.60794" lon="2.08497">
        <ele>1608.3850097656</ele>
        <time>2011-09-11T08:19:15Z</time>
      </trkpt>
      <trkpt lat="42.60795" lon="2.0849">
        <ele>1608.6190185547</ele>
        <time>2011-09-11T08:19:17Z</time>
      </trkpt>
      <trkpt lat="42.60804" lon="2.08464">
        <ele>1609.8179931641</ele>
        <time>2011-09-11T08:19:24Z</time>
      </trkpt>
      <trkpt lat="42.60814" lon="2.08448">
        <ele>1611.1719970703</ele>
        <time>2011-09-11T08:19:29Z</time>
      </trkpt>
      <trkpt lat="42.60829" lon="2.08438">
        <ele>1612.8160400391</ele>
        <time>2011-09-11T08:19:35Z</time>
      </trkpt>
      <trkpt lat="42.60847" lon="2.08438">
        <ele>1613.6839599609</ele>
        <time>2011-09-11T08:19:39Z</time>
      </trkpt>
      <trkpt lat="42.60873" lon="2.08447">
        <ele>1614.2729492188</ele>
        <time>2011-09-11T08:19:46Z</time>
      </trkpt>
      <trkpt lat="42.60889" lon="2.08452">
        <ele>1614.875</ele>
        <time>2011-09-11T08:19:51Z</time>
      </trkpt>
      <trkpt lat="42.60903" lon="2.08446">
        <ele>1615.2939453125</ele>
        <time>2011-09-11T08:19:55Z</time>
      </trkpt>
      <trkpt lat="42.60923" lon="2.08433">
        <ele>1616.16796875</ele>
        <time>2011-09-11T08:20:00Z</time>
      </trkpt>
      <trkpt lat="42.60942" lon="2.0843">
        <ele>1617.0810546875</ele>
        <time>2011-09-11T08:20:05Z</time>
      </trkpt>
      <trkpt lat="42.60965" lon="2.0844">
        <ele>1618.8520507812</ele>
        <time>2011-09-11T08:20:12Z</time>
      </trkpt>
      <trkpt lat="42.60979" lon="2.08452">
        <ele>1620.0269775391</ele>
        <time>2011-09-11T08:20:17Z</time>
      </trkpt>
      <trkpt lat="42.61001" lon="2.08465">
        <ele>1621.5699462891</ele>
        <time>2011-09-11T08:20:24Z</time>
      </trkpt>
      <trkpt lat="42.61023" lon="2.0847">
        <ele>1622.9329833984</ele>
        <time>2011-09-11T08:20:30Z</time>
      </trkpt>
      <trkpt lat="42.61042" lon="2.08471">
        <ele>1624.1379394531</ele>
        <time>2011-09-11T08:20:35Z</time>
      </trkpt>
      <trkpt lat="42.61062" lon="2.08477">
        <ele>1625.2189941406</ele>
        <time>2011-09-11T08:20:41Z</time>
      </trkpt>
      <trkpt lat="42.61085" lon="2.08485">
        <ele>1626.5799560547</ele>
        <time>2011-09-11T08:20:47Z</time>
      </trkpt>
      <trkpt lat="42.61103" lon="2.08486">
        <ele>1627.4000244141</ele>
        <time>2011-09-11T08:20:52Z</time>
      </trkpt>
      <trkpt lat="42.61121" lon="2.08479">
        <ele>1627.9470214844</ele>
        <time>2011-09-11T08:20:57Z</time>
      </trkpt>
      <trkpt lat="42.61128" lon="2.08473">
        <ele>1628.1960449219</ele>
        <time>2011-09-11T08:21:00Z</time>
      </trkpt>
      <trkpt lat="42.61139" lon="2.08486">
        <ele>1627.5069580078</ele>
        <time>2011-09-11T08:21:05Z</time>
      </trkpt>
      <trkpt lat="42.61147" lon="2.08499">
        <ele>1626.6149902344</ele>
        <time>2011-09-11T08:21:07Z</time>
      </trkpt>
      <trkpt lat="42.6116" lon="2.08523">
        <ele>1625.1500244141</ele>
        <time>2011-09-11T08:21:10Z</time>
      </trkpt>
      <trkpt lat="42.61192" lon="2.08576">
        <ele>1621.0610351562</ele>
        <time>2011-09-11T08:21:16Z</time>
      </trkpt>
      <trkpt lat="42.61217" lon="2.08614">
        <ele>1618.5729980469</ele>
        <time>2011-09-11T08:21:21Z</time>
      </trkpt>
      <trkpt lat="42.61237" lon="2.08632">
        <ele>1616.1560058594</ele>
        <time>2011-09-11T08:21:24Z</time>
      </trkpt>
      <trkpt lat="42.61262" lon="2.08663">
        <ele>1610.7939453125</ele>
        <time>2011-09-11T08:21:29Z</time>
      </trkpt>
      <trkpt lat="42.61285" lon="2.087">
        <ele>1606.9460449219</ele>
        <time>2011-09-11T08:21:33Z</time>
      </trkpt>
      <trkpt lat="42.613" lon="2.08725">
        <ele>1602.8540039062</ele>
        <time>2011-09-11T08:21:36Z</time>
      </trkpt>
      <trkpt lat="42.61303" lon="2.08731">
        <ele>1601.4270019531</ele>
        <time>2011-09-11T08:21:37Z</time>
      </trkpt>
      <trkpt lat="42.61304" lon="2.08755">
        <ele>1598.2290039062</ele>
        <time>2011-09-11T08:21:41Z</time>
      </trkpt>
      <trkpt lat="42.61295" lon="2.08795">
        <ele>1597.1080322266</ele>
        <time>2011-09-11T08:21:46Z</time>
      </trkpt>
      <trkpt lat="42.61282" lon="2.08859">
        <ele>1595.9439697266</ele>
        <time>2011-09-11T08:21:53Z</time>
      </trkpt>
      <trkpt lat="42.61269" lon="2.08915">
        <ele>1594.2939453125</ele>
        <time>2011-09-11T08:21:59Z</time>
      </trkpt>
      <trkpt lat="42.61265" lon="2.08933">
        <ele>1594.0059814453</ele>
        <time>2011-09-11T08:22:01Z</time>
      </trkpt>
      <trkpt lat="42.61254" lon="2.08967">
        <ele>1593.3890380859</ele>
        <time>2011-09-11T08:22:05Z</time>
      </trkpt>
      <trkpt lat="42.61248" lon="2.09011">
        <ele>1591.6379394531</ele>
        <time>2011-09-11T08:22:10Z</time>
      </trkpt>
      <trkpt lat="42.61245" lon="2.09056">
        <ele>1587.8459472656</ele>
        <time>2011-09-11T08:22:14Z</time>
      </trkpt>
      <trkpt lat="42.61241" lon="2.09117">
        <ele>1583.5520019531</ele>
        <time>2011-09-11T08:22:19Z</time>
      </trkpt>
      <trkpt lat="42.61241" lon="2.0914">
        <ele>1581.3699951172</ele>
        <time>2011-09-11T08:22:21Z</time>
      </trkpt>
      <trkpt lat="42.61245" lon="2.09159">
        <ele>1579.3389892578</ele>
        <time>2011-09-11T08:22:23Z</time>
      </trkpt>
      <trkpt lat="42.61255" lon="2.09191">
        <ele>1574.8590087891</ele>
        <time>2011-09-11T08:22:27Z</time>
      </trkpt>
      <trkpt lat="42.6127" lon="2.09218">
        <ele>1571.6340332031</ele>
        <time>2011-09-11T08:22:31Z</time>
      </trkpt>
      <trkpt lat="42.61279" lon="2.09243">
        <ele>1570.126953125</ele>
        <time>2011-09-11T08:22:34Z</time>
      </trkpt>
      <trkpt lat="42.61286" lon="2.09262">
        <ele>1569.1710205078</ele>
        <time>2011-09-11T08:22:36Z</time>
      </trkpt>
      <trkpt lat="42.61293" lon="2.09305">
        <ele>1567.8559570312</ele>
        <time>2011-09-11T08:22:40Z</time>
      </trkpt>
      <trkpt lat="42.61309" lon="2.09349">
        <ele>1565.4849853516</ele>
        <time>2011-09-11T08:22:44Z</time>
      </trkpt>
      <trkpt lat="42.61317" lon="2.09358">
        <ele>1564.7060546875</ele>
        <time>2011-09-11T08:22:45Z</time>
      </trkpt>
      <trkpt lat="42.61341" lon="2.09387">
        <ele>1562.8630371094</ele>
        <time>2011-09-11T08:22:48Z</time>
      </trkpt>
      <trkpt lat="42.61361" lon="2.09424">
        <ele>1560.8659667969</ele>
        <time>2011-09-11T08:22:51Z</time>
      </trkpt>
      <trkpt lat="42.61375" lon="2.09469">
        <ele>1557.7800292969</ele>
        <time>2011-09-11T08:22:54Z</time>
      </trkpt>
      <trkpt lat="42.61386" lon="2.09517">
        <ele>1554.8470458984</ele>
        <time>2011-09-11T08:22:57Z</time>
      </trkpt>
      <trkpt lat="42.61414" lon="2.0959">
        <ele>1551.6960449219</ele>
        <time>2011-09-11T08:23:02Z</time>
      </trkpt>
      <trkpt lat="42.61419" lon="2.09603">
        <ele>1551.6350097656</ele>
        <time>2011-09-11T08:23:03Z</time>
      </trkpt>
      <trkpt lat="42.61442" lon="2.09638">
        <ele>1552.5909423828</ele>
        <time>2011-09-11T08:23:07Z</time>
      </trkpt>
      <trkpt lat="42.61454" lon="2.09668">
        <ele>1554.2879638672</ele>
        <time>2011-09-11T08:23:11Z</time>
      </trkpt>
      <trkpt lat="42.61456" lon="2.09687">
        <ele>1554.251953125</ele>
        <time>2011-09-11T08:23:13Z</time>
      </trkpt>
      <trkpt lat="42.61461" lon="2.09729">
        <ele>1553.2769775391</ele>
        <time>2011-09-11T08:23:17Z</time>
      </trkpt>
      <trkpt lat="42.61474" lon="2.09779">
        <ele>1551.9630126953</ele>
        <time>2011-09-11T08:23:22Z</time>
      </trkpt>
      <trkpt lat="42.61479" lon="2.09814">
        <ele>1551.9549560547</ele>
        <time>2011-09-11T08:23:26Z</time>
      </trkpt>
      <trkpt lat="42.61484" lon="2.09866">
        <ele>1550.1059570312</ele>
        <time>2011-09-11T08:23:31Z</time>
      </trkpt>
      <trkpt lat="42.61486" lon="2.09933">
        <ele>1546.9759521484</ele>
        <time>2011-09-11T08:23:36Z</time>
      </trkpt>
      <trkpt lat="42.615" lon="2.09984">
        <ele>1544.3249511719</ele>
        <time>2011-09-11T08:23:40Z</time>
      </trkpt>
      <trkpt lat="42.61504" lon="2.09996">
        <ele>1544.0379638672</ele>
        <time>2011-09-11T08:23:41Z</time>
      </trkpt>
      <trkpt lat="42.61515" lon="2.1004">
        <ele>1541.9460449219</ele>
        <time>2011-09-11T08:23:45Z</time>
      </trkpt>
      <trkpt lat="42.61518" lon="2.10066">
        <ele>1539.6059570312</ele>
        <time>2011-09-11T08:23:48Z</time>
      </trkpt>
      <trkpt lat="42.61544" lon="2.10108">
        <ele>1537.5689697266</ele>
        <time>2011-09-11T08:23:54Z</time>
      </trkpt>
      <trkpt lat="42.61559" lon="2.10122">
        <ele>1536.6510009766</ele>
        <time>2011-09-11T08:23:57Z</time>
      </trkpt>
      <trkpt lat="42.61566" lon="2.10128">
        <ele>1535.8470458984</ele>
        <time>2011-09-11T08:23:59Z</time>
      </trkpt>
      <trkpt lat="42.61573" lon="2.10132">
        <ele>1535.1259765625</ele>
        <time>2011-09-11T08:24:01Z</time>
      </trkpt>
      <trkpt lat="42.61591" lon="2.10134">
        <ele>1535.1550292969</ele>
        <time>2011-09-11T08:24:04Z</time>
      </trkpt>
      <trkpt lat="42.61607" lon="2.10144">
        <ele>1536.4410400391</ele>
        <time>2011-09-11T08:24:08Z</time>
      </trkpt>
      <trkpt lat="42.61615" lon="2.10152">
        <ele>1536.8010253906</ele>
        <time>2011-09-11T08:24:10Z</time>
      </trkpt>
      <trkpt lat="42.61629" lon="2.10174">
        <ele>1536.8759765625</ele>
        <time>2011-09-11T08:24:14Z</time>
      </trkpt>
      <trkpt lat="42.61637" lon="2.10186">
        <ele>1536.7399902344</ele>
        <time>2011-09-11T08:24:16Z</time>
      </trkpt>
      <trkpt lat="42.61652" lon="2.10202">
        <ele>1536.1729736328</ele>
        <time>2011-09-11T08:24:19Z</time>
      </trkpt>
      <trkpt lat="42.6168" lon="2.10249">
        <ele>1535.5870361328</ele>
        <time>2011-09-11T08:24:26Z</time>
      </trkpt>
      <trkpt lat="42.61704" lon="2.10294">
        <ele>1535.3420410156</ele>
        <time>2011-09-11T08:24:32Z</time>
      </trkpt>
      <trkpt lat="42.61725" lon="2.10328">
        <ele>1535.5670166016</ele>
        <time>2011-09-11T08:24:37Z</time>
      </trkpt>
      <trkpt lat="42.61757" lon="2.10363">
        <ele>1536.6550292969</ele>
        <time>2011-09-11T08:24:44Z</time>
      </trkpt>
      <trkpt lat="42.61761" lon="2.10367">
        <ele>1536.8399658203</ele>
        <time>2011-09-11T08:24:45Z</time>
      </trkpt>
      <trkpt lat="42.61777" lon="2.10382">
        <ele>1536.9580078125</ele>
        <time>2011-09-11T08:24:49Z</time>
      </trkpt>
      <trkpt lat="42.61785" lon="2.10392">
        <ele>1536.9499511719</ele>
        <time>2011-09-11T08:24:51Z</time>
      </trkpt>
      <trkpt lat="42.61792" lon="2.10402">
        <ele>1537.0660400391</ele>
        <time>2011-09-11T08:24:53Z</time>
      </trkpt>
      <trkpt lat="42.61829" lon="2.10443">
        <ele>1537.0970458984</ele>
        <time>2011-09-11T08:25:03Z</time>
      </trkpt>
      <trkpt lat="42.61854" lon="2.10463">
        <ele>1538.6820068359</ele>
        <time>2011-09-11T08:25:09Z</time>
      </trkpt>
      <trkpt lat="42.61879" lon="2.10485">
        <ele>1541.7879638672</ele>
        <time>2011-09-11T08:25:16Z</time>
      </trkpt>
      <trkpt lat="42.61901" lon="2.10507">
        <ele>1543.2800292969</ele>
        <time>2011-09-11T08:25:22Z</time>
      </trkpt>
      <trkpt lat="42.61929" lon="2.1053">
        <ele>1544.2149658203</ele>
        <time>2011-09-11T08:25:30Z</time>
      </trkpt>
      <trkpt lat="42.61953" lon="2.10547">
        <ele>1545.5250244141</ele>
        <time>2011-09-11T08:25:37Z</time>
      </trkpt>
      <trkpt lat="42.61968" lon="2.10563">
        <ele>1547.1700439453</ele>
        <time>2011-09-11T08:25:44Z</time>
      </trkpt>
      <trkpt lat="42.61983" lon="2.10579">
        <ele>1549.1719970703</ele>
        <time>2011-09-11T08:25:52Z</time>
      </trkpt>
      <trkpt lat="42.62" lon="2.10593">
        <ele>1551.5980224609</ele>
        <time>2011-09-11T08:26:00Z</time>
      </trkpt>
      <trkpt lat="42.62013" lon="2.10602">
        <ele>1553.4090576172</ele>
        <time>2011-09-11T08:26:06Z</time>
      </trkpt>
      <trkpt lat="42.62036" lon="2.10615">
        <ele>1555.125</ele>
        <time>2011-09-11T08:26:16Z</time>
      </trkpt>
      <trkpt lat="42.62054" lon="2.10616">
        <ele>1556.0539550781</ele>
        <time>2011-09-11T08:26:23Z</time>
      </trkpt>
      <trkpt lat="42.6207" lon="2.10614">
        <ele>1556.8959960938</ele>
        <time>2011-09-11T08:26:29Z</time>
      </trkpt>
      <trkpt lat="42.62094" lon="2.10609">
        <ele>1558.2080078125</ele>
        <time>2011-09-11T08:26:38Z</time>
      </trkpt>
      <trkpt lat="42.62112" lon="2.10614">
        <ele>1559.8620605469</ele>
        <time>2011-09-11T08:26:45Z</time>
      </trkpt>
      <trkpt lat="42.62131" lon="2.10626">
        <ele>1561.5389404297</ele>
        <time>2011-09-11T08:26:53Z</time>
      </trkpt>
      <trkpt lat="42.62147" lon="2.1063">
        <ele>1563.4439697266</ele>
        <time>2011-09-11T08:26:59Z</time>
      </trkpt>
      <trkpt lat="42.6216" lon="2.10633">
        <ele>1564.7600097656</ele>
        <time>2011-09-11T08:27:05Z</time>
      </trkpt>
      <trkpt lat="42.62178" lon="2.10634">
        <ele>1564.7359619141</ele>
        <time>2011-09-11T08:27:10Z</time>
      </trkpt>
      <trkpt lat="42.62207" lon="2.10638">
        <ele>1564.7120361328</ele>
        <time>2011-09-11T08:27:16Z</time>
      </trkpt>
      <trkpt lat="42.62216" lon="2.10639">
        <ele>1564.8050537109</ele>
        <time>2011-09-11T08:27:18Z</time>
      </trkpt>
      <trkpt lat="42.62236" lon="2.10639">
        <ele>1564.8299560547</ele>
        <time>2011-09-11T08:27:22Z</time>
      </trkpt>
      <trkpt lat="42.62248" lon="2.10641">
        <ele>1564.8189697266</ele>
        <time>2011-09-11T08:27:25Z</time>
      </trkpt>
      <trkpt lat="42.62268" lon="2.10649">
        <ele>1565.8630371094</ele>
        <time>2011-09-11T08:27:30Z</time>
      </trkpt>
      <trkpt lat="42.62285" lon="2.10663">
        <ele>1567.1949462891</ele>
        <time>2011-09-11T08:27:35Z</time>
      </trkpt>
      <trkpt lat="42.623" lon="2.10671">
        <ele>1567.3890380859</ele>
        <time>2011-09-11T08:27:39Z</time>
      </trkpt>
      <trkpt lat="42.62328" lon="2.10679">
        <ele>1568.4969482422</ele>
        <time>2011-09-11T08:27:46Z</time>
      </trkpt>
      <trkpt lat="42.62346" lon="2.10685">
        <ele>1570.1120605469</ele>
        <time>2011-09-11T08:27:52Z</time>
      </trkpt>
      <trkpt lat="42.62364" lon="2.10693">
        <ele>1572.0109863281</ele>
        <time>2011-09-11T08:27:58Z</time>
      </trkpt>
      <trkpt lat="42.6238" lon="2.10697">
        <ele>1573.8060302734</ele>
        <time>2011-09-11T08:28:03Z</time>
      </trkpt>
      <trkpt lat="42.62395" lon="2.107">
        <ele>1575.3890380859</ele>
        <time>2011-09-11T08:28:08Z</time>
      </trkpt>
      <trkpt lat="42.62406" lon="2.10705">
        <ele>1576.7879638672</ele>
        <time>2011-09-11T08:28:12Z</time>
      </trkpt>
      <trkpt lat="42.62421" lon="2.10707">
        <ele>1578.3380126953</ele>
        <time>2011-09-11T08:28:19Z</time>
      </trkpt>
      <trkpt lat="42.62437" lon="2.10708">
        <ele>1580.2209472656</ele>
        <time>2011-09-11T08:28:26Z</time>
      </trkpt>
      <trkpt lat="42.62445" lon="2.10708">
        <ele>1581.16796875</ele>
        <time>2011-09-11T08:28:30Z</time>
      </trkpt>
      <trkpt lat="42.62458" lon="2.10709">
        <ele>1582.8640136719</ele>
        <time>2011-09-11T08:28:36Z</time>
      </trkpt>
      <trkpt lat="42.62472" lon="2.10711">
        <ele>1583.998046875</ele>
        <time>2011-09-11T08:28:42Z</time>
      </trkpt>
      <trkpt lat="42.62491" lon="2.10714">
        <ele>1585.1369628906</ele>
        <time>2011-09-11T08:28:50Z</time>
      </trkpt>
      <trkpt lat="42.62507" lon="2.10716">
        <ele>1586.2600097656</ele>
        <time>2011-09-11T08:28:57Z</time>
      </trkpt>
      <trkpt lat="42.62524" lon="2.1072">
        <ele>1587.08203125</ele>
        <time>2011-09-11T08:29:03Z</time>
      </trkpt>
      <trkpt lat="42.62538" lon="2.10724">
        <ele>1587.3680419922</ele>
        <time>2011-09-11T08:29:08Z</time>
      </trkpt>
      <trkpt lat="42.62562" lon="2.10728">
        <ele>1589.2679443359</ele>
        <time>2011-09-11T08:29:16Z</time>
      </trkpt>
      <trkpt lat="42.62586" lon="2.10735">
        <ele>1590.1350097656</ele>
        <time>2011-09-11T08:29:24Z</time>
      </trkpt>
      <trkpt lat="42.62606" lon="2.10744">
        <ele>1590.9129638672</ele>
        <time>2011-09-11T08:29:30Z</time>
      </trkpt>
      <trkpt lat="42.62629" lon="2.10756">
        <ele>1592.1190185547</ele>
        <time>2011-09-11T08:29:37Z</time>
      </trkpt>
      <trkpt lat="42.62649" lon="2.10758">
        <ele>1593.1529541016</ele>
        <time>2011-09-11T08:29:43Z</time>
      </trkpt>
      <trkpt lat="42.62682" lon="2.10755">
        <ele>1594.9279785156</ele>
        <time>2011-09-11T08:29:52Z</time>
      </trkpt>
      <trkpt lat="42.62704" lon="2.10747">
        <ele>1596.7139892578</ele>
        <time>2011-09-11T08:29:59Z</time>
      </trkpt>
      <trkpt lat="42.62729" lon="2.10736">
        <ele>1599.0059814453</ele>
        <time>2011-09-11T08:30:07Z</time>
      </trkpt>
      <trkpt lat="42.62756" lon="2.10727">
        <ele>1600.4549560547</ele>
        <time>2011-09-11T08:30:15Z</time>
      </trkpt>
      <trkpt lat="42.6277" lon="2.10716">
        <ele>1601.6180419922</ele>
        <time>2011-09-11T08:30:21Z</time>
      </trkpt>
      <trkpt lat="42.62774" lon="2.10712">
        <ele>1601.91796875</ele>
        <time>2011-09-11T08:30:24Z</time>
      </trkpt>
      <trkpt lat="42.62773" lon="2.10705">
        <ele>1601.873046875</ele>
        <time>2011-09-11T08:30:28Z</time>
      </trkpt>
      <trkpt lat="42.62758" lon="2.10695">
        <ele>1602.7860107422</ele>
        <time>2011-09-11T08:30:34Z</time>
      </trkpt>
      <trkpt lat="42.62745" lon="2.1069">
        <ele>1604.6920166016</ele>
        <time>2011-09-11T08:30:39Z</time>
      </trkpt>
      <trkpt lat="42.62722" lon="2.10684">
        <ele>1607.6510009766</ele>
        <time>2011-09-11T08:30:48Z</time>
      </trkpt>
      <trkpt lat="42.62704" lon="2.10673">
        <ele>1609.416015625</ele>
        <time>2011-09-11T08:30:56Z</time>
      </trkpt>
      <trkpt lat="42.62685" lon="2.10663">
        <ele>1612.1529541016</ele>
        <time>2011-09-11T08:31:05Z</time>
      </trkpt>
      <trkpt lat="42.62671" lon="2.10658">
        <ele>1614.1650390625</ele>
        <time>2011-09-11T08:31:12Z</time>
      </trkpt>
      <trkpt lat="42.62649" lon="2.10649">
        <ele>1615.998046875</ele>
        <time>2011-09-11T08:31:22Z</time>
      </trkpt>
      <trkpt lat="42.62628" lon="2.10638">
        <ele>1617.3499755859</ele>
        <time>2011-09-11T08:31:31Z</time>
      </trkpt>
      <trkpt lat="42.62611" lon="2.10629">
        <ele>1619.1789550781</ele>
        <time>2011-09-11T08:31:39Z</time>
      </trkpt>
      <trkpt lat="42.62593" lon="2.10618">
        <ele>1621.8389892578</ele>
        <time>2011-09-11T08:31:48Z</time>
      </trkpt>
      <trkpt lat="42.62579" lon="2.10606">
        <ele>1623.4090576172</ele>
        <time>2011-09-11T08:31:55Z</time>
      </trkpt>
      <trkpt lat="42.62564" lon="2.10598">
        <ele>1624.6340332031</ele>
        <time>2011-09-11T08:32:02Z</time>
      </trkpt>
      <trkpt lat="42.62544" lon="2.10588">
        <ele>1626.1350097656</ele>
        <time>2011-09-11T08:32:11Z</time>
      </trkpt>
      <trkpt lat="42.62526" lon="2.10572">
        <ele>1626.4510498047</ele>
        <time>2011-09-11T08:32:18Z</time>
      </trkpt>
      <trkpt lat="42.62498" lon="2.10547">
        <ele>1627.1409912109</ele>
        <time>2011-09-11T08:32:27Z</time>
      </trkpt>
      <trkpt lat="42.62473" lon="2.10528">
        <ele>1628.8430175781</ele>
        <time>2011-09-11T08:32:35Z</time>
      </trkpt>
      <trkpt lat="42.62455" lon="2.1052">
        <ele>1630.626953125</ele>
        <time>2011-09-11T08:32:41Z</time>
      </trkpt>
      <trkpt lat="42.62436" lon="2.10508">
        <ele>1632.6910400391</ele>
        <time>2011-09-11T08:32:48Z</time>
      </trkpt>
      <trkpt lat="42.62417" lon="2.10491">
        <ele>1634.0310058594</ele>
        <time>2011-09-11T08:32:55Z</time>
      </trkpt>
      <trkpt lat="42.62392" lon="2.10471">
        <ele>1635.6710205078</ele>
        <time>2011-09-11T08:33:04Z</time>
      </trkpt>
      <trkpt lat="42.62365" lon="2.10449">
        <ele>1636.2049560547</ele>
        <time>2011-09-11T08:33:13Z</time>
      </trkpt>
      <trkpt lat="42.62349" lon="2.10436">
        <ele>1636.7709960938</ele>
        <time>2011-09-11T08:33:19Z</time>
      </trkpt>
      <trkpt lat="42.6233" lon="2.10424">
        <ele>1638.8120117188</ele>
        <time>2011-09-11T08:33:27Z</time>
      </trkpt>
      <trkpt lat="42.62316" lon="2.10409">
        <ele>1639.9470214844</ele>
        <time>2011-09-11T08:33:34Z</time>
      </trkpt>
      <trkpt lat="42.62299" lon="2.10396">
        <ele>1641.3520507812</ele>
        <time>2011-09-11T08:33:42Z</time>
      </trkpt>
      <trkpt lat="42.62282" lon="2.10382">
        <ele>1643.2829589844</ele>
        <time>2011-09-11T08:33:50Z</time>
      </trkpt>
      <trkpt lat="42.62265" lon="2.10365">
        <ele>1646.2449951172</ele>
        <time>2011-09-11T08:33:59Z</time>
      </trkpt>
      <trkpt lat="42.6225" lon="2.10349">
        <ele>1647.0340576172</ele>
        <time>2011-09-11T08:34:07Z</time>
      </trkpt>
      <trkpt lat="42.62231" lon="2.10335">
        <ele>1647.7559814453</ele>
        <time>2011-09-11T08:34:15Z</time>
      </trkpt>
      <trkpt lat="42.6221" lon="2.10322">
        <ele>1648.7829589844</ele>
        <time>2011-09-11T08:34:23Z</time>
      </trkpt>
      <trkpt lat="42.62194" lon="2.1031">
        <ele>1649.2829589844</ele>
        <time>2011-09-11T08:34:29Z</time>
      </trkpt>
      <trkpt lat="42.6217" lon="2.10292">
        <ele>1650.0880126953</ele>
        <time>2011-09-11T08:34:36Z</time>
      </trkpt>
      <trkpt lat="42.62159" lon="2.10283">
        <ele>1650.0169677734</ele>
        <time>2011-09-11T08:34:39Z</time>
      </trkpt>
      <trkpt lat="42.62131" lon="2.10263">
        <ele>1650.7740478516</ele>
        <time>2011-09-11T08:34:47Z</time>
      </trkpt>
      <trkpt lat="42.62123" lon="2.10259">
        <ele>1650.7719726562</ele>
        <time>2011-09-11T08:34:49Z</time>
      </trkpt>
      <trkpt lat="42.6211" lon="2.10246">
        <ele>1650.9530029297</ele>
        <time>2011-09-11T08:34:53Z</time>
      </trkpt>
      <trkpt lat="42.62089" lon="2.10226">
        <ele>1650.1590576172</ele>
        <time>2011-09-11T08:34:59Z</time>
      </trkpt>
      <trkpt lat="42.62082" lon="2.10219">
        <ele>1650.4110107422</ele>
        <time>2011-09-11T08:35:01Z</time>
      </trkpt>
      <trkpt lat="42.62056" lon="2.10182">
        <ele>1650.8249511719</ele>
        <time>2011-09-11T08:35:10Z</time>
      </trkpt>
      <trkpt lat="42.62043" lon="2.10164">
        <ele>1652.1359863281</ele>
        <time>2011-09-11T08:35:15Z</time>
      </trkpt>
      <trkpt lat="42.62029" lon="2.10147">
        <ele>1652.8830566406</ele>
        <time>2011-09-11T08:35:20Z</time>
      </trkpt>
      <trkpt lat="42.6201" lon="2.10129">
        <ele>1653.7010498047</ele>
        <time>2011-09-11T08:35:26Z</time>
      </trkpt>
      <trkpt lat="42.61985" lon="2.101">
        <ele>1655.123046875</ele>
        <time>2011-09-11T08:35:35Z</time>
      </trkpt>
      <trkpt lat="42.61961" lon="2.10069">
        <ele>1656.6519775391</ele>
        <time>2011-09-11T08:35:44Z</time>
      </trkpt>
      <trkpt lat="42.6194" lon="2.10037">
        <ele>1658.0810546875</ele>
        <time>2011-09-11T08:35:53Z</time>
      </trkpt>
      <trkpt lat="42.61925" lon="2.10011">
        <ele>1659.7249755859</ele>
        <time>2011-09-11T08:36:00Z</time>
      </trkpt>
      <trkpt lat="42.6191" lon="2.09981">
        <ele>1659.6960449219</ele>
        <time>2011-09-11T08:36:07Z</time>
      </trkpt>
      <trkpt lat="42.61892" lon="2.09947">
        <ele>1660.5290527344</ele>
        <time>2011-09-11T08:36:15Z</time>
      </trkpt>
      <trkpt lat="42.61883" lon="2.09928">
        <ele>1660.9909667969</ele>
        <time>2011-09-11T08:36:19Z</time>
      </trkpt>
      <trkpt lat="42.61879" lon="2.09917">
        <ele>1661.0849609375</ele>
        <time>2011-09-11T08:36:21Z</time>
      </trkpt>
      <trkpt lat="42.61862" lon="2.09879">
        <ele>1660.0319824219</ele>
        <time>2011-09-11T08:36:28Z</time>
      </trkpt>
      <trkpt lat="42.61853" lon="2.09853">
        <ele>1658.6400146484</ele>
        <time>2011-09-11T08:36:31Z</time>
      </trkpt>
      <trkpt lat="42.61835" lon="2.09798">
        <ele>1654.7290039062</ele>
        <time>2011-09-11T08:36:36Z</time>
      </trkpt>
      <trkpt lat="42.61827" lon="2.09754">
        <ele>1651.9689941406</ele>
        <time>2011-09-11T08:36:40Z</time>
      </trkpt>
      <trkpt lat="42.61821" lon="2.09712">
        <ele>1649.9510498047</ele>
        <time>2011-09-11T08:36:44Z</time>
      </trkpt>
      <trkpt lat="42.61812" lon="2.09668">
        <ele>1649.3800048828</ele>
        <time>2011-09-11T08:36:49Z</time>
      </trkpt>
      <trkpt lat="42.61811" lon="2.09652">
        <ele>1649.1879882812</ele>
        <time>2011-09-11T08:36:51Z</time>
      </trkpt>
      <trkpt lat="42.61804" lon="2.09592">
        <ele>1648.2939453125</ele>
        <time>2011-09-11T08:36:58Z</time>
      </trkpt>
      <trkpt lat="42.61801" lon="2.09567">
        <ele>1648.0290527344</ele>
        <time>2011-09-11T08:37:01Z</time>
      </trkpt>
      <trkpt lat="42.61797" lon="2.09531">
        <ele>1647.4210205078</ele>
        <time>2011-09-11T08:37:05Z</time>
      </trkpt>
      <trkpt lat="42.61793" lon="2.09513">
        <ele>1646.8360595703</ele>
        <time>2011-09-11T08:37:07Z</time>
      </trkpt>
      <trkpt lat="42.61777" lon="2.0948">
        <ele>1645.3909912109</ele>
        <time>2011-09-11T08:37:11Z</time>
      </trkpt>
      <trkpt lat="42.61769" lon="2.09442">
        <ele>1644.3690185547</ele>
        <time>2011-09-11T08:37:16Z</time>
      </trkpt>
      <trkpt lat="42.61778" lon="2.09442">
        <ele>1643.5229492188</ele>
        <time>2011-09-11T08:37:18Z</time>
      </trkpt>
      <trkpt lat="42.61794" lon="2.09442">
        <ele>1641.1540527344</ele>
        <time>2011-09-11T08:37:22Z</time>
      </trkpt>
      <trkpt lat="42.61807" lon="2.0942">
        <ele>1638.3399658203</ele>
        <time>2011-09-11T08:37:25Z</time>
      </trkpt>
      <trkpt lat="42.61814" lon="2.09404">
        <ele>1635.7829589844</ele>
        <time>2011-09-11T08:37:27Z</time>
      </trkpt>
      <trkpt lat="42.61816" lon="2.09397">
        <ele>1632.6409912109</ele>
        <time>2011-09-11T08:37:30Z</time>
      </trkpt>
      <trkpt lat="42.61817" lon="2.09396">
        <ele>1632.0009765625</ele>
        <time>2011-09-11T08:37:31Z</time>
      </trkpt>
      <trkpt lat="42.61815" lon="2.09407">
        <ele>1633.3299560547</ele>
        <time>2011-09-11T08:37:38Z</time>
      </trkpt>
      <trkpt lat="42.61815" lon="2.09408">
        <ele>1633.4050292969</ele>
        <time>2011-09-11T08:37:39Z</time>
      </trkpt>
      <trkpt lat="42.61826" lon="2.09427">
        <ele>1631.4730224609</ele>
        <time>2011-09-11T08:37:45Z</time>
      </trkpt>
      <trkpt lat="42.61836" lon="2.09441">
        <ele>1629.0959472656</ele>
        <time>2011-09-11T08:37:47Z</time>
      </trkpt>
      <trkpt lat="42.61843" lon="2.09449">
        <ele>1626.4510498047</ele>
        <time>2011-09-11T08:37:49Z</time>
      </trkpt>
      <trkpt lat="42.61861" lon="2.09464">
        <ele>1620.7810058594</ele>
        <time>2011-09-11T08:37:54Z</time>
      </trkpt>
      <trkpt lat="42.61876" lon="2.09473">
        <ele>1615.3430175781</ele>
        <time>2011-09-11T08:37:59Z</time>
      </trkpt>
      <trkpt lat="42.6188" lon="2.09475">
        <ele>1613.2419433594</ele>
        <time>2011-09-11T08:38:01Z</time>
      </trkpt>
      <trkpt lat="42.61894" lon="2.09483">
        <ele>1608.0200195312</ele>
        <time>2011-09-11T08:38:06Z</time>
      </trkpt>
      <trkpt lat="42.61899" lon="2.09487">
        <ele>1606.3360595703</ele>
        <time>2011-09-11T08:38:08Z</time>
      </trkpt>
      <trkpt lat="42.61911" lon="2.09493">
        <ele>1600.9279785156</ele>
        <time>2011-09-11T08:38:14Z</time>
      </trkpt>
      <trkpt lat="42.61916" lon="2.09512">
        <ele>1597.1159667969</ele>
        <time>2011-09-11T08:38:19Z</time>
      </trkpt>
      <trkpt lat="42.61924" lon="2.09524">
        <ele>1593.8859863281</ele>
        <time>2011-09-11T08:38:23Z</time>
      </trkpt>
      <trkpt lat="42.61932" lon="2.09535">
        <ele>1591.1510009766</ele>
        <time>2011-09-11T08:38:27Z</time>
      </trkpt>
      <trkpt lat="42.61943" lon="2.09549">
        <ele>1586.9790039062</ele>
        <time>2011-09-11T08:38:32Z</time>
      </trkpt>
      <trkpt lat="42.61953" lon="2.09553">
        <ele>1584.5050048828</ele>
        <time>2011-09-11T08:38:35Z</time>
      </trkpt>
      <trkpt lat="42.61971" lon="2.09566">
        <ele>1580.5789794922</ele>
        <time>2011-09-11T08:38:39Z</time>
      </trkpt>
      <trkpt lat="42.61993" lon="2.0959">
        <ele>1576.8759765625</ele>
        <time>2011-09-11T08:38:43Z</time>
      </trkpt>
      <trkpt lat="42.62009" lon="2.09609">
        <ele>1573.3940429688</ele>
        <time>2011-09-11T08:38:47Z</time>
      </trkpt>
      <trkpt lat="42.62025" lon="2.0962">
        <ele>1569.2969970703</ele>
        <time>2011-09-11T08:38:51Z</time>
      </trkpt>
      <trkpt lat="42.62037" lon="2.09626">
        <ele>1565.4599609375</ele>
        <time>2011-09-11T08:38:55Z</time>
      </trkpt>
      <trkpt lat="42.62052" lon="2.0963">
        <ele>1560.8189697266</ele>
        <time>2011-09-11T08:39:00Z</time>
      </trkpt>
      <trkpt lat="42.62061" lon="2.09636">
        <ele>1557.6999511719</ele>
        <time>2011-09-11T08:39:03Z</time>
      </trkpt>
      <trkpt lat="42.62088" lon="2.09651">
        <ele>1552.7790527344</ele>
        <time>2011-09-11T08:39:08Z</time>
      </trkpt>
      <trkpt lat="42.62093" lon="2.09658">
        <ele>1552.3649902344</ele>
        <time>2011-09-11T08:39:09Z</time>
      </trkpt>
      <trkpt lat="42.6212" lon="2.09691">
        <ele>1548.6829833984</ele>
        <time>2011-09-11T08:39:13Z</time>
      </trkpt>
      <trkpt lat="42.62144" lon="2.09712">
        <ele>1545.8570556641</ele>
        <time>2011-09-11T08:39:16Z</time>
      </trkpt>
      <trkpt lat="42.62175" lon="2.09714">
        <ele>1541.41796875</ele>
        <time>2011-09-11T08:39:20Z</time>
      </trkpt>
      <trkpt lat="42.62206" lon="2.09706">
        <ele>1537.1560058594</ele>
        <time>2011-09-11T08:39:24Z</time>
      </trkpt>
      <trkpt lat="42.62221" lon="2.09714">
        <ele>1536.0489501953</ele>
        <time>2011-09-11T08:39:26Z</time>
      </trkpt>
      <trkpt lat="42.62252" lon="2.09721">
        <ele>1534.79296875</ele>
        <time>2011-09-11T08:39:30Z</time>
      </trkpt>
      <trkpt lat="42.62265" lon="2.09711">
        <ele>1534.4799804688</ele>
        <time>2011-09-11T08:39:33Z</time>
      </trkpt>
      <trkpt lat="42.62267" lon="2.09708">
        <ele>1534.0799560547</ele>
        <time>2011-09-11T08:39:36Z</time>
      </trkpt>
      <trkpt lat="42.62262" lon="2.09715">
        <ele>1533.8580322266</ele>
        <time>2011-09-11T08:39:41Z</time>
      </trkpt>
      <trkpt lat="42.62259" lon="2.09742">
        <ele>1533.458984375</ele>
        <time>2011-09-11T08:39:46Z</time>
      </trkpt>
      <trkpt lat="42.62262" lon="2.09747">
        <ele>1533.1839599609</ele>
        <time>2011-09-11T08:39:47Z</time>
      </trkpt>
      <trkpt lat="42.62273" lon="2.09765">
        <ele>1532.5229492188</ele>
        <time>2011-09-11T08:39:50Z</time>
      </trkpt>
      <trkpt lat="42.62289" lon="2.09779">
        <ele>1532.2370605469</ele>
        <time>2011-09-11T08:39:53Z</time>
      </trkpt>
      <trkpt lat="42.62308" lon="2.09801">
        <ele>1531.9930419922</ele>
        <time>2011-09-11T08:39:57Z</time>
      </trkpt>
      <trkpt lat="42.62334" lon="2.09861">
        <ele>1531.3470458984</ele>
        <time>2011-09-11T08:40:05Z</time>
      </trkpt>
      <trkpt lat="42.62366" lon="2.09925">
        <ele>1530.3249511719</ele>
        <time>2011-09-11T08:40:13Z</time>
      </trkpt>
      <trkpt lat="42.6237" lon="2.09933">
        <ele>1530.2609863281</ele>
        <time>2011-09-11T08:40:14Z</time>
      </trkpt>
      <trkpt lat="42.62391" lon="2.09957">
        <ele>1530.1839599609</ele>
        <time>2011-09-11T08:40:18Z</time>
      </trkpt>
      <trkpt lat="42.62423" lon="2.09977">
        <ele>1529.3540039062</ele>
        <time>2011-09-11T08:40:23Z</time>
      </trkpt>
      <trkpt lat="42.62472" lon="2.10005">
        <ele>1528.4320068359</ele>
        <time>2011-09-11T08:40:30Z</time>
      </trkpt>
      <trkpt lat="42.62502" lon="2.10028">
        <ele>1528.9730224609</ele>
        <time>2011-09-11T08:40:35Z</time>
      </trkpt>
      <trkpt lat="42.6251" lon="2.10035">
        <ele>1529.5699462891</ele>
        <time>2011-09-11T08:40:37Z</time>
      </trkpt>
      <trkpt lat="42.62522" lon="2.1005">
        <ele>1530.1219482422</ele>
        <time>2011-09-11T08:40:40Z</time>
      </trkpt>
      <trkpt lat="42.62528" lon="2.10061">
        <ele>1530.3570556641</ele>
        <time>2011-09-11T08:40:42Z</time>
      </trkpt>
      <trkpt lat="42.62552" lon="2.10086">
        <ele>1530.2110595703</ele>
        <time>2011-09-11T08:40:47Z</time>
      </trkpt>
      <trkpt lat="42.62577" lon="2.10106">
        <ele>1529.1490478516</ele>
        <time>2011-09-11T08:40:51Z</time>
      </trkpt>
      <trkpt lat="42.62603" lon="2.10124">
        <ele>1527.9709472656</ele>
        <time>2011-09-11T08:40:55Z</time>
      </trkpt>
      <trkpt lat="42.62621" lon="2.10139">
        <ele>1527.4809570312</ele>
        <time>2011-09-11T08:40:58Z</time>
      </trkpt>
      <trkpt lat="42.62645" lon="2.10159">
        <ele>1526.7950439453</ele>
        <time>2011-09-11T08:41:02Z</time>
      </trkpt>
      <trkpt lat="42.62666" lon="2.10172">
        <ele>1526.0739746094</ele>
        <time>2011-09-11T08:41:05Z</time>
      </trkpt>
      <trkpt lat="42.62693" lon="2.1018">
        <ele>1525.3850097656</ele>
        <time>2011-09-11T08:41:08Z</time>
      </trkpt>
      <trkpt lat="42.62734" lon="2.10212">
        <ele>1523.8950195312</ele>
        <time>2011-09-11T08:41:14Z</time>
      </trkpt>
      <trkpt lat="42.62741" lon="2.10216">
        <ele>1523.7309570312</ele>
        <time>2011-09-11T08:41:15Z</time>
      </trkpt>
      <trkpt lat="42.62769" lon="2.10235">
        <ele>1523.0200195312</ele>
        <time>2011-09-11T08:41:19Z</time>
      </trkpt>
      <trkpt lat="42.62795" lon="2.1027">
        <ele>1522.0620117188</ele>
        <time>2011-09-11T08:41:24Z</time>
      </trkpt>
      <trkpt lat="42.62823" lon="2.10286">
        <ele>1521.6049804688</ele>
        <time>2011-09-11T08:41:28Z</time>
      </trkpt>
      <trkpt lat="42.62854" lon="2.10312">
        <ele>1521.6579589844</ele>
        <time>2011-09-11T08:41:33Z</time>
      </trkpt>
      <trkpt lat="42.62908" lon="2.10347">
        <ele>1520.9069824219</ele>
        <time>2011-09-11T08:41:41Z</time>
      </trkpt>
      <trkpt lat="42.62947" lon="2.10367">
        <ele>1520.3869628906</ele>
        <time>2011-09-11T08:41:47Z</time>
      </trkpt>
      <trkpt lat="42.62978" lon="2.10382">
        <ele>1518.2209472656</ele>
        <time>2011-09-11T08:41:51Z</time>
      </trkpt>
      <trkpt lat="42.62995" lon="2.10386">
        <ele>1517.1409912109</ele>
        <time>2011-09-11T08:41:53Z</time>
      </trkpt>
      <trkpt lat="42.63018" lon="2.10378">
        <ele>1512.4549560547</ele>
        <time>2011-09-11T08:41:57Z</time>
      </trkpt>
      <trkpt lat="42.63033" lon="2.10356">
        <ele>1509.6650390625</ele>
        <time>2011-09-11T08:42:00Z</time>
      </trkpt>
      <trkpt lat="42.63036" lon="2.10347">
        <ele>1508.7580566406</ele>
        <time>2011-09-11T08:42:01Z</time>
      </trkpt>
      <trkpt lat="42.63043" lon="2.1033">
        <ele>1507.0729980469</ele>
        <time>2011-09-11T08:42:03Z</time>
      </trkpt>
      <trkpt lat="42.63077" lon="2.10297">
        <ele>1503.7039794922</ele>
        <time>2011-09-11T08:42:08Z</time>
      </trkpt>
      <trkpt lat="42.63115" lon="2.10268">
        <ele>1502.3289794922</ele>
        <time>2011-09-11T08:42:14Z</time>
      </trkpt>
      <trkpt lat="42.63121" lon="2.10248">
        <ele>1503.6090087891</ele>
        <time>2011-09-11T08:42:17Z</time>
      </trkpt>
      <trkpt lat="42.63127" lon="2.10226">
        <ele>1504.3719482422</ele>
        <time>2011-09-11T08:42:20Z</time>
      </trkpt>
      <trkpt lat="42.63126" lon="2.1021">
        <ele>1505.6109619141</ele>
        <time>2011-09-11T08:42:23Z</time>
      </trkpt>
      <trkpt lat="42.63122" lon="2.10207">
        <ele>1506.0949707031</ele>
        <time>2011-09-11T08:42:24Z</time>
      </trkpt>
      <trkpt lat="42.631" lon="2.10197">
        <ele>1507.1689453125</ele>
        <time>2011-09-11T08:42:29Z</time>
      </trkpt>
      <trkpt lat="42.63057" lon="2.10174">
        <ele>1508.8549804688</ele>
        <time>2011-09-11T08:42:39Z</time>
      </trkpt>
      <trkpt lat="42.6302" lon="2.10156">
        <ele>1511.2380371094</ele>
        <time>2011-09-11T08:42:48Z</time>
      </trkpt>
      <trkpt lat="42.62978" lon="2.10139">
        <ele>1513.3289794922</ele>
        <time>2011-09-11T08:42:58Z</time>
      </trkpt>
      <trkpt lat="42.6295" lon="2.10126">
        <ele>1514.6130371094</ele>
        <time>2011-09-11T08:43:05Z</time>
      </trkpt>
      <trkpt lat="42.62916" lon="2.10111">
        <ele>1516.2209472656</ele>
        <time>2011-09-11T08:43:14Z</time>
      </trkpt>
      <trkpt lat="42.62901" lon="2.10104">
        <ele>1516.0959472656</ele>
        <time>2011-09-11T08:43:20Z</time>
      </trkpt>
      <trkpt lat="42.62899" lon="2.10092">
        <ele>1516.4539794922</ele>
        <time>2011-09-11T08:43:24Z</time>
      </trkpt>
      <trkpt lat="42.62915" lon="2.10066">
        <ele>1517</ele>
        <time>2011-09-11T08:43:33Z</time>
      </trkpt>
      <trkpt lat="42.6293" lon="2.10046">
        <ele>1518.0939941406</ele>
        <time>2011-09-11T08:43:41Z</time>
      </trkpt>
      <trkpt lat="42.62949" lon="2.10032">
        <ele>1518.9250488281</ele>
        <time>2011-09-11T08:43:49Z</time>
      </trkpt>
      <trkpt lat="42.62963" lon="2.10027">
        <ele>1520.0710449219</ele>
        <time>2011-09-11T08:43:55Z</time>
      </trkpt>
      <trkpt lat="42.6297" lon="2.10029">
        <ele>1521.0520019531</ele>
        <time>2011-09-11T08:43:59Z</time>
      </trkpt>
      <trkpt lat="42.62984" lon="2.10035">
        <ele>1523.0610351562</ele>
        <time>2011-09-11T08:44:06Z</time>
      </trkpt>
      <trkpt lat="42.62986" lon="2.10037">
        <ele>1523.1159667969</ele>
        <time>2011-09-11T08:44:07Z</time>
      </trkpt>
      <trkpt lat="42.62996" lon="2.10045">
        <ele>1523.375</ele>
        <time>2011-09-11T08:44:12Z</time>
      </trkpt>
      <trkpt lat="42.63011" lon="2.10055">
        <ele>1523.2669677734</ele>
        <time>2011-09-11T08:44:18Z</time>
      </trkpt>
      <trkpt lat="42.63028" lon="2.10061">
        <ele>1523.7120361328</ele>
        <time>2011-09-11T08:44:25Z</time>
      </trkpt>
      <trkpt lat="42.63039" lon="2.10066">
        <ele>1524.7600097656</ele>
        <time>2011-09-11T08:44:30Z</time>
      </trkpt>
      <trkpt lat="42.63053" lon="2.10071">
        <ele>1525.7449951172</ele>
        <time>2011-09-11T08:44:36Z</time>
      </trkpt>
      <trkpt lat="42.63059" lon="2.10077">
        <ele>1525.9649658203</ele>
        <time>2011-09-11T08:44:39Z</time>
      </trkpt>
      <trkpt lat="42.63074" lon="2.1008">
        <ele>1525.9620361328</ele>
        <time>2011-09-11T08:44:44Z</time>
      </trkpt>
      <trkpt lat="42.63099" lon="2.10088">
        <ele>1526.0450439453</ele>
        <time>2011-09-11T08:44:52Z</time>
      </trkpt>
      <trkpt lat="42.63114" lon="2.10092">
        <ele>1526.7139892578</ele>
        <time>2011-09-11T08:44:57Z</time>
      </trkpt>
      <trkpt lat="42.63124" lon="2.10093">
        <ele>1527.4150390625</ele>
        <time>2011-09-11T08:45:01Z</time>
      </trkpt>
      <trkpt lat="42.63144" lon="2.10104">
        <ele>1527.8669433594</ele>
        <time>2011-09-11T08:45:08Z</time>
      </trkpt>
      <trkpt lat="42.63168" lon="2.1011">
        <ele>1527.8280029297</ele>
        <time>2011-09-11T08:45:15Z</time>
      </trkpt>
      <trkpt lat="42.63186" lon="2.1011">
        <ele>1528.7270507812</ele>
        <time>2011-09-11T08:45:21Z</time>
      </trkpt>
      <trkpt lat="42.63209" lon="2.10111">
        <ele>1530.7659912109</ele>
        <time>2011-09-11T08:45:29Z</time>
      </trkpt>
      <trkpt lat="42.63219" lon="2.10113">
        <ele>1531.8649902344</ele>
        <time>2011-09-11T08:45:33Z</time>
      </trkpt>
      <trkpt lat="42.63236" lon="2.10113">
        <ele>1533.9119873047</ele>
        <time>2011-09-11T08:45:40Z</time>
      </trkpt>
      <trkpt lat="42.63251" lon="2.10114">
        <ele>1535.5379638672</ele>
        <time>2011-09-11T08:45:46Z</time>
      </trkpt>
      <trkpt lat="42.63263" lon="2.10115">
        <ele>1537.0279541016</ele>
        <time>2011-09-11T08:45:52Z</time>
      </trkpt>
      <trkpt lat="42.63272" lon="2.10117">
        <ele>1538.3590087891</ele>
        <time>2011-09-11T08:45:57Z</time>
      </trkpt>
      <trkpt lat="42.63287" lon="2.10121">
        <ele>1540.3430175781</ele>
        <time>2011-09-11T08:46:03Z</time>
      </trkpt>
      <trkpt lat="42.63303" lon="2.10126">
        <ele>1541.4739990234</ele>
        <time>2011-09-11T08:46:09Z</time>
      </trkpt>
      <trkpt lat="42.63322" lon="2.10134">
        <ele>1542.2779541016</ele>
        <time>2011-09-11T08:46:16Z</time>
      </trkpt>
      <trkpt lat="42.63343" lon="2.10132">
        <ele>1543.1939697266</ele>
        <time>2011-09-11T08:46:23Z</time>
      </trkpt>
      <trkpt lat="42.63355" lon="2.10123">
        <ele>1544.2760009766</ele>
        <time>2011-09-11T08:46:28Z</time>
      </trkpt>
      <trkpt lat="42.63362" lon="2.10111">
        <ele>1545.58203125</ele>
        <time>2011-09-11T08:46:33Z</time>
      </trkpt>
      <trkpt lat="42.63369" lon="2.10091">
        <ele>1545.3950195312</ele>
        <time>2011-09-11T08:46:39Z</time>
      </trkpt>
      <trkpt lat="42.63378" lon="2.10072">
        <ele>1543.2559814453</ele>
        <time>2011-09-11T08:46:44Z</time>
      </trkpt>
      <trkpt lat="42.63385" lon="2.10055">
        <ele>1542.0710449219</ele>
        <time>2011-09-11T08:46:47Z</time>
      </trkpt>
      <trkpt lat="42.63393" lon="2.10041">
        <ele>1540.7969970703</ele>
        <time>2011-09-11T08:46:49Z</time>
      </trkpt>
      <trkpt lat="42.63412" lon="2.10007">
        <ele>1535.7850341797</ele>
        <time>2011-09-11T08:46:54Z</time>
      </trkpt>
      <trkpt lat="42.63416" lon="2.1">
        <ele>1534.2550048828</ele>
        <time>2011-09-11T08:46:55Z</time>
      </trkpt>
      <trkpt lat="42.63428" lon="2.09981">
        <ele>1530.8050537109</ele>
        <time>2011-09-11T08:46:58Z</time>
      </trkpt>
      <trkpt lat="42.6344" lon="2.09962">
        <ele>1527.3280029297</ele>
        <time>2011-09-11T08:47:01Z</time>
      </trkpt>
      <trkpt lat="42.63448" lon="2.0995">
        <ele>1525.6739501953</ele>
        <time>2011-09-11T08:47:03Z</time>
      </trkpt>
      <trkpt lat="42.63473" lon="2.0992">
        <ele>1520.9250488281</ele>
        <time>2011-09-11T08:47:08Z</time>
      </trkpt>
      <trkpt lat="42.63502" lon="2.09886">
        <ele>1515.7340087891</ele>
        <time>2011-09-11T08:47:13Z</time>
      </trkpt>
      <trkpt lat="42.63512" lon="2.09871">
        <ele>1513.6090087891</ele>
        <time>2011-09-11T08:47:15Z</time>
      </trkpt>
      <trkpt lat="42.63536" lon="2.0984">
        <ele>1510.1190185547</ele>
        <time>2011-09-11T08:47:19Z</time>
      </trkpt>
      <trkpt lat="42.63543" lon="2.09827">
        <ele>1508.3830566406</ele>
        <time>2011-09-11T08:47:21Z</time>
      </trkpt>
      <trkpt lat="42.63563" lon="2.09811">
        <ele>1506.2690429688</ele>
        <time>2011-09-11T08:47:25Z</time>
      </trkpt>
      <trkpt lat="42.6361" lon="2.09781">
        <ele>1503.4859619141</ele>
        <time>2011-09-11T08:47:32Z</time>
      </trkpt>
      <trkpt lat="42.63631" lon="2.09746">
        <ele>1501.3039550781</ele>
        <time>2011-09-11T08:47:36Z</time>
      </trkpt>
      <trkpt lat="42.63648" lon="2.09744">
        <ele>1499.7469482422</ele>
        <time>2011-09-11T08:47:40Z</time>
      </trkpt>
      <trkpt lat="42.63651" lon="2.09751">
        <ele>1499.5980224609</ele>
        <time>2011-09-11T08:47:41Z</time>
      </trkpt>
      <trkpt lat="42.63674" lon="2.09804">
        <ele>1498.9389648438</ele>
        <time>2011-09-11T08:47:48Z</time>
      </trkpt>
      <trkpt lat="42.63696" lon="2.09867">
        <ele>1497.5949707031</ele>
        <time>2011-09-11T08:47:55Z</time>
      </trkpt>
      <trkpt lat="42.63721" lon="2.0994">
        <ele>1496.0589599609</ele>
        <time>2011-09-11T08:48:03Z</time>
      </trkpt>
      <trkpt lat="42.63734" lon="2.09965">
        <ele>1495.3299560547</ele>
        <time>2011-09-11T08:48:06Z</time>
      </trkpt>
      <trkpt lat="42.63776" lon="2.10013">
        <ele>1493.9510498047</ele>
        <time>2011-09-11T08:48:13Z</time>
      </trkpt>
      <trkpt lat="42.63818" lon="2.10061">
        <ele>1492.6779785156</ele>
        <time>2011-09-11T08:48:19Z</time>
      </trkpt>
      <trkpt lat="42.63868" lon="2.10116">
        <ele>1491.6579589844</ele>
        <time>2011-09-11T08:48:26Z</time>
      </trkpt>
      <trkpt lat="42.639" lon="2.10157">
        <ele>1492.4930419922</ele>
        <time>2011-09-11T08:48:31Z</time>
      </trkpt>
      <trkpt lat="42.63916" lon="2.10186">
        <ele>1492.1459960938</ele>
        <time>2011-09-11T08:48:34Z</time>
      </trkpt>
      <trkpt lat="42.63938" lon="2.10253">
        <ele>1492.0689697266</ele>
        <time>2011-09-11T08:48:40Z</time>
      </trkpt>
      <trkpt lat="42.63954" lon="2.10297">
        <ele>1492.2299804688</ele>
        <time>2011-09-11T08:48:44Z</time>
      </trkpt>
      <trkpt lat="42.63964" lon="2.10316">
        <ele>1492.3409423828</ele>
        <time>2011-09-11T08:48:46Z</time>
      </trkpt>
      <trkpt lat="42.63986" lon="2.1035">
        <ele>1492.6560058594</ele>
        <time>2011-09-11T08:48:50Z</time>
      </trkpt>
      <trkpt lat="42.64" lon="2.104">
        <ele>1492.7700195312</ele>
        <time>2011-09-11T08:48:55Z</time>
      </trkpt>
      <trkpt lat="42.63998" lon="2.10439">
        <ele>1493.4479980469</ele>
        <time>2011-09-11T08:48:59Z</time>
      </trkpt>
      <trkpt lat="42.63987" lon="2.10462">
        <ele>1493.7099609375</ele>
        <time>2011-09-11T08:49:02Z</time>
      </trkpt>
      <trkpt lat="42.63983" lon="2.10468">
        <ele>1493.4780273438</ele>
        <time>2011-09-11T08:49:03Z</time>
      </trkpt>
      <trkpt lat="42.6397" lon="2.10511">
        <ele>1491.6760253906</ele>
        <time>2011-09-11T08:49:08Z</time>
      </trkpt>
      <trkpt lat="42.63974" lon="2.10539">
        <ele>1490.5159912109</ele>
        <time>2011-09-11T08:49:11Z</time>
      </trkpt>
      <trkpt lat="42.63977" lon="2.10547">
        <ele>1490.2399902344</ele>
        <time>2011-09-11T08:49:12Z</time>
      </trkpt>
      <trkpt lat="42.63984" lon="2.10563">
        <ele>1490.0579833984</ele>
        <time>2011-09-11T08:49:14Z</time>
      </trkpt>
      <trkpt lat="42.6399" lon="2.10612">
        <ele>1489.5579833984</ele>
        <time>2011-09-11T08:49:19Z</time>
      </trkpt>
      <trkpt lat="42.6399" lon="2.10642">
        <ele>1488.833984375</ele>
        <time>2011-09-11T08:49:22Z</time>
      </trkpt>
      <trkpt lat="42.63997" lon="2.10678">
        <ele>1488.1190185547</ele>
        <time>2011-09-11T08:49:26Z</time>
      </trkpt>
      <trkpt lat="42.64016" lon="2.10709">
        <ele>1487.2359619141</ele>
        <time>2011-09-11T08:49:30Z</time>
      </trkpt>
      <trkpt lat="42.6404" lon="2.10747">
        <ele>1485.9129638672</ele>
        <time>2011-09-11T08:49:34Z</time>
      </trkpt>
      <trkpt lat="42.6405" lon="2.10797">
        <ele>1484.2840576172</ele>
        <time>2011-09-11T08:49:38Z</time>
      </trkpt>
      <trkpt lat="42.64051" lon="2.10824">
        <ele>1482.9990234375</ele>
        <time>2011-09-11T08:49:40Z</time>
      </trkpt>
      <trkpt lat="42.6407" lon="2.10903">
        <ele>1477.0219726562</ele>
        <time>2011-09-11T08:49:46Z</time>
      </trkpt>
      <trkpt lat="42.64096" lon="2.10952">
        <ele>1473.3409423828</ele>
        <time>2011-09-11T08:49:50Z</time>
      </trkpt>
      <trkpt lat="42.64137" lon="2.11009">
        <ele>1469.2189941406</ele>
        <time>2011-09-11T08:49:55Z</time>
      </trkpt>
      <trkpt lat="42.64146" lon="2.1102">
        <ele>1469.0129394531</ele>
        <time>2011-09-11T08:49:56Z</time>
      </trkpt>
      <trkpt lat="42.64156" lon="2.11031">
        <ele>1468.3659667969</ele>
        <time>2011-09-11T08:49:57Z</time>
      </trkpt>
      <trkpt lat="42.642" lon="2.11054">
        <ele>1463.8349609375</ele>
        <time>2011-09-11T08:50:01Z</time>
      </trkpt>
      <trkpt lat="42.64212" lon="2.11054">
        <ele>1462.7879638672</ele>
        <time>2011-09-11T08:50:02Z</time>
      </trkpt>
      <trkpt lat="42.64269" lon="2.11052">
        <ele>1459.0500488281</ele>
        <time>2011-09-11T08:50:07Z</time>
      </trkpt>
      <trkpt lat="42.64283" lon="2.1105">
        <ele>1457.3540039062</ele>
        <time>2011-09-11T08:50:09Z</time>
      </trkpt>
      <trkpt lat="42.64289" lon="2.11057">
        <ele>1455.4969482422</ele>
        <time>2011-09-11T08:50:12Z</time>
      </trkpt>
      <trkpt lat="42.64281" lon="2.11065">
        <ele>1455.3869628906</ele>
        <time>2011-09-11T08:50:15Z</time>
      </trkpt>
      <trkpt lat="42.64277" lon="2.11066">
        <ele>1455.4129638672</ele>
        <time>2011-09-11T08:50:16Z</time>
      </trkpt>
      <trkpt lat="42.64243" lon="2.11076">
        <ele>1454.9549560547</ele>
        <time>2011-09-11T08:50:22Z</time>
      </trkpt>
      <trkpt lat="42.64218" lon="2.11084">
        <ele>1453.6710205078</ele>
        <time>2011-09-11T08:50:26Z</time>
      </trkpt>
      <trkpt lat="42.64189" lon="2.11093">
        <ele>1452.3649902344</ele>
        <time>2011-09-11T08:50:31Z</time>
      </trkpt>
      <trkpt lat="42.64148" lon="2.11105">
        <ele>1451.9169921875</ele>
        <time>2011-09-11T08:50:38Z</time>
      </trkpt>
      <trkpt lat="42.64137" lon="2.11109">
        <ele>1452.0090332031</ele>
        <time>2011-09-11T08:50:40Z</time>
      </trkpt>
      <trkpt lat="42.64116" lon="2.11113">
        <ele>1451.6739501953</ele>
        <time>2011-09-11T08:50:44Z</time>
      </trkpt>
      <trkpt lat="42.64095" lon="2.11112">
        <ele>1450.4689941406</ele>
        <time>2011-09-11T08:50:47Z</time>
      </trkpt>
      <trkpt lat="42.64076" lon="2.11116">
        <ele>1446.7889404297</ele>
        <time>2011-09-11T08:50:50Z</time>
      </trkpt>
      <trkpt lat="42.64069" lon="2.11127">
        <ele>1444.8010253906</ele>
        <time>2011-09-11T08:50:53Z</time>
      </trkpt>
      <trkpt lat="42.64066" lon="2.11135">
        <ele>1444.166015625</ele>
        <time>2011-09-11T08:50:55Z</time>
      </trkpt>
      <trkpt lat="42.64059" lon="2.11152">
        <ele>1443.9899902344</ele>
        <time>2011-09-11T08:50:59Z</time>
      </trkpt>
      <trkpt lat="42.64054" lon="2.11163">
        <ele>1444.3070068359</ele>
        <time>2011-09-11T08:51:01Z</time>
      </trkpt>
      <trkpt lat="42.64046" lon="2.11181">
        <ele>1444.6929931641</ele>
        <time>2011-09-11T08:51:05Z</time>
      </trkpt>
      <trkpt lat="42.64047" lon="2.11197">
        <ele>1445.2039794922</ele>
        <time>2011-09-11T08:51:09Z</time>
      </trkpt>
      <trkpt lat="42.64059" lon="2.11218">
        <ele>1445.6770019531</ele>
        <time>2011-09-11T08:51:14Z</time>
      </trkpt>
      <trkpt lat="42.64069" lon="2.11234">
        <ele>1446.0880126953</ele>
        <time>2011-09-11T08:51:18Z</time>
      </trkpt>
      <trkpt lat="42.64079" lon="2.11268">
        <ele>1445.8699951172</ele>
        <time>2011-09-11T08:51:24Z</time>
      </trkpt>
      <trkpt lat="42.64086" lon="2.11293">
        <ele>1444.7819824219</ele>
        <time>2011-09-11T08:51:29Z</time>
      </trkpt>
      <trkpt lat="42.64091" lon="2.11308">
        <ele>1444.9019775391</ele>
        <time>2011-09-11T08:51:33Z</time>
      </trkpt>
      <trkpt lat="42.64093" lon="2.11311">
        <ele>1445.1340332031</ele>
        <time>2011-09-11T08:51:34Z</time>
      </trkpt>
      <trkpt lat="42.64098" lon="2.11314">
        <ele>1445.248046875</ele>
        <time>2011-09-11T08:51:36Z</time>
      </trkpt>
      <trkpt lat="42.64112" lon="2.11332">
        <ele>1443.1870117188</ele>
        <time>2011-09-11T08:51:41Z</time>
      </trkpt>
      <trkpt lat="42.64118" lon="2.11336">
        <ele>1443.0739746094</ele>
        <time>2011-09-11T08:51:43Z</time>
      </trkpt>
      <trkpt lat="42.64128" lon="2.1136">
        <ele>1445.4010009766</ele>
        <time>2011-09-11T08:51:51Z</time>
      </trkpt>
      <trkpt lat="42.64127" lon="2.11363">
        <ele>1445.7170410156</ele>
        <time>2011-09-11T08:51:52Z</time>
      </trkpt>
      <trkpt lat="42.64111" lon="2.11381">
        <ele>1447.0310058594</ele>
        <time>2011-09-11T08:51:59Z</time>
      </trkpt>
      <trkpt lat="42.64094" lon="2.11398">
        <ele>1448.1240234375</ele>
        <time>2011-09-11T08:52:05Z</time>
      </trkpt>
      <trkpt lat="42.64077" lon="2.11416">
        <ele>1449.1529541016</ele>
        <time>2011-09-11T08:52:11Z</time>
      </trkpt>
      <trkpt lat="42.64082" lon="2.11428">
        <ele>1448.8449707031</ele>
        <time>2011-09-11T08:52:15Z</time>
      </trkpt>
      <trkpt lat="42.64085" lon="2.11431">
        <ele>1448.7659912109</ele>
        <time>2011-09-11T08:52:16Z</time>
      </trkpt>
      <trkpt lat="42.64104" lon="2.1145">
        <ele>1447.7430419922</ele>
        <time>2011-09-11T08:52:21Z</time>
      </trkpt>
      <trkpt lat="42.64122" lon="2.1148">
        <ele>1446.7490234375</ele>
        <time>2011-09-11T08:52:26Z</time>
      </trkpt>
      <trkpt lat="42.6413" lon="2.11497">
        <ele>1445.8909912109</ele>
        <time>2011-09-11T08:52:28Z</time>
      </trkpt>
      <trkpt lat="42.64135" lon="2.11506">
        <ele>1445.3349609375</ele>
        <time>2011-09-11T08:52:29Z</time>
      </trkpt>
      <trkpt lat="42.64144" lon="2.11527">
        <ele>1444.0999755859</ele>
        <time>2011-09-11T08:52:31Z</time>
      </trkpt>
      <trkpt lat="42.64153" lon="2.11565">
        <ele>1440.7690429688</ele>
        <time>2011-09-11T08:52:35Z</time>
      </trkpt>
      <trkpt lat="42.64157" lon="2.1158">
        <ele>1439.2189941406</ele>
        <time>2011-09-11T08:52:37Z</time>
      </trkpt>
      <trkpt lat="42.64159" lon="2.11614">
        <ele>1436.5500488281</ele>
        <time>2011-09-11T08:52:41Z</time>
      </trkpt>
      <trkpt lat="42.64161" lon="2.1163">
        <ele>1435.3289794922</ele>
        <time>2011-09-11T08:52:43Z</time>
      </trkpt>
      <trkpt lat="42.64162" lon="2.11664">
        <ele>1433.8780517578</ele>
        <time>2011-09-11T08:52:48Z</time>
      </trkpt>
      <trkpt lat="42.64169" lon="2.11691">
        <ele>1434.5880126953</ele>
        <time>2011-09-11T08:52:53Z</time>
      </trkpt>
      <trkpt lat="42.64176" lon="2.11714">
        <ele>1435.4720458984</ele>
        <time>2011-09-11T08:52:58Z</time>
      </trkpt>
      <trkpt lat="42.64177" lon="2.11729">
        <ele>1437.0999755859</ele>
        <time>2011-09-11T08:53:02Z</time>
      </trkpt>
      <trkpt lat="42.64178" lon="2.11744">
        <ele>1438.751953125</ele>
        <time>2011-09-11T08:53:07Z</time>
      </trkpt>
      <trkpt lat="42.6418" lon="2.11754">
        <ele>1439.1899414062</ele>
        <time>2011-09-11T08:53:12Z</time>
      </trkpt>
      <trkpt lat="42.64181" lon="2.11763">
        <ele>1438.7099609375</ele>
        <time>2011-09-11T08:53:14Z</time>
      </trkpt>
      <trkpt lat="42.64193" lon="2.1179">
        <ele>1436.6540527344</ele>
        <time>2011-09-11T08:53:18Z</time>
      </trkpt>
      <trkpt lat="42.64193" lon="2.11811">
        <ele>1435.3669433594</ele>
        <time>2011-09-11T08:53:21Z</time>
      </trkpt>
      <trkpt lat="42.6419" lon="2.11839">
        <ele>1435.2199707031</ele>
        <time>2011-09-11T08:53:26Z</time>
      </trkpt>
      <trkpt lat="42.6419" lon="2.11881">
        <ele>1434.4060058594</ele>
        <time>2011-09-11T08:53:32Z</time>
      </trkpt>
      <trkpt lat="42.6419" lon="2.1192">
        <ele>1433.1259765625</ele>
        <time>2011-09-11T08:53:37Z</time>
      </trkpt>
      <trkpt lat="42.64196" lon="2.11938">
        <ele>1431.8659667969</ele>
        <time>2011-09-11T08:53:40Z</time>
      </trkpt>
      <trkpt lat="42.64205" lon="2.11956">
        <ele>1431.8310546875</ele>
        <time>2011-09-11T08:53:43Z</time>
      </trkpt>
      <trkpt lat="42.64212" lon="2.11976">
        <ele>1432.0319824219</ele>
        <time>2011-09-11T08:53:46Z</time>
      </trkpt>
      <trkpt lat="42.64216" lon="2.12015">
        <ele>1431.9069824219</ele>
        <time>2011-09-11T08:53:52Z</time>
      </trkpt>
      <trkpt lat="42.64216" lon="2.12029">
        <ele>1432.0670166016</ele>
        <time>2011-09-11T08:53:54Z</time>
      </trkpt>
      <trkpt lat="42.6422" lon="2.12057">
        <ele>1431.4479980469</ele>
        <time>2011-09-11T08:53:58Z</time>
      </trkpt>
      <trkpt lat="42.64225" lon="2.12089">
        <ele>1431.6669921875</ele>
        <time>2011-09-11T08:54:03Z</time>
      </trkpt>
      <trkpt lat="42.64221" lon="2.12112">
        <ele>1432.16796875</ele>
        <time>2011-09-11T08:54:07Z</time>
      </trkpt>
      <trkpt lat="42.64211" lon="2.12124">
        <ele>1432.1459960938</ele>
        <time>2011-09-11T08:54:10Z</time>
      </trkpt>
      <trkpt lat="42.64191" lon="2.12144">
        <ele>1432.5080566406</ele>
        <time>2011-09-11T08:54:15Z</time>
      </trkpt>
      <trkpt lat="42.64176" lon="2.12173">
        <ele>1432.3220214844</ele>
        <time>2011-09-11T08:54:20Z</time>
      </trkpt>
      <trkpt lat="42.64157" lon="2.12198">
        <ele>1432.0059814453</ele>
        <time>2011-09-11T08:54:25Z</time>
      </trkpt>
      <trkpt lat="42.64148" lon="2.12206">
        <ele>1432.0520019531</ele>
        <time>2011-09-11T08:54:27Z</time>
      </trkpt>
      <trkpt lat="42.64133" lon="2.12215">
        <ele>1432.4350585938</ele>
        <time>2011-09-11T08:54:30Z</time>
      </trkpt>
      <trkpt lat="42.64122" lon="2.1223">
        <ele>1432.1870117188</ele>
        <time>2011-09-11T08:54:33Z</time>
      </trkpt>
      <trkpt lat="42.64104" lon="2.12245">
        <ele>1431.5290527344</ele>
        <time>2011-09-11T08:54:37Z</time>
      </trkpt>
      <trkpt lat="42.64097" lon="2.12257">
        <ele>1431.5539550781</ele>
        <time>2011-09-11T08:54:39Z</time>
      </trkpt>
      <trkpt lat="42.64079" lon="2.12293">
        <ele>1431.9200439453</ele>
        <time>2011-09-11T08:54:45Z</time>
      </trkpt>
      <trkpt lat="42.64066" lon="2.12316">
        <ele>1432.5899658203</ele>
        <time>2011-09-11T08:54:49Z</time>
      </trkpt>
      <trkpt lat="42.64063" lon="2.12322">
        <ele>1432.6479492188</ele>
        <time>2011-09-11T08:54:50Z</time>
      </trkpt>
      <trkpt lat="42.64053" lon="2.12339">
        <ele>1432.6240234375</ele>
        <time>2011-09-11T08:54:53Z</time>
      </trkpt>
      <trkpt lat="42.64038" lon="2.1236">
        <ele>1432.8199462891</ele>
        <time>2011-09-11T08:54:57Z</time>
      </trkpt>
      <trkpt lat="42.64007" lon="2.1239">
        <ele>1433.166015625</ele>
        <time>2011-09-11T08:55:05Z</time>
      </trkpt>
      <trkpt lat="42.63984" lon="2.12412">
        <ele>1433.0520019531</ele>
        <time>2011-09-11T08:55:11Z</time>
      </trkpt>
      <trkpt lat="42.63966" lon="2.12421">
        <ele>1432.6409912109</ele>
        <time>2011-09-11T08:55:15Z</time>
      </trkpt>
      <trkpt lat="42.63956" lon="2.12423">
        <ele>1432.3620605469</ele>
        <time>2011-09-11T08:55:17Z</time>
      </trkpt>
      <trkpt lat="42.63927" lon="2.12415">
        <ele>1432.498046875</ele>
        <time>2011-09-11T08:55:23Z</time>
      </trkpt>
      <trkpt lat="42.63899" lon="2.12394">
        <ele>1432.6550292969</ele>
        <time>2011-09-11T08:55:30Z</time>
      </trkpt>
      <trkpt lat="42.63887" lon="2.12385">
        <ele>1432.7099609375</ele>
        <time>2011-09-11T08:55:33Z</time>
      </trkpt>
      <trkpt lat="42.63873" lon="2.12381">
        <ele>1432.9069824219</ele>
        <time>2011-09-11T08:55:36Z</time>
      </trkpt>
      <trkpt lat="42.63862" lon="2.12378">
        <ele>1432.5119628906</ele>
        <time>2011-09-11T08:55:38Z</time>
      </trkpt>
      <trkpt lat="42.63842" lon="2.12367">
        <ele>1431.5749511719</ele>
        <time>2011-09-11T08:55:43Z</time>
      </trkpt>
      <trkpt lat="42.63826" lon="2.12358">
        <ele>1431.2690429688</ele>
        <time>2011-09-11T08:55:49Z</time>
      </trkpt>
      <trkpt lat="42.63809" lon="2.12351">
        <ele>1431.6569824219</ele>
        <time>2011-09-11T08:55:54Z</time>
      </trkpt>
      <trkpt lat="42.63794" lon="2.12348">
        <ele>1431.2760009766</ele>
        <time>2011-09-11T08:56:00Z</time>
      </trkpt>
      <trkpt lat="42.63791" lon="2.12348">
        <ele>1431.4069824219</ele>
        <time>2011-09-11T08:56:01Z</time>
      </trkpt>
      <trkpt lat="42.63773" lon="2.12359">
        <ele>1431.8389892578</ele>
        <time>2011-09-11T08:56:06Z</time>
      </trkpt>
      <trkpt lat="42.63766" lon="2.12364">
        <ele>1431.6860351562</ele>
        <time>2011-09-11T08:56:08Z</time>
      </trkpt>
      <trkpt lat="42.63758" lon="2.12367">
        <ele>1431.7779541016</ele>
        <time>2011-09-11T08:56:10Z</time>
      </trkpt>
      <trkpt lat="42.63728" lon="2.12382">
        <ele>1432.4399414062</ele>
        <time>2011-09-11T08:56:18Z</time>
      </trkpt>
      <trkpt lat="42.63717" lon="2.124">
        <ele>1432.0679931641</ele>
        <time>2011-09-11T08:56:23Z</time>
      </trkpt>
      <trkpt lat="42.63711" lon="2.12414">
        <ele>1432.0379638672</ele>
        <time>2011-09-11T08:56:26Z</time>
      </trkpt>
      <trkpt lat="42.63694" lon="2.12439">
        <ele>1432.0190429688</ele>
        <time>2011-09-11T08:56:33Z</time>
      </trkpt>
      <trkpt lat="42.63682" lon="2.12448">
        <ele>1432.0360107422</ele>
        <time>2011-09-11T08:56:37Z</time>
      </trkpt>
      <trkpt lat="42.63667" lon="2.1245">
        <ele>1431.6820068359</ele>
        <time>2011-09-11T08:56:42Z</time>
      </trkpt>
      <trkpt lat="42.63642" lon="2.1245">
        <ele>1431.7469482422</ele>
        <time>2011-09-11T08:56:49Z</time>
      </trkpt>
      <trkpt lat="42.63619" lon="2.12453">
        <ele>1431.8170166016</ele>
        <time>2011-09-11T08:56:55Z</time>
      </trkpt>
      <trkpt lat="42.63591" lon="2.12453">
        <ele>1431.9139404297</ele>
        <time>2011-09-11T08:57:02Z</time>
      </trkpt>
      <trkpt lat="42.6356" lon="2.12451">
        <ele>1432.2819824219</ele>
        <time>2011-09-11T08:57:10Z</time>
      </trkpt>
      <trkpt lat="42.63537" lon="2.12453">
        <ele>1431.9410400391</ele>
        <time>2011-09-11T08:57:16Z</time>
      </trkpt>
      <trkpt lat="42.63526" lon="2.12467">
        <ele>1432.2220458984</ele>
        <time>2011-09-11T08:57:20Z</time>
      </trkpt>
      <trkpt lat="42.6352" lon="2.12475">
        <ele>1432.0209960938</ele>
        <time>2011-09-11T08:57:22Z</time>
      </trkpt>
      <trkpt lat="42.6351" lon="2.12495">
        <ele>1431.2239990234</ele>
        <time>2011-09-11T08:57:26Z</time>
      </trkpt>
      <trkpt lat="42.63496" lon="2.12515">
        <ele>1431.166015625</ele>
        <time>2011-09-11T08:57:31Z</time>
      </trkpt>
      <trkpt lat="42.63484" lon="2.12539">
        <ele>1431.2139892578</ele>
        <time>2011-09-11T08:57:36Z</time>
      </trkpt>
      <trkpt lat="42.63474" lon="2.12555">
        <ele>1431.6209716797</ele>
        <time>2011-09-11T08:57:40Z</time>
      </trkpt>
      <trkpt lat="42.63446" lon="2.12601">
        <ele>1431.2760009766</ele>
        <time>2011-09-11T08:57:50Z</time>
      </trkpt>
      <trkpt lat="42.63435" lon="2.12619">
        <ele>1431.3060302734</ele>
        <time>2011-09-11T08:57:54Z</time>
      </trkpt>
      <trkpt lat="42.63419" lon="2.12648">
        <ele>1430.6870117188</ele>
        <time>2011-09-11T08:58:01Z</time>
      </trkpt>
      <trkpt lat="42.6341" lon="2.12659">
        <ele>1431.1469726562</ele>
        <time>2011-09-11T08:58:04Z</time>
      </trkpt>
      <trkpt lat="42.63406" lon="2.12669">
        <ele>1431.20703125</ele>
        <time>2011-09-11T08:58:06Z</time>
      </trkpt>
      <trkpt lat="42.63395" lon="2.12689">
        <ele>1431.5360107422</ele>
        <time>2011-09-11T08:58:10Z</time>
      </trkpt>
      <trkpt lat="42.63386" lon="2.12709">
        <ele>1431.7189941406</ele>
        <time>2011-09-11T08:58:14Z</time>
      </trkpt>
      <trkpt lat="42.63376" lon="2.12722">
        <ele>1431.3859863281</ele>
        <time>2011-09-11T08:58:17Z</time>
      </trkpt>
      <trkpt lat="42.63365" lon="2.1274">
        <ele>1431.7380371094</ele>
        <time>2011-09-11T08:58:21Z</time>
      </trkpt>
      <trkpt lat="42.63359" lon="2.12748">
        <ele>1431.7869873047</ele>
        <time>2011-09-11T08:58:23Z</time>
      </trkpt>
      <trkpt lat="42.63332" lon="2.12787">
        <ele>1431.4649658203</ele>
        <time>2011-09-11T08:58:32Z</time>
      </trkpt>
      <trkpt lat="42.63311" lon="2.12811">
        <ele>1430.7320556641</ele>
        <time>2011-09-11T08:58:38Z</time>
      </trkpt>
      <trkpt lat="42.63301" lon="2.12831">
        <ele>1430.4260253906</ele>
        <time>2011-09-11T08:58:42Z</time>
      </trkpt>
      <trkpt lat="42.63288" lon="2.1285">
        <ele>1429.9150390625</ele>
        <time>2011-09-11T08:58:47Z</time>
      </trkpt>
      <trkpt lat="42.63276" lon="2.1287">
        <ele>1430.498046875</ele>
        <time>2011-09-11T08:58:52Z</time>
      </trkpt>
      <trkpt lat="42.6327" lon="2.1288">
        <ele>1430.4320068359</ele>
        <time>2011-09-11T08:58:54Z</time>
      </trkpt>
      <trkpt lat="42.6326" lon="2.12892">
        <ele>1430.2459716797</ele>
        <time>2011-09-11T08:58:57Z</time>
      </trkpt>
      <trkpt lat="42.63256" lon="2.129">
        <ele>1429.9350585938</ele>
        <time>2011-09-11T08:58:59Z</time>
      </trkpt>
      <trkpt lat="42.63234" lon="2.12936">
        <ele>1429.7049560547</ele>
        <time>2011-09-11T08:59:07Z</time>
      </trkpt>
      <trkpt lat="42.63222" lon="2.12952">
        <ele>1430.1540527344</ele>
        <time>2011-09-11T08:59:11Z</time>
      </trkpt>
      <trkpt lat="42.63208" lon="2.12972">
        <ele>1430.8540039062</ele>
        <time>2011-09-11T08:59:16Z</time>
      </trkpt>
      <trkpt lat="42.63197" lon="2.12982">
        <ele>1431.0949707031</ele>
        <time>2011-09-11T08:59:19Z</time>
      </trkpt>
      <trkpt lat="42.63181" lon="2.12999">
        <ele>1430.2180175781</ele>
        <time>2011-09-11T08:59:24Z</time>
      </trkpt>
      <trkpt lat="42.63163" lon="2.13006">
        <ele>1429.9909667969</ele>
        <time>2011-09-11T08:59:29Z</time>
      </trkpt>
      <trkpt lat="42.63158" lon="2.13012">
        <ele>1430.0030517578</ele>
        <time>2011-09-11T08:59:31Z</time>
      </trkpt>
      <trkpt lat="42.63154" lon="2.13017">
        <ele>1430.6149902344</ele>
        <time>2011-09-11T08:59:33Z</time>
      </trkpt>
      <trkpt lat="42.63159" lon="2.13026">
        <ele>1431.8020019531</ele>
        <time>2011-09-11T08:59:37Z</time>
      </trkpt>
      <trkpt lat="42.63173" lon="2.13047">
        <ele>1433.2189941406</ele>
        <time>2011-09-11T08:59:42Z</time>
      </trkpt>
      <trkpt lat="42.63182" lon="2.13071">
        <ele>1434.748046875</ele>
        <time>2011-09-11T08:59:47Z</time>
      </trkpt>
      <trkpt lat="42.63188" lon="2.13087">
        <ele>1434.9139404297</ele>
        <time>2011-09-11T08:59:50Z</time>
      </trkpt>
      <trkpt lat="42.63188" lon="2.13112">
        <ele>1433.4040527344</ele>
        <time>2011-09-11T08:59:54Z</time>
      </trkpt>
      <trkpt lat="42.63183" lon="2.13124">
        <ele>1432.8430175781</ele>
        <time>2011-09-11T08:59:56Z</time>
      </trkpt>
      <trkpt lat="42.63155" lon="2.13167">
        <ele>1431.9709472656</ele>
        <time>2011-09-11T09:00:05Z</time>
      </trkpt>
      <trkpt lat="42.63138" lon="2.13183">
        <ele>1432.9499511719</ele>
        <time>2011-09-11T09:00:11Z</time>
      </trkpt>
      <trkpt lat="42.63136" lon="2.13185">
        <ele>1432.5799560547</ele>
        <time>2011-09-11T09:00:14Z</time>
      </trkpt>
      <trkpt lat="42.63138" lon="2.13189">
        <ele>1431.6639404297</ele>
        <time>2011-09-11T09:04:23Z</time>
      </trkpt>
      <trkpt lat="42.63149" lon="2.13192">
        <ele>1431.6020507812</ele>
        <time>2011-09-11T09:04:26Z</time>
      </trkpt>
      <trkpt lat="42.63154" lon="2.1319">
        <ele>1431.6030273438</ele>
        <time>2011-09-11T09:04:27Z</time>
      </trkpt>
      <trkpt lat="42.63176" lon="2.13177">
        <ele>1431.5899658203</ele>
        <time>2011-09-11T09:04:31Z</time>
      </trkpt>
      <trkpt lat="42.63196" lon="2.13166">
        <ele>1431.5589599609</ele>
        <time>2011-09-11T09:04:34Z</time>
      </trkpt>
      <trkpt lat="42.63234" lon="2.13151">
        <ele>1431.5760498047</ele>
        <time>2011-09-11T09:04:39Z</time>
      </trkpt>
      <trkpt lat="42.63264" lon="2.13139">
        <ele>1431.1789550781</ele>
        <time>2011-09-11T09:04:43Z</time>
      </trkpt>
      <trkpt lat="42.63294" lon="2.13125">
        <ele>1430.8900146484</ele>
        <time>2011-09-11T09:04:47Z</time>
      </trkpt>
      <trkpt lat="42.63308" lon="2.1312">
        <ele>1430.5649414062</ele>
        <time>2011-09-11T09:04:49Z</time>
      </trkpt>
      <trkpt lat="42.63333" lon="2.131">
        <ele>1430.3640136719</ele>
        <time>2011-09-11T09:04:53Z</time>
      </trkpt>
      <trkpt lat="42.63378" lon="2.13039">
        <ele>1430.9449462891</ele>
        <time>2011-09-11T09:05:02Z</time>
      </trkpt>
      <trkpt lat="42.63384" lon="2.13033">
        <ele>1431.0269775391</ele>
        <time>2011-09-11T09:05:03Z</time>
      </trkpt>
      <trkpt lat="42.6341" lon="2.13028">
        <ele>1431.0469970703</ele>
        <time>2011-09-11T09:05:07Z</time>
      </trkpt>
      <trkpt lat="42.6345" lon="2.13048">
        <ele>1431.8509521484</ele>
        <time>2011-09-11T09:05:13Z</time>
      </trkpt>
      <trkpt lat="42.63475" lon="2.13046">
        <ele>1432.6459960938</ele>
        <time>2011-09-11T09:05:17Z</time>
      </trkpt>
      <trkpt lat="42.63486" lon="2.13036">
        <ele>1432.6540527344</ele>
        <time>2011-09-11T09:05:19Z</time>
      </trkpt>
      <trkpt lat="42.6353" lon="2.12998">
        <ele>1432.9040527344</ele>
        <time>2011-09-11T09:05:27Z</time>
      </trkpt>
      <trkpt lat="42.63583" lon="2.12968">
        <ele>1432.6929931641</ele>
        <time>2011-09-11T09:05:35Z</time>
      </trkpt>
      <trkpt lat="42.6361" lon="2.1295">
        <ele>1432.5</ele>
        <time>2011-09-11T09:05:39Z</time>
      </trkpt>
      <trkpt lat="42.6364" lon="2.12944">
        <ele>1432.4890136719</ele>
        <time>2011-09-11T09:05:43Z</time>
      </trkpt>
      <trkpt lat="42.63654" lon="2.12949">
        <ele>1432.7779541016</ele>
        <time>2011-09-11T09:05:45Z</time>
      </trkpt>
      <trkpt lat="42.63693" lon="2.1297">
        <ele>1434.2449951172</ele>
        <time>2011-09-11T09:05:52Z</time>
      </trkpt>
      <trkpt lat="42.63698" lon="2.12973">
        <ele>1434.6750488281</ele>
        <time>2011-09-11T09:05:53Z</time>
      </trkpt>
      <trkpt lat="42.63707" lon="2.12977">
        <ele>1435.3120117188</ele>
        <time>2011-09-11T09:05:55Z</time>
      </trkpt>
      <trkpt lat="42.63745" lon="2.12979">
        <ele>1436.2669677734</ele>
        <time>2011-09-11T09:06:03Z</time>
      </trkpt>
      <trkpt lat="42.63783" lon="2.12977">
        <ele>1437.1710205078</ele>
        <time>2011-09-11T09:06:11Z</time>
      </trkpt>
      <trkpt lat="42.63792" lon="2.12975">
        <ele>1437.3959960938</ele>
        <time>2011-09-11T09:06:13Z</time>
      </trkpt>
      <trkpt lat="42.63809" lon="2.12964">
        <ele>1438.166015625</ele>
        <time>2011-09-11T09:06:17Z</time>
      </trkpt>
      <trkpt lat="42.63849" lon="2.12951">
        <ele>1439.2149658203</ele>
        <time>2011-09-11T09:06:26Z</time>
      </trkpt>
      <trkpt lat="42.63867" lon="2.12949">
        <ele>1440.416015625</ele>
        <time>2011-09-11T09:06:30Z</time>
      </trkpt>
      <trkpt lat="42.63906" lon="2.12962">
        <ele>1443.0579833984</ele>
        <time>2011-09-11T09:06:40Z</time>
      </trkpt>
      <trkpt lat="42.63929" lon="2.12972">
        <ele>1444.2550048828</ele>
        <time>2011-09-11T09:06:46Z</time>
      </trkpt>
      <trkpt lat="42.63936" lon="2.12978">
        <ele>1444.3699951172</ele>
        <time>2011-09-11T09:06:48Z</time>
      </trkpt>
      <trkpt lat="42.63948" lon="2.12994">
        <ele>1444.9460449219</ele>
        <time>2011-09-11T09:06:52Z</time>
      </trkpt>
      <trkpt lat="42.63965" lon="2.13029">
        <ele>1445.7320556641</ele>
        <time>2011-09-11T09:06:59Z</time>
      </trkpt>
      <trkpt lat="42.63969" lon="2.13053">
        <ele>1446.3399658203</ele>
        <time>2011-09-11T09:07:03Z</time>
      </trkpt>
      <trkpt lat="42.63969" lon="2.13066">
        <ele>1446.3879394531</ele>
        <time>2011-09-11T09:07:05Z</time>
      </trkpt>
      <trkpt lat="42.63984" lon="2.1309">
        <ele>1446.5169677734</ele>
        <time>2011-09-11T09:07:10Z</time>
      </trkpt>
      <trkpt lat="42.63998" lon="2.13093">
        <ele>1446.5069580078</ele>
        <time>2011-09-11T09:07:13Z</time>
      </trkpt>
      <trkpt lat="42.64009" lon="2.13081">
        <ele>1446.7779541016</ele>
        <time>2011-09-11T09:07:16Z</time>
      </trkpt>
      <trkpt lat="42.64026" lon="2.13075">
        <ele>1447.5369873047</ele>
        <time>2011-09-11T09:07:20Z</time>
      </trkpt>
      <trkpt lat="42.64053" lon="2.13073">
        <ele>1448.8599853516</ele>
        <time>2011-09-11T09:07:27Z</time>
      </trkpt>
      <trkpt lat="42.64071" lon="2.13063">
        <ele>1449.7060546875</ele>
        <time>2011-09-11T09:07:33Z</time>
      </trkpt>
      <trkpt lat="42.64091" lon="2.13049">
        <ele>1451.2569580078</ele>
        <time>2011-09-11T09:07:40Z</time>
      </trkpt>
      <trkpt lat="42.64114" lon="2.13049">
        <ele>1452.5780029297</ele>
        <time>2011-09-11T09:07:47Z</time>
      </trkpt>
      <trkpt lat="42.64138" lon="2.13054">
        <ele>1453.6459960938</ele>
        <time>2011-09-11T09:07:54Z</time>
      </trkpt>
      <trkpt lat="42.64163" lon="2.13063">
        <ele>1452.6280517578</ele>
        <time>2011-09-11T09:07:59Z</time>
      </trkpt>
      <trkpt lat="42.64182" lon="2.13068">
        <ele>1451.3599853516</ele>
        <time>2011-09-11T09:08:02Z</time>
      </trkpt>
      <trkpt lat="42.64201" lon="2.13063">
        <ele>1450.373046875</ele>
        <time>2011-09-11T09:08:05Z</time>
      </trkpt>
      <trkpt lat="42.64206" lon="2.13055">
        <ele>1449.9379882812</ele>
        <time>2011-09-11T09:08:06Z</time>
      </trkpt>
      <trkpt lat="42.64214" lon="2.13039">
        <ele>1448.9539794922</ele>
        <time>2011-09-11T09:08:08Z</time>
      </trkpt>
      <trkpt lat="42.64233" lon="2.13022">
        <ele>1447.2879638672</ele>
        <time>2011-09-11T09:08:11Z</time>
      </trkpt>
      <trkpt lat="42.6424" lon="2.1302">
        <ele>1446.8439941406</ele>
        <time>2011-09-11T09:08:12Z</time>
      </trkpt>
      <trkpt lat="42.64282" lon="2.13003">
        <ele>1446.1839599609</ele>
        <time>2011-09-11T09:08:18Z</time>
      </trkpt>
      <trkpt lat="42.64288" lon="2.12999">
        <ele>1445.9859619141</ele>
        <time>2011-09-11T09:08:19Z</time>
      </trkpt>
      <trkpt lat="42.64312" lon="2.12989">
        <ele>1445.9539794922</ele>
        <time>2011-09-11T09:08:23Z</time>
      </trkpt>
      <trkpt lat="42.64358" lon="2.12981">
        <ele>1444.7259521484</ele>
        <time>2011-09-11T09:08:30Z</time>
      </trkpt>
      <trkpt lat="42.64388" lon="2.12972">
        <ele>1443.3850097656</ele>
        <time>2011-09-11T09:08:34Z</time>
      </trkpt>
      <trkpt lat="42.64415" lon="2.12947">
        <ele>1441.9890136719</ele>
        <time>2011-09-11T09:08:38Z</time>
      </trkpt>
      <trkpt lat="42.64449" lon="2.12932">
        <ele>1440.208984375</ele>
        <time>2011-09-11T09:08:42Z</time>
      </trkpt>
      <trkpt lat="42.64503" lon="2.12914">
        <ele>1436.9339599609</ele>
        <time>2011-09-11T09:08:48Z</time>
      </trkpt>
      <trkpt lat="42.64519" lon="2.12909">
        <ele>1436.4730224609</ele>
        <time>2011-09-11T09:08:50Z</time>
      </trkpt>
      <trkpt lat="42.6455" lon="2.12908">
        <ele>1435.6479492188</ele>
        <time>2011-09-11T09:08:54Z</time>
      </trkpt>
      <trkpt lat="42.64582" lon="2.12897">
        <ele>1434.6180419922</ele>
        <time>2011-09-11T09:08:58Z</time>
      </trkpt>
      <trkpt lat="42.64589" lon="2.12891">
        <ele>1434.0880126953</ele>
        <time>2011-09-11T09:08:59Z</time>
      </trkpt>
      <trkpt lat="42.64627" lon="2.12873">
        <ele>1432.9250488281</ele>
        <time>2011-09-11T09:09:04Z</time>
      </trkpt>
      <trkpt lat="42.64664" lon="2.12863">
        <ele>1432.9749755859</ele>
        <time>2011-09-11T09:09:09Z</time>
      </trkpt>
      <trkpt lat="42.64684" lon="2.12853">
        <ele>1433.25</ele>
        <time>2011-09-11T09:09:12Z</time>
      </trkpt>
      <trkpt lat="42.6473" lon="2.12841">
        <ele>1433.8360595703</ele>
        <time>2011-09-11T09:09:19Z</time>
      </trkpt>
      <trkpt lat="42.64759" lon="2.12844">
        <ele>1433.2469482422</ele>
        <time>2011-09-11T09:09:23Z</time>
      </trkpt>
      <trkpt lat="42.64802" lon="2.12862">
        <ele>1432.5920410156</ele>
        <time>2011-09-11T09:09:29Z</time>
      </trkpt>
      <trkpt lat="42.64808" lon="2.12865">
        <ele>1432.4429931641</ele>
        <time>2011-09-11T09:09:30Z</time>
      </trkpt>
      <trkpt lat="42.64833" lon="2.12862">
        <ele>1431.6550292969</ele>
        <time>2011-09-11T09:09:34Z</time>
      </trkpt>
      <trkpt lat="42.64842" lon="2.1284">
        <ele>1431.0040283203</ele>
        <time>2011-09-11T09:09:37Z</time>
      </trkpt>
      <trkpt lat="42.64841" lon="2.12814">
        <ele>1431.6390380859</ele>
        <time>2011-09-11T09:09:40Z</time>
      </trkpt>
      <trkpt lat="42.64839" lon="2.12807">
        <ele>1431.9670410156</ele>
        <time>2011-09-11T09:09:41Z</time>
      </trkpt>
      <trkpt lat="42.64822" lon="2.12763">
        <ele>1432.6860351562</ele>
        <time>2011-09-11T09:09:47Z</time>
      </trkpt>
      <trkpt lat="42.64817" lon="2.12733">
        <ele>1433.9090576172</ele>
        <time>2011-09-11T09:09:51Z</time>
      </trkpt>
      <trkpt lat="42.64825" lon="2.12715">
        <ele>1434.8840332031</ele>
        <time>2011-09-11T09:09:55Z</time>
      </trkpt>
      <trkpt lat="42.64832" lon="2.12711">
        <ele>1434.9610595703</ele>
        <time>2011-09-11T09:09:57Z</time>
      </trkpt>
      <trkpt lat="42.64858" lon="2.12706">
        <ele>1435.4410400391</ele>
        <time>2011-09-11T09:10:03Z</time>
      </trkpt>
      <trkpt lat="42.64868" lon="2.12708">
        <ele>1435.6049804688</ele>
        <time>2011-09-11T09:10:05Z</time>
      </trkpt>
      <trkpt lat="42.64894" lon="2.12722">
        <ele>1436.2690429688</ele>
        <time>2011-09-11T09:10:11Z</time>
      </trkpt>
      <trkpt lat="42.64905" lon="2.1273">
        <ele>1437.0959472656</ele>
        <time>2011-09-11T09:10:15Z</time>
      </trkpt>
      <trkpt lat="42.6491" lon="2.12734">
        <ele>1437.0649414062</ele>
        <time>2011-09-11T09:10:17Z</time>
      </trkpt>
      <trkpt lat="42.64919" lon="2.12753">
        <ele>1438.29296875</ele>
        <time>2011-09-11T09:10:23Z</time>
      </trkpt>
      <trkpt lat="42.64919" lon="2.12756">
        <ele>1438.5949707031</ele>
        <time>2011-09-11T09:10:24Z</time>
      </trkpt>
      <trkpt lat="42.64927" lon="2.12772">
        <ele>1440.0589599609</ele>
        <time>2011-09-11T09:10:30Z</time>
      </trkpt>
      <trkpt lat="42.64933" lon="2.12774">
        <ele>1440.3489990234</ele>
        <time>2011-09-11T09:10:32Z</time>
      </trkpt>
      <trkpt lat="42.64944" lon="2.12779">
        <ele>1440.5460205078</ele>
        <time>2011-09-11T09:10:35Z</time>
      </trkpt>
      <trkpt lat="42.64965" lon="2.12803">
        <ele>1441.1889648438</ele>
        <time>2011-09-11T09:10:42Z</time>
      </trkpt>
      <trkpt lat="42.64981" lon="2.12821">
        <ele>1441.7750244141</ele>
        <time>2011-09-11T09:10:48Z</time>
      </trkpt>
      <trkpt lat="42.64994" lon="2.12833">
        <ele>1442.9610595703</ele>
        <time>2011-09-11T09:10:53Z</time>
      </trkpt>
      <trkpt lat="42.65004" lon="2.12844">
        <ele>1444.0649414062</ele>
        <time>2011-09-11T09:10:59Z</time>
      </trkpt>
      <trkpt lat="42.65022" lon="2.12852">
        <ele>1445.2430419922</ele>
        <time>2011-09-11T09:11:06Z</time>
      </trkpt>
      <trkpt lat="42.65035" lon="2.12856">
        <ele>1445.5799560547</ele>
        <time>2011-09-11T09:11:11Z</time>
      </trkpt>
      <trkpt lat="42.6505" lon="2.1286">
        <ele>1445.7259521484</ele>
        <time>2011-09-11T09:11:16Z</time>
      </trkpt>
      <trkpt lat="42.65071" lon="2.1286">
        <ele>1445.8120117188</ele>
        <time>2011-09-11T09:11:22Z</time>
      </trkpt>
      <trkpt lat="42.65091" lon="2.12857">
        <ele>1446.0059814453</ele>
        <time>2011-09-11T09:11:27Z</time>
      </trkpt>
      <trkpt lat="42.65121" lon="2.12858">
        <ele>1446.1820068359</ele>
        <time>2011-09-11T09:11:35Z</time>
      </trkpt>
      <trkpt lat="42.65137" lon="2.12862">
        <ele>1445.7960205078</ele>
        <time>2011-09-11T09:11:40Z</time>
      </trkpt>
      <trkpt lat="42.6514" lon="2.12866">
        <ele>1445.8489990234</ele>
        <time>2011-09-11T09:11:41Z</time>
      </trkpt>
      <trkpt lat="42.65154" lon="2.1288">
        <ele>1446.8439941406</ele>
        <time>2011-09-11T09:11:47Z</time>
      </trkpt>
      <trkpt lat="42.65162" lon="2.12892">
        <ele>1447.5439453125</ele>
        <time>2011-09-11T09:11:51Z</time>
      </trkpt>
      <trkpt lat="42.65178" lon="2.12909">
        <ele>1448.3969726562</ele>
        <time>2011-09-11T09:11:57Z</time>
      </trkpt>
      <trkpt lat="42.65187" lon="2.1292">
        <ele>1448.7650146484</ele>
        <time>2011-09-11T09:12:01Z</time>
      </trkpt>
      <trkpt lat="42.65199" lon="2.1294">
        <ele>1450.2080078125</ele>
        <time>2011-09-11T09:12:07Z</time>
      </trkpt>
      <trkpt lat="42.65218" lon="2.12961">
        <ele>1451.0260009766</ele>
        <time>2011-09-11T09:12:14Z</time>
      </trkpt>
      <trkpt lat="42.65222" lon="2.1297">
        <ele>1451.5260009766</ele>
        <time>2011-09-11T09:12:17Z</time>
      </trkpt>
      <trkpt lat="42.65232" lon="2.1298">
        <ele>1452.2629394531</ele>
        <time>2011-09-11T09:12:22Z</time>
      </trkpt>
      <trkpt lat="42.65239" lon="2.12988">
        <ele>1452.8990478516</ele>
        <time>2011-09-11T09:12:25Z</time>
      </trkpt>
      <trkpt lat="42.65248" lon="2.13001">
        <ele>1453.4260253906</ele>
        <time>2011-09-11T09:12:30Z</time>
      </trkpt>
      <trkpt lat="42.65256" lon="2.13016">
        <ele>1454.3409423828</ele>
        <time>2011-09-11T09:12:35Z</time>
      </trkpt>
      <trkpt lat="42.65262" lon="2.13028">
        <ele>1454.9300537109</ele>
        <time>2011-09-11T09:12:39Z</time>
      </trkpt>
      <trkpt lat="42.65268" lon="2.13045">
        <ele>1455.6159667969</ele>
        <time>2011-09-11T09:12:44Z</time>
      </trkpt>
      <trkpt lat="42.65274" lon="2.13059">
        <ele>1456.1639404297</ele>
        <time>2011-09-11T09:12:48Z</time>
      </trkpt>
      <trkpt lat="42.65281" lon="2.13079">
        <ele>1456.5970458984</ele>
        <time>2011-09-11T09:12:54Z</time>
      </trkpt>
      <trkpt lat="42.65285" lon="2.13092">
        <ele>1457.0350341797</ele>
        <time>2011-09-11T09:12:58Z</time>
      </trkpt>
      <trkpt lat="42.65292" lon="2.13109">
        <ele>1458.0579833984</ele>
        <time>2011-09-11T09:13:03Z</time>
      </trkpt>
      <trkpt lat="42.65297" lon="2.13129">
        <ele>1458.5670166016</ele>
        <time>2011-09-11T09:13:10Z</time>
      </trkpt>
      <trkpt lat="42.65305" lon="2.1315">
        <ele>1459.6639404297</ele>
        <time>2011-09-11T09:13:18Z</time>
      </trkpt>
      <trkpt lat="42.65307" lon="2.13154">
        <ele>1459.7099609375</ele>
        <time>2011-09-11T09:13:20Z</time>
      </trkpt>
      <trkpt lat="42.6531" lon="2.13165">
        <ele>1460.5949707031</ele>
        <time>2011-09-11T09:13:25Z</time>
      </trkpt>
      <trkpt lat="42.65319" lon="2.13177">
        <ele>1462.3819580078</ele>
        <time>2011-09-11T09:13:32Z</time>
      </trkpt>
      <trkpt lat="42.65323" lon="2.13187">
        <ele>1463.5679931641</ele>
        <time>2011-09-11T09:13:37Z</time>
      </trkpt>
      <trkpt lat="42.65327" lon="2.13201">
        <ele>1464.6240234375</ele>
        <time>2011-09-11T09:13:42Z</time>
      </trkpt>
      <trkpt lat="42.6533" lon="2.13216">
        <ele>1465.6929931641</ele>
        <time>2011-09-11T09:13:48Z</time>
      </trkpt>
      <trkpt lat="42.65331" lon="2.13219">
        <ele>1466.0520019531</ele>
        <time>2011-09-11T09:13:50Z</time>
      </trkpt>
      <trkpt lat="42.65335" lon="2.13232">
        <ele>1466.8149414062</ele>
        <time>2011-09-11T09:13:56Z</time>
      </trkpt>
      <trkpt lat="42.6534" lon="2.13246">
        <ele>1467.7530517578</ele>
        <time>2011-09-11T09:14:01Z</time>
      </trkpt>
      <trkpt lat="42.6534" lon="2.13249">
        <ele>1468.1080322266</ele>
        <time>2011-09-11T09:14:02Z</time>
      </trkpt>
      <trkpt lat="42.65343" lon="2.13265">
        <ele>1468.7969970703</ele>
        <time>2011-09-11T09:14:08Z</time>
      </trkpt>
      <trkpt lat="42.65344" lon="2.1328">
        <ele>1469.6800537109</ele>
        <time>2011-09-11T09:14:13Z</time>
      </trkpt>
      <trkpt lat="42.65358" lon="2.13303">
        <ele>1470.6049804688</ele>
        <time>2011-09-11T09:14:22Z</time>
      </trkpt>
      <trkpt lat="42.6536" lon="2.13306">
        <ele>1470.7189941406</ele>
        <time>2011-09-11T09:14:23Z</time>
      </trkpt>
      <trkpt lat="42.65366" lon="2.13316">
        <ele>1471.2249755859</ele>
        <time>2011-09-11T09:14:28Z</time>
      </trkpt>
      <trkpt lat="42.65368" lon="2.13323">
        <ele>1471.7299804688</ele>
        <time>2011-09-11T09:14:31Z</time>
      </trkpt>
      <trkpt lat="42.65369" lon="2.13328">
        <ele>1472.3260498047</ele>
        <time>2011-09-11T09:14:34Z</time>
      </trkpt>
      <trkpt lat="42.65374" lon="2.13345">
        <ele>1473.6030273438</ele>
        <time>2011-09-11T09:14:40Z</time>
      </trkpt>
      <trkpt lat="42.65377" lon="2.13355">
        <ele>1473.9770507812</ele>
        <time>2011-09-11T09:14:44Z</time>
      </trkpt>
      <trkpt lat="42.65381" lon="2.13364">
        <ele>1474.2779541016</ele>
        <time>2011-09-11T09:14:48Z</time>
      </trkpt>
      <trkpt lat="42.6539" lon="2.13381">
        <ele>1474.6850585938</ele>
        <time>2011-09-11T09:14:54Z</time>
      </trkpt>
      <trkpt lat="42.65394" lon="2.13398">
        <ele>1475.3549804688</ele>
        <time>2011-09-11T09:14:59Z</time>
      </trkpt>
      <trkpt lat="42.654" lon="2.13413">
        <ele>1475.9000244141</ele>
        <time>2011-09-11T09:15:04Z</time>
      </trkpt>
      <trkpt lat="42.65403" lon="2.13423">
        <ele>1476.7180175781</ele>
        <time>2011-09-11T09:15:08Z</time>
      </trkpt>
      <trkpt lat="42.65403" lon="2.13432">
        <ele>1477.8690185547</ele>
        <time>2011-09-11T09:15:12Z</time>
      </trkpt>
      <trkpt lat="42.65404" lon="2.13436">
        <ele>1477.9200439453</ele>
        <time>2011-09-11T09:15:13Z</time>
      </trkpt>
      <trkpt lat="42.65402" lon="2.13445">
        <ele>1478.2840576172</ele>
        <time>2011-09-11T09:15:16Z</time>
      </trkpt>
      <trkpt lat="42.65396" lon="2.13459">
        <ele>1479.5529785156</ele>
        <time>2011-09-11T09:15:21Z</time>
      </trkpt>
      <trkpt lat="42.65395" lon="2.13472">
        <ele>1480.7760009766</ele>
        <time>2011-09-11T09:15:26Z</time>
      </trkpt>
      <trkpt lat="42.65384" lon="2.13489">
        <ele>1482.9670410156</ele>
        <time>2011-09-11T09:15:34Z</time>
      </trkpt>
      <trkpt lat="42.65382" lon="2.13492">
        <ele>1483.4709472656</ele>
        <time>2011-09-11T09:15:36Z</time>
      </trkpt>
      <trkpt lat="42.65374" lon="2.13497">
        <ele>1484.6610107422</ele>
        <time>2011-09-11T09:15:40Z</time>
      </trkpt>
      <trkpt lat="42.65365" lon="2.13511">
        <ele>1487.0579833984</ele>
        <time>2011-09-11T09:15:48Z</time>
      </trkpt>
      <trkpt lat="42.65362" lon="2.13528">
        <ele>1488.4799804688</ele>
        <time>2011-09-11T09:15:56Z</time>
      </trkpt>
      <trkpt lat="42.65362" lon="2.13549">
        <ele>1489.8089599609</ele>
        <time>2011-09-11T09:16:05Z</time>
      </trkpt>
      <trkpt lat="42.65362" lon="2.13564">
        <ele>1490.6910400391</ele>
        <time>2011-09-11T09:16:12Z</time>
      </trkpt>
      <trkpt lat="42.6536" lon="2.13576">
        <ele>1491.4119873047</ele>
        <time>2011-09-11T09:16:17Z</time>
      </trkpt>
      <trkpt lat="42.65353" lon="2.13588">
        <ele>1492.7709960938</ele>
        <time>2011-09-11T09:16:24Z</time>
      </trkpt>
      <trkpt lat="42.65347" lon="2.13598">
        <ele>1493.8449707031</ele>
        <time>2011-09-11T09:16:29Z</time>
      </trkpt>
      <trkpt lat="42.65343" lon="2.13613">
        <ele>1495.2449951172</ele>
        <time>2011-09-11T09:16:35Z</time>
      </trkpt>
      <trkpt lat="42.65343" lon="2.13615">
        <ele>1495.3399658203</ele>
        <time>2011-09-11T09:16:36Z</time>
      </trkpt>
      <trkpt lat="42.65339" lon="2.13622">
        <ele>1495.9820556641</ele>
        <time>2011-09-11T09:16:40Z</time>
      </trkpt>
      <trkpt lat="42.65334" lon="2.13632">
        <ele>1496.3879394531</ele>
        <time>2011-09-11T09:16:44Z</time>
      </trkpt>
      <trkpt lat="42.65326" lon="2.13644">
        <ele>1498.0209960938</ele>
        <time>2011-09-11T09:16:51Z</time>
      </trkpt>
      <trkpt lat="42.6532" lon="2.13662">
        <ele>1499.4730224609</ele>
        <time>2011-09-11T09:16:59Z</time>
      </trkpt>
      <trkpt lat="42.65319" lon="2.1367">
        <ele>1500.5040283203</ele>
        <time>2011-09-11T09:17:03Z</time>
      </trkpt>
      <trkpt lat="42.65317" lon="2.13679">
        <ele>1501.4399414062</ele>
        <time>2011-09-11T09:17:08Z</time>
      </trkpt>
      <trkpt lat="42.65318" lon="2.13694">
        <ele>1502.2309570312</ele>
        <time>2011-09-11T09:17:14Z</time>
      </trkpt>
      <trkpt lat="42.6532" lon="2.13716">
        <ele>1503.9329833984</ele>
        <time>2011-09-11T09:17:22Z</time>
      </trkpt>
      <trkpt lat="42.65323" lon="2.13737">
        <ele>1505.7449951172</ele>
        <time>2011-09-11T09:17:31Z</time>
      </trkpt>
      <trkpt lat="42.65321" lon="2.13754">
        <ele>1507.0240478516</ele>
        <time>2011-09-11T09:17:38Z</time>
      </trkpt>
      <trkpt lat="42.6532" lon="2.13771">
        <ele>1508.5679931641</ele>
        <time>2011-09-11T09:17:45Z</time>
      </trkpt>
      <trkpt lat="42.65319" lon="2.13778">
        <ele>1509.2080078125</ele>
        <time>2011-09-11T09:17:48Z</time>
      </trkpt>
      <trkpt lat="42.65313" lon="2.13791">
        <ele>1509.7540283203</ele>
        <time>2011-09-11T09:17:54Z</time>
      </trkpt>
      <trkpt lat="42.65311" lon="2.13797">
        <ele>1510.3990478516</ele>
        <time>2011-09-11T09:17:57Z</time>
      </trkpt>
      <trkpt lat="42.65303" lon="2.13815">
        <ele>1512.4239501953</ele>
        <time>2011-09-11T09:18:06Z</time>
      </trkpt>
      <trkpt lat="42.65301" lon="2.13826">
        <ele>1513.2359619141</ele>
        <time>2011-09-11T09:18:11Z</time>
      </trkpt>
      <trkpt lat="42.65301" lon="2.13829">
        <ele>1513.4770507812</ele>
        <time>2011-09-11T09:18:12Z</time>
      </trkpt>
      <trkpt lat="42.65299" lon="2.13843">
        <ele>1514.7419433594</ele>
        <time>2011-09-11T09:18:18Z</time>
      </trkpt>
      <trkpt lat="42.65298" lon="2.13858">
        <ele>1516.6099853516</ele>
        <time>2011-09-11T09:18:25Z</time>
      </trkpt>
      <trkpt lat="42.653" lon="2.13872">
        <ele>1517.6999511719</ele>
        <time>2011-09-11T09:18:31Z</time>
      </trkpt>
      <trkpt lat="42.653" lon="2.13874">
        <ele>1517.8830566406</ele>
        <time>2011-09-11T09:18:32Z</time>
      </trkpt>
      <trkpt lat="42.653" lon="2.13895">
        <ele>1519.5510253906</ele>
        <time>2011-09-11T09:18:40Z</time>
      </trkpt>
      <trkpt lat="42.653" lon="2.13907">
        <ele>1520.7330322266</ele>
        <time>2011-09-11T09:18:46Z</time>
      </trkpt>
      <trkpt lat="42.65301" lon="2.13922">
        <ele>1521.5679931641</ele>
        <time>2011-09-11T09:18:51Z</time>
      </trkpt>
      <trkpt lat="42.65301" lon="2.13937">
        <ele>1522.7370605469</ele>
        <time>2011-09-11T09:18:57Z</time>
      </trkpt>
      <trkpt lat="42.65297" lon="2.13959">
        <ele>1523.8480224609</ele>
        <time>2011-09-11T09:19:04Z</time>
      </trkpt>
      <trkpt lat="42.65292" lon="2.13976">
        <ele>1525.1839599609</ele>
        <time>2011-09-11T09:19:11Z</time>
      </trkpt>
      <trkpt lat="42.6529" lon="2.13988">
        <ele>1526.8449707031</ele>
        <time>2011-09-11T09:19:16Z</time>
      </trkpt>
      <trkpt lat="42.6529" lon="2.13993">
        <ele>1527.2860107422</ele>
        <time>2011-09-11T09:19:18Z</time>
      </trkpt>
      <trkpt lat="42.65287" lon="2.14004">
        <ele>1528.2149658203</ele>
        <time>2011-09-11T09:19:23Z</time>
      </trkpt>
      <trkpt lat="42.65286" lon="2.14007">
        <ele>1528.4830322266</ele>
        <time>2011-09-11T09:19:25Z</time>
      </trkpt>
      <trkpt lat="42.65287" lon="2.14019">
        <ele>1529.4370117188</ele>
        <time>2011-09-11T09:19:31Z</time>
      </trkpt>
      <trkpt lat="42.65283" lon="2.14033">
        <ele>1530.2889404297</ele>
        <time>2011-09-11T09:19:36Z</time>
      </trkpt>
      <trkpt lat="42.65283" lon="2.14036">
        <ele>1530.5050048828</ele>
        <time>2011-09-11T09:19:37Z</time>
      </trkpt>
      <trkpt lat="42.65282" lon="2.14052">
        <ele>1531.4119873047</ele>
        <time>2011-09-11T09:19:43Z</time>
      </trkpt>
      <trkpt lat="42.65281" lon="2.14062">
        <ele>1531.8389892578</ele>
        <time>2011-09-11T09:19:47Z</time>
      </trkpt>
      <trkpt lat="42.65281" lon="2.14068">
        <ele>1532.3220214844</ele>
        <time>2011-09-11T09:19:52Z</time>
      </trkpt>
      <trkpt lat="42.65281" lon="2.14067">
        <ele>1532.3559570312</ele>
        <time>2011-09-11T09:19:53Z</time>
      </trkpt>
      <trkpt lat="42.65291" lon="2.14079">
        <ele>1532.2159423828</ele>
        <time>2011-09-11T09:20:45Z</time>
      </trkpt>
      <trkpt lat="42.65297" lon="2.14106">
        <ele>1531.3669433594</ele>
        <time>2011-09-11T09:20:51Z</time>
      </trkpt>
      <trkpt lat="42.65304" lon="2.14116">
        <ele>1530.8869628906</ele>
        <time>2011-09-11T09:20:54Z</time>
      </trkpt>
      <trkpt lat="42.65316" lon="2.14124">
        <ele>1530.8879394531</ele>
        <time>2011-09-11T09:20:58Z</time>
      </trkpt>
      <trkpt lat="42.65331" lon="2.14128">
        <ele>1531.8840332031</ele>
        <time>2011-09-11T09:21:03Z</time>
      </trkpt>
      <trkpt lat="42.65349" lon="2.14133">
        <ele>1533.8229980469</ele>
        <time>2011-09-11T09:21:09Z</time>
      </trkpt>
      <trkpt lat="42.65364" lon="2.14132">
        <ele>1534.8079833984</ele>
        <time>2011-09-11T09:21:14Z</time>
      </trkpt>
      <trkpt lat="42.6538" lon="2.14127">
        <ele>1535.20703125</ele>
        <time>2011-09-11T09:21:19Z</time>
      </trkpt>
      <trkpt lat="42.65398" lon="2.14121">
        <ele>1535.1639404297</ele>
        <time>2011-09-11T09:21:24Z</time>
      </trkpt>
      <trkpt lat="42.65417" lon="2.14107">
        <ele>1536.0789794922</ele>
        <time>2011-09-11T09:21:30Z</time>
      </trkpt>
      <trkpt lat="42.65432" lon="2.14106">
        <ele>1536.626953125</ele>
        <time>2011-09-11T09:21:34Z</time>
      </trkpt>
      <trkpt lat="42.65443" lon="2.14109">
        <ele>1537.9739990234</ele>
        <time>2011-09-11T09:21:39Z</time>
      </trkpt>
      <trkpt lat="42.65457" lon="2.14119">
        <ele>1540.08203125</ele>
        <time>2011-09-11T09:21:46Z</time>
      </trkpt>
      <trkpt lat="42.65472" lon="2.14128">
        <ele>1541.7750244141</ele>
        <time>2011-09-11T09:21:53Z</time>
      </trkpt>
      <trkpt lat="42.6548" lon="2.14135">
        <ele>1543.3699951172</ele>
        <time>2011-09-11T09:21:58Z</time>
      </trkpt>
      <trkpt lat="42.65486" lon="2.1414">
        <ele>1544.6130371094</ele>
        <time>2011-09-11T09:22:03Z</time>
      </trkpt>
      <trkpt lat="42.65495" lon="2.14147">
        <ele>1545.3869628906</ele>
        <time>2011-09-11T09:22:08Z</time>
      </trkpt>
      <trkpt lat="42.65506" lon="2.14153">
        <ele>1546.4200439453</ele>
        <time>2011-09-11T09:22:14Z</time>
      </trkpt>
      <trkpt lat="42.65509" lon="2.14157">
        <ele>1546.8439941406</ele>
        <time>2011-09-11T09:22:16Z</time>
      </trkpt>
      <trkpt lat="42.65509" lon="2.14169">
        <ele>1547.8969726562</ele>
        <time>2011-09-11T09:22:22Z</time>
      </trkpt>
      <trkpt lat="42.65493" lon="2.14185">
        <ele>1550.0400390625</ele>
        <time>2011-09-11T09:22:32Z</time>
      </trkpt>
      <trkpt lat="42.65486" lon="2.14192">
        <ele>1551.2659912109</ele>
        <time>2011-09-11T09:22:37Z</time>
      </trkpt>
      <trkpt lat="42.65482" lon="2.14207">
        <ele>1552.3420410156</ele>
        <time>2011-09-11T09:22:43Z</time>
      </trkpt>
      <trkpt lat="42.65485" lon="2.14219">
        <ele>1553.1920166016</ele>
        <time>2011-09-11T09:22:48Z</time>
      </trkpt>
      <trkpt lat="42.65491" lon="2.14226">
        <ele>1553.7340087891</ele>
        <time>2011-09-11T09:22:51Z</time>
      </trkpt>
      <trkpt lat="42.65514" lon="2.14241">
        <ele>1554.7349853516</ele>
        <time>2011-09-11T09:23:01Z</time>
      </trkpt>
      <trkpt lat="42.65527" lon="2.1425">
        <ele>1555.0660400391</ele>
        <time>2011-09-11T09:23:07Z</time>
      </trkpt>
      <trkpt lat="42.65545" lon="2.14261">
        <ele>1555.5770263672</ele>
        <time>2011-09-11T09:23:13Z</time>
      </trkpt>
      <trkpt lat="42.65571" lon="2.14279">
        <ele>1556.0030517578</ele>
        <time>2011-09-11T09:23:21Z</time>
      </trkpt>
      <trkpt lat="42.656" lon="2.14298">
        <ele>1556.4050292969</ele>
        <time>2011-09-11T09:23:30Z</time>
      </trkpt>
      <trkpt lat="42.65619" lon="2.1431">
        <ele>1557.1390380859</ele>
        <time>2011-09-11T09:23:36Z</time>
      </trkpt>
      <trkpt lat="42.65636" lon="2.14319">
        <ele>1558.4329833984</ele>
        <time>2011-09-11T09:23:42Z</time>
      </trkpt>
      <trkpt lat="42.65662" lon="2.14331">
        <ele>1559.7209472656</ele>
        <time>2011-09-11T09:23:50Z</time>
      </trkpt>
      <trkpt lat="42.65669" lon="2.14339">
        <ele>1560.4090576172</ele>
        <time>2011-09-11T09:23:53Z</time>
      </trkpt>
      <trkpt lat="42.65664" lon="2.14354">
        <ele>1561.9799804688</ele>
        <time>2011-09-11T09:23:58Z</time>
      </trkpt>
      <trkpt lat="42.65643" lon="2.14362">
        <ele>1563.8399658203</ele>
        <time>2011-09-11T09:24:06Z</time>
      </trkpt>
      <trkpt lat="42.65618" lon="2.14368">
        <ele>1565.1159667969</ele>
        <time>2011-09-11T09:24:16Z</time>
      </trkpt>
      <trkpt lat="42.65603" lon="2.14371">
        <ele>1566.1209716797</ele>
        <time>2011-09-11T09:24:23Z</time>
      </trkpt>
      <trkpt lat="42.6558" lon="2.14377">
        <ele>1568.3780517578</ele>
        <time>2011-09-11T09:24:33Z</time>
      </trkpt>
      <trkpt lat="42.65562" lon="2.14381">
        <ele>1570.3909912109</ele>
        <time>2011-09-11T09:24:41Z</time>
      </trkpt>
      <trkpt lat="42.65545" lon="2.14382">
        <ele>1572.0989990234</ele>
        <time>2011-09-11T09:24:49Z</time>
      </trkpt>
      <trkpt lat="42.65529" lon="2.14378">
        <ele>1573.666015625</ele>
        <time>2011-09-11T09:24:56Z</time>
      </trkpt>
      <trkpt lat="42.65512" lon="2.14375">
        <ele>1574.6120605469</ele>
        <time>2011-09-11T09:25:03Z</time>
      </trkpt>
      <trkpt lat="42.65492" lon="2.1437">
        <ele>1575.9379882812</ele>
        <time>2011-09-11T09:25:11Z</time>
      </trkpt>
      <trkpt lat="42.65474" lon="2.14367">
        <ele>1577.5899658203</ele>
        <time>2011-09-11T09:25:19Z</time>
      </trkpt>
      <trkpt lat="42.65461" lon="2.14366">
        <ele>1578.7810058594</ele>
        <time>2011-09-11T09:25:25Z</time>
      </trkpt>
      <trkpt lat="42.65447" lon="2.14371">
        <ele>1579.75</ele>
        <time>2011-09-11T09:25:32Z</time>
      </trkpt>
      <trkpt lat="42.65427" lon="2.14381">
        <ele>1581.0400390625</ele>
        <time>2011-09-11T09:25:42Z</time>
      </trkpt>
      <trkpt lat="42.65413" lon="2.14392">
        <ele>1582.5109863281</ele>
        <time>2011-09-11T09:25:50Z</time>
      </trkpt>
      <trkpt lat="42.65401" lon="2.14407">
        <ele>1583.7309570312</ele>
        <time>2011-09-11T09:25:58Z</time>
      </trkpt>
      <trkpt lat="42.65395" lon="2.14416">
        <ele>1584.3199462891</ele>
        <time>2011-09-11T09:26:03Z</time>
      </trkpt>
      <trkpt lat="42.6539" lon="2.14427">
        <ele>1585.3089599609</ele>
        <time>2011-09-11T09:26:09Z</time>
      </trkpt>
      <trkpt lat="42.65393" lon="2.1445">
        <ele>1586.5319824219</ele>
        <time>2011-09-11T09:26:17Z</time>
      </trkpt>
      <trkpt lat="42.65394" lon="2.14466">
        <ele>1587.6140136719</ele>
        <time>2011-09-11T09:26:23Z</time>
      </trkpt>
      <trkpt lat="42.65393" lon="2.14481">
        <ele>1588.5119628906</ele>
        <time>2011-09-11T09:26:29Z</time>
      </trkpt>
      <trkpt lat="42.65394" lon="2.14509">
        <ele>1590.5570068359</ele>
        <time>2011-09-11T09:26:38Z</time>
      </trkpt>
      <trkpt lat="42.65396" lon="2.14531">
        <ele>1592.3570556641</ele>
        <time>2011-09-11T09:26:46Z</time>
      </trkpt>
      <trkpt lat="42.65401" lon="2.14544">
        <ele>1593.9809570312</ele>
        <time>2011-09-11T09:26:51Z</time>
      </trkpt>
      <trkpt lat="42.65402" lon="2.14546">
        <ele>1594.1970214844</ele>
        <time>2011-09-11T09:26:52Z</time>
      </trkpt>
      <trkpt lat="42.65407" lon="2.14572">
        <ele>1595.1130371094</ele>
        <time>2011-09-11T09:27:01Z</time>
      </trkpt>
      <trkpt lat="42.65407" lon="2.14589">
        <ele>1595.833984375</ele>
        <time>2011-09-11T09:27:07Z</time>
      </trkpt>
      <trkpt lat="42.65401" lon="2.14612">
        <ele>1596.8409423828</ele>
        <time>2011-09-11T09:27:14Z</time>
      </trkpt>
      <trkpt lat="42.65397" lon="2.1463">
        <ele>1597.4720458984</ele>
        <time>2011-09-11T09:27:20Z</time>
      </trkpt>
      <trkpt lat="42.65393" lon="2.14649">
        <ele>1598.1519775391</ele>
        <time>2011-09-11T09:27:26Z</time>
      </trkpt>
      <trkpt lat="42.65388" lon="2.1467">
        <ele>1598.9909667969</ele>
        <time>2011-09-11T09:27:32Z</time>
      </trkpt>
      <trkpt lat="42.65387" lon="2.14691">
        <ele>1599.6109619141</ele>
        <time>2011-09-11T09:27:37Z</time>
      </trkpt>
      <trkpt lat="42.65382" lon="2.14722">
        <ele>1600.8549804688</ele>
        <time>2011-09-11T09:27:45Z</time>
      </trkpt>
      <trkpt lat="42.65376" lon="2.14746">
        <ele>1602.1400146484</ele>
        <time>2011-09-11T09:27:52Z</time>
      </trkpt>
      <trkpt lat="42.65369" lon="2.1476">
        <ele>1602.8189697266</ele>
        <time>2011-09-11T09:27:57Z</time>
      </trkpt>
      <trkpt lat="42.65364" lon="2.14763">
        <ele>1603.7430419922</ele>
        <time>2011-09-11T09:28:02Z</time>
      </trkpt>
      <trkpt lat="42.65356" lon="2.1475">
        <ele>1604.7750244141</ele>
        <time>2011-09-11T09:28:08Z</time>
      </trkpt>
      <trkpt lat="42.65356" lon="2.14733">
        <ele>1605.6820068359</ele>
        <time>2011-09-11T09:28:13Z</time>
      </trkpt>
      <trkpt lat="42.65351" lon="2.14717">
        <ele>1606.251953125</ele>
        <time>2011-09-11T09:28:18Z</time>
      </trkpt>
      <trkpt lat="42.65344" lon="2.147">
        <ele>1606.9069824219</ele>
        <time>2011-09-11T09:28:23Z</time>
      </trkpt>
      <trkpt lat="42.65336" lon="2.14689">
        <ele>1607.6340332031</ele>
        <time>2011-09-11T09:28:27Z</time>
      </trkpt>
      <trkpt lat="42.65323" lon="2.14674">
        <ele>1608.8540039062</ele>
        <time>2011-09-11T09:28:33Z</time>
      </trkpt>
      <trkpt lat="42.65306" lon="2.14658">
        <ele>1610.4449462891</ele>
        <time>2011-09-11T09:28:40Z</time>
      </trkpt>
      <trkpt lat="42.65298" lon="2.14647">
        <ele>1611.7600097656</ele>
        <time>2011-09-11T09:28:45Z</time>
      </trkpt>
      <trkpt lat="42.65288" lon="2.14633">
        <ele>1612.9329833984</ele>
        <time>2011-09-11T09:28:50Z</time>
      </trkpt>
      <trkpt lat="42.65277" lon="2.14622">
        <ele>1613.9820556641</ele>
        <time>2011-09-11T09:28:55Z</time>
      </trkpt>
      <trkpt lat="42.65266" lon="2.14608">
        <ele>1614.8809814453</ele>
        <time>2011-09-11T09:29:01Z</time>
      </trkpt>
      <trkpt lat="42.65255" lon="2.14599">
        <ele>1615.8149414062</ele>
        <time>2011-09-11T09:29:06Z</time>
      </trkpt>
      <trkpt lat="42.65245" lon="2.14585">
        <ele>1617.0989990234</ele>
        <time>2011-09-11T09:29:13Z</time>
      </trkpt>
      <trkpt lat="42.6524" lon="2.14574">
        <ele>1617.5570068359</ele>
        <time>2011-09-11T09:29:17Z</time>
      </trkpt>
      <trkpt lat="42.65228" lon="2.14554">
        <ele>1618.5760498047</ele>
        <time>2011-09-11T09:29:24Z</time>
      </trkpt>
      <trkpt lat="42.65217" lon="2.14544">
        <ele>1619.2099609375</ele>
        <time>2011-09-11T09:29:28Z</time>
      </trkpt>
      <trkpt lat="42.65198" lon="2.14531">
        <ele>1620.29296875</ele>
        <time>2011-09-11T09:29:35Z</time>
      </trkpt>
      <trkpt lat="42.65183" lon="2.14523">
        <ele>1621.1729736328</ele>
        <time>2011-09-11T09:29:41Z</time>
      </trkpt>
      <trkpt lat="42.65163" lon="2.14511">
        <ele>1622.8149414062</ele>
        <time>2011-09-11T09:29:49Z</time>
      </trkpt>
      <trkpt lat="42.65145" lon="2.14499">
        <ele>1624.5720214844</ele>
        <time>2011-09-11T09:29:57Z</time>
      </trkpt>
      <trkpt lat="42.65131" lon="2.14492">
        <ele>1625.208984375</ele>
        <time>2011-09-11T09:30:03Z</time>
      </trkpt>
      <trkpt lat="42.65121" lon="2.14487">
        <ele>1625.8549804688</ele>
        <time>2011-09-11T09:30:08Z</time>
      </trkpt>
      <trkpt lat="42.65107" lon="2.14478">
        <ele>1627.1960449219</ele>
        <time>2011-09-11T09:30:14Z</time>
      </trkpt>
      <trkpt lat="42.65094" lon="2.14472">
        <ele>1628.0009765625</ele>
        <time>2011-09-11T09:30:19Z</time>
      </trkpt>
      <trkpt lat="42.65083" lon="2.14465">
        <ele>1628.8100585938</ele>
        <time>2011-09-11T09:30:24Z</time>
      </trkpt>
      <trkpt lat="42.65066" lon="2.14459">
        <ele>1629.9010009766</ele>
        <time>2011-09-11T09:30:31Z</time>
      </trkpt>
      <trkpt lat="42.65046" lon="2.14452">
        <ele>1631.4410400391</ele>
        <time>2011-09-11T09:30:39Z</time>
      </trkpt>
      <trkpt lat="42.65027" lon="2.14445">
        <ele>1632.9320068359</ele>
        <time>2011-09-11T09:30:47Z</time>
      </trkpt>
      <trkpt lat="42.65006" lon="2.14433">
        <ele>1634.4549560547</ele>
        <time>2011-09-11T09:30:56Z</time>
      </trkpt>
      <trkpt lat="42.6499" lon="2.14425">
        <ele>1635.7640380859</ele>
        <time>2011-09-11T09:31:03Z</time>
      </trkpt>
      <trkpt lat="42.64977" lon="2.14419">
        <ele>1636.5780029297</ele>
        <time>2011-09-11T09:31:10Z</time>
      </trkpt>
      <trkpt lat="42.64965" lon="2.14406">
        <ele>1637.8559570312</ele>
        <time>2011-09-11T09:31:17Z</time>
      </trkpt>
      <trkpt lat="42.64953" lon="2.14393">
        <ele>1638.6920166016</ele>
        <time>2011-09-11T09:31:23Z</time>
      </trkpt>
      <trkpt lat="42.64936" lon="2.14379">
        <ele>1639.3599853516</ele>
        <time>2011-09-11T09:31:30Z</time>
      </trkpt>
      <trkpt lat="42.64919" lon="2.14375">
        <ele>1640.1739501953</ele>
        <time>2011-09-11T09:31:37Z</time>
      </trkpt>
      <trkpt lat="42.64902" lon="2.14383">
        <ele>1641.2740478516</ele>
        <time>2011-09-11T09:31:43Z</time>
      </trkpt>
      <trkpt lat="42.64883" lon="2.14401">
        <ele>1641.8759765625</ele>
        <time>2011-09-11T09:31:51Z</time>
      </trkpt>
      <trkpt lat="42.64873" lon="2.14416">
        <ele>1642.5179443359</ele>
        <time>2011-09-11T09:31:57Z</time>
      </trkpt>
      <trkpt lat="42.64869" lon="2.14432">
        <ele>1643.0550537109</ele>
        <time>2011-09-11T09:32:02Z</time>
      </trkpt>
      <trkpt lat="42.6486" lon="2.1445">
        <ele>1645.2449951172</ele>
        <time>2011-09-11T09:32:09Z</time>
      </trkpt>
      <trkpt lat="42.6485" lon="2.14467">
        <ele>1646.4840087891</ele>
        <time>2011-09-11T09:32:16Z</time>
      </trkpt>
      <trkpt lat="42.64841" lon="2.14476">
        <ele>1647.2390136719</ele>
        <time>2011-09-11T09:32:22Z</time>
      </trkpt>
      <trkpt lat="42.64829" lon="2.14491">
        <ele>1648.6920166016</ele>
        <time>2011-09-11T09:32:30Z</time>
      </trkpt>
      <trkpt lat="42.64815" lon="2.14508">
        <ele>1649.8509521484</ele>
        <time>2011-09-11T09:32:38Z</time>
      </trkpt>
      <trkpt lat="42.64805" lon="2.14526">
        <ele>1650.626953125</ele>
        <time>2011-09-11T09:32:45Z</time>
      </trkpt>
      <trkpt lat="42.64799" lon="2.14539">
        <ele>1651.0510253906</ele>
        <time>2011-09-11T09:32:50Z</time>
      </trkpt>
      <trkpt lat="42.64793" lon="2.14558">
        <ele>1651.7459716797</ele>
        <time>2011-09-11T09:32:56Z</time>
      </trkpt>
      <trkpt lat="42.64786" lon="2.14572">
        <ele>1652.5980224609</ele>
        <time>2011-09-11T09:33:01Z</time>
      </trkpt>
      <trkpt lat="42.64775" lon="2.14589">
        <ele>1653.1999511719</ele>
        <time>2011-09-11T09:33:07Z</time>
      </trkpt>
      <trkpt lat="42.6477" lon="2.14598">
        <ele>1653.3859863281</ele>
        <time>2011-09-11T09:33:12Z</time>
      </trkpt>
      <trkpt lat="42.64764" lon="2.14593">
        <ele>1653.4840087891</ele>
        <time>2011-09-11T09:33:16Z</time>
      </trkpt>
      <trkpt lat="42.64762" lon="2.14576">
        <ele>1653.7249755859</ele>
        <time>2011-09-11T09:33:22Z</time>
      </trkpt>
      <trkpt lat="42.64753" lon="2.14555">
        <ele>1654.3509521484</ele>
        <time>2011-09-11T09:33:28Z</time>
      </trkpt>
      <trkpt lat="42.64739" lon="2.14539">
        <ele>1655.6400146484</ele>
        <time>2011-09-11T09:33:33Z</time>
      </trkpt>
      <trkpt lat="42.64722" lon="2.14532">
        <ele>1657.3699951172</ele>
        <time>2011-09-11T09:33:39Z</time>
      </trkpt>
      <trkpt lat="42.64704" lon="2.14525">
        <ele>1658.8489990234</ele>
        <time>2011-09-11T09:33:45Z</time>
      </trkpt>
      <trkpt lat="42.64693" lon="2.14515">
        <ele>1659.8780517578</ele>
        <time>2011-09-11T09:33:50Z</time>
      </trkpt>
      <trkpt lat="42.64683" lon="2.14507">
        <ele>1660.5760498047</ele>
        <time>2011-09-11T09:33:55Z</time>
      </trkpt>
      <trkpt lat="42.64676" lon="2.14498">
        <ele>1661.3089599609</ele>
        <time>2011-09-11T09:34:00Z</time>
      </trkpt>
      <trkpt lat="42.64667" lon="2.14487">
        <ele>1663.0369873047</ele>
        <time>2011-09-11T09:34:06Z</time>
      </trkpt>
      <trkpt lat="42.64659" lon="2.1447">
        <ele>1665.1669921875</ele>
        <time>2011-09-11T09:34:14Z</time>
      </trkpt>
      <trkpt lat="42.6465" lon="2.14458">
        <ele>1666.7690429688</ele>
        <time>2011-09-11T09:34:20Z</time>
      </trkpt>
      <trkpt lat="42.64638" lon="2.14443">
        <ele>1668.0529785156</ele>
        <time>2011-09-11T09:34:27Z</time>
      </trkpt>
      <trkpt lat="42.64627" lon="2.14431">
        <ele>1669.3409423828</ele>
        <time>2011-09-11T09:34:33Z</time>
      </trkpt>
      <trkpt lat="42.64616" lon="2.14421">
        <ele>1670.5269775391</ele>
        <time>2011-09-11T09:34:38Z</time>
      </trkpt>
      <trkpt lat="42.64615" lon="2.14419">
        <ele>1670.8020019531</ele>
        <time>2011-09-11T09:34:39Z</time>
      </trkpt>
      <trkpt lat="42.6461" lon="2.14402">
        <ele>1672.7290039062</ele>
        <time>2011-09-11T09:34:47Z</time>
      </trkpt>
      <trkpt lat="42.64602" lon="2.14393">
        <ele>1673.6369628906</ele>
        <time>2011-09-11T09:34:52Z</time>
      </trkpt>
      <trkpt lat="42.64592" lon="2.14382">
        <ele>1675.0710449219</ele>
        <time>2011-09-11T09:34:58Z</time>
      </trkpt>
      <trkpt lat="42.64584" lon="2.14373">
        <ele>1676.6899414062</ele>
        <time>2011-09-11T09:35:04Z</time>
      </trkpt>
      <trkpt lat="42.64573" lon="2.14363">
        <ele>1677.7950439453</ele>
        <time>2011-09-11T09:35:11Z</time>
      </trkpt>
      <trkpt lat="42.64553" lon="2.14349">
        <ele>1680.0119628906</ele>
        <time>2011-09-11T09:35:21Z</time>
      </trkpt>
      <trkpt lat="42.64535" lon="2.14336">
        <ele>1682.0269775391</ele>
        <time>2011-09-11T09:35:31Z</time>
      </trkpt>
      <trkpt lat="42.64519" lon="2.1433">
        <ele>1683.8020019531</ele>
        <time>2011-09-11T09:35:39Z</time>
      </trkpt>
      <trkpt lat="42.64504" lon="2.14329">
        <ele>1685.2740478516</ele>
        <time>2011-09-11T09:35:47Z</time>
      </trkpt>
      <trkpt lat="42.64489" lon="2.14324">
        <ele>1686.4399414062</ele>
        <time>2011-09-11T09:35:55Z</time>
      </trkpt>
      <trkpt lat="42.64471" lon="2.14316">
        <ele>1688.2230224609</ele>
        <time>2011-09-11T09:36:04Z</time>
      </trkpt>
      <trkpt lat="42.64451" lon="2.14309">
        <ele>1689.9050292969</ele>
        <time>2011-09-11T09:36:14Z</time>
      </trkpt>
      <trkpt lat="42.64439" lon="2.1431">
        <ele>1691.8310546875</ele>
        <time>2011-09-11T09:36:21Z</time>
      </trkpt>
      <trkpt lat="42.64428" lon="2.14312">
        <ele>1693.8559570312</ele>
        <time>2011-09-11T09:36:27Z</time>
      </trkpt>
      <trkpt lat="42.64412" lon="2.14308">
        <ele>1695.2290039062</ele>
        <time>2011-09-11T09:36:35Z</time>
      </trkpt>
      <trkpt lat="42.64402" lon="2.14307">
        <ele>1696.2159423828</ele>
        <time>2011-09-11T09:36:40Z</time>
      </trkpt>
      <trkpt lat="42.6439" lon="2.14308">
        <ele>1697.25</ele>
        <time>2011-09-11T09:36:46Z</time>
      </trkpt>
      <trkpt lat="42.64382" lon="2.1431">
        <ele>1698.8120117188</ele>
        <time>2011-09-11T09:36:51Z</time>
      </trkpt>
      <trkpt lat="42.64354" lon="2.1431">
        <ele>1700.9479980469</ele>
        <time>2011-09-11T09:37:00Z</time>
      </trkpt>
      <trkpt lat="42.6434" lon="2.14308">
        <ele>1702.8669433594</ele>
        <time>2011-09-11T09:37:07Z</time>
      </trkpt>
      <trkpt lat="42.64328" lon="2.14306">
        <ele>1703.7629394531</ele>
        <time>2011-09-11T09:37:13Z</time>
      </trkpt>
      <trkpt lat="42.64317" lon="2.14304">
        <ele>1705.1639404297</ele>
        <time>2011-09-11T09:37:19Z</time>
      </trkpt>
      <trkpt lat="42.64298" lon="2.14302">
        <ele>1707.5400390625</ele>
        <time>2011-09-11T09:37:28Z</time>
      </trkpt>
      <trkpt lat="42.6428" lon="2.14304">
        <ele>1709.2569580078</ele>
        <time>2011-09-11T09:37:37Z</time>
      </trkpt>
      <trkpt lat="42.64266" lon="2.14312">
        <ele>1710.4790039062</ele>
        <time>2011-09-11T09:37:44Z</time>
      </trkpt>
      <trkpt lat="42.64256" lon="2.14322">
        <ele>1710.5589599609</ele>
        <time>2011-09-11T09:37:49Z</time>
      </trkpt>
      <trkpt lat="42.64249" lon="2.14342">
        <ele>1708.9599609375</ele>
        <time>2011-09-11T09:37:54Z</time>
      </trkpt>
      <trkpt lat="42.64246" lon="2.14375">
        <ele>1706.5290527344</ele>
        <time>2011-09-11T09:37:59Z</time>
      </trkpt>
      <trkpt lat="42.64246" lon="2.14401">
        <ele>1705.1369628906</ele>
        <time>2011-09-11T09:38:02Z</time>
      </trkpt>
      <trkpt lat="42.6424" lon="2.14456">
        <ele>1702.7189941406</ele>
        <time>2011-09-11T09:38:08Z</time>
      </trkpt>
      <trkpt lat="42.64229" lon="2.14514">
        <ele>1702.1109619141</ele>
        <time>2011-09-11T09:38:15Z</time>
      </trkpt>
      <trkpt lat="42.64224" lon="2.1453">
        <ele>1702.0830078125</ele>
        <time>2011-09-11T09:38:17Z</time>
      </trkpt>
      <trkpt lat="42.64215" lon="2.14552">
        <ele>1701.7829589844</ele>
        <time>2011-09-11T09:38:20Z</time>
      </trkpt>
      <trkpt lat="42.64193" lon="2.14583">
        <ele>1701.2349853516</ele>
        <time>2011-09-11T09:38:25Z</time>
      </trkpt>
      <trkpt lat="42.64184" lon="2.14594">
        <ele>1700.9539794922</ele>
        <time>2011-09-11T09:38:27Z</time>
      </trkpt>
      <trkpt lat="42.64173" lon="2.14614">
        <ele>1701.0069580078</ele>
        <time>2011-09-11T09:38:30Z</time>
      </trkpt>
      <trkpt lat="42.64154" lon="2.14628">
        <ele>1701.3029785156</ele>
        <time>2011-09-11T09:38:34Z</time>
      </trkpt>
      <trkpt lat="42.64144" lon="2.14624">
        <ele>1701.3470458984</ele>
        <time>2011-09-11T09:38:36Z</time>
      </trkpt>
      <trkpt lat="42.6412" lon="2.14606">
        <ele>1702.2370605469</ele>
        <time>2011-09-11T09:38:41Z</time>
      </trkpt>
      <trkpt lat="42.64096" lon="2.14568">
        <ele>1702.6639404297</ele>
        <time>2011-09-11T09:38:48Z</time>
      </trkpt>
      <trkpt lat="42.64075" lon="2.14534">
        <ele>1702.0799560547</ele>
        <time>2011-09-11T09:38:54Z</time>
      </trkpt>
      <trkpt lat="42.64071" lon="2.14528">
        <ele>1701.9610595703</ele>
        <time>2011-09-11T09:38:55Z</time>
      </trkpt>
      <trkpt lat="42.64057" lon="2.14511">
        <ele>1701.7629394531</ele>
        <time>2011-09-11T09:38:58Z</time>
      </trkpt>
      <trkpt lat="42.64034" lon="2.14498">
        <ele>1701.251953125</ele>
        <time>2011-09-11T09:39:03Z</time>
      </trkpt>
      <trkpt lat="42.63998" lon="2.14479">
        <ele>1702.0290527344</ele>
        <time>2011-09-11T09:39:11Z</time>
      </trkpt>
      <trkpt lat="42.63968" lon="2.14465">
        <ele>1704.3809814453</ele>
        <time>2011-09-11T09:39:19Z</time>
      </trkpt>
      <trkpt lat="42.63939" lon="2.14443">
        <ele>1706.3039550781</ele>
        <time>2011-09-11T09:39:28Z</time>
      </trkpt>
      <trkpt lat="42.63918" lon="2.14445">
        <ele>1706.2989501953</ele>
        <time>2011-09-11T09:39:33Z</time>
      </trkpt>
      <trkpt lat="42.63901" lon="2.14461">
        <ele>1705.6729736328</ele>
        <time>2011-09-11T09:39:37Z</time>
      </trkpt>
      <trkpt lat="42.63866" lon="2.14493">
        <ele>1703.5880126953</ele>
        <time>2011-09-11T09:39:44Z</time>
      </trkpt>
      <trkpt lat="42.63835" lon="2.14509">
        <ele>1701.8349609375</ele>
        <time>2011-09-11T09:39:49Z</time>
      </trkpt>
      <trkpt lat="42.63809" lon="2.14508">
        <ele>1701.2550048828</ele>
        <time>2011-09-11T09:39:53Z</time>
      </trkpt>
      <trkpt lat="42.63789" lon="2.14487">
        <ele>1701.9040527344</ele>
        <time>2011-09-11T09:39:57Z</time>
      </trkpt>
      <trkpt lat="42.63784" lon="2.14481">
        <ele>1701.7449951172</ele>
        <time>2011-09-11T09:39:58Z</time>
      </trkpt>
      <trkpt lat="42.63769" lon="2.1446">
        <ele>1700.7409667969</ele>
        <time>2011-09-11T09:40:01Z</time>
      </trkpt>
      <trkpt lat="42.63739" lon="2.14428">
        <ele>1699.1800537109</ele>
        <time>2011-09-11T09:40:06Z</time>
      </trkpt>
      <trkpt lat="42.63696" lon="2.1441">
        <ele>1696.0920410156</ele>
        <time>2011-09-11T09:40:11Z</time>
      </trkpt>
      <trkpt lat="42.63674" lon="2.14404">
        <ele>1692.9439697266</ele>
        <time>2011-09-11T09:40:14Z</time>
      </trkpt>
      <trkpt lat="42.63646" lon="2.14408">
        <ele>1690.0260009766</ele>
        <time>2011-09-11T09:40:18Z</time>
      </trkpt>
      <trkpt lat="42.6363" lon="2.1441">
        <ele>1689.6130371094</ele>
        <time>2011-09-11T09:40:21Z</time>
      </trkpt>
      <trkpt lat="42.63613" lon="2.14409">
        <ele>1690.3990478516</ele>
        <time>2011-09-11T09:40:25Z</time>
      </trkpt>
      <trkpt lat="42.63591" lon="2.14412">
        <ele>1690.5059814453</ele>
        <time>2011-09-11T09:40:30Z</time>
      </trkpt>
      <trkpt lat="42.63564" lon="2.14414">
        <ele>1691.333984375</ele>
        <time>2011-09-11T09:40:36Z</time>
      </trkpt>
      <trkpt lat="42.63544" lon="2.14421">
        <ele>1691.7299804688</ele>
        <time>2011-09-11T09:40:41Z</time>
      </trkpt>
      <trkpt lat="42.63524" lon="2.14436">
        <ele>1693.125</ele>
        <time>2011-09-11T09:40:47Z</time>
      </trkpt>
      <trkpt lat="42.63513" lon="2.1445">
        <ele>1693.3840332031</ele>
        <time>2011-09-11T09:40:51Z</time>
      </trkpt>
      <trkpt lat="42.63502" lon="2.14469">
        <ele>1693.9040527344</ele>
        <time>2011-09-11T09:40:56Z</time>
      </trkpt>
      <trkpt lat="42.63489" lon="2.14496">
        <ele>1694.8020019531</ele>
        <time>2011-09-11T09:41:03Z</time>
      </trkpt>
      <trkpt lat="42.63477" lon="2.1451">
        <ele>1695.4129638672</ele>
        <time>2011-09-11T09:41:08Z</time>
      </trkpt>
      <trkpt lat="42.6346" lon="2.14522">
        <ele>1695.7669677734</ele>
        <time>2011-09-11T09:41:14Z</time>
      </trkpt>
      <trkpt lat="42.63441" lon="2.14532">
        <ele>1696.9620361328</ele>
        <time>2011-09-11T09:41:21Z</time>
      </trkpt>
      <trkpt lat="42.63427" lon="2.14542">
        <ele>1697.4360351562</ele>
        <time>2011-09-11T09:41:25Z</time>
      </trkpt>
      <trkpt lat="42.6341" lon="2.14561">
        <ele>1697.7430419922</ele>
        <time>2011-09-11T09:41:31Z</time>
      </trkpt>
      <trkpt lat="42.63391" lon="2.14581">
        <ele>1698.5889892578</ele>
        <time>2011-09-11T09:41:37Z</time>
      </trkpt>
      <trkpt lat="42.63376" lon="2.14599">
        <ele>1699.1820068359</ele>
        <time>2011-09-11T09:41:42Z</time>
      </trkpt>
      <trkpt lat="42.63363" lon="2.14607">
        <ele>1699.4279785156</ele>
        <time>2011-09-11T09:41:46Z</time>
      </trkpt>
      <trkpt lat="42.63344" lon="2.14598">
        <ele>1699.6989746094</ele>
        <time>2011-09-11T09:41:51Z</time>
      </trkpt>
      <trkpt lat="42.63326" lon="2.14585">
        <ele>1700.2120361328</ele>
        <time>2011-09-11T09:41:56Z</time>
      </trkpt>
      <trkpt lat="42.63313" lon="2.14562">
        <ele>1700.9139404297</ele>
        <time>2011-09-11T09:42:02Z</time>
      </trkpt>
      <trkpt lat="42.63308" lon="2.14539">
        <ele>1701.4840087891</ele>
        <time>2011-09-11T09:42:07Z</time>
      </trkpt>
      <trkpt lat="42.633" lon="2.14526">
        <ele>1701.4790039062</ele>
        <time>2011-09-11T09:42:10Z</time>
      </trkpt>
      <trkpt lat="42.63277" lon="2.14484">
        <ele>1702.2010498047</ele>
        <time>2011-09-11T09:42:18Z</time>
      </trkpt>
      <trkpt lat="42.63271" lon="2.14475">
        <ele>1702.3740234375</ele>
        <time>2011-09-11T09:42:20Z</time>
      </trkpt>
      <trkpt lat="42.63251" lon="2.14458">
        <ele>1702.9270019531</ele>
        <time>2011-09-11T09:42:25Z</time>
      </trkpt>
      <trkpt lat="42.63229" lon="2.1445">
        <ele>1703.1550292969</ele>
        <time>2011-09-11T09:42:30Z</time>
      </trkpt>
      <trkpt lat="42.63218" lon="2.14463">
        <ele>1703.3000488281</ele>
        <time>2011-09-11T09:42:33Z</time>
      </trkpt>
      <trkpt lat="42.63215" lon="2.14476">
        <ele>1703.2060546875</ele>
        <time>2011-09-11T09:42:35Z</time>
      </trkpt>
      <trkpt lat="42.63205" lon="2.14507">
        <ele>1704.0939941406</ele>
        <time>2011-09-11T09:42:41Z</time>
      </trkpt>
      <trkpt lat="42.63198" lon="2.14516">
        <ele>1704.5520019531</ele>
        <time>2011-09-11T09:42:43Z</time>
      </trkpt>
      <trkpt lat="42.63186" lon="2.14531">
        <ele>1704.9990234375</ele>
        <time>2011-09-11T09:42:47Z</time>
      </trkpt>
      <trkpt lat="42.63173" lon="2.14538">
        <ele>1705.0319824219</ele>
        <time>2011-09-11T09:42:50Z</time>
      </trkpt>
      <trkpt lat="42.63146" lon="2.14551">
        <ele>1705.6960449219</ele>
        <time>2011-09-11T09:42:57Z</time>
      </trkpt>
      <trkpt lat="42.63128" lon="2.14557">
        <ele>1706.1629638672</ele>
        <time>2011-09-11T09:43:02Z</time>
      </trkpt>
      <trkpt lat="42.63106" lon="2.14567">
        <ele>1706.6760253906</ele>
        <time>2011-09-11T09:43:07Z</time>
      </trkpt>
      <trkpt lat="42.63095" lon="2.14574">
        <ele>1707.1340332031</ele>
        <time>2011-09-11T09:43:10Z</time>
      </trkpt>
      <trkpt lat="42.63087" lon="2.14576">
        <ele>1707.5</ele>
        <time>2011-09-11T09:43:12Z</time>
      </trkpt>
      <trkpt lat="42.63069" lon="2.1457">
        <ele>1708.8000488281</ele>
        <time>2011-09-11T09:43:16Z</time>
      </trkpt>
      <trkpt lat="42.63026" lon="2.14541">
        <ele>1710.2249755859</ele>
        <time>2011-09-11T09:43:26Z</time>
      </trkpt>
      <trkpt lat="42.62994" lon="2.14518">
        <ele>1711.4200439453</ele>
        <time>2011-09-11T09:43:34Z</time>
      </trkpt>
      <trkpt lat="42.62954" lon="2.14489">
        <ele>1713.4339599609</ele>
        <time>2011-09-11T09:43:44Z</time>
      </trkpt>
      <trkpt lat="42.62934" lon="2.14468">
        <ele>1714.5250244141</ele>
        <time>2011-09-11T09:43:50Z</time>
      </trkpt>
      <trkpt lat="42.6292" lon="2.14462">
        <ele>1715.6049804688</ele>
        <time>2011-09-11T09:43:54Z</time>
      </trkpt>
      <trkpt lat="42.62895" lon="2.14458">
        <ele>1716.9439697266</ele>
        <time>2011-09-11T09:44:01Z</time>
      </trkpt>
      <trkpt lat="42.62888" lon="2.14456">
        <ele>1717.2559814453</ele>
        <time>2011-09-11T09:44:03Z</time>
      </trkpt>
      <trkpt lat="42.62868" lon="2.14471">
        <ele>1717.6500244141</ele>
        <time>2011-09-11T09:44:09Z</time>
      </trkpt>
      <trkpt lat="42.62852" lon="2.1448">
        <ele>1717.6800537109</ele>
        <time>2011-09-11T09:44:14Z</time>
      </trkpt>
      <trkpt lat="42.62828" lon="2.14489">
        <ele>1718.7869873047</ele>
        <time>2011-09-11T09:44:22Z</time>
      </trkpt>
      <trkpt lat="42.62806" lon="2.14498">
        <ele>1720.1910400391</ele>
        <time>2011-09-11T09:44:30Z</time>
      </trkpt>
      <trkpt lat="42.62796" lon="2.14501">
        <ele>1721.2969970703</ele>
        <time>2011-09-11T09:44:35Z</time>
      </trkpt>
      <trkpt lat="42.62781" lon="2.14508">
        <ele>1722.8570556641</ele>
        <time>2011-09-11T09:44:41Z</time>
      </trkpt>
      <trkpt lat="42.62778" lon="2.14509">
        <ele>1723.0689697266</ele>
        <time>2011-09-11T09:44:42Z</time>
      </trkpt>
      <trkpt lat="42.62764" lon="2.1452">
        <ele>1723.666015625</ele>
        <time>2011-09-11T09:44:48Z</time>
      </trkpt>
      <trkpt lat="42.62743" lon="2.14541">
        <ele>1725.4830322266</ele>
        <time>2011-09-11T09:44:57Z</time>
      </trkpt>
      <trkpt lat="42.62732" lon="2.14557">
        <ele>1726.5760498047</ele>
        <time>2011-09-11T09:45:03Z</time>
      </trkpt>
      <trkpt lat="42.62721" lon="2.14579">
        <ele>1727.7120361328</ele>
        <time>2011-09-11T09:45:10Z</time>
      </trkpt>
      <trkpt lat="42.62714" lon="2.14594">
        <ele>1729.0550537109</ele>
        <time>2011-09-11T09:45:15Z</time>
      </trkpt>
      <trkpt lat="42.627" lon="2.14607">
        <ele>1730.3430175781</ele>
        <time>2011-09-11T09:45:21Z</time>
      </trkpt>
      <trkpt lat="42.62684" lon="2.1462">
        <ele>1731.7320556641</ele>
        <time>2011-09-11T09:45:28Z</time>
      </trkpt>
      <trkpt lat="42.62671" lon="2.14633">
        <ele>1732.8909912109</ele>
        <time>2011-09-11T09:45:34Z</time>
      </trkpt>
      <trkpt lat="42.62656" lon="2.14649">
        <ele>1734.1860351562</ele>
        <time>2011-09-11T09:45:41Z</time>
      </trkpt>
      <trkpt lat="42.62644" lon="2.14649">
        <ele>1734.7270507812</ele>
        <time>2011-09-11T09:45:45Z</time>
      </trkpt>
      <trkpt lat="42.62633" lon="2.14638">
        <ele>1735.5250244141</ele>
        <time>2011-09-11T09:45:50Z</time>
      </trkpt>
      <trkpt lat="42.62618" lon="2.14618">
        <ele>1736.8380126953</ele>
        <time>2011-09-11T09:45:57Z</time>
      </trkpt>
      <trkpt lat="42.62599" lon="2.14593">
        <ele>1738.1240234375</ele>
        <time>2011-09-11T09:46:06Z</time>
      </trkpt>
      <trkpt lat="42.62577" lon="2.1457">
        <ele>1739.7530517578</ele>
        <time>2011-09-11T09:46:15Z</time>
      </trkpt>
      <trkpt lat="42.6256" lon="2.14556">
        <ele>1741.8179931641</ele>
        <time>2011-09-11T09:46:22Z</time>
      </trkpt>
      <trkpt lat="42.62544" lon="2.14553">
        <ele>1743.2170410156</ele>
        <time>2011-09-11T09:46:28Z</time>
      </trkpt>
      <trkpt lat="42.62531" lon="2.14561">
        <ele>1744.0600585938</ele>
        <time>2011-09-11T09:46:33Z</time>
      </trkpt>
      <trkpt lat="42.6252" lon="2.14575">
        <ele>1744.5310058594</ele>
        <time>2011-09-11T09:46:38Z</time>
      </trkpt>
      <trkpt lat="42.62511" lon="2.14593">
        <ele>1745.2259521484</ele>
        <time>2011-09-11T09:46:44Z</time>
      </trkpt>
      <trkpt lat="42.62502" lon="2.14615">
        <ele>1746.6199951172</ele>
        <time>2011-09-11T09:46:52Z</time>
      </trkpt>
      <trkpt lat="42.62494" lon="2.14627">
        <ele>1747.45703125</ele>
        <time>2011-09-11T09:46:57Z</time>
      </trkpt>
      <trkpt lat="42.62482" lon="2.14647">
        <ele>1749.1960449219</ele>
        <time>2011-09-11T09:47:05Z</time>
      </trkpt>
      <trkpt lat="42.62471" lon="2.14667">
        <ele>1751.2359619141</ele>
        <time>2011-09-11T09:47:13Z</time>
      </trkpt>
      <trkpt lat="42.62461" lon="2.14681">
        <ele>1752.1999511719</ele>
        <time>2011-09-11T09:47:19Z</time>
      </trkpt>
      <trkpt lat="42.6245" lon="2.14695">
        <ele>1753.6109619141</ele>
        <time>2011-09-11T09:47:26Z</time>
      </trkpt>
      <trkpt lat="42.62436" lon="2.14707">
        <ele>1754.8060302734</ele>
        <time>2011-09-11T09:47:33Z</time>
      </trkpt>
      <trkpt lat="42.62421" lon="2.14719">
        <ele>1756.2239990234</ele>
        <time>2011-09-11T09:47:40Z</time>
      </trkpt>
      <trkpt lat="42.62407" lon="2.14734">
        <ele>1757.3229980469</ele>
        <time>2011-09-11T09:47:48Z</time>
      </trkpt>
      <trkpt lat="42.62395" lon="2.14745">
        <ele>1758.1169433594</ele>
        <time>2011-09-11T09:47:54Z</time>
      </trkpt>
      <trkpt lat="42.62384" lon="2.14761">
        <ele>1759.0269775391</ele>
        <time>2011-09-11T09:48:01Z</time>
      </trkpt>
      <trkpt lat="42.62377" lon="2.14772">
        <ele>1759.5300292969</ele>
        <time>2011-09-11T09:48:06Z</time>
      </trkpt>
      <trkpt lat="42.62375" lon="2.14773">
        <ele>1759.6719970703</ele>
        <time>2011-09-11T09:48:08Z</time>
      </trkpt>
      <trkpt lat="42.62372" lon="2.14762">
        <ele>1759.0930175781</ele>
        <time>2011-09-11T09:48:12Z</time>
      </trkpt>
      <trkpt lat="42.62374" lon="2.14757">
        <ele>1758.623046875</ele>
        <time>2011-09-11T09:48:13Z</time>
      </trkpt>
      <trkpt lat="42.62393" lon="2.14727">
        <ele>1756.5389404297</ele>
        <time>2011-09-11T09:48:18Z</time>
      </trkpt>
      <trkpt lat="42.62408" lon="2.14702">
        <ele>1754.6330566406</ele>
        <time>2011-09-11T09:48:22Z</time>
      </trkpt>
      <trkpt lat="42.62429" lon="2.14675">
        <ele>1751.2650146484</ele>
        <time>2011-09-11T09:48:26Z</time>
      </trkpt>
      <trkpt lat="42.62442" lon="2.14662">
        <ele>1749.5930175781</ele>
        <time>2011-09-11T09:48:28Z</time>
      </trkpt>
      <trkpt lat="42.62465" lon="2.14629">
        <ele>1745.5479736328</ele>
        <time>2011-09-11T09:48:32Z</time>
      </trkpt>
      <trkpt lat="42.62491" lon="2.14591">
        <ele>1740.9780273438</ele>
        <time>2011-09-11T09:48:37Z</time>
      </trkpt>
      <trkpt lat="42.6251" lon="2.14554">
        <ele>1739.1309814453</ele>
        <time>2011-09-11T09:48:42Z</time>
      </trkpt>
      <trkpt lat="42.62513" lon="2.14535">
        <ele>1737.6009521484</ele>
        <time>2011-09-11T09:48:44Z</time>
      </trkpt>
      <trkpt lat="42.6252" lon="2.14509">
        <ele>1733.5190429688</ele>
        <time>2011-09-11T09:48:47Z</time>
      </trkpt>
      <trkpt lat="42.62532" lon="2.14486">
        <ele>1730.5159912109</ele>
        <time>2011-09-11T09:48:50Z</time>
      </trkpt>
      <trkpt lat="42.62552" lon="2.14442">
        <ele>1725.3509521484</ele>
        <time>2011-09-11T09:48:56Z</time>
      </trkpt>
      <trkpt lat="42.62561" lon="2.14428">
        <ele>1722.6689453125</ele>
        <time>2011-09-11T09:48:58Z</time>
      </trkpt>
      <trkpt lat="42.6258" lon="2.1441">
        <ele>1718.3129882812</ele>
        <time>2011-09-11T09:49:02Z</time>
      </trkpt>
      <trkpt lat="42.62598" lon="2.14389">
        <ele>1712.4169921875</ele>
        <time>2011-09-11T09:49:08Z</time>
      </trkpt>
      <trkpt lat="42.62613" lon="2.14378">
        <ele>1708.8959960938</ele>
        <time>2011-09-11T09:49:12Z</time>
      </trkpt>
      <trkpt lat="42.62621" lon="2.14366">
        <ele>1705.0439453125</ele>
        <time>2011-09-11T09:49:15Z</time>
      </trkpt>
      <trkpt lat="42.62631" lon="2.14339">
        <ele>1699.8439941406</ele>
        <time>2011-09-11T09:49:20Z</time>
      </trkpt>
      <trkpt lat="42.62644" lon="2.14308">
        <ele>1694.2220458984</ele>
        <time>2011-09-11T09:49:25Z</time>
      </trkpt>
      <trkpt lat="42.62644" lon="2.14301">
        <ele>1693.0310058594</ele>
        <time>2011-09-11T09:49:26Z</time>
      </trkpt>
      <trkpt lat="42.62652" lon="2.14274">
        <ele>1687.5889892578</ele>
        <time>2011-09-11T09:49:31Z</time>
      </trkpt>
      <trkpt lat="42.62657" lon="2.14261">
        <ele>1683.5980224609</ele>
        <time>2011-09-11T09:49:35Z</time>
      </trkpt>
      <trkpt lat="42.6266" lon="2.14247">
        <ele>1679.9969482422</ele>
        <time>2011-09-11T09:49:39Z</time>
      </trkpt>
      <trkpt lat="42.62679" lon="2.14244">
        <ele>1675.1400146484</ele>
        <time>2011-09-11T09:49:44Z</time>
      </trkpt>
      <trkpt lat="42.62695" lon="2.14247">
        <ele>1673.0100097656</ele>
        <time>2011-09-11T09:49:47Z</time>
      </trkpt>
      <trkpt lat="42.62716" lon="2.14243">
        <ele>1668.7189941406</ele>
        <time>2011-09-11T09:49:52Z</time>
      </trkpt>
      <trkpt lat="42.62724" lon="2.14236">
        <ele>1666.1889648438</ele>
        <time>2011-09-11T09:49:54Z</time>
      </trkpt>
      <trkpt lat="42.62733" lon="2.14224">
        <ele>1663.3260498047</ele>
        <time>2011-09-11T09:49:56Z</time>
      </trkpt>
      <trkpt lat="42.6275" lon="2.1421">
        <ele>1659.4659423828</ele>
        <time>2011-09-11T09:49:59Z</time>
      </trkpt>
      <trkpt lat="42.62768" lon="2.14193">
        <ele>1654.9659423828</ele>
        <time>2011-09-11T09:50:03Z</time>
      </trkpt>
      <trkpt lat="42.62772" lon="2.1417">
        <ele>1650.8139648438</ele>
        <time>2011-09-11T09:50:07Z</time>
      </trkpt>
      <trkpt lat="42.62759" lon="2.14156">
        <ele>1648.7449951172</ele>
        <time>2011-09-11T09:50:10Z</time>
      </trkpt>
      <trkpt lat="42.62746" lon="2.14149">
        <ele>1646.9329833984</ele>
        <time>2011-09-11T09:50:12Z</time>
      </trkpt>
      <trkpt lat="42.62732" lon="2.14143">
        <ele>1644.6779785156</ele>
        <time>2011-09-11T09:50:14Z</time>
      </trkpt>
      <trkpt lat="42.6272" lon="2.14135">
        <ele>1642.9200439453</ele>
        <time>2011-09-11T09:50:16Z</time>
      </trkpt>
      <trkpt lat="42.62698" lon="2.1411">
        <ele>1638.0369873047</ele>
        <time>2011-09-11T09:50:20Z</time>
      </trkpt>
      <trkpt lat="42.62662" lon="2.14081">
        <ele>1631.5550537109</ele>
        <time>2011-09-11T09:50:26Z</time>
      </trkpt>
      <trkpt lat="42.62646" lon="2.1407">
        <ele>1628.248046875</ele>
        <time>2011-09-11T09:50:29Z</time>
      </trkpt>
      <trkpt lat="42.62622" lon="2.14061">
        <ele>1624.2180175781</ele>
        <time>2011-09-11T09:50:34Z</time>
      </trkpt>
      <trkpt lat="42.62615" lon="2.14056">
        <ele>1620.8280029297</ele>
        <time>2011-09-11T09:50:37Z</time>
      </trkpt>
      <trkpt lat="42.62627" lon="2.14042">
        <ele>1617.2950439453</ele>
        <time>2011-09-11T09:50:41Z</time>
      </trkpt>
      <trkpt lat="42.62647" lon="2.14031">
        <ele>1615.2340087891</ele>
        <time>2011-09-11T09:50:44Z</time>
      </trkpt>
      <trkpt lat="42.62673" lon="2.14025">
        <ele>1611.5510253906</ele>
        <time>2011-09-11T09:50:48Z</time>
      </trkpt>
      <trkpt lat="42.6268" lon="2.14025">
        <ele>1610.7159423828</ele>
        <time>2011-09-11T09:50:49Z</time>
      </trkpt>
      <trkpt lat="42.62697" lon="2.14021">
        <ele>1608.7729492188</ele>
        <time>2011-09-11T09:50:52Z</time>
      </trkpt>
      <trkpt lat="42.627" lon="2.14015">
        <ele>1606.6040039062</ele>
        <time>2011-09-11T09:50:55Z</time>
      </trkpt>
      <trkpt lat="42.62694" lon="2.1401">
        <ele>1604.8060302734</ele>
        <time>2011-09-11T09:50:57Z</time>
      </trkpt>
      <trkpt lat="42.62671" lon="2.13989">
        <ele>1600.2170410156</ele>
        <time>2011-09-11T09:51:02Z</time>
      </trkpt>
      <trkpt lat="42.62662" lon="2.13975">
        <ele>1597.9329833984</ele>
        <time>2011-09-11T09:51:05Z</time>
      </trkpt>
      <trkpt lat="42.62643" lon="2.13956">
        <ele>1593.75</ele>
        <time>2011-09-11T09:51:09Z</time>
      </trkpt>
      <trkpt lat="42.62633" lon="2.1395">
        <ele>1591.416015625</ele>
        <time>2011-09-11T09:51:11Z</time>
      </trkpt>
      <trkpt lat="42.62634" lon="2.13935">
        <ele>1585.3409423828</ele>
        <time>2011-09-11T09:51:15Z</time>
      </trkpt>
      <trkpt lat="42.62646" lon="2.13923">
        <ele>1581.75</ele>
        <time>2011-09-11T09:51:19Z</time>
      </trkpt>
      <trkpt lat="42.62647" lon="2.13908">
        <ele>1578.8499755859</ele>
        <time>2011-09-11T09:51:22Z</time>
      </trkpt>
      <trkpt lat="42.62654" lon="2.13894">
        <ele>1574.7939453125</ele>
        <time>2011-09-11T09:51:25Z</time>
      </trkpt>
      <trkpt lat="42.62667" lon="2.13896">
        <ele>1573.04296875</ele>
        <time>2011-09-11T09:51:27Z</time>
      </trkpt>
      <trkpt lat="42.62688" lon="2.13902">
        <ele>1571.7060546875</ele>
        <time>2011-09-11T09:51:30Z</time>
      </trkpt>
      <trkpt lat="42.62728" lon="2.13905">
        <ele>1568.8430175781</ele>
        <time>2011-09-11T09:51:35Z</time>
      </trkpt>
      <trkpt lat="42.62736" lon="2.13905">
        <ele>1567.9040527344</ele>
        <time>2011-09-11T09:51:36Z</time>
      </trkpt>
      <trkpt lat="42.62786" lon="2.13898">
        <ele>1563.3430175781</ele>
        <time>2011-09-11T09:51:41Z</time>
      </trkpt>
      <trkpt lat="42.62841" lon="2.13884">
        <ele>1559.416015625</ele>
        <time>2011-09-11T09:51:46Z</time>
      </trkpt>
      <trkpt lat="42.62862" lon="2.13882">
        <ele>1556.7669677734</ele>
        <time>2011-09-11T09:51:48Z</time>
      </trkpt>
      <trkpt lat="42.62891" lon="2.13899">
        <ele>1552.8950195312</ele>
        <time>2011-09-11T09:51:52Z</time>
      </trkpt>
      <trkpt lat="42.62896" lon="2.13907">
        <ele>1552.4040527344</ele>
        <time>2011-09-11T09:51:53Z</time>
      </trkpt>
      <trkpt lat="42.62904" lon="2.13924">
        <ele>1551.6120605469</ele>
        <time>2011-09-11T09:51:55Z</time>
      </trkpt>
      <trkpt lat="42.6292" lon="2.13966">
        <ele>1550.58203125</ele>
        <time>2011-09-11T09:52:00Z</time>
      </trkpt>
      <trkpt lat="42.62933" lon="2.13976">
        <ele>1550.0909423828</ele>
        <time>2011-09-11T09:52:03Z</time>
      </trkpt>
      <trkpt lat="42.62948" lon="2.13964">
        <ele>1548.9630126953</ele>
        <time>2011-09-11T09:52:05Z</time>
      </trkpt>
      <trkpt lat="42.62966" lon="2.13941">
        <ele>1546.5140380859</ele>
        <time>2011-09-11T09:52:08Z</time>
      </trkpt>
      <trkpt lat="42.62992" lon="2.13921">
        <ele>1542.7149658203</ele>
        <time>2011-09-11T09:52:12Z</time>
      </trkpt>
      <trkpt lat="42.63023" lon="2.13906">
        <ele>1539.1070556641</ele>
        <time>2011-09-11T09:52:16Z</time>
      </trkpt>
      <trkpt lat="42.63055" lon="2.13911">
        <ele>1535.8129882812</ele>
        <time>2011-09-11T09:52:20Z</time>
      </trkpt>
      <trkpt lat="42.63063" lon="2.13917">
        <ele>1534.8929443359</ele>
        <time>2011-09-11T09:52:21Z</time>
      </trkpt>
      <trkpt lat="42.63079" lon="2.13929">
        <ele>1533.1789550781</ele>
        <time>2011-09-11T09:52:23Z</time>
      </trkpt>
      <trkpt lat="42.63094" lon="2.13939">
        <ele>1531.7629394531</ele>
        <time>2011-09-11T09:52:25Z</time>
      </trkpt>
      <trkpt lat="42.63121" lon="2.13971">
        <ele>1528.2609863281</ele>
        <time>2011-09-11T09:52:29Z</time>
      </trkpt>
      <trkpt lat="42.63127" lon="2.1398">
        <ele>1527.8110351562</ele>
        <time>2011-09-11T09:52:30Z</time>
      </trkpt>
      <trkpt lat="42.63148" lon="2.13991">
        <ele>1523.6619873047</ele>
        <time>2011-09-11T09:52:34Z</time>
      </trkpt>
      <trkpt lat="42.63153" lon="2.13972">
        <ele>1521.0880126953</ele>
        <time>2011-09-11T09:52:37Z</time>
      </trkpt>
      <trkpt lat="42.63143" lon="2.13962">
        <ele>1519.6090087891</ele>
        <time>2011-09-11T09:52:39Z</time>
      </trkpt>
      <trkpt lat="42.63127" lon="2.13943">
        <ele>1518.3690185547</ele>
        <time>2011-09-11T09:52:42Z</time>
      </trkpt>
      <trkpt lat="42.63123" lon="2.13898">
        <ele>1515.6369628906</ele>
        <time>2011-09-11T09:52:46Z</time>
      </trkpt>
      <trkpt lat="42.63115" lon="2.13863">
        <ele>1513.2180175781</ele>
        <time>2011-09-11T09:52:49Z</time>
      </trkpt>
      <trkpt lat="42.6311" lon="2.13852">
        <ele>1512.373046875</ele>
        <time>2011-09-11T09:52:50Z</time>
      </trkpt>
      <trkpt lat="42.63088" lon="2.13822">
        <ele>1510.7850341797</ele>
        <time>2011-09-11T09:52:53Z</time>
      </trkpt>
      <trkpt lat="42.63052" lon="2.13795">
        <ele>1507.1390380859</ele>
        <time>2011-09-11T09:52:57Z</time>
      </trkpt>
      <trkpt lat="42.63043" lon="2.13791">
        <ele>1505.4420166016</ele>
        <time>2011-09-11T09:52:58Z</time>
      </trkpt>
      <trkpt lat="42.63019" lon="2.13762">
        <ele>1500.9730224609</ele>
        <time>2011-09-11T09:53:02Z</time>
      </trkpt>
      <trkpt lat="42.63005" lon="2.1373">
        <ele>1498.9630126953</ele>
        <time>2011-09-11T09:53:05Z</time>
      </trkpt>
      <trkpt lat="42.63" lon="2.1372">
        <ele>1498.2239990234</ele>
        <time>2011-09-11T09:53:06Z</time>
      </trkpt>
      <trkpt lat="42.62988" lon="2.13701">
        <ele>1496.9699707031</ele>
        <time>2011-09-11T09:53:08Z</time>
      </trkpt>
      <trkpt lat="42.62971" lon="2.13671">
        <ele>1494.7099609375</ele>
        <time>2011-09-11T09:53:12Z</time>
      </trkpt>
      <trkpt lat="42.6296" lon="2.13656">
        <ele>1493.3029785156</ele>
        <time>2011-09-11T09:53:15Z</time>
      </trkpt>
      <trkpt lat="42.62955" lon="2.13655">
        <ele>1492.8229980469</ele>
        <time>2011-09-11T09:53:16Z</time>
      </trkpt>
      <trkpt lat="42.62927" lon="2.13653">
        <ele>1493.2860107422</ele>
        <time>2011-09-11T09:53:23Z</time>
      </trkpt>
      <trkpt lat="42.62912" lon="2.13653">
        <ele>1494.3100585938</ele>
        <time>2011-09-11T09:53:27Z</time>
      </trkpt>
      <trkpt lat="42.62889" lon="2.13654">
        <ele>1495.6149902344</ele>
        <time>2011-09-11T09:53:33Z</time>
      </trkpt>
      <trkpt lat="42.62873" lon="2.13659">
        <ele>1496.7349853516</ele>
        <time>2011-09-11T09:53:38Z</time>
      </trkpt>
      <trkpt lat="42.62859" lon="2.13665">
        <ele>1497.4659423828</ele>
        <time>2011-09-11T09:53:43Z</time>
      </trkpt>
      <trkpt lat="42.62842" lon="2.13672">
        <ele>1498.58203125</ele>
        <time>2011-09-11T09:53:49Z</time>
      </trkpt>
      <trkpt lat="42.62814" lon="2.13683">
        <ele>1500.4870605469</ele>
        <time>2011-09-11T09:53:59Z</time>
      </trkpt>
      <trkpt lat="42.62799" lon="2.13698">
        <ele>1500.9189453125</ele>
        <time>2011-09-11T09:54:05Z</time>
      </trkpt>
      <trkpt lat="42.62785" lon="2.13719">
        <ele>1502.1810302734</ele>
        <time>2011-09-11T09:54:13Z</time>
      </trkpt>
      <trkpt lat="42.62771" lon="2.13729">
        <ele>1503.3950195312</ele>
        <time>2011-09-11T09:54:20Z</time>
      </trkpt>
      <trkpt lat="42.62752" lon="2.13726">
        <ele>1504.6219482422</ele>
        <time>2011-09-11T09:54:28Z</time>
      </trkpt>
      <trkpt lat="42.62735" lon="2.13714">
        <ele>1504.8499755859</ele>
        <time>2011-09-11T09:54:36Z</time>
      </trkpt>
      <trkpt lat="42.62725" lon="2.13701">
        <ele>1505.0770263672</ele>
        <time>2011-09-11T09:54:42Z</time>
      </trkpt>
      <trkpt lat="42.62717" lon="2.13689">
        <ele>1505.7779541016</ele>
        <time>2011-09-11T09:54:46Z</time>
      </trkpt>
      <trkpt lat="42.62701" lon="2.1367">
        <ele>1506.1359863281</ele>
        <time>2011-09-11T09:54:52Z</time>
      </trkpt>
      <trkpt lat="42.62681" lon="2.13666">
        <ele>1507.0200195312</ele>
        <time>2011-09-11T09:54:58Z</time>
      </trkpt>
      <trkpt lat="42.62664" lon="2.13666">
        <ele>1507.5310058594</ele>
        <time>2011-09-11T09:55:03Z</time>
      </trkpt>
      <trkpt lat="42.62643" lon="2.13673">
        <ele>1508.1629638672</ele>
        <time>2011-09-11T09:55:09Z</time>
      </trkpt>
      <trkpt lat="42.62606" lon="2.13695">
        <ele>1509.4139404297</ele>
        <time>2011-09-11T09:55:21Z</time>
      </trkpt>
      <trkpt lat="42.62583" lon="2.13713">
        <ele>1510.3129882812</ele>
        <time>2011-09-11T09:55:29Z</time>
      </trkpt>
      <trkpt lat="42.62553" lon="2.13736">
        <ele>1511.2860107422</ele>
        <time>2011-09-11T09:55:39Z</time>
      </trkpt>
      <trkpt lat="42.62543" lon="2.13754">
        <ele>1512.1330566406</ele>
        <time>2011-09-11T09:55:44Z</time>
      </trkpt>
      <trkpt lat="42.62532" lon="2.13792">
        <ele>1513.1719970703</ele>
        <time>2011-09-11T09:55:53Z</time>
      </trkpt>
      <trkpt lat="42.62522" lon="2.13813">
        <ele>1514.2270507812</ele>
        <time>2011-09-11T09:55:59Z</time>
      </trkpt>
      <trkpt lat="42.62515" lon="2.13815">
        <ele>1514.3859863281</ele>
        <time>2011-09-11T09:56:01Z</time>
      </trkpt>
      <trkpt lat="42.62502" lon="2.13798">
        <ele>1514.5710449219</ele>
        <time>2011-09-11T09:56:06Z</time>
      </trkpt>
      <trkpt lat="42.62495" lon="2.1379">
        <ele>1514.5980224609</ele>
        <time>2011-09-11T09:56:08Z</time>
      </trkpt>
      <trkpt lat="42.62483" lon="2.13779">
        <ele>1514.5080566406</ele>
        <time>2011-09-11T09:56:11Z</time>
      </trkpt>
      <trkpt lat="42.62473" lon="2.13766">
        <ele>1514.5729980469</ele>
        <time>2011-09-11T09:56:14Z</time>
      </trkpt>
      <trkpt lat="42.62455" lon="2.13736">
        <ele>1514.6219482422</ele>
        <time>2011-09-11T09:56:20Z</time>
      </trkpt>
      <trkpt lat="42.62448" lon="2.13729">
        <ele>1514.7120361328</ele>
        <time>2011-09-11T09:56:22Z</time>
      </trkpt>
      <trkpt lat="42.62436" lon="2.13723">
        <ele>1515.4060058594</ele>
        <time>2011-09-11T09:56:25Z</time>
      </trkpt>
      <trkpt lat="42.62405" lon="2.13725">
        <ele>1515.7530517578</ele>
        <time>2011-09-11T09:56:32Z</time>
      </trkpt>
      <trkpt lat="42.62397" lon="2.13728">
        <ele>1515.876953125</ele>
        <time>2011-09-11T09:56:34Z</time>
      </trkpt>
      <trkpt lat="42.62388" lon="2.13733">
        <ele>1516.2220458984</ele>
        <time>2011-09-11T09:56:36Z</time>
      </trkpt>
      <trkpt lat="42.62366" lon="2.13752">
        <ele>1517.5770263672</ele>
        <time>2011-09-11T09:56:42Z</time>
      </trkpt>
      <trkpt lat="42.6235" lon="2.13752">
        <ele>1518.6979980469</ele>
        <time>2011-09-11T09:56:46Z</time>
      </trkpt>
      <trkpt lat="42.62347" lon="2.13751">
        <ele>1518.9870605469</ele>
        <time>2011-09-11T09:56:47Z</time>
      </trkpt>
      <trkpt lat="42.62333" lon="2.13725">
        <ele>1520.8210449219</ele>
        <time>2011-09-11T09:56:53Z</time>
      </trkpt>
      <trkpt lat="42.62319" lon="2.13701">
        <ele>1522.3680419922</ele>
        <time>2011-09-11T09:56:59Z</time>
      </trkpt>
      <trkpt lat="42.62305" lon="2.13685">
        <ele>1523.3819580078</ele>
        <time>2011-09-11T09:57:04Z</time>
      </trkpt>
      <trkpt lat="42.62292" lon="2.13679">
        <ele>1524.1610107422</ele>
        <time>2011-09-11T09:57:09Z</time>
      </trkpt>
      <trkpt lat="42.62272" lon="2.13669">
        <ele>1525.7120361328</ele>
        <time>2011-09-11T09:57:18Z</time>
      </trkpt>
      <trkpt lat="42.62254" lon="2.13669">
        <ele>1527.5379638672</ele>
        <time>2011-09-11T09:57:26Z</time>
      </trkpt>
      <trkpt lat="42.6224" lon="2.13676">
        <ele>1528.1020507812</ele>
        <time>2011-09-11T09:57:33Z</time>
      </trkpt>
      <trkpt lat="42.62231" lon="2.13691">
        <ele>1528.7380371094</ele>
        <time>2011-09-11T09:57:39Z</time>
      </trkpt>
      <trkpt lat="42.62219" lon="2.13717">
        <ele>1530.0810546875</ele>
        <time>2011-09-11T09:57:48Z</time>
      </trkpt>
      <trkpt lat="42.62209" lon="2.13736">
        <ele>1531.6149902344</ele>
        <time>2011-09-11T09:57:55Z</time>
      </trkpt>
      <trkpt lat="42.62194" lon="2.13758">
        <ele>1532.9969482422</ele>
        <time>2011-09-11T09:58:04Z</time>
      </trkpt>
      <trkpt lat="42.62183" lon="2.13768">
        <ele>1533.7800292969</ele>
        <time>2011-09-11T09:58:10Z</time>
      </trkpt>
      <trkpt lat="42.62169" lon="2.1378">
        <ele>1534.1839599609</ele>
        <time>2011-09-11T09:58:16Z</time>
      </trkpt>
      <trkpt lat="42.62153" lon="2.13795">
        <ele>1534.9079589844</ele>
        <time>2011-09-11T09:58:22Z</time>
      </trkpt>
      <trkpt lat="42.62143" lon="2.13805">
        <ele>1535.2740478516</ele>
        <time>2011-09-11T09:58:26Z</time>
      </trkpt>
      <trkpt lat="42.62129" lon="2.138">
        <ele>1535.8459472656</ele>
        <time>2011-09-11T09:58:31Z</time>
      </trkpt>
      <trkpt lat="42.62108" lon="2.13786">
        <ele>1537.9909667969</ele>
        <time>2011-09-11T09:58:39Z</time>
      </trkpt>
      <trkpt lat="42.62094" lon="2.1379">
        <ele>1539.3459472656</ele>
        <time>2011-09-11T09:58:44Z</time>
      </trkpt>
      <trkpt lat="42.62078" lon="2.13795">
        <ele>1540.5489501953</ele>
        <time>2011-09-11T09:58:50Z</time>
      </trkpt>
      <trkpt lat="42.62064" lon="2.13805">
        <ele>1541.4019775391</ele>
        <time>2011-09-11T09:58:56Z</time>
      </trkpt>
      <trkpt lat="42.62045" lon="2.13818">
        <ele>1542.3680419922</ele>
        <time>2011-09-11T09:59:04Z</time>
      </trkpt>
      <trkpt lat="42.62027" lon="2.13829">
        <ele>1543.5510253906</ele>
        <time>2011-09-11T09:59:11Z</time>
      </trkpt>
      <trkpt lat="42.62008" lon="2.13836">
        <ele>1544.7320556641</ele>
        <time>2011-09-11T09:59:17Z</time>
      </trkpt>
      <trkpt lat="42.61993" lon="2.13843">
        <ele>1545.9460449219</ele>
        <time>2011-09-11T09:59:22Z</time>
      </trkpt>
      <trkpt lat="42.61976" lon="2.13857">
        <ele>1547.1810302734</ele>
        <time>2011-09-11T09:59:28Z</time>
      </trkpt>
      <trkpt lat="42.61956" lon="2.13864">
        <ele>1548.1569824219</ele>
        <time>2011-09-11T09:59:34Z</time>
      </trkpt>
      <trkpt lat="42.6194" lon="2.13857">
        <ele>1549.0810546875</ele>
        <time>2011-09-11T09:59:39Z</time>
      </trkpt>
      <trkpt lat="42.61931" lon="2.13838">
        <ele>1550.0479736328</ele>
        <time>2011-09-11T09:59:44Z</time>
      </trkpt>
      <trkpt lat="42.61929" lon="2.13821">
        <ele>1550.8089599609</ele>
        <time>2011-09-11T09:59:48Z</time>
      </trkpt>
      <trkpt lat="42.61925" lon="2.13789">
        <ele>1551.5649414062</ele>
        <time>2011-09-11T09:59:55Z</time>
      </trkpt>
      <trkpt lat="42.61922" lon="2.13768">
        <ele>1552.7290039062</ele>
        <time>2011-09-11T10:00:00Z</time>
      </trkpt>
      <trkpt lat="42.61919" lon="2.13743">
        <ele>1553.9260253906</ele>
        <time>2011-09-11T10:00:06Z</time>
      </trkpt>
      <trkpt lat="42.61921" lon="2.13726">
        <ele>1554.4329833984</ele>
        <time>2011-09-11T10:00:10Z</time>
      </trkpt>
      <trkpt lat="42.61914" lon="2.13696">
        <ele>1555.9749755859</ele>
        <time>2011-09-11T10:00:17Z</time>
      </trkpt>
      <trkpt lat="42.61901" lon="2.13679">
        <ele>1556.6309814453</ele>
        <time>2011-09-11T10:00:22Z</time>
      </trkpt>
      <trkpt lat="42.61882" lon="2.13668">
        <ele>1557.5190429688</ele>
        <time>2011-09-11T10:00:28Z</time>
      </trkpt>
      <trkpt lat="42.61866" lon="2.1367">
        <ele>1558.4389648438</ele>
        <time>2011-09-11T10:00:33Z</time>
      </trkpt>
      <trkpt lat="42.61845" lon="2.13677">
        <ele>1559.3070068359</ele>
        <time>2011-09-11T10:00:40Z</time>
      </trkpt>
      <trkpt lat="42.6183" lon="2.13684">
        <ele>1559.7709960938</ele>
        <time>2011-09-11T10:00:45Z</time>
      </trkpt>
      <trkpt lat="42.61809" lon="2.13697">
        <ele>1560.7440185547</ele>
        <time>2011-09-11T10:00:52Z</time>
      </trkpt>
      <trkpt lat="42.61792" lon="2.1371">
        <ele>1561.3360595703</ele>
        <time>2011-09-11T10:00:57Z</time>
      </trkpt>
      <trkpt lat="42.61778" lon="2.13722">
        <ele>1561.4010009766</ele>
        <time>2011-09-11T10:01:02Z</time>
      </trkpt>
      <trkpt lat="42.61772" lon="2.13743">
        <ele>1562.5889892578</ele>
        <time>2011-09-11T10:01:07Z</time>
      </trkpt>
      <trkpt lat="42.61771" lon="2.13768">
        <ele>1563.6850585938</ele>
        <time>2011-09-11T10:01:13Z</time>
      </trkpt>
      <trkpt lat="42.61766" lon="2.13788">
        <ele>1564.0200195312</ele>
        <time>2011-09-11T10:01:18Z</time>
      </trkpt>
      <trkpt lat="42.61755" lon="2.13805">
        <ele>1564.5610351562</ele>
        <time>2011-09-11T10:01:23Z</time>
      </trkpt>
      <trkpt lat="42.61735" lon="2.1382">
        <ele>1566.0240478516</ele>
        <time>2011-09-11T10:01:30Z</time>
      </trkpt>
      <trkpt lat="42.61723" lon="2.13827">
        <ele>1566.8420410156</ele>
        <time>2011-09-11T10:01:34Z</time>
      </trkpt>
      <trkpt lat="42.61705" lon="2.13844">
        <ele>1568.3310546875</ele>
        <time>2011-09-11T10:01:40Z</time>
      </trkpt>
      <trkpt lat="42.61692" lon="2.13851">
        <ele>1569.1800537109</ele>
        <time>2011-09-11T10:01:44Z</time>
      </trkpt>
      <trkpt lat="42.61675" lon="2.13835">
        <ele>1571.0439453125</ele>
        <time>2011-09-11T10:01:50Z</time>
      </trkpt>
      <trkpt lat="42.61656" lon="2.13813">
        <ele>1572.3780517578</ele>
        <time>2011-09-11T10:01:57Z</time>
      </trkpt>
      <trkpt lat="42.61633" lon="2.13778">
        <ele>1573.9699707031</ele>
        <time>2011-09-11T10:02:07Z</time>
      </trkpt>
      <trkpt lat="42.61605" lon="2.1375">
        <ele>1575.0050048828</ele>
        <time>2011-09-11T10:02:17Z</time>
      </trkpt>
      <trkpt lat="42.61583" lon="2.13735">
        <ele>1576.0090332031</ele>
        <time>2011-09-11T10:02:24Z</time>
      </trkpt>
      <trkpt lat="42.61563" lon="2.13715">
        <ele>1577.7530517578</ele>
        <time>2011-09-11T10:02:31Z</time>
      </trkpt>
      <trkpt lat="42.61544" lon="2.13695">
        <ele>1578.7209472656</ele>
        <time>2011-09-11T10:02:38Z</time>
      </trkpt>
      <trkpt lat="42.61523" lon="2.13676">
        <ele>1579.2679443359</ele>
        <time>2011-09-11T10:02:45Z</time>
      </trkpt>
      <trkpt lat="42.61503" lon="2.13657">
        <ele>1580.2380371094</ele>
        <time>2011-09-11T10:02:52Z</time>
      </trkpt>
      <trkpt lat="42.61479" lon="2.13638">
        <ele>1581.2149658203</ele>
        <time>2011-09-11T10:03:00Z</time>
      </trkpt>
      <trkpt lat="42.61456" lon="2.13625">
        <ele>1582.4930419922</ele>
        <time>2011-09-11T10:03:07Z</time>
      </trkpt>
      <trkpt lat="42.6143" lon="2.13613">
        <ele>1584.5570068359</ele>
        <time>2011-09-11T10:03:15Z</time>
      </trkpt>
      <trkpt lat="42.61404" lon="2.13605">
        <ele>1585.5240478516</ele>
        <time>2011-09-11T10:03:23Z</time>
      </trkpt>
      <trkpt lat="42.61381" lon="2.13599">
        <ele>1586.2349853516</ele>
        <time>2011-09-11T10:03:30Z</time>
      </trkpt>
      <trkpt lat="42.61363" lon="2.136">
        <ele>1586.7330322266</ele>
        <time>2011-09-11T10:03:36Z</time>
      </trkpt>
      <trkpt lat="42.61345" lon="2.13606">
        <ele>1586.8050537109</ele>
        <time>2011-09-11T10:03:42Z</time>
      </trkpt>
      <trkpt lat="42.61331" lon="2.13614">
        <ele>1587.2060546875</ele>
        <time>2011-09-11T10:03:47Z</time>
      </trkpt>
      <trkpt lat="42.61317" lon="2.13623">
        <ele>1587.6180419922</ele>
        <time>2011-09-11T10:03:52Z</time>
      </trkpt>
      <trkpt lat="42.61301" lon="2.1364">
        <ele>1587.1459960938</ele>
        <time>2011-09-11T10:03:58Z</time>
      </trkpt>
      <trkpt lat="42.61291" lon="2.1365">
        <ele>1587.3070068359</ele>
        <time>2011-09-11T10:04:02Z</time>
      </trkpt>
      <trkpt lat="42.61279" lon="2.13658">
        <ele>1588.6739501953</ele>
        <time>2011-09-11T10:04:07Z</time>
      </trkpt>
      <trkpt lat="42.61264" lon="2.13666">
        <ele>1590.2060546875</ele>
        <time>2011-09-11T10:04:13Z</time>
      </trkpt>
      <trkpt lat="42.61252" lon="2.13675">
        <ele>1590.5100097656</ele>
        <time>2011-09-11T10:04:17Z</time>
      </trkpt>
      <trkpt lat="42.61237" lon="2.13684">
        <ele>1591.5340576172</ele>
        <time>2011-09-11T10:04:22Z</time>
      </trkpt>
      <trkpt lat="42.61228" lon="2.13684">
        <ele>1592.1049804688</ele>
        <time>2011-09-11T10:04:25Z</time>
      </trkpt>
      <trkpt lat="42.61208" lon="2.13662">
        <ele>1592.9229736328</ele>
        <time>2011-09-11T10:04:33Z</time>
      </trkpt>
      <trkpt lat="42.61191" lon="2.13646">
        <ele>1593.5830078125</ele>
        <time>2011-09-11T10:04:39Z</time>
      </trkpt>
      <trkpt lat="42.61169" lon="2.13623">
        <ele>1595.0749511719</ele>
        <time>2011-09-11T10:04:47Z</time>
      </trkpt>
      <trkpt lat="42.61158" lon="2.13601">
        <ele>1595.8940429688</ele>
        <time>2011-09-11T10:04:53Z</time>
      </trkpt>
      <trkpt lat="42.6115" lon="2.13577">
        <ele>1596.7950439453</ele>
        <time>2011-09-11T10:04:59Z</time>
      </trkpt>
      <trkpt lat="42.61141" lon="2.13558">
        <ele>1597.8380126953</ele>
        <time>2011-09-11T10:05:04Z</time>
      </trkpt>
      <trkpt lat="42.61136" lon="2.13538">
        <ele>1598.3669433594</ele>
        <time>2011-09-11T10:05:09Z</time>
      </trkpt>
      <trkpt lat="42.61135" lon="2.13511">
        <ele>1599.2120361328</ele>
        <time>2011-09-11T10:05:15Z</time>
      </trkpt>
      <trkpt lat="42.61133" lon="2.13503">
        <ele>1599.4749755859</ele>
        <time>2011-09-11T10:05:17Z</time>
      </trkpt>
      <trkpt lat="42.61118" lon="2.13494">
        <ele>1599.7170410156</ele>
        <time>2011-09-11T10:05:22Z</time>
      </trkpt>
      <trkpt lat="42.61102" lon="2.13493">
        <ele>1599.3470458984</ele>
        <time>2011-09-11T10:05:27Z</time>
      </trkpt>
      <trkpt lat="42.61088" lon="2.13492">
        <ele>1599.7080078125</ele>
        <time>2011-09-11T10:05:31Z</time>
      </trkpt>
      <trkpt lat="42.61053" lon="2.1349">
        <ele>1600.1519775391</ele>
        <time>2011-09-11T10:05:39Z</time>
      </trkpt>
      <trkpt lat="42.61028" lon="2.13495">
        <ele>1600.7869873047</ele>
        <time>2011-09-11T10:05:45Z</time>
      </trkpt>
      <trkpt lat="42.61012" lon="2.13495">
        <ele>1600.8640136719</ele>
        <time>2011-09-11T10:05:49Z</time>
      </trkpt>
      <trkpt lat="42.60981" lon="2.13483">
        <ele>1601.6550292969</ele>
        <time>2011-09-11T10:05:57Z</time>
      </trkpt>
      <trkpt lat="42.60959" lon="2.13474">
        <ele>1602.876953125</ele>
        <time>2011-09-11T10:06:04Z</time>
      </trkpt>
      <trkpt lat="42.60947" lon="2.1348">
        <ele>1603.6280517578</ele>
        <time>2011-09-11T10:06:09Z</time>
      </trkpt>
      <trkpt lat="42.60939" lon="2.13501">
        <ele>1604.8940429688</ele>
        <time>2011-09-11T10:06:15Z</time>
      </trkpt>
      <trkpt lat="42.60939" lon="2.1353">
        <ele>1606.3360595703</ele>
        <time>2011-09-11T10:06:22Z</time>
      </trkpt>
      <trkpt lat="42.60931" lon="2.13549">
        <ele>1606.8100585938</ele>
        <time>2011-09-11T10:06:27Z</time>
      </trkpt>
      <trkpt lat="42.60921" lon="2.13569">
        <ele>1607.4809570312</ele>
        <time>2011-09-11T10:06:32Z</time>
      </trkpt>
      <trkpt lat="42.60907" lon="2.13577">
        <ele>1608.3959960938</ele>
        <time>2011-09-11T10:06:37Z</time>
      </trkpt>
      <trkpt lat="42.60892" lon="2.13565">
        <ele>1608.8669433594</ele>
        <time>2011-09-11T10:06:42Z</time>
      </trkpt>
      <trkpt lat="42.60878" lon="2.13552">
        <ele>1609.5209960938</ele>
        <time>2011-09-11T10:06:47Z</time>
      </trkpt>
      <trkpt lat="42.60857" lon="2.13546">
        <ele>1609.8160400391</ele>
        <time>2011-09-11T10:06:53Z</time>
      </trkpt>
      <trkpt lat="42.60841" lon="2.13535">
        <ele>1609.8819580078</ele>
        <time>2011-09-11T10:06:58Z</time>
      </trkpt>
      <trkpt lat="42.60828" lon="2.1352">
        <ele>1610.7230224609</ele>
        <time>2011-09-11T10:07:03Z</time>
      </trkpt>
      <trkpt lat="42.60817" lon="2.135">
        <ele>1612.0439453125</ele>
        <time>2011-09-11T10:07:08Z</time>
      </trkpt>
      <trkpt lat="42.60804" lon="2.13484">
        <ele>1612.6510009766</ele>
        <time>2011-09-11T10:07:13Z</time>
      </trkpt>
      <trkpt lat="42.60784" lon="2.13474">
        <ele>1613.5500488281</ele>
        <time>2011-09-11T10:07:19Z</time>
      </trkpt>
      <trkpt lat="42.60769" lon="2.13466">
        <ele>1614.6629638672</ele>
        <time>2011-09-11T10:07:24Z</time>
      </trkpt>
      <trkpt lat="42.6075" lon="2.13459">
        <ele>1616.0159912109</ele>
        <time>2011-09-11T10:07:30Z</time>
      </trkpt>
      <trkpt lat="42.60736" lon="2.13452">
        <ele>1616.7039794922</ele>
        <time>2011-09-11T10:07:35Z</time>
      </trkpt>
      <trkpt lat="42.60718" lon="2.13446">
        <ele>1615.4300537109</ele>
        <time>2011-09-11T10:07:39Z</time>
      </trkpt>
      <trkpt lat="42.60699" lon="2.13439">
        <ele>1614.0629882812</ele>
        <time>2011-09-11T10:07:42Z</time>
      </trkpt>
      <trkpt lat="42.60672" lon="2.13428">
        <ele>1611.7600097656</ele>
        <time>2011-09-11T10:07:46Z</time>
      </trkpt>
      <trkpt lat="42.60666" lon="2.13426">
        <ele>1611.1569824219</ele>
        <time>2011-09-11T10:07:47Z</time>
      </trkpt>
      <trkpt lat="42.60656" lon="2.13414">
        <ele>1608.8050537109</ele>
        <time>2011-09-11T10:07:51Z</time>
      </trkpt>
      <trkpt lat="42.60668" lon="2.13411">
        <ele>1607.4859619141</ele>
        <time>2011-09-11T10:07:54Z</time>
      </trkpt>
      <trkpt lat="42.60673" lon="2.1341">
        <ele>1606.8249511719</ele>
        <time>2011-09-11T10:07:55Z</time>
      </trkpt>
      <trkpt lat="42.60701" lon="2.13402">
        <ele>1602.6459960938</ele>
        <time>2011-09-11T10:08:00Z</time>
      </trkpt>
      <trkpt lat="42.60719" lon="2.13396">
        <ele>1600.1330566406</ele>
        <time>2011-09-11T10:08:03Z</time>
      </trkpt>
      <trkpt lat="42.60745" lon="2.13388">
        <ele>1597.3850097656</ele>
        <time>2011-09-11T10:08:07Z</time>
      </trkpt>
      <trkpt lat="42.60757" lon="2.13385">
        <ele>1595.7640380859</ele>
        <time>2011-09-11T10:08:09Z</time>
      </trkpt>
      <trkpt lat="42.60781" lon="2.13383">
        <ele>1593.4379882812</ele>
        <time>2011-09-11T10:08:13Z</time>
      </trkpt>
      <trkpt lat="42.60799" lon="2.13387">
        <ele>1592.1989746094</ele>
        <time>2011-09-11T10:08:16Z</time>
      </trkpt>
      <trkpt lat="42.60817" lon="2.13405">
        <ele>1590.5520019531</ele>
        <time>2011-09-11T10:08:19Z</time>
      </trkpt>
      <trkpt lat="42.6084" lon="2.13447">
        <ele>1587.7600097656</ele>
        <time>2011-09-11T10:08:24Z</time>
      </trkpt>
      <trkpt lat="42.60853" lon="2.13455">
        <ele>1585.2650146484</ele>
        <time>2011-09-11T10:08:28Z</time>
      </trkpt>
      <trkpt lat="42.60851" lon="2.13444">
        <ele>1583.7939453125</ele>
        <time>2011-09-11T10:08:30Z</time>
      </trkpt>
      <trkpt lat="42.6084" lon="2.13412">
        <ele>1580.7330322266</ele>
        <time>2011-09-11T10:08:35Z</time>
      </trkpt>
      <trkpt lat="42.60834" lon="2.1339">
        <ele>1579.0209960938</ele>
        <time>2011-09-11T10:08:38Z</time>
      </trkpt>
      <trkpt lat="42.60831" lon="2.13361">
        <ele>1576.3149414062</ele>
        <time>2011-09-11T10:08:42Z</time>
      </trkpt>
      <trkpt lat="42.60825" lon="2.13344">
        <ele>1574.58203125</ele>
        <time>2011-09-11T10:08:45Z</time>
      </trkpt>
      <trkpt lat="42.60818" lon="2.13315">
        <ele>1572.7869873047</ele>
        <time>2011-09-11T10:08:50Z</time>
      </trkpt>
      <trkpt lat="42.60815" lon="2.13309">
        <ele>1572.2690429688</ele>
        <time>2011-09-11T10:08:51Z</time>
      </trkpt>
      <trkpt lat="42.60796" lon="2.13289">
        <ele>1570.1330566406</ele>
        <time>2011-09-11T10:08:55Z</time>
      </trkpt>
      <trkpt lat="42.60774" lon="2.13277">
        <ele>1567.6610107422</ele>
        <time>2011-09-11T10:08:59Z</time>
      </trkpt>
      <trkpt lat="42.60748" lon="2.13271">
        <ele>1564.25</ele>
        <time>2011-09-11T10:09:04Z</time>
      </trkpt>
      <trkpt lat="42.60728" lon="2.13272">
        <ele>1561.9040527344</ele>
        <time>2011-09-11T10:09:08Z</time>
      </trkpt>
      <trkpt lat="42.60718" lon="2.13272">
        <ele>1559.6429443359</ele>
        <time>2011-09-11T10:09:11Z</time>
      </trkpt>
      <trkpt lat="42.60719" lon="2.1326">
        <ele>1557.2960205078</ele>
        <time>2011-09-11T10:09:15Z</time>
      </trkpt>
      <trkpt lat="42.60736" lon="2.13256">
        <ele>1555.6629638672</ele>
        <time>2011-09-11T10:09:19Z</time>
      </trkpt>
      <trkpt lat="42.6075" lon="2.13248">
        <ele>1553.9520263672</ele>
        <time>2011-09-11T10:09:23Z</time>
      </trkpt>
      <trkpt lat="42.6076" lon="2.13245">
        <ele>1553.1949462891</ele>
        <time>2011-09-11T10:09:25Z</time>
      </trkpt>
      <trkpt lat="42.60785" lon="2.13238">
        <ele>1551.5109863281</ele>
        <time>2011-09-11T10:09:29Z</time>
      </trkpt>
      <trkpt lat="42.60792" lon="2.13237">
        <ele>1550.9060058594</ele>
        <time>2011-09-11T10:09:30Z</time>
      </trkpt>
      <trkpt lat="42.60825" lon="2.13239">
        <ele>1548.5</ele>
        <time>2011-09-11T10:09:35Z</time>
      </trkpt>
      <trkpt lat="42.6083" lon="2.1324">
        <ele>1547.8189697266</ele>
        <time>2011-09-11T10:09:36Z</time>
      </trkpt>
      <trkpt lat="42.60851" lon="2.13242">
        <ele>1544.3620605469</ele>
        <time>2011-09-11T10:09:41Z</time>
      </trkpt>
      <trkpt lat="42.60845" lon="2.13235">
        <ele>1543.0639648438</ele>
        <time>2011-09-11T10:09:43Z</time>
      </trkpt>
      <trkpt lat="42.60835" lon="2.13228">
        <ele>1542.2049560547</ele>
        <time>2011-09-11T10:09:45Z</time>
      </trkpt>
      <trkpt lat="42.60809" lon="2.13209">
        <ele>1539.7159423828</ele>
        <time>2011-09-11T10:09:50Z</time>
      </trkpt>
      <trkpt lat="42.60778" lon="2.1319">
        <ele>1536.2199707031</ele>
        <time>2011-09-11T10:09:55Z</time>
      </trkpt>
      <trkpt lat="42.6076" lon="2.13186">
        <ele>1533.9289550781</ele>
        <time>2011-09-11T10:09:58Z</time>
      </trkpt>
      <trkpt lat="42.60727" lon="2.1319">
        <ele>1530.9659423828</ele>
        <time>2011-09-11T10:10:03Z</time>
      </trkpt>
      <trkpt lat="42.60701" lon="2.13193">
        <ele>1528.0510253906</ele>
        <time>2011-09-11T10:10:07Z</time>
      </trkpt>
      <trkpt lat="42.60691" lon="2.13196">
        <ele>1527.0340576172</ele>
        <time>2011-09-11T10:10:09Z</time>
      </trkpt>
      <trkpt lat="42.60664" lon="2.13195">
        <ele>1524.0279541016</ele>
        <time>2011-09-11T10:10:14Z</time>
      </trkpt>
      <trkpt lat="42.60648" lon="2.13192">
        <ele>1522.25</ele>
        <time>2011-09-11T10:10:17Z</time>
      </trkpt>
      <trkpt lat="42.60628" lon="2.13195">
        <ele>1518.8780517578</ele>
        <time>2011-09-11T10:10:22Z</time>
      </trkpt>
      <trkpt lat="42.60608" lon="2.13193">
        <ele>1515.7989501953</ele>
        <time>2011-09-11T10:10:27Z</time>
      </trkpt>
      <trkpt lat="42.60604" lon="2.13193">
        <ele>1515.0469970703</ele>
        <time>2011-09-11T10:10:28Z</time>
      </trkpt>
      <trkpt lat="42.60589" lon="2.13188">
        <ele>1513.251953125</ele>
        <time>2011-09-11T10:10:31Z</time>
      </trkpt>
      <trkpt lat="42.60563" lon="2.13193">
        <ele>1509.70703125</ele>
        <time>2011-09-11T10:10:36Z</time>
      </trkpt>
      <trkpt lat="42.60556" lon="2.13194">
        <ele>1509.3189697266</ele>
        <time>2011-09-11T10:10:37Z</time>
      </trkpt>
      <trkpt lat="42.60532" lon="2.1319">
        <ele>1506.5260009766</ele>
        <time>2011-09-11T10:10:41Z</time>
      </trkpt>
      <trkpt lat="42.60498" lon="2.13171">
        <ele>1503.3239746094</ele>
        <time>2011-09-11T10:10:46Z</time>
      </trkpt>
      <trkpt lat="42.6047" lon="2.13138">
        <ele>1500.3859863281</ele>
        <time>2011-09-11T10:10:51Z</time>
      </trkpt>
      <trkpt lat="42.60466" lon="2.13128">
        <ele>1499.7679443359</ele>
        <time>2011-09-11T10:10:52Z</time>
      </trkpt>
      <trkpt lat="42.60457" lon="2.13109">
        <ele>1498.8979492188</ele>
        <time>2011-09-11T10:10:54Z</time>
      </trkpt>
      <trkpt lat="42.60452" lon="2.131">
        <ele>1498.2740478516</ele>
        <time>2011-09-11T10:10:55Z</time>
      </trkpt>
      <trkpt lat="42.60423" lon="2.13062">
        <ele>1495.4949951172</ele>
        <time>2011-09-11T10:11:00Z</time>
      </trkpt>
      <trkpt lat="42.60417" lon="2.13055">
        <ele>1494.8940429688</ele>
        <time>2011-09-11T10:11:01Z</time>
      </trkpt>
      <trkpt lat="42.60404" lon="2.13041">
        <ele>1493.7919921875</ele>
        <time>2011-09-11T10:11:03Z</time>
      </trkpt>
      <trkpt lat="42.60391" lon="2.13026">
        <ele>1492.9919433594</ele>
        <time>2011-09-11T10:11:05Z</time>
      </trkpt>
      <trkpt lat="42.60385" lon="2.13019">
        <ele>1492.5729980469</ele>
        <time>2011-09-11T10:11:06Z</time>
      </trkpt>
      <trkpt lat="42.60353" lon="2.12998">
        <ele>1491.8100585938</ele>
        <time>2011-09-11T10:11:11Z</time>
      </trkpt>
      <trkpt lat="42.6033" lon="2.12981">
        <ele>1491.8680419922</ele>
        <time>2011-09-11T10:11:16Z</time>
      </trkpt>
      <trkpt lat="42.603" lon="2.1296">
        <ele>1492.9499511719</ele>
        <time>2011-09-11T10:11:23Z</time>
      </trkpt>
      <trkpt lat="42.60277" lon="2.12945">
        <ele>1493.7230224609</ele>
        <time>2011-09-11T10:11:28Z</time>
      </trkpt>
      <trkpt lat="42.60257" lon="2.12933">
        <ele>1494.3020019531</ele>
        <time>2011-09-11T10:11:33Z</time>
      </trkpt>
      <trkpt lat="42.60235" lon="2.1292">
        <ele>1495.9630126953</ele>
        <time>2011-09-11T10:11:39Z</time>
      </trkpt>
      <trkpt lat="42.60219" lon="2.12909">
        <ele>1497.2110595703</ele>
        <time>2011-09-11T10:11:46Z</time>
      </trkpt>
      <trkpt lat="42.6021" lon="2.12905">
        <ele>1498.3540039062</ele>
        <time>2011-09-11T10:11:50Z</time>
      </trkpt>
      <trkpt lat="42.60198" lon="2.12897">
        <ele>1499.9210205078</ele>
        <time>2011-09-11T10:11:56Z</time>
      </trkpt>
      <trkpt lat="42.60191" lon="2.12894">
        <ele>1500.4150390625</ele>
        <time>2011-09-11T10:11:59Z</time>
      </trkpt>
      <trkpt lat="42.60171" lon="2.12884">
        <ele>1501.3840332031</ele>
        <time>2011-09-11T10:12:07Z</time>
      </trkpt>
      <trkpt lat="42.60154" lon="2.12877">
        <ele>1502.3950195312</ele>
        <time>2011-09-11T10:12:13Z</time>
      </trkpt>
      <trkpt lat="42.60136" lon="2.12873">
        <ele>1503.4429931641</ele>
        <time>2011-09-11T10:12:20Z</time>
      </trkpt>
      <trkpt lat="42.60119" lon="2.12866">
        <ele>1504.4289550781</ele>
        <time>2011-09-11T10:12:26Z</time>
      </trkpt>
      <trkpt lat="42.601" lon="2.12859">
        <ele>1504.1700439453</ele>
        <time>2011-09-11T10:12:31Z</time>
      </trkpt>
      <trkpt lat="42.60088" lon="2.12854">
        <ele>1504.3380126953</ele>
        <time>2011-09-11T10:12:34Z</time>
      </trkpt>
      <trkpt lat="42.60075" lon="2.12847">
        <ele>1504.6159667969</ele>
        <time>2011-09-11T10:12:37Z</time>
      </trkpt>
      <trkpt lat="42.60043" lon="2.12832">
        <ele>1505.3160400391</ele>
        <time>2011-09-11T10:12:45Z</time>
      </trkpt>
      <trkpt lat="42.60032" lon="2.12828">
        <ele>1505.8029785156</ele>
        <time>2011-09-11T10:12:48Z</time>
      </trkpt>
      <trkpt lat="42.60011" lon="2.12823">
        <ele>1505.7449951172</ele>
        <time>2011-09-11T10:12:53Z</time>
      </trkpt>
      <trkpt lat="42.59975" lon="2.12814">
        <ele>1505.3599853516</ele>
        <time>2011-09-11T10:13:01Z</time>
      </trkpt>
      <trkpt lat="42.59954" lon="2.12812">
        <ele>1505.7010498047</ele>
        <time>2011-09-11T10:13:06Z</time>
      </trkpt>
      <trkpt lat="42.5993" lon="2.12809">
        <ele>1506.6550292969</ele>
        <time>2011-09-11T10:13:12Z</time>
      </trkpt>
      <trkpt lat="42.59927" lon="2.12808">
        <ele>1506.8299560547</ele>
        <time>2011-09-11T10:13:13Z</time>
      </trkpt>
      <trkpt lat="42.599" lon="2.128">
        <ele>1507.5720214844</ele>
        <time>2011-09-11T10:13:20Z</time>
      </trkpt>
      <trkpt lat="42.59864" lon="2.12788">
        <ele>1509.5059814453</ele>
        <time>2011-09-11T10:13:30Z</time>
      </trkpt>
      <trkpt lat="42.59843" lon="2.12778">
        <ele>1508.7030029297</ele>
        <time>2011-09-11T10:13:36Z</time>
      </trkpt>
      <trkpt lat="42.59831" lon="2.12772">
        <ele>1508.1920166016</ele>
        <time>2011-09-11T10:13:41Z</time>
      </trkpt>
      <trkpt lat="42.59814" lon="2.12761">
        <ele>1507.623046875</ele>
        <time>2011-09-11T10:13:45Z</time>
      </trkpt>
      <trkpt lat="42.59784" lon="2.12735">
        <ele>1505.6989746094</ele>
        <time>2011-09-11T10:13:51Z</time>
      </trkpt>
      <trkpt lat="42.59777" lon="2.1273">
        <ele>1505.0269775391</ele>
        <time>2011-09-11T10:13:52Z</time>
      </trkpt>
      <trkpt lat="42.59738" lon="2.12682">
        <ele>1501.3499755859</ele>
        <time>2011-09-11T10:13:58Z</time>
      </trkpt>
      <trkpt lat="42.59726" lon="2.12665">
        <ele>1500.7020263672</ele>
        <time>2011-09-11T10:14:00Z</time>
      </trkpt>
      <trkpt lat="42.59701" lon="2.12641">
        <ele>1499.5419921875</ele>
        <time>2011-09-11T10:14:04Z</time>
      </trkpt>
      <trkpt lat="42.59664" lon="2.12596">
        <ele>1497.5310058594</ele>
        <time>2011-09-11T10:14:11Z</time>
      </trkpt>
      <trkpt lat="42.59658" lon="2.12589">
        <ele>1497.2459716797</ele>
        <time>2011-09-11T10:14:12Z</time>
      </trkpt>
      <trkpt lat="42.59652" lon="2.12581">
        <ele>1496.7569580078</ele>
        <time>2011-09-11T10:14:13Z</time>
      </trkpt>
      <trkpt lat="42.59638" lon="2.12568">
        <ele>1495.9870605469</ele>
        <time>2011-09-11T10:14:15Z</time>
      </trkpt>
      <trkpt lat="42.5961" lon="2.12549">
        <ele>1495.0159912109</ele>
        <time>2011-09-11T10:14:19Z</time>
      </trkpt>
      <trkpt lat="42.59604" lon="2.12544">
        <ele>1495.0479736328</ele>
        <time>2011-09-11T10:14:20Z</time>
      </trkpt>
      <trkpt lat="42.59571" lon="2.12526">
        <ele>1494.7290039062</ele>
        <time>2011-09-11T10:14:25Z</time>
      </trkpt>
      <trkpt lat="42.59519" lon="2.12516">
        <ele>1492.9050292969</ele>
        <time>2011-09-11T10:14:33Z</time>
      </trkpt>
      <trkpt lat="42.59487" lon="2.12507">
        <ele>1491.8499755859</ele>
        <time>2011-09-11T10:14:38Z</time>
      </trkpt>
      <trkpt lat="42.59443" lon="2.12485">
        <ele>1490.8420410156</ele>
        <time>2011-09-11T10:14:45Z</time>
      </trkpt>
      <trkpt lat="42.59436" lon="2.12482">
        <ele>1490.3189697266</ele>
        <time>2011-09-11T10:14:46Z</time>
      </trkpt>
      <trkpt lat="42.59414" lon="2.12457">
        <ele>1488.5849609375</ele>
        <time>2011-09-11T10:14:50Z</time>
      </trkpt>
      <trkpt lat="42.59409" lon="2.1245">
        <ele>1488.4689941406</ele>
        <time>2011-09-11T10:14:51Z</time>
      </trkpt>
      <trkpt lat="42.59385" lon="2.12424">
        <ele>1487.8540039062</ele>
        <time>2011-09-11T10:14:55Z</time>
      </trkpt>
      <trkpt lat="42.59333" lon="2.1239">
        <ele>1485.4439697266</ele>
        <time>2011-09-11T10:15:02Z</time>
      </trkpt>
      <trkpt lat="42.59294" lon="2.12372">
        <ele>1483.7039794922</ele>
        <time>2011-09-11T10:15:07Z</time>
      </trkpt>
      <trkpt lat="42.59269" lon="2.12362">
        <ele>1481.6870117188</ele>
        <time>2011-09-11T10:15:10Z</time>
      </trkpt>
      <trkpt lat="42.59245" lon="2.12336">
        <ele>1479.6750488281</ele>
        <time>2011-09-11T10:15:14Z</time>
      </trkpt>
      <trkpt lat="42.59243" lon="2.12317">
        <ele>1478.4000244141</ele>
        <time>2011-09-11T10:15:16Z</time>
      </trkpt>
      <trkpt lat="42.59253" lon="2.12292">
        <ele>1477.2359619141</ele>
        <time>2011-09-11T10:15:19Z</time>
      </trkpt>
      <trkpt lat="42.59262" lon="2.12277">
        <ele>1477.0290527344</ele>
        <time>2011-09-11T10:15:21Z</time>
      </trkpt>
      <trkpt lat="42.59265" lon="2.12258">
        <ele>1477.5959472656</ele>
        <time>2011-09-11T10:15:24Z</time>
      </trkpt>
      <trkpt lat="42.59262" lon="2.12256">
        <ele>1477.7530517578</ele>
        <time>2011-09-11T10:15:25Z</time>
      </trkpt>
      <trkpt lat="42.59245" lon="2.1225">
        <ele>1479.1459960938</ele>
        <time>2011-09-11T10:15:32Z</time>
      </trkpt>
      <trkpt lat="42.59226" lon="2.12243">
        <ele>1481.2270507812</ele>
        <time>2011-09-11T10:15:38Z</time>
      </trkpt>
      <trkpt lat="42.5921" lon="2.12232">
        <ele>1481.8580322266</ele>
        <time>2011-09-11T10:15:43Z</time>
      </trkpt>
      <trkpt lat="42.59193" lon="2.12217">
        <ele>1482.5529785156</ele>
        <time>2011-09-11T10:15:49Z</time>
      </trkpt>
      <trkpt lat="42.59177" lon="2.12186">
        <ele>1484.2690429688</ele>
        <time>2011-09-11T10:15:57Z</time>
      </trkpt>
      <trkpt lat="42.59162" lon="2.1215">
        <ele>1482.7330322266</ele>
        <time>2011-09-11T10:16:04Z</time>
      </trkpt>
      <trkpt lat="42.59147" lon="2.12118">
        <ele>1482.4229736328</ele>
        <time>2011-09-11T10:16:10Z</time>
      </trkpt>
      <trkpt lat="42.5913" lon="2.12103">
        <ele>1482.5179443359</ele>
        <time>2011-09-11T10:16:14Z</time>
      </trkpt>
      <trkpt lat="42.59116" lon="2.12096">
        <ele>1483.0269775391</ele>
        <time>2011-09-11T10:16:17Z</time>
      </trkpt>
      <trkpt lat="42.59104" lon="2.12086">
        <ele>1484.2690429688</ele>
        <time>2011-09-11T10:16:20Z</time>
      </trkpt>
      <trkpt lat="42.59085" lon="2.12067">
        <ele>1483.6369628906</ele>
        <time>2011-09-11T10:16:25Z</time>
      </trkpt>
      <trkpt lat="42.59071" lon="2.12063">
        <ele>1483.6560058594</ele>
        <time>2011-09-11T10:16:28Z</time>
      </trkpt>
      <trkpt lat="42.59037" lon="2.12066">
        <ele>1483.5799560547</ele>
        <time>2011-09-11T10:16:35Z</time>
      </trkpt>
      <trkpt lat="42.59003" lon="2.12071">
        <ele>1484.8580322266</ele>
        <time>2011-09-11T10:16:43Z</time>
      </trkpt>
      <trkpt lat="42.58976" lon="2.12069">
        <ele>1486.7669677734</ele>
        <time>2011-09-11T10:16:50Z</time>
      </trkpt>
      <trkpt lat="42.58958" lon="2.12055">
        <ele>1488.2120361328</ele>
        <time>2011-09-11T10:16:56Z</time>
      </trkpt>
      <trkpt lat="42.58944" lon="2.12033">
        <ele>1488.5710449219</ele>
        <time>2011-09-11T10:17:02Z</time>
      </trkpt>
      <trkpt lat="42.58923" lon="2.12">
        <ele>1488.2829589844</ele>
        <time>2011-09-11T10:17:10Z</time>
      </trkpt>
      <trkpt lat="42.5892" lon="2.11995">
        <ele>1488.0699462891</ele>
        <time>2011-09-11T10:17:11Z</time>
      </trkpt>
      <trkpt lat="42.58894" lon="2.11957">
        <ele>1486.9859619141</ele>
        <time>2011-09-11T10:17:18Z</time>
      </trkpt>
      <trkpt lat="42.58869" lon="2.11938">
        <ele>1486.6929931641</ele>
        <time>2011-09-11T10:17:24Z</time>
      </trkpt>
      <trkpt lat="42.58841" lon="2.11922">
        <ele>1487.7750244141</ele>
        <time>2011-09-11T10:17:31Z</time>
      </trkpt>
      <trkpt lat="42.58813" lon="2.11911">
        <ele>1489.0240478516</ele>
        <time>2011-09-11T10:17:38Z</time>
      </trkpt>
      <trkpt lat="42.58787" lon="2.11889">
        <ele>1489.3659667969</ele>
        <time>2011-09-11T10:17:45Z</time>
      </trkpt>
      <trkpt lat="42.5878" lon="2.11883">
        <ele>1489.6400146484</ele>
        <time>2011-09-11T10:17:47Z</time>
      </trkpt>
      <trkpt lat="42.58765" lon="2.11874">
        <ele>1490.5080566406</ele>
        <time>2011-09-11T10:17:51Z</time>
      </trkpt>
      <trkpt lat="42.58737" lon="2.11871">
        <ele>1492.1049804688</ele>
        <time>2011-09-11T10:17:58Z</time>
      </trkpt>
      <trkpt lat="42.58726" lon="2.11861">
        <ele>1493.2249755859</ele>
        <time>2011-09-11T10:18:02Z</time>
      </trkpt>
      <trkpt lat="42.58717" lon="2.11846">
        <ele>1494.8819580078</ele>
        <time>2011-09-11T10:18:07Z</time>
      </trkpt>
      <trkpt lat="42.58702" lon="2.11847">
        <ele>1495.6169433594</ele>
        <time>2011-09-11T10:18:12Z</time>
      </trkpt>
      <trkpt lat="42.58699" lon="2.11847">
        <ele>1495.7270507812</ele>
        <time>2011-09-11T10:18:13Z</time>
      </trkpt>
      <trkpt lat="42.58696" lon="2.11838">
        <ele>1496.9899902344</ele>
        <time>2011-09-11T10:18:18Z</time>
      </trkpt>
      <trkpt lat="42.58696" lon="2.11832">
        <ele>1497.4420166016</ele>
        <time>2011-09-11T10:18:20Z</time>
      </trkpt>
      <trkpt lat="42.58694" lon="2.11813">
        <ele>1499.4060058594</ele>
        <time>2011-09-11T10:18:29Z</time>
      </trkpt>
      <trkpt lat="42.58694" lon="2.11811">
        <ele>1499.4919433594</ele>
        <time>2011-09-11T10:18:30Z</time>
      </trkpt>
      <trkpt lat="42.58696" lon="2.11794">
        <ele>1500.8489990234</ele>
        <time>2011-09-11T10:18:37Z</time>
      </trkpt>
      <trkpt lat="42.58694" lon="2.11764">
        <ele>1502.1070556641</ele>
        <time>2011-09-11T10:18:46Z</time>
      </trkpt>
      <trkpt lat="42.58684" lon="2.11732">
        <ele>1504.9919433594</ele>
        <time>2011-09-11T10:18:57Z</time>
      </trkpt>
      <trkpt lat="42.58677" lon="2.11705">
        <ele>1506.7580566406</ele>
        <time>2011-09-11T10:19:06Z</time>
      </trkpt>
      <trkpt lat="42.58669" lon="2.11668">
        <ele>1508.6510009766</ele>
        <time>2011-09-11T10:19:18Z</time>
      </trkpt>
      <trkpt lat="42.58664" lon="2.11629">
        <ele>1511.1619873047</ele>
        <time>2011-09-11T10:19:30Z</time>
      </trkpt>
      <trkpt lat="42.58658" lon="2.11596">
        <ele>1512.7559814453</ele>
        <time>2011-09-11T10:19:40Z</time>
      </trkpt>
      <trkpt lat="42.58655" lon="2.1157">
        <ele>1513.9809570312</ele>
        <time>2011-09-11T10:19:48Z</time>
      </trkpt>
      <trkpt lat="42.58654" lon="2.11541">
        <ele>1515.2419433594</ele>
        <time>2011-09-11T10:19:57Z</time>
      </trkpt>
      <trkpt lat="42.58656" lon="2.11533">
        <ele>1515.41796875</ele>
        <time>2011-09-11T10:19:59Z</time>
      </trkpt>
      <trkpt lat="42.58662" lon="2.11491">
        <ele>1513.5460205078</ele>
        <time>2011-09-11T10:20:05Z</time>
      </trkpt>
      <trkpt lat="42.58667" lon="2.1145">
        <ele>1513.7850341797</ele>
        <time>2011-09-11T10:20:12Z</time>
      </trkpt>
      <trkpt lat="42.58669" lon="2.11445">
        <ele>1513.9580078125</ele>
        <time>2011-09-11T10:20:13Z</time>
      </trkpt>
      <trkpt lat="42.58681" lon="2.11428">
        <ele>1514.5639648438</ele>
        <time>2011-09-11T10:20:17Z</time>
      </trkpt>
      <trkpt lat="42.58686" lon="2.11401">
        <ele>1514.5439453125</ele>
        <time>2011-09-11T10:20:22Z</time>
      </trkpt>
      <trkpt lat="42.58686" lon="2.11385">
        <ele>1514.8430175781</ele>
        <time>2011-09-11T10:20:25Z</time>
      </trkpt>
      <trkpt lat="42.58697" lon="2.1137">
        <ele>1515.1600341797</ele>
        <time>2011-09-11T10:20:29Z</time>
      </trkpt>
      <trkpt lat="42.58701" lon="2.11357">
        <ele>1514.1639404297</ele>
        <time>2011-09-11T10:20:32Z</time>
      </trkpt>
      <trkpt lat="42.58698" lon="2.11318">
        <ele>1515.1650390625</ele>
        <time>2011-09-11T10:20:39Z</time>
      </trkpt>
      <trkpt lat="42.587" lon="2.11295">
        <ele>1516.5600585938</ele>
        <time>2011-09-11T10:20:44Z</time>
      </trkpt>
      <trkpt lat="42.58706" lon="2.11265">
        <ele>1517.2550048828</ele>
        <time>2011-09-11T10:20:51Z</time>
      </trkpt>
      <trkpt lat="42.58708" lon="2.11243">
        <ele>1518.8330078125</ele>
        <time>2011-09-11T10:20:57Z</time>
      </trkpt>
      <trkpt lat="42.58712" lon="2.11221">
        <ele>1519.5450439453</ele>
        <time>2011-09-11T10:21:03Z</time>
      </trkpt>
      <trkpt lat="42.58721" lon="2.11184">
        <ele>1520.5269775391</ele>
        <time>2011-09-11T10:21:12Z</time>
      </trkpt>
      <trkpt lat="42.58734" lon="2.11146">
        <ele>1521.1419677734</ele>
        <time>2011-09-11T10:21:21Z</time>
      </trkpt>
      <trkpt lat="42.58743" lon="2.11115">
        <ele>1522.1999511719</ele>
        <time>2011-09-11T10:21:28Z</time>
      </trkpt>
      <trkpt lat="42.58755" lon="2.11074">
        <ele>1522.9840087891</ele>
        <time>2011-09-11T10:21:37Z</time>
      </trkpt>
      <trkpt lat="42.58764" lon="2.11044">
        <ele>1523.9610595703</ele>
        <time>2011-09-11T10:21:44Z</time>
      </trkpt>
      <trkpt lat="42.58763" lon="2.11017">
        <ele>1524.8199462891</ele>
        <time>2011-09-11T10:21:50Z</time>
      </trkpt>
      <trkpt lat="42.5876" lon="2.10985">
        <ele>1526.4339599609</ele>
        <time>2011-09-11T10:21:58Z</time>
      </trkpt>
      <trkpt lat="42.5876" lon="2.10953">
        <ele>1527.8659667969</ele>
        <time>2011-09-11T10:22:06Z</time>
      </trkpt>
      <trkpt lat="42.5876" lon="2.10938">
        <ele>1528.6579589844</ele>
        <time>2011-09-11T10:22:11Z</time>
      </trkpt>
      <trkpt lat="42.58756" lon="2.10911">
        <ele>1530.3909912109</ele>
        <time>2011-09-11T10:22:19Z</time>
      </trkpt>
      <trkpt lat="42.58753" lon="2.1088">
        <ele>1532.2640380859</ele>
        <time>2011-09-11T10:22:29Z</time>
      </trkpt>
      <trkpt lat="42.58754" lon="2.10851">
        <ele>1533.9990234375</ele>
        <time>2011-09-11T10:22:38Z</time>
      </trkpt>
      <trkpt lat="42.58753" lon="2.10823">
        <ele>1535.5760498047</ele>
        <time>2011-09-11T10:22:47Z</time>
      </trkpt>
      <trkpt lat="42.58752" lon="2.10804">
        <ele>1536.4770507812</ele>
        <time>2011-09-11T10:22:54Z</time>
      </trkpt>
      <trkpt lat="42.58749" lon="2.1078">
        <ele>1537.5970458984</ele>
        <time>2011-09-11T10:23:02Z</time>
      </trkpt>
      <trkpt lat="42.58747" lon="2.10755">
        <ele>1538.4919433594</ele>
        <time>2011-09-11T10:23:10Z</time>
      </trkpt>
      <trkpt lat="42.58749" lon="2.10732">
        <ele>1539.0939941406</ele>
        <time>2011-09-11T10:23:17Z</time>
      </trkpt>
      <trkpt lat="42.5875" lon="2.10721">
        <ele>1539.4560546875</ele>
        <time>2011-09-11T10:23:20Z</time>
      </trkpt>
      <trkpt lat="42.58737" lon="2.10705">
        <ele>1539.9329833984</ele>
        <time>2011-09-11T10:23:26Z</time>
      </trkpt>
      <trkpt lat="42.58725" lon="2.10693">
        <ele>1540.4040527344</ele>
        <time>2011-09-11T10:23:31Z</time>
      </trkpt>
      <trkpt lat="42.58715" lon="2.10686">
        <ele>1541.0450439453</ele>
        <time>2011-09-11T10:23:35Z</time>
      </trkpt>
      <trkpt lat="42.58699" lon="2.10666">
        <ele>1541.9610595703</ele>
        <time>2011-09-11T10:23:42Z</time>
      </trkpt>
      <trkpt lat="42.58683" lon="2.10655">
        <ele>1542.1650390625</ele>
        <time>2011-09-11T10:23:48Z</time>
      </trkpt>
      <trkpt lat="42.58667" lon="2.10649">
        <ele>1542.5880126953</ele>
        <time>2011-09-11T10:23:53Z</time>
      </trkpt>
      <trkpt lat="42.58651" lon="2.10642">
        <ele>1542.9000244141</ele>
        <time>2011-09-11T10:23:58Z</time>
      </trkpt>
      <trkpt lat="42.58644" lon="2.10638">
        <ele>1542.8599853516</ele>
        <time>2011-09-11T10:24:00Z</time>
      </trkpt>
      <trkpt lat="42.58628" lon="2.10637">
        <ele>1542.9470214844</ele>
        <time>2011-09-11T10:24:05Z</time>
      </trkpt>
      <trkpt lat="42.5861" lon="2.10628">
        <ele>1542.9360351562</ele>
        <time>2011-09-11T10:24:10Z</time>
      </trkpt>
      <trkpt lat="42.58603" lon="2.10622">
        <ele>1543.0219726562</ele>
        <time>2011-09-11T10:24:12Z</time>
      </trkpt>
      <trkpt lat="42.58585" lon="2.10618">
        <ele>1542.7580566406</ele>
        <time>2011-09-11T10:24:16Z</time>
      </trkpt>
      <trkpt lat="42.58568" lon="2.10619">
        <ele>1542.6309814453</ele>
        <time>2011-09-11T10:24:19Z</time>
      </trkpt>
      <trkpt lat="42.58552" lon="2.10617">
        <ele>1542.2469482422</ele>
        <time>2011-09-11T10:24:22Z</time>
      </trkpt>
      <trkpt lat="42.58522" lon="2.10614">
        <ele>1541.1400146484</ele>
        <time>2011-09-11T10:24:28Z</time>
      </trkpt>
      <trkpt lat="42.58498" lon="2.10611">
        <ele>1540.7299804688</ele>
        <time>2011-09-11T10:24:33Z</time>
      </trkpt>
      <trkpt lat="42.58493" lon="2.10611">
        <ele>1540.7530517578</ele>
        <time>2011-09-11T10:24:34Z</time>
      </trkpt>
      <trkpt lat="42.58464" lon="2.10605">
        <ele>1540.0620117188</ele>
        <time>2011-09-11T10:24:40Z</time>
      </trkpt>
      <trkpt lat="42.58459" lon="2.10604">
        <ele>1539.998046875</ele>
        <time>2011-09-11T10:24:41Z</time>
      </trkpt>
      <trkpt lat="42.5844" lon="2.10602">
        <ele>1539.8859863281</ele>
        <time>2011-09-11T10:24:45Z</time>
      </trkpt>
      <trkpt lat="42.58427" lon="2.10602">
        <ele>1539.8990478516</ele>
        <time>2011-09-11T10:24:48Z</time>
      </trkpt>
      <trkpt lat="42.58408" lon="2.10598">
        <ele>1540.4150390625</ele>
        <time>2011-09-11T10:24:52Z</time>
      </trkpt>
      <trkpt lat="42.58394" lon="2.10596">
        <ele>1540.7199707031</ele>
        <time>2011-09-11T10:24:55Z</time>
      </trkpt>
      <trkpt lat="42.58375" lon="2.10598">
        <ele>1540.5629882812</ele>
        <time>2011-09-11T10:24:59Z</time>
      </trkpt>
      <trkpt lat="42.58358" lon="2.10596">
        <ele>1539.9620361328</ele>
        <time>2011-09-11T10:25:03Z</time>
      </trkpt>
      <trkpt lat="42.58332" lon="2.10597">
        <ele>1539.583984375</ele>
        <time>2011-09-11T10:25:08Z</time>
      </trkpt>
      <trkpt lat="42.5831" lon="2.1059">
        <ele>1540.001953125</ele>
        <time>2011-09-11T10:25:12Z</time>
      </trkpt>
      <trkpt lat="42.58299" lon="2.10584">
        <ele>1539.6850585938</ele>
        <time>2011-09-11T10:25:14Z</time>
      </trkpt>
      <trkpt lat="42.5828" lon="2.10583">
        <ele>1539.6929931641</ele>
        <time>2011-09-11T10:25:18Z</time>
      </trkpt>
      <trkpt lat="42.58254" lon="2.10583">
        <ele>1539.0570068359</ele>
        <time>2011-09-11T10:25:23Z</time>
      </trkpt>
      <trkpt lat="42.58249" lon="2.1058">
        <ele>1538.9870605469</ele>
        <time>2011-09-11T10:25:24Z</time>
      </trkpt>
      <trkpt lat="42.58223" lon="2.1058">
        <ele>1538.6319580078</ele>
        <time>2011-09-11T10:25:29Z</time>
      </trkpt>
      <trkpt lat="42.58215" lon="2.10582">
        <ele>1538.3890380859</ele>
        <time>2011-09-11T10:25:31Z</time>
      </trkpt>
      <trkpt lat="42.58199" lon="2.10575">
        <ele>1538.2390136719</ele>
        <time>2011-09-11T10:25:35Z</time>
      </trkpt>
      <trkpt lat="42.58184" lon="2.10562">
        <ele>1538.3630371094</ele>
        <time>2011-09-11T10:25:39Z</time>
      </trkpt>
      <trkpt lat="42.58165" lon="2.10554">
        <ele>1538.5200195312</ele>
        <time>2011-09-11T10:25:43Z</time>
      </trkpt>
      <trkpt lat="42.58148" lon="2.10542">
        <ele>1537.7619628906</ele>
        <time>2011-09-11T10:25:47Z</time>
      </trkpt>
      <trkpt lat="42.58132" lon="2.10521">
        <ele>1537.6910400391</ele>
        <time>2011-09-11T10:25:52Z</time>
      </trkpt>
      <trkpt lat="42.58126" lon="2.10512">
        <ele>1537.9870605469</ele>
        <time>2011-09-11T10:25:54Z</time>
      </trkpt>
      <trkpt lat="42.58119" lon="2.10501">
        <ele>1538.3399658203</ele>
        <time>2011-09-11T10:25:57Z</time>
      </trkpt>
      <trkpt lat="42.58121" lon="2.10478">
        <ele>1538.6429443359</ele>
        <time>2011-09-11T10:26:01Z</time>
      </trkpt>
      <trkpt lat="42.58117" lon="2.10472">
        <ele>1539.1429443359</ele>
        <time>2011-09-11T10:26:04Z</time>
      </trkpt>
      <trkpt lat="42.58113" lon="2.10478">
        <ele>1539.2080078125</ele>
        <time>2011-09-11T10:26:06Z</time>
      </trkpt>
      <trkpt lat="42.58096" lon="2.10515">
        <ele>1540.2220458984</ele>
        <time>2011-09-11T10:26:13Z</time>
      </trkpt>
      <trkpt lat="42.58079" lon="2.10555">
        <ele>1540.0419921875</ele>
        <time>2011-09-11T10:26:20Z</time>
      </trkpt>
      <trkpt lat="42.58054" lon="2.1061">
        <ele>1539.6519775391</ele>
        <time>2011-09-11T10:26:29Z</time>
      </trkpt>
      <trkpt lat="42.58034" lon="2.10655">
        <ele>1539.0539550781</ele>
        <time>2011-09-11T10:26:36Z</time>
      </trkpt>
      <trkpt lat="42.58014" lon="2.10701">
        <ele>1540.0229492188</ele>
        <time>2011-09-11T10:26:43Z</time>
      </trkpt>
      <trkpt lat="42.58011" lon="2.10707">
        <ele>1539.8540039062</ele>
        <time>2011-09-11T10:26:44Z</time>
      </trkpt>
      <trkpt lat="42.57986" lon="2.10738">
        <ele>1539.5030517578</ele>
        <time>2011-09-11T10:26:50Z</time>
      </trkpt>
      <trkpt lat="42.57953" lon="2.10773">
        <ele>1539.8029785156</ele>
        <time>2011-09-11T10:26:57Z</time>
      </trkpt>
      <trkpt lat="42.57918" lon="2.10811">
        <ele>1539.7769775391</ele>
        <time>2011-09-11T10:27:05Z</time>
      </trkpt>
      <trkpt lat="42.57887" lon="2.10844">
        <ele>1539.5710449219</ele>
        <time>2011-09-11T10:27:12Z</time>
      </trkpt>
      <trkpt lat="42.57837" lon="2.10897">
        <ele>1540.4630126953</ele>
        <time>2011-09-11T10:27:23Z</time>
      </trkpt>
      <trkpt lat="42.5782" lon="2.10914">
        <ele>1539.8549804688</ele>
        <time>2011-09-11T10:27:27Z</time>
      </trkpt>
      <trkpt lat="42.57782" lon="2.10956">
        <ele>1540.0649414062</ele>
        <time>2011-09-11T10:27:36Z</time>
      </trkpt>
      <trkpt lat="42.57738" lon="2.11003">
        <ele>1540.498046875</ele>
        <time>2011-09-11T10:27:46Z</time>
      </trkpt>
      <trkpt lat="42.57704" lon="2.11038">
        <ele>1540.5059814453</ele>
        <time>2011-09-11T10:27:54Z</time>
      </trkpt>
      <trkpt lat="42.5766" lon="2.11087">
        <ele>1539.4219970703</ele>
        <time>2011-09-11T10:28:04Z</time>
      </trkpt>
      <trkpt lat="42.57628" lon="2.11121">
        <ele>1541.3149414062</ele>
        <time>2011-09-11T10:28:11Z</time>
      </trkpt>
      <trkpt lat="42.57577" lon="2.11175">
        <ele>1540.958984375</ele>
        <time>2011-09-11T10:28:22Z</time>
      </trkpt>
      <trkpt lat="42.57534" lon="2.11219">
        <ele>1542.9060058594</ele>
        <time>2011-09-11T10:28:31Z</time>
      </trkpt>
      <trkpt lat="42.57513" lon="2.11243">
        <ele>1545.2559814453</ele>
        <time>2011-09-11T10:28:36Z</time>
      </trkpt>
      <trkpt lat="42.57484" lon="2.11274">
        <ele>1548.6569824219</ele>
        <time>2011-09-11T10:28:43Z</time>
      </trkpt>
      <trkpt lat="42.57486" lon="2.11291">
        <ele>1542.8669433594</ele>
        <time>2011-09-11T10:28:47Z</time>
      </trkpt>
      <trkpt lat="42.57489" lon="2.11293">
        <ele>1539.8439941406</ele>
        <time>2011-09-11T10:28:48Z</time>
      </trkpt>
      <trkpt lat="42.57505" lon="2.11298">
        <ele>1538.0729980469</ele>
        <time>2011-09-11T10:28:52Z</time>
      </trkpt>
      <trkpt lat="42.57507" lon="2.11306">
        <ele>1537.9959716797</ele>
        <time>2011-09-11T10:28:56Z</time>
      </trkpt>
      <trkpt lat="42.57498" lon="2.11304">
        <ele>1539.1080322266</ele>
        <time>2011-09-11T10:28:59Z</time>
      </trkpt>
      <trkpt lat="42.57472" lon="2.11296">
        <ele>1541.4859619141</ele>
        <time>2011-09-11T10:29:06Z</time>
      </trkpt>
      <trkpt lat="42.57436" lon="2.11296">
        <ele>1542.5030517578</ele>
        <time>2011-09-11T10:29:15Z</time>
      </trkpt>
      <trkpt lat="42.57408" lon="2.11299">
        <ele>1543.5920410156</ele>
        <time>2011-09-11T10:29:22Z</time>
      </trkpt>
      <trkpt lat="42.57398" lon="2.11305">
        <ele>1543.5949707031</ele>
        <time>2011-09-11T10:29:25Z</time>
      </trkpt>
      <trkpt lat="42.57401" lon="2.1132">
        <ele>1544.1109619141</ele>
        <time>2011-09-11T10:29:29Z</time>
      </trkpt>
      <trkpt lat="42.57408" lon="2.11323">
        <ele>1544.1800537109</ele>
        <time>2011-09-11T10:29:31Z</time>
      </trkpt>
      <trkpt lat="42.57435" lon="2.11325">
        <ele>1545.791015625</ele>
        <time>2011-09-11T10:29:39Z</time>
      </trkpt>
      <trkpt lat="42.57454" lon="2.11335">
        <ele>1548.1080322266</ele>
        <time>2011-09-11T10:29:46Z</time>
      </trkpt>
      <trkpt lat="42.57471" lon="2.11355">
        <ele>1549.9370117188</ele>
        <time>2011-09-11T10:29:54Z</time>
      </trkpt>
      <trkpt lat="42.57481" lon="2.11378">
        <ele>1551.4379882812</ele>
        <time>2011-09-11T10:30:01Z</time>
      </trkpt>
      <trkpt lat="42.5749" lon="2.11404">
        <ele>1552.8809814453</ele>
        <time>2011-09-11T10:30:08Z</time>
      </trkpt>
      <trkpt lat="42.575" lon="2.11427">
        <ele>1554.3079833984</ele>
        <time>2011-09-11T10:30:15Z</time>
      </trkpt>
      <trkpt lat="42.57511" lon="2.11445">
        <ele>1555.4520263672</ele>
        <time>2011-09-11T10:30:21Z</time>
      </trkpt>
      <trkpt lat="42.57514" lon="2.11453">
        <ele>1555.916015625</ele>
        <time>2011-09-11T10:30:24Z</time>
      </trkpt>
      <trkpt lat="42.57507" lon="2.11456">
        <ele>1557.4300537109</ele>
        <time>2011-09-11T10:30:29Z</time>
      </trkpt>
      <trkpt lat="42.57492" lon="2.11446">
        <ele>1559.1600341797</ele>
        <time>2011-09-11T10:30:37Z</time>
      </trkpt>
      <trkpt lat="42.5747" lon="2.11438">
        <ele>1561.1750488281</ele>
        <time>2011-09-11T10:30:47Z</time>
      </trkpt>
      <trkpt lat="42.5746" lon="2.11434">
        <ele>1562.1180419922</ele>
        <time>2011-09-11T10:30:52Z</time>
      </trkpt>
      <trkpt lat="42.57447" lon="2.11434">
        <ele>1563.3800048828</ele>
        <time>2011-09-11T10:30:59Z</time>
      </trkpt>
      <trkpt lat="42.57439" lon="2.11436">
        <ele>1564.3830566406</ele>
        <time>2011-09-11T10:31:05Z</time>
      </trkpt>
      <trkpt lat="42.57429" lon="2.11442">
        <ele>1565.5400390625</ele>
        <time>2011-09-11T10:31:11Z</time>
      </trkpt>
      <trkpt lat="42.57415" lon="2.11445">
        <ele>1566.16796875</ele>
        <time>2011-09-11T10:31:17Z</time>
      </trkpt>
      <trkpt lat="42.57393" lon="2.11452">
        <ele>1567.3210449219</ele>
        <time>2011-09-11T10:31:26Z</time>
      </trkpt>
      <trkpt lat="42.57384" lon="2.11456">
        <ele>1567.5999755859</ele>
        <time>2011-09-11T10:31:30Z</time>
      </trkpt>
      <trkpt lat="42.57368" lon="2.1146">
        <ele>1568.1839599609</ele>
        <time>2011-09-11T10:31:36Z</time>
      </trkpt>
      <trkpt lat="42.57355" lon="2.11456">
        <ele>1569.1199951172</ele>
        <time>2011-09-11T10:31:41Z</time>
      </trkpt>
      <trkpt lat="42.57337" lon="2.11446">
        <ele>1570.1350097656</ele>
        <time>2011-09-11T10:31:48Z</time>
      </trkpt>
      <trkpt lat="42.57324" lon="2.1144">
        <ele>1571.0059814453</ele>
        <time>2011-09-11T10:31:53Z</time>
      </trkpt>
      <trkpt lat="42.57309" lon="2.11432">
        <ele>1572.2430419922</ele>
        <time>2011-09-11T10:31:59Z</time>
      </trkpt>
      <trkpt lat="42.57291" lon="2.1142">
        <ele>1572.9420166016</ele>
        <time>2011-09-11T10:32:06Z</time>
      </trkpt>
      <trkpt lat="42.57275" lon="2.11415">
        <ele>1573.0610351562</ele>
        <time>2011-09-11T10:32:12Z</time>
      </trkpt>
      <trkpt lat="42.57262" lon="2.11409">
        <ele>1573.4449462891</ele>
        <time>2011-09-11T10:32:17Z</time>
      </trkpt>
      <trkpt lat="42.57246" lon="2.11404">
        <ele>1573.6409912109</ele>
        <time>2011-09-11T10:32:23Z</time>
      </trkpt>
      <trkpt lat="42.57241" lon="2.11403">
        <ele>1573.5310058594</ele>
        <time>2011-09-11T10:32:25Z</time>
      </trkpt>
      <trkpt lat="42.57228" lon="2.11398">
        <ele>1573.4820556641</ele>
        <time>2011-09-11T10:32:29Z</time>
      </trkpt>
      <trkpt lat="42.57201" lon="2.11397">
        <ele>1573.8260498047</ele>
        <time>2011-09-11T10:32:35Z</time>
      </trkpt>
      <trkpt lat="42.57188" lon="2.11395">
        <ele>1574.1369628906</ele>
        <time>2011-09-11T10:32:38Z</time>
      </trkpt>
      <trkpt lat="42.57165" lon="2.11382">
        <ele>1573.8050537109</ele>
        <time>2011-09-11T10:32:43Z</time>
      </trkpt>
      <trkpt lat="42.57141" lon="2.11367">
        <ele>1574.0989990234</ele>
        <time>2011-09-11T10:32:48Z</time>
      </trkpt>
      <trkpt lat="42.57127" lon="2.1136">
        <ele>1573.7270507812</ele>
        <time>2011-09-11T10:32:51Z</time>
      </trkpt>
      <trkpt lat="42.57092" lon="2.11321">
        <ele>1572.54296875</ele>
        <time>2011-09-11T10:32:59Z</time>
      </trkpt>
      <trkpt lat="42.57084" lon="2.11312">
        <ele>1572.5970458984</ele>
        <time>2011-09-11T10:33:01Z</time>
      </trkpt>
      <trkpt lat="42.57048" lon="2.11291">
        <ele>1573.0629882812</ele>
        <time>2011-09-11T10:33:08Z</time>
      </trkpt>
      <trkpt lat="42.57019" lon="2.1128">
        <ele>1574.0500488281</ele>
        <time>2011-09-11T10:33:15Z</time>
      </trkpt>
      <trkpt lat="42.57008" lon="2.11275">
        <ele>1574.6359863281</ele>
        <time>2011-09-11T10:33:18Z</time>
      </trkpt>
      <trkpt lat="42.56988" lon="2.1127">
        <ele>1575.373046875</ele>
        <time>2011-09-11T10:33:23Z</time>
      </trkpt>
      <trkpt lat="42.56953" lon="2.11266">
        <ele>1576.1180419922</ele>
        <time>2011-09-11T10:33:31Z</time>
      </trkpt>
      <trkpt lat="42.56933" lon="2.11264">
        <ele>1576.9499511719</ele>
        <time>2011-09-11T10:33:36Z</time>
      </trkpt>
      <trkpt lat="42.56908" lon="2.11263">
        <ele>1577.0660400391</ele>
        <time>2011-09-11T10:33:42Z</time>
      </trkpt>
      <trkpt lat="42.5688" lon="2.11263">
        <ele>1578.5660400391</ele>
        <time>2011-09-11T10:33:50Z</time>
      </trkpt>
      <trkpt lat="42.56855" lon="2.11266">
        <ele>1580.1109619141</ele>
        <time>2011-09-11T10:33:58Z</time>
      </trkpt>
      <trkpt lat="42.56836" lon="2.11272">
        <ele>1581.6209716797</ele>
        <time>2011-09-11T10:34:06Z</time>
      </trkpt>
      <trkpt lat="42.56824" lon="2.11269">
        <ele>1581.5290527344</ele>
        <time>2011-09-11T10:34:11Z</time>
      </trkpt>
      <trkpt lat="42.56805" lon="2.11259">
        <ele>1581.8289794922</ele>
        <time>2011-09-11T10:34:18Z</time>
      </trkpt>
      <trkpt lat="42.5679" lon="2.11246">
        <ele>1582.6240234375</ele>
        <time>2011-09-11T10:34:23Z</time>
      </trkpt>
      <trkpt lat="42.56779" lon="2.11242">
        <ele>1583.0369873047</ele>
        <time>2011-09-11T10:34:27Z</time>
      </trkpt>
      <trkpt lat="42.56767" lon="2.11238">
        <ele>1583.126953125</ele>
        <time>2011-09-11T10:34:33Z</time>
      </trkpt>
      <trkpt lat="42.56756" lon="2.11231">
        <ele>1584.0150146484</ele>
        <time>2011-09-11T10:34:39Z</time>
      </trkpt>
      <trkpt lat="42.56745" lon="2.11225">
        <ele>1585.8840332031</ele>
        <time>2011-09-11T10:34:45Z</time>
      </trkpt>
      <trkpt lat="42.56732" lon="2.11222">
        <ele>1587.6469726562</ele>
        <time>2011-09-11T10:34:52Z</time>
      </trkpt>
      <trkpt lat="42.56721" lon="2.1122">
        <ele>1588.95703125</ele>
        <time>2011-09-11T10:34:58Z</time>
      </trkpt>
      <trkpt lat="42.56706" lon="2.1122">
        <ele>1590.9510498047</ele>
        <time>2011-09-11T10:35:06Z</time>
      </trkpt>
      <trkpt lat="42.56693" lon="2.1122">
        <ele>1593.0589599609</ele>
        <time>2011-09-11T10:35:14Z</time>
      </trkpt>
      <trkpt lat="42.56683" lon="2.11219">
        <ele>1594.1750488281</ele>
        <time>2011-09-11T10:35:20Z</time>
      </trkpt>
      <trkpt lat="42.56672" lon="2.11218">
        <ele>1595.3129882812</ele>
        <time>2011-09-11T10:35:27Z</time>
      </trkpt>
      <trkpt lat="42.56654" lon="2.11211">
        <ele>1596.4449462891</ele>
        <time>2011-09-11T10:35:37Z</time>
      </trkpt>
      <trkpt lat="42.56639" lon="2.11203">
        <ele>1597.3959960938</ele>
        <time>2011-09-11T10:35:45Z</time>
      </trkpt>
      <trkpt lat="42.56624" lon="2.11197">
        <ele>1599.6290283203</ele>
        <time>2011-09-11T10:35:53Z</time>
      </trkpt>
      <trkpt lat="42.56612" lon="2.11194">
        <ele>1600.5340576172</ele>
        <time>2011-09-11T10:36:01Z</time>
      </trkpt>
      <trkpt lat="42.56602" lon="2.11191">
        <ele>1601.4010009766</ele>
        <time>2011-09-11T10:36:07Z</time>
      </trkpt>
      <trkpt lat="42.56586" lon="2.11189">
        <ele>1602.9069824219</ele>
        <time>2011-09-11T10:36:14Z</time>
      </trkpt>
      <trkpt lat="42.5657" lon="2.11185">
        <ele>1604.8409423828</ele>
        <time>2011-09-11T10:36:22Z</time>
      </trkpt>
      <trkpt lat="42.56557" lon="2.11173">
        <ele>1605.7049560547</ele>
        <time>2011-09-11T10:36:28Z</time>
      </trkpt>
      <trkpt lat="42.56541" lon="2.11163">
        <ele>1604.9410400391</ele>
        <time>2011-09-11T10:36:33Z</time>
      </trkpt>
      <trkpt lat="42.56535" lon="2.1116">
        <ele>1604.91796875</ele>
        <time>2011-09-11T10:36:36Z</time>
      </trkpt>
      <trkpt lat="42.56523" lon="2.11158">
        <ele>1605.6169433594</ele>
        <time>2011-09-11T10:36:42Z</time>
      </trkpt>
      <trkpt lat="42.56512" lon="2.11157">
        <ele>1607.0310058594</ele>
        <time>2011-09-11T10:36:48Z</time>
      </trkpt>
      <trkpt lat="42.56507" lon="2.11157">
        <ele>1607.3430175781</ele>
        <time>2011-09-11T10:36:51Z</time>
      </trkpt>
      <trkpt lat="42.56498" lon="2.11154">
        <ele>1607.6529541016</ele>
        <time>2011-09-11T10:36:57Z</time>
      </trkpt>
      <trkpt lat="42.56495" lon="2.11154">
        <ele>1607.9010009766</ele>
        <time>2011-09-11T10:36:59Z</time>
      </trkpt>
      <trkpt lat="42.56479" lon="2.11151">
        <ele>1609.4949951172</ele>
        <time>2011-09-11T10:37:07Z</time>
      </trkpt>
      <trkpt lat="42.56467" lon="2.11149">
        <ele>1610.6960449219</ele>
        <time>2011-09-11T10:37:13Z</time>
      </trkpt>
      <trkpt lat="42.56453" lon="2.11145">
        <ele>1611.7120361328</ele>
        <time>2011-09-11T10:37:20Z</time>
      </trkpt>
      <trkpt lat="42.56437" lon="2.1114">
        <ele>1613.2960205078</ele>
        <time>2011-09-11T10:37:28Z</time>
      </trkpt>
      <trkpt lat="42.56424" lon="2.11139">
        <ele>1614.3439941406</ele>
        <time>2011-09-11T10:37:35Z</time>
      </trkpt>
      <trkpt lat="42.56413" lon="2.11137">
        <ele>1615.4010009766</ele>
        <time>2011-09-11T10:37:41Z</time>
      </trkpt>
      <trkpt lat="42.56397" lon="2.11132">
        <ele>1617.3499755859</ele>
        <time>2011-09-11T10:37:50Z</time>
      </trkpt>
      <trkpt lat="42.56385" lon="2.11131">
        <ele>1618.5229492188</ele>
        <time>2011-09-11T10:37:57Z</time>
      </trkpt>
      <trkpt lat="42.56374" lon="2.11139">
        <ele>1620.3759765625</ele>
        <time>2011-09-11T10:38:04Z</time>
      </trkpt>
      <trkpt lat="42.56363" lon="2.11139">
        <ele>1622.3699951172</ele>
        <time>2011-09-11T10:38:10Z</time>
      </trkpt>
      <trkpt lat="42.56348" lon="2.11137">
        <ele>1623.9489746094</ele>
        <time>2011-09-11T10:38:18Z</time>
      </trkpt>
      <trkpt lat="42.56333" lon="2.11135">
        <ele>1624.5770263672</ele>
        <time>2011-09-11T10:38:26Z</time>
      </trkpt>
      <trkpt lat="42.56315" lon="2.11131">
        <ele>1625.9809570312</ele>
        <time>2011-09-11T10:38:35Z</time>
      </trkpt>
      <trkpt lat="42.56296" lon="2.11129">
        <ele>1626.9539794922</ele>
        <time>2011-09-11T10:38:44Z</time>
      </trkpt>
      <trkpt lat="42.56277" lon="2.11124">
        <ele>1627.1199951172</ele>
        <time>2011-09-11T10:38:52Z</time>
      </trkpt>
      <trkpt lat="42.56256" lon="2.11122">
        <ele>1627.7080078125</ele>
        <time>2011-09-11T10:39:00Z</time>
      </trkpt>
      <trkpt lat="42.56242" lon="2.11117">
        <ele>1629.0229492188</ele>
        <time>2011-09-11T10:39:06Z</time>
      </trkpt>
      <trkpt lat="42.56224" lon="2.11111">
        <ele>1631.9439697266</ele>
        <time>2011-09-11T10:39:14Z</time>
      </trkpt>
      <trkpt lat="42.56208" lon="2.11111">
        <ele>1633.0190429688</ele>
        <time>2011-09-11T10:39:21Z</time>
      </trkpt>
      <trkpt lat="42.56195" lon="2.11106">
        <ele>1633.8299560547</ele>
        <time>2011-09-11T10:39:27Z</time>
      </trkpt>
      <trkpt lat="42.56179" lon="2.111">
        <ele>1634.4410400391</ele>
        <time>2011-09-11T10:39:34Z</time>
      </trkpt>
      <trkpt lat="42.56161" lon="2.11095">
        <ele>1635.8559570312</ele>
        <time>2011-09-11T10:39:42Z</time>
      </trkpt>
      <trkpt lat="42.56147" lon="2.11092">
        <ele>1636.7900390625</ele>
        <time>2011-09-11T10:39:48Z</time>
      </trkpt>
      <trkpt lat="42.5613" lon="2.11092">
        <ele>1636.0880126953</ele>
        <time>2011-09-11T10:39:53Z</time>
      </trkpt>
      <trkpt lat="42.56114" lon="2.11072">
        <ele>1634.4830322266</ele>
        <time>2011-09-11T10:39:57Z</time>
      </trkpt>
      <trkpt lat="42.56104" lon="2.11059">
        <ele>1632.9219970703</ele>
        <time>2011-09-11T10:39:59Z</time>
      </trkpt>
      <trkpt lat="42.56094" lon="2.11054">
        <ele>1632.208984375</ele>
        <time>2011-09-11T10:40:01Z</time>
      </trkpt>
      <trkpt lat="42.56083" lon="2.11053">
        <ele>1633.0620117188</ele>
        <time>2011-09-11T10:40:05Z</time>
      </trkpt>
      <trkpt lat="42.56064" lon="2.11046">
        <ele>1634.6629638672</ele>
        <time>2011-09-11T10:40:13Z</time>
      </trkpt>
      <trkpt lat="42.56045" lon="2.11038">
        <ele>1636.1999511719</ele>
        <time>2011-09-11T10:40:21Z</time>
      </trkpt>
      <trkpt lat="42.56028" lon="2.11033">
        <ele>1637.4300537109</ele>
        <time>2011-09-11T10:40:28Z</time>
      </trkpt>
      <trkpt lat="42.56012" lon="2.11028">
        <ele>1638.9079589844</ele>
        <time>2011-09-11T10:40:35Z</time>
      </trkpt>
      <trkpt lat="42.55987" lon="2.11018">
        <ele>1640.8199462891</ele>
        <time>2011-09-11T10:40:46Z</time>
      </trkpt>
      <trkpt lat="42.55968" lon="2.11009">
        <ele>1642.7349853516</ele>
        <time>2011-09-11T10:40:55Z</time>
      </trkpt>
      <trkpt lat="42.55955" lon="2.11003">
        <ele>1644.3489990234</ele>
        <time>2011-09-11T10:41:01Z</time>
      </trkpt>
      <trkpt lat="42.55941" lon="2.10996">
        <ele>1646.0720214844</ele>
        <time>2011-09-11T10:41:08Z</time>
      </trkpt>
      <trkpt lat="42.5593" lon="2.10992">
        <ele>1647.5489501953</ele>
        <time>2011-09-11T10:41:14Z</time>
      </trkpt>
      <trkpt lat="42.55916" lon="2.10987">
        <ele>1649.1219482422</ele>
        <time>2011-09-11T10:41:22Z</time>
      </trkpt>
      <trkpt lat="42.55901" lon="2.1098">
        <ele>1650.8859863281</ele>
        <time>2011-09-11T10:41:31Z</time>
      </trkpt>
      <trkpt lat="42.55889" lon="2.10975">
        <ele>1652.6910400391</ele>
        <time>2011-09-11T10:41:38Z</time>
      </trkpt>
      <trkpt lat="42.55879" lon="2.1097">
        <ele>1654.3680419922</ele>
        <time>2011-09-11T10:41:45Z</time>
      </trkpt>
      <trkpt lat="42.55867" lon="2.10967">
        <ele>1655.6479492188</ele>
        <time>2011-09-11T10:41:53Z</time>
      </trkpt>
      <trkpt lat="42.55855" lon="2.10963">
        <ele>1657.1379394531</ele>
        <time>2011-09-11T10:42:01Z</time>
      </trkpt>
      <trkpt lat="42.55845" lon="2.10957">
        <ele>1658.8659667969</ele>
        <time>2011-09-11T10:42:08Z</time>
      </trkpt>
      <trkpt lat="42.55835" lon="2.10952">
        <ele>1660.0989990234</ele>
        <time>2011-09-11T10:42:15Z</time>
      </trkpt>
      <trkpt lat="42.55823" lon="2.10949">
        <ele>1661.9339599609</ele>
        <time>2011-09-11T10:42:23Z</time>
      </trkpt>
      <trkpt lat="42.55812" lon="2.10946">
        <ele>1663.0679931641</ele>
        <time>2011-09-11T10:42:30Z</time>
      </trkpt>
      <trkpt lat="42.558" lon="2.10944">
        <ele>1664.9329833984</ele>
        <time>2011-09-11T10:42:38Z</time>
      </trkpt>
      <trkpt lat="42.55788" lon="2.10946">
        <ele>1667.1140136719</ele>
        <time>2011-09-11T10:42:47Z</time>
      </trkpt>
      <trkpt lat="42.55783" lon="2.10946">
        <ele>1668.1750488281</ele>
        <time>2011-09-11T10:42:51Z</time>
      </trkpt>
      <trkpt lat="42.55772" lon="2.10957">
        <ele>1669.5379638672</ele>
        <time>2011-09-11T10:43:00Z</time>
      </trkpt>
      <trkpt lat="42.55768" lon="2.10973">
        <ele>1670.6510009766</ele>
        <time>2011-09-11T10:43:07Z</time>
      </trkpt>
      <trkpt lat="42.55774" lon="2.10985">
        <ele>1671.0539550781</ele>
        <time>2011-09-11T10:43:13Z</time>
      </trkpt>
      <trkpt lat="42.55785" lon="2.11002">
        <ele>1671.4489746094</ele>
        <time>2011-09-11T10:43:21Z</time>
      </trkpt>
      <trkpt lat="42.5579" lon="2.11022">
        <ele>1671.4399414062</ele>
        <time>2011-09-11T10:43:27Z</time>
      </trkpt>
      <trkpt lat="42.55787" lon="2.1104">
        <ele>1672.7640380859</ele>
        <time>2011-09-11T10:43:34Z</time>
      </trkpt>
      <trkpt lat="42.55777" lon="2.11056">
        <ele>1675.2189941406</ele>
        <time>2011-09-11T10:43:42Z</time>
      </trkpt>
      <trkpt lat="42.55764" lon="2.11074">
        <ele>1678.1889648438</ele>
        <time>2011-09-11T10:43:52Z</time>
      </trkpt>
      <trkpt lat="42.55755" lon="2.11087">
        <ele>1680.7550048828</ele>
        <time>2011-09-11T10:44:00Z</time>
      </trkpt>
      <trkpt lat="42.55745" lon="2.11104">
        <ele>1682.4930419922</ele>
        <time>2011-09-11T10:44:10Z</time>
      </trkpt>
      <trkpt lat="42.55743" lon="2.11105">
        <ele>1682.8199462891</ele>
        <time>2011-09-11T10:44:11Z</time>
      </trkpt>
      <trkpt lat="42.55737" lon="2.11105">
        <ele>1683.3050537109</ele>
        <time>2011-09-11T10:44:15Z</time>
      </trkpt>
      <trkpt lat="42.55721" lon="2.111">
        <ele>1683.5450439453</ele>
        <time>2011-09-11T10:44:22Z</time>
      </trkpt>
      <trkpt lat="42.55705" lon="2.11088">
        <ele>1683.6159667969</ele>
        <time>2011-09-11T10:44:29Z</time>
      </trkpt>
      <trkpt lat="42.55691" lon="2.11086">
        <ele>1683.6929931641</ele>
        <time>2011-09-11T10:44:35Z</time>
      </trkpt>
      <trkpt lat="42.55681" lon="2.11092">
        <ele>1684.5279541016</ele>
        <time>2011-09-11T10:44:40Z</time>
      </trkpt>
      <trkpt lat="42.55669" lon="2.11098">
        <ele>1685.4139404297</ele>
        <time>2011-09-11T10:44:45Z</time>
      </trkpt>
      <trkpt lat="42.55656" lon="2.11101">
        <ele>1685.1469726562</ele>
        <time>2011-09-11T10:44:50Z</time>
      </trkpt>
      <trkpt lat="42.55643" lon="2.11101">
        <ele>1685.9189453125</ele>
        <time>2011-09-11T10:44:56Z</time>
      </trkpt>
      <trkpt lat="42.55627" lon="2.11105">
        <ele>1687.5510253906</ele>
        <time>2011-09-11T10:45:03Z</time>
      </trkpt>
      <trkpt lat="42.55613" lon="2.11109">
        <ele>1688.0889892578</ele>
        <time>2011-09-11T10:45:09Z</time>
      </trkpt>
      <trkpt lat="42.55597" lon="2.11109">
        <ele>1689.1529541016</ele>
        <time>2011-09-11T10:45:16Z</time>
      </trkpt>
      <trkpt lat="42.5558" lon="2.11116">
        <ele>1689.1639404297</ele>
        <time>2011-09-11T10:45:23Z</time>
      </trkpt>
      <trkpt lat="42.55553" lon="2.1112">
        <ele>1690.9870605469</ele>
        <time>2011-09-11T10:45:33Z</time>
      </trkpt>
      <trkpt lat="42.55535" lon="2.11124">
        <ele>1691.6510009766</ele>
        <time>2011-09-11T10:45:40Z</time>
      </trkpt>
      <trkpt lat="42.5552" lon="2.11132">
        <ele>1692.5269775391</ele>
        <time>2011-09-11T10:45:46Z</time>
      </trkpt>
      <trkpt lat="42.55505" lon="2.11139">
        <ele>1692.9139404297</ele>
        <time>2011-09-11T10:45:52Z</time>
      </trkpt>
      <trkpt lat="42.55486" lon="2.11151">
        <ele>1694.0159912109</ele>
        <time>2011-09-11T10:45:59Z</time>
      </trkpt>
      <trkpt lat="42.55471" lon="2.11162">
        <ele>1692.791015625</ele>
        <time>2011-09-11T10:46:04Z</time>
      </trkpt>
      <trkpt lat="42.55455" lon="2.11175">
        <ele>1692.8189697266</ele>
        <time>2011-09-11T10:46:10Z</time>
      </trkpt>
      <trkpt lat="42.55428" lon="2.11197">
        <ele>1694.0379638672</ele>
        <time>2011-09-11T10:46:19Z</time>
      </trkpt>
      <trkpt lat="42.55412" lon="2.11206">
        <ele>1694.8389892578</ele>
        <time>2011-09-11T10:46:24Z</time>
      </trkpt>
      <trkpt lat="42.55399" lon="2.11218">
        <ele>1694.8690185547</ele>
        <time>2011-09-11T10:46:29Z</time>
      </trkpt>
      <trkpt lat="42.55381" lon="2.11232">
        <ele>1695.2569580078</ele>
        <time>2011-09-11T10:46:35Z</time>
      </trkpt>
      <trkpt lat="42.55368" lon="2.11243">
        <ele>1696.0469970703</ele>
        <time>2011-09-11T10:46:40Z</time>
      </trkpt>
      <trkpt lat="42.5536" lon="2.11257">
        <ele>1696.9969482422</ele>
        <time>2011-09-11T10:46:45Z</time>
      </trkpt>
      <trkpt lat="42.55355" lon="2.11271">
        <ele>1698.3330078125</ele>
        <time>2011-09-11T10:46:50Z</time>
      </trkpt>
      <trkpt lat="42.55343" lon="2.11292">
        <ele>1699.2399902344</ele>
        <time>2011-09-11T10:46:56Z</time>
      </trkpt>
      <trkpt lat="42.5532" lon="2.11317">
        <ele>1699.6330566406</ele>
        <time>2011-09-11T10:47:04Z</time>
      </trkpt>
      <trkpt lat="42.55305" lon="2.11332">
        <ele>1700.333984375</ele>
        <time>2011-09-11T10:47:09Z</time>
      </trkpt>
      <trkpt lat="42.55286" lon="2.11343">
        <ele>1700.8690185547</ele>
        <time>2011-09-11T10:47:14Z</time>
      </trkpt>
      <trkpt lat="42.55278" lon="2.11343">
        <ele>1701.1109619141</ele>
        <time>2011-09-11T10:47:16Z</time>
      </trkpt>
      <trkpt lat="42.55265" lon="2.11345">
        <ele>1701.0240478516</ele>
        <time>2011-09-11T10:47:19Z</time>
      </trkpt>
      <trkpt lat="42.55245" lon="2.11346">
        <ele>1700.4040527344</ele>
        <time>2011-09-11T10:47:24Z</time>
      </trkpt>
      <trkpt lat="42.55236" lon="2.11346">
        <ele>1700.1850585938</ele>
        <time>2011-09-11T10:47:26Z</time>
      </trkpt>
      <trkpt lat="42.55214" lon="2.11345">
        <ele>1699.4379882812</ele>
        <time>2011-09-11T10:47:31Z</time>
      </trkpt>
      <trkpt lat="42.5521" lon="2.11345">
        <ele>1699.3570556641</ele>
        <time>2011-09-11T10:47:32Z</time>
      </trkpt>
      <trkpt lat="42.55186" lon="2.11345">
        <ele>1699.2900390625</ele>
        <time>2011-09-11T10:47:37Z</time>
      </trkpt>
      <trkpt lat="42.55168" lon="2.11344">
        <ele>1699.0620117188</ele>
        <time>2011-09-11T10:47:41Z</time>
      </trkpt>
      <trkpt lat="42.55128" lon="2.1135">
        <ele>1698.3570556641</ele>
        <time>2011-09-11T10:47:49Z</time>
      </trkpt>
      <trkpt lat="42.55095" lon="2.11356">
        <ele>1698.5959472656</ele>
        <time>2011-09-11T10:47:55Z</time>
      </trkpt>
      <trkpt lat="42.55056" lon="2.11363">
        <ele>1699.7010498047</ele>
        <time>2011-09-11T10:48:02Z</time>
      </trkpt>
      <trkpt lat="42.55019" lon="2.1137">
        <ele>1700.3360595703</ele>
        <time>2011-09-11T10:48:09Z</time>
      </trkpt>
      <trkpt lat="42.54993" lon="2.11376">
        <ele>1700.2209472656</ele>
        <time>2011-09-11T10:48:14Z</time>
      </trkpt>
      <trkpt lat="42.54969" lon="2.1138">
        <ele>1700.3540039062</ele>
        <time>2011-09-11T10:48:19Z</time>
      </trkpt>
      <trkpt lat="42.5496" lon="2.11384">
        <ele>1700.0190429688</ele>
        <time>2011-09-11T10:48:21Z</time>
      </trkpt>
      <trkpt lat="42.54941" lon="2.11387">
        <ele>1699.7449951172</ele>
        <time>2011-09-11T10:48:25Z</time>
      </trkpt>
      <trkpt lat="42.54908" lon="2.11393">
        <ele>1700.6479492188</ele>
        <time>2011-09-11T10:48:33Z</time>
      </trkpt>
      <trkpt lat="42.54886" lon="2.11408">
        <ele>1701.9189453125</ele>
        <time>2011-09-11T10:48:39Z</time>
      </trkpt>
      <trkpt lat="42.54873" lon="2.11419">
        <ele>1703.2440185547</ele>
        <time>2011-09-11T10:48:44Z</time>
      </trkpt>
      <trkpt lat="42.54861" lon="2.11431">
        <ele>1703.9429931641</ele>
        <time>2011-09-11T10:48:49Z</time>
      </trkpt>
      <trkpt lat="42.54853" lon="2.1144">
        <ele>1704.1290283203</ele>
        <time>2011-09-11T10:48:52Z</time>
      </trkpt>
      <trkpt lat="42.54836" lon="2.11443">
        <ele>1703.7719726562</ele>
        <time>2011-09-11T10:48:56Z</time>
      </trkpt>
      <trkpt lat="42.54824" lon="2.11429">
        <ele>1703.708984375</ele>
        <time>2011-09-11T10:48:59Z</time>
      </trkpt>
      <trkpt lat="42.54807" lon="2.11416">
        <ele>1701.6379394531</ele>
        <time>2011-09-11T10:49:03Z</time>
      </trkpt>
      <trkpt lat="42.54802" lon="2.11416">
        <ele>1701.4580078125</ele>
        <time>2011-09-11T10:49:04Z</time>
      </trkpt>
      <trkpt lat="42.54792" lon="2.11405">
        <ele>1700.7220458984</ele>
        <time>2011-09-11T10:49:07Z</time>
      </trkpt>
      <trkpt lat="42.54791" lon="2.11396">
        <ele>1699.1729736328</ele>
        <time>2011-09-11T10:49:14Z</time>
      </trkpt>
    </trkseg>
  </trk>
</gpx>